<?xml version="1.0" encoding="UTF-8" standalone="no" ?>
<gpx xmlns="http://www.topografix.com/GPX/1/1" xmlns:xsi="http://www.w3.org/2001/XMLSchema-instance" xsi:schemaLocation="http://www.topografix.com/GPX/1/1 http://www.topografix.com/GPX/1/1/gpx.xsd" version="1.1" creator="VisuGPX - https://www.visugpx.com">
  <metadata>
    <name>En tandem de Genève à Grenoble, jour 1</name>
    <desc><![CDATA[2 jours en tandem entre Genève et Grenoble]]></desc>
  </metadata>
  <trk>
    <name><![CDATA[2016-05-05 08:35:31 Jour]]></name>
    <trkseg>
      <trkpt lat="46.26363" lon="6.11131">
        <ele>436.72</ele>
        <time>2016-05-05T06:35:31Z</time>
      </trkpt>
      <trkpt lat="46.26363" lon="6.11132">
        <ele>436.72</ele>
        <time>2016-05-05T06:35:32Z</time>
      </trkpt>
      <trkpt lat="46.26362" lon="6.11131">
        <ele>436.72</ele>
        <time>2016-05-05T06:35:39Z</time>
      </trkpt>
      <trkpt lat="46.26366" lon="6.11136">
        <ele>436.64</ele>
        <time>2016-05-05T06:35:42Z</time>
      </trkpt>
      <trkpt lat="46.26367" lon="6.1114">
        <ele>436.6</ele>
        <time>2016-05-05T06:35:43Z</time>
      </trkpt>
      <trkpt lat="46.26368" lon="6.11144">
        <ele>436.55</ele>
        <time>2016-05-05T06:35:44Z</time>
      </trkpt>
      <trkpt lat="46.26367" lon="6.11148">
        <ele>436.49</ele>
        <time>2016-05-05T06:35:45Z</time>
      </trkpt>
      <trkpt lat="46.26365" lon="6.1115">
        <ele>436.45</ele>
        <time>2016-05-05T06:35:46Z</time>
      </trkpt>
      <trkpt lat="46.26363" lon="6.11153">
        <ele>436.41</ele>
        <time>2016-05-05T06:35:47Z</time>
      </trkpt>
      <trkpt lat="46.26354" lon="6.11203">
        <ele>436.62</ele>
        <time>2016-05-05T06:36:00Z</time>
      </trkpt>
      <trkpt lat="46.26337" lon="6.11241">
        <ele>437</ele>
        <time>2016-05-05T06:36:11Z</time>
      </trkpt>
      <trkpt lat="46.26323" lon="6.11255">
        <ele>437.23</ele>
        <time>2016-05-05T06:36:18Z</time>
      </trkpt>
      <trkpt lat="46.26321" lon="6.11254">
        <ele>437.28</ele>
        <time>2016-05-05T06:36:19Z</time>
      </trkpt>
      <trkpt lat="46.2632" lon="6.11252">
        <ele>437.34</ele>
        <time>2016-05-05T06:36:20Z</time>
      </trkpt>
      <trkpt lat="46.26319" lon="6.11252">
        <ele>437.86</ele>
        <time>2016-05-05T06:36:33Z</time>
      </trkpt>
      <trkpt lat="46.26318" lon="6.11254">
        <ele>437.69</ele>
        <time>2016-05-05T06:37:08Z</time>
      </trkpt>
      <trkpt lat="46.26312" lon="6.11246">
        <ele>437.93</ele>
        <time>2016-05-05T06:37:36Z</time>
      </trkpt>
      <trkpt lat="46.26295" lon="6.11225">
        <ele>437.87</ele>
        <time>2016-05-05T06:37:42Z</time>
      </trkpt>
      <trkpt lat="46.26292" lon="6.1122">
        <ele>437.82</ele>
        <time>2016-05-05T06:37:43Z</time>
      </trkpt>
      <trkpt lat="46.26281" lon="6.11206">
        <ele>437.72</ele>
        <time>2016-05-05T06:37:46Z</time>
      </trkpt>
      <trkpt lat="46.26267" lon="6.11186">
        <ele>437.4</ele>
        <time>2016-05-05T06:37:50Z</time>
      </trkpt>
      <trkpt lat="46.26263" lon="6.1118">
        <ele>437.31</ele>
        <time>2016-05-05T06:37:51Z</time>
      </trkpt>
      <trkpt lat="46.26211" lon="6.11111">
        <ele>436.51</ele>
        <time>2016-05-05T06:38:04Z</time>
      </trkpt>
      <trkpt lat="46.26178" lon="6.1107">
        <ele>436.06</ele>
        <time>2016-05-05T06:38:11Z</time>
      </trkpt>
      <trkpt lat="46.26115" lon="6.10988">
        <ele>432.89</ele>
        <time>2016-05-05T06:38:22Z</time>
      </trkpt>
      <trkpt lat="46.26108" lon="6.1098">
        <ele>432.32</ele>
        <time>2016-05-05T06:38:23Z</time>
      </trkpt>
      <trkpt lat="46.26065" lon="6.10926">
        <ele>429.15</ele>
        <time>2016-05-05T06:38:29Z</time>
      </trkpt>
      <trkpt lat="46.2606" lon="6.10918">
        <ele>428.89</ele>
        <time>2016-05-05T06:38:30Z</time>
      </trkpt>
      <trkpt lat="46.26055" lon="6.10911">
        <ele>428.72</ele>
        <time>2016-05-05T06:38:31Z</time>
      </trkpt>
      <trkpt lat="46.2605" lon="6.10906">
        <ele>428.66</ele>
        <time>2016-05-05T06:38:32Z</time>
      </trkpt>
      <trkpt lat="46.26044" lon="6.10902">
        <ele>428.65</ele>
        <time>2016-05-05T06:38:33Z</time>
      </trkpt>
      <trkpt lat="46.26039" lon="6.10902">
        <ele>428.64</ele>
        <time>2016-05-05T06:38:34Z</time>
      </trkpt>
      <trkpt lat="46.26033" lon="6.10905">
        <ele>428.6</ele>
        <time>2016-05-05T06:38:35Z</time>
      </trkpt>
      <trkpt lat="46.2603" lon="6.10911">
        <ele>428.57</ele>
        <time>2016-05-05T06:38:36Z</time>
      </trkpt>
      <trkpt lat="46.26028" lon="6.10918">
        <ele>428.48</ele>
        <time>2016-05-05T06:38:37Z</time>
      </trkpt>
      <trkpt lat="46.26026" lon="6.10926">
        <ele>428.38</ele>
        <time>2016-05-05T06:38:38Z</time>
      </trkpt>
      <trkpt lat="46.26024" lon="6.10934">
        <ele>428.28</ele>
        <time>2016-05-05T06:38:39Z</time>
      </trkpt>
      <trkpt lat="46.26022" lon="6.10943">
        <ele>428.19</ele>
        <time>2016-05-05T06:38:40Z</time>
      </trkpt>
      <trkpt lat="46.2602" lon="6.10951">
        <ele>428.11</ele>
        <time>2016-05-05T06:38:41Z</time>
      </trkpt>
      <trkpt lat="46.26018" lon="6.1096">
        <ele>428.01</ele>
        <time>2016-05-05T06:38:42Z</time>
      </trkpt>
      <trkpt lat="46.2598" lon="6.11061">
        <ele>426.07</ele>
        <time>2016-05-05T06:38:54Z</time>
      </trkpt>
      <trkpt lat="46.25972" lon="6.11076">
        <ele>425.98</ele>
        <time>2016-05-05T06:38:56Z</time>
      </trkpt>
      <trkpt lat="46.25967" lon="6.11082">
        <ele>425.94</ele>
        <time>2016-05-05T06:38:57Z</time>
      </trkpt>
      <trkpt lat="46.25962" lon="6.11084">
        <ele>425.9</ele>
        <time>2016-05-05T06:38:58Z</time>
      </trkpt>
      <trkpt lat="46.25956" lon="6.11083">
        <ele>425.84</ele>
        <time>2016-05-05T06:38:59Z</time>
      </trkpt>
      <trkpt lat="46.2595" lon="6.11079">
        <ele>425.74</ele>
        <time>2016-05-05T06:39:00Z</time>
      </trkpt>
      <trkpt lat="46.25945" lon="6.11073">
        <ele>425.59</ele>
        <time>2016-05-05T06:39:01Z</time>
      </trkpt>
      <trkpt lat="46.2594" lon="6.11066">
        <ele>425.37</ele>
        <time>2016-05-05T06:39:02Z</time>
      </trkpt>
      <trkpt lat="46.25913" lon="6.1103">
        <ele>424.06</ele>
        <time>2016-05-05T06:39:07Z</time>
      </trkpt>
      <trkpt lat="46.25908" lon="6.11022">
        <ele>423.85</ele>
        <time>2016-05-05T06:39:08Z</time>
      </trkpt>
      <trkpt lat="46.25859" lon="6.10951">
        <ele>423.32</ele>
        <time>2016-05-05T06:39:18Z</time>
      </trkpt>
      <trkpt lat="46.25828" lon="6.10904">
        <ele>424.06</ele>
        <time>2016-05-05T06:39:26Z</time>
      </trkpt>
      <trkpt lat="46.25824" lon="6.109">
        <ele>424.12</ele>
        <time>2016-05-05T06:39:27Z</time>
      </trkpt>
      <trkpt lat="46.25798" lon="6.10859">
        <ele>425.37</ele>
        <time>2016-05-05T06:39:36Z</time>
      </trkpt>
      <trkpt lat="46.25792" lon="6.10853">
        <ele>425.61</ele>
        <time>2016-05-05T06:39:38Z</time>
      </trkpt>
      <trkpt lat="46.25789" lon="6.10852">
        <ele>425.73</ele>
        <time>2016-05-05T06:39:39Z</time>
      </trkpt>
      <trkpt lat="46.25786" lon="6.10854">
        <ele>425.9</ele>
        <time>2016-05-05T06:39:40Z</time>
      </trkpt>
      <trkpt lat="46.25783" lon="6.10856">
        <ele>425.97</ele>
        <time>2016-05-05T06:39:41Z</time>
      </trkpt>
      <trkpt lat="46.25779" lon="6.10858">
        <ele>426.02</ele>
        <time>2016-05-05T06:39:42Z</time>
      </trkpt>
      <trkpt lat="46.25775" lon="6.10857">
        <ele>426.03</ele>
        <time>2016-05-05T06:39:43Z</time>
      </trkpt>
      <trkpt lat="46.25772" lon="6.10855">
        <ele>425.98</ele>
        <time>2016-05-05T06:39:44Z</time>
      </trkpt>
      <trkpt lat="46.2577" lon="6.1085">
        <ele>425.89</ele>
        <time>2016-05-05T06:39:45Z</time>
      </trkpt>
      <trkpt lat="46.25768" lon="6.10845">
        <ele>425.8</ele>
        <time>2016-05-05T06:39:46Z</time>
      </trkpt>
      <trkpt lat="46.2574" lon="6.10796">
        <ele>425.41</ele>
        <time>2016-05-05T06:39:56Z</time>
      </trkpt>
      <trkpt lat="46.25738" lon="6.10791">
        <ele>425.41</ele>
        <time>2016-05-05T06:39:57Z</time>
      </trkpt>
      <trkpt lat="46.25736" lon="6.10785">
        <ele>425.43</ele>
        <time>2016-05-05T06:39:58Z</time>
      </trkpt>
      <trkpt lat="46.25734" lon="6.10779">
        <ele>425.45</ele>
        <time>2016-05-05T06:39:59Z</time>
      </trkpt>
      <trkpt lat="46.25732" lon="6.10773">
        <ele>425.52</ele>
        <time>2016-05-05T06:40:00Z</time>
      </trkpt>
      <trkpt lat="46.25694" lon="6.10672">
        <ele>426.93</ele>
        <time>2016-05-05T06:40:15Z</time>
      </trkpt>
      <trkpt lat="46.2566" lon="6.10577">
        <ele>427.64</ele>
        <time>2016-05-05T06:40:28Z</time>
      </trkpt>
      <trkpt lat="46.25658" lon="6.1057">
        <ele>427.77</ele>
        <time>2016-05-05T06:40:29Z</time>
      </trkpt>
      <trkpt lat="46.25656" lon="6.10563">
        <ele>427.89</ele>
        <time>2016-05-05T06:40:30Z</time>
      </trkpt>
      <trkpt lat="46.25626" lon="6.10471">
        <ele>429.93</ele>
        <time>2016-05-05T06:40:44Z</time>
      </trkpt>
      <trkpt lat="46.25605" lon="6.10413">
        <ele>431.64</ele>
        <time>2016-05-05T06:40:53Z</time>
      </trkpt>
      <trkpt lat="46.25596" lon="6.1038">
        <ele>432.44</ele>
        <time>2016-05-05T06:40:58Z</time>
      </trkpt>
      <trkpt lat="46.25595" lon="6.10373">
        <ele>432.62</ele>
        <time>2016-05-05T06:40:59Z</time>
      </trkpt>
      <trkpt lat="46.25593" lon="6.10367">
        <ele>432.82</ele>
        <time>2016-05-05T06:41:00Z</time>
      </trkpt>
      <trkpt lat="46.25588" lon="6.10354">
        <ele>433.14</ele>
        <time>2016-05-05T06:41:02Z</time>
      </trkpt>
      <trkpt lat="46.25586" lon="6.10347">
        <ele>433.28</ele>
        <time>2016-05-05T06:41:03Z</time>
      </trkpt>
      <trkpt lat="46.25582" lon="6.10334">
        <ele>433.47</ele>
        <time>2016-05-05T06:41:05Z</time>
      </trkpt>
      <trkpt lat="46.2558" lon="6.10326">
        <ele>433.59</ele>
        <time>2016-05-05T06:41:06Z</time>
      </trkpt>
      <trkpt lat="46.25572" lon="6.10286">
        <ele>434.24</ele>
        <time>2016-05-05T06:41:11Z</time>
      </trkpt>
      <trkpt lat="46.25569" lon="6.10278">
        <ele>434.29</ele>
        <time>2016-05-05T06:41:12Z</time>
      </trkpt>
      <trkpt lat="46.25541" lon="6.10157">
        <ele>434.4</ele>
        <time>2016-05-05T06:41:26Z</time>
      </trkpt>
      <trkpt lat="46.25506" lon="6.10014">
        <ele>434.45</ele>
        <time>2016-05-05T06:41:42Z</time>
      </trkpt>
      <trkpt lat="46.25505" lon="6.09998">
        <ele>434.53</ele>
        <time>2016-05-05T06:41:44Z</time>
      </trkpt>
      <trkpt lat="46.25503" lon="6.0999">
        <ele>434.58</ele>
        <time>2016-05-05T06:41:45Z</time>
      </trkpt>
      <trkpt lat="46.255" lon="6.09984">
        <ele>434.71</ele>
        <time>2016-05-05T06:41:46Z</time>
      </trkpt>
      <trkpt lat="46.25496" lon="6.09978">
        <ele>434.77</ele>
        <time>2016-05-05T06:41:47Z</time>
      </trkpt>
      <trkpt lat="46.25491" lon="6.09973">
        <ele>434.81</ele>
        <time>2016-05-05T06:41:48Z</time>
      </trkpt>
      <trkpt lat="46.25486" lon="6.09968">
        <ele>434.85</ele>
        <time>2016-05-05T06:41:49Z</time>
      </trkpt>
      <trkpt lat="46.25481" lon="6.09962">
        <ele>434.84</ele>
        <time>2016-05-05T06:41:50Z</time>
      </trkpt>
      <trkpt lat="46.25476" lon="6.09955">
        <ele>434.78</ele>
        <time>2016-05-05T06:41:51Z</time>
      </trkpt>
      <trkpt lat="46.25421" lon="6.09856">
        <ele>431.47</ele>
        <time>2016-05-05T06:42:02Z</time>
      </trkpt>
      <trkpt lat="46.25386" lon="6.09792">
        <ele>428.43</ele>
        <time>2016-05-05T06:42:08Z</time>
      </trkpt>
      <trkpt lat="46.25351" lon="6.09726">
        <ele>425.64</ele>
        <time>2016-05-05T06:42:15Z</time>
      </trkpt>
      <trkpt lat="46.25346" lon="6.09719">
        <ele>425.47</ele>
        <time>2016-05-05T06:42:16Z</time>
      </trkpt>
      <trkpt lat="46.2534" lon="6.09713">
        <ele>425.33</ele>
        <time>2016-05-05T06:42:17Z</time>
      </trkpt>
      <trkpt lat="46.25334" lon="6.09708">
        <ele>425.17</ele>
        <time>2016-05-05T06:42:18Z</time>
      </trkpt>
      <trkpt lat="46.25328" lon="6.09704">
        <ele>425</ele>
        <time>2016-05-05T06:42:19Z</time>
      </trkpt>
      <trkpt lat="46.25321" lon="6.097">
        <ele>424.85</ele>
        <time>2016-05-05T06:42:20Z</time>
      </trkpt>
      <trkpt lat="46.25315" lon="6.09697">
        <ele>424.71</ele>
        <time>2016-05-05T06:42:21Z</time>
      </trkpt>
      <trkpt lat="46.25308" lon="6.09695">
        <ele>424.56</ele>
        <time>2016-05-05T06:42:22Z</time>
      </trkpt>
      <trkpt lat="46.25302" lon="6.09694">
        <ele>424.45</ele>
        <time>2016-05-05T06:42:23Z</time>
      </trkpt>
      <trkpt lat="46.25296" lon="6.09694">
        <ele>424.35</ele>
        <time>2016-05-05T06:42:24Z</time>
      </trkpt>
      <trkpt lat="46.25291" lon="6.09695">
        <ele>424.28</ele>
        <time>2016-05-05T06:42:25Z</time>
      </trkpt>
      <trkpt lat="46.25274" lon="6.09696">
        <ele>424.13</ele>
        <time>2016-05-05T06:42:28Z</time>
      </trkpt>
      <trkpt lat="46.25268" lon="6.09699">
        <ele>424.07</ele>
        <time>2016-05-05T06:42:29Z</time>
      </trkpt>
      <trkpt lat="46.25263" lon="6.09702">
        <ele>423.95</ele>
        <time>2016-05-05T06:42:30Z</time>
      </trkpt>
      <trkpt lat="46.25257" lon="6.09705">
        <ele>423.8</ele>
        <time>2016-05-05T06:42:31Z</time>
      </trkpt>
      <trkpt lat="46.25252" lon="6.09708">
        <ele>423.6</ele>
        <time>2016-05-05T06:42:32Z</time>
      </trkpt>
      <trkpt lat="46.25248" lon="6.09711">
        <ele>423.35</ele>
        <time>2016-05-05T06:42:33Z</time>
      </trkpt>
      <trkpt lat="46.25243" lon="6.09711">
        <ele>423.08</ele>
        <time>2016-05-05T06:42:34Z</time>
      </trkpt>
      <trkpt lat="46.25239" lon="6.0971">
        <ele>422.85</ele>
        <time>2016-05-05T06:42:35Z</time>
      </trkpt>
      <trkpt lat="46.25236" lon="6.09707">
        <ele>422.46</ele>
        <time>2016-05-05T06:42:36Z</time>
      </trkpt>
      <trkpt lat="46.25235" lon="6.09702">
        <ele>422.33</ele>
        <time>2016-05-05T06:42:37Z</time>
      </trkpt>
      <trkpt lat="46.25233" lon="6.09697">
        <ele>422.27</ele>
        <time>2016-05-05T06:42:38Z</time>
      </trkpt>
      <trkpt lat="46.25232" lon="6.09691">
        <ele>422.26</ele>
        <time>2016-05-05T06:42:39Z</time>
      </trkpt>
      <trkpt lat="46.25229" lon="6.09684">
        <ele>422.26</ele>
        <time>2016-05-05T06:42:40Z</time>
      </trkpt>
      <trkpt lat="46.25227" lon="6.09677">
        <ele>422.26</ele>
        <time>2016-05-05T06:42:41Z</time>
      </trkpt>
      <trkpt lat="46.25225" lon="6.09671">
        <ele>422.26</ele>
        <time>2016-05-05T06:42:42Z</time>
      </trkpt>
      <trkpt lat="46.25222" lon="6.09665">
        <ele>422.25</ele>
        <time>2016-05-05T06:42:43Z</time>
      </trkpt>
      <trkpt lat="46.25219" lon="6.09659">
        <ele>422.25</ele>
        <time>2016-05-05T06:42:44Z</time>
      </trkpt>
      <trkpt lat="46.25215" lon="6.09654">
        <ele>422.27</ele>
        <time>2016-05-05T06:42:45Z</time>
      </trkpt>
      <trkpt lat="46.25213" lon="6.09648">
        <ele>422.28</ele>
        <time>2016-05-05T06:42:46Z</time>
      </trkpt>
      <trkpt lat="46.25196" lon="6.09597">
        <ele>422.69</ele>
        <time>2016-05-05T06:42:53Z</time>
      </trkpt>
      <trkpt lat="46.25196" lon="6.0959">
        <ele>422.76</ele>
        <time>2016-05-05T06:42:54Z</time>
      </trkpt>
      <trkpt lat="46.25197" lon="6.09583">
        <ele>422.82</ele>
        <time>2016-05-05T06:42:55Z</time>
      </trkpt>
      <trkpt lat="46.25199" lon="6.09577">
        <ele>422.9</ele>
        <time>2016-05-05T06:42:56Z</time>
      </trkpt>
      <trkpt lat="46.25202" lon="6.09571">
        <ele>422.96</ele>
        <time>2016-05-05T06:42:57Z</time>
      </trkpt>
      <trkpt lat="46.25204" lon="6.09565">
        <ele>423.01</ele>
        <time>2016-05-05T06:42:58Z</time>
      </trkpt>
      <trkpt lat="46.25206" lon="6.09558">
        <ele>423.05</ele>
        <time>2016-05-05T06:42:59Z</time>
      </trkpt>
      <trkpt lat="46.25206" lon="6.0955">
        <ele>423.09</ele>
        <time>2016-05-05T06:43:00Z</time>
      </trkpt>
      <trkpt lat="46.2521" lon="6.09439">
        <ele>423.93</ele>
        <time>2016-05-05T06:43:15Z</time>
      </trkpt>
      <trkpt lat="46.25213" lon="6.09379">
        <ele>424.35</ele>
        <time>2016-05-05T06:43:23Z</time>
      </trkpt>
      <trkpt lat="46.25212" lon="6.09371">
        <ele>424.35</ele>
        <time>2016-05-05T06:43:24Z</time>
      </trkpt>
      <trkpt lat="46.2521" lon="6.09364">
        <ele>424.35</ele>
        <time>2016-05-05T06:43:25Z</time>
      </trkpt>
      <trkpt lat="46.25208" lon="6.09357">
        <ele>424.36</ele>
        <time>2016-05-05T06:43:26Z</time>
      </trkpt>
      <trkpt lat="46.25205" lon="6.0935">
        <ele>424.38</ele>
        <time>2016-05-05T06:43:27Z</time>
      </trkpt>
      <trkpt lat="46.25203" lon="6.09343">
        <ele>424.41</ele>
        <time>2016-05-05T06:43:28Z</time>
      </trkpt>
      <trkpt lat="46.25199" lon="6.09337">
        <ele>424.44</ele>
        <time>2016-05-05T06:43:29Z</time>
      </trkpt>
      <trkpt lat="46.25195" lon="6.09333">
        <ele>424.47</ele>
        <time>2016-05-05T06:43:30Z</time>
      </trkpt>
      <trkpt lat="46.2519" lon="6.0933">
        <ele>424.5</ele>
        <time>2016-05-05T06:43:31Z</time>
      </trkpt>
      <trkpt lat="46.25185" lon="6.09329">
        <ele>424.55</ele>
        <time>2016-05-05T06:43:32Z</time>
      </trkpt>
      <trkpt lat="46.25179" lon="6.09327">
        <ele>424.6</ele>
        <time>2016-05-05T06:43:33Z</time>
      </trkpt>
      <trkpt lat="46.25164" lon="6.09322">
        <ele>424.89</ele>
        <time>2016-05-05T06:43:36Z</time>
      </trkpt>
      <trkpt lat="46.2516" lon="6.09319">
        <ele>424.99</ele>
        <time>2016-05-05T06:43:37Z</time>
      </trkpt>
      <trkpt lat="46.25148" lon="6.09311">
        <ele>425.35</ele>
        <time>2016-05-05T06:43:40Z</time>
      </trkpt>
      <trkpt lat="46.25144" lon="6.09308">
        <ele>425.49</ele>
        <time>2016-05-05T06:43:41Z</time>
      </trkpt>
      <trkpt lat="46.25141" lon="6.09304">
        <ele>425.62</ele>
        <time>2016-05-05T06:43:42Z</time>
      </trkpt>
      <trkpt lat="46.25138" lon="6.093">
        <ele>425.75</ele>
        <time>2016-05-05T06:43:43Z</time>
      </trkpt>
      <trkpt lat="46.25135" lon="6.09296">
        <ele>425.88</ele>
        <time>2016-05-05T06:43:44Z</time>
      </trkpt>
      <trkpt lat="46.25131" lon="6.09292">
        <ele>426</ele>
        <time>2016-05-05T06:43:45Z</time>
      </trkpt>
      <trkpt lat="46.25127" lon="6.09288">
        <ele>426.11</ele>
        <time>2016-05-05T06:43:46Z</time>
      </trkpt>
      <trkpt lat="46.25119" lon="6.09282">
        <ele>426.38</ele>
        <time>2016-05-05T06:43:48Z</time>
      </trkpt>
      <trkpt lat="46.2507" lon="6.0923">
        <ele>429.09</ele>
        <time>2016-05-05T06:44:03Z</time>
      </trkpt>
      <trkpt lat="46.25059" lon="6.09214">
        <ele>429.65</ele>
        <time>2016-05-05T06:44:07Z</time>
      </trkpt>
      <trkpt lat="46.25015" lon="6.09119">
        <ele>430.02</ele>
        <time>2016-05-05T06:44:22Z</time>
      </trkpt>
      <trkpt lat="46.24998" lon="6.09076">
        <ele>429.82</ele>
        <time>2016-05-05T06:44:28Z</time>
      </trkpt>
      <trkpt lat="46.24997" lon="6.09069">
        <ele>429.77</ele>
        <time>2016-05-05T06:44:29Z</time>
      </trkpt>
      <trkpt lat="46.24996" lon="6.09062">
        <ele>429.7</ele>
        <time>2016-05-05T06:44:30Z</time>
      </trkpt>
      <trkpt lat="46.24993" lon="6.09056">
        <ele>429.65</ele>
        <time>2016-05-05T06:44:31Z</time>
      </trkpt>
      <trkpt lat="46.2499" lon="6.09051">
        <ele>429.61</ele>
        <time>2016-05-05T06:44:32Z</time>
      </trkpt>
      <trkpt lat="46.24987" lon="6.09047">
        <ele>429.58</ele>
        <time>2016-05-05T06:44:33Z</time>
      </trkpt>
      <trkpt lat="46.24983" lon="6.09043">
        <ele>429.55</ele>
        <time>2016-05-05T06:44:34Z</time>
      </trkpt>
      <trkpt lat="46.24975" lon="6.09033">
        <ele>429.51</ele>
        <time>2016-05-05T06:44:36Z</time>
      </trkpt>
      <trkpt lat="46.24971" lon="6.09026">
        <ele>429.47</ele>
        <time>2016-05-05T06:44:37Z</time>
      </trkpt>
      <trkpt lat="46.24927" lon="6.08902">
        <ele>429.99</ele>
        <time>2016-05-05T06:44:55Z</time>
      </trkpt>
      <trkpt lat="46.249" lon="6.08816">
        <ele>430.74</ele>
        <time>2016-05-05T06:45:07Z</time>
      </trkpt>
      <trkpt lat="46.24865" lon="6.08671">
        <ele>431.2</ele>
        <time>2016-05-05T06:45:25Z</time>
      </trkpt>
      <trkpt lat="46.24864" lon="6.08662">
        <ele>431.18</ele>
        <time>2016-05-05T06:45:26Z</time>
      </trkpt>
      <trkpt lat="46.24862" lon="6.08644">
        <ele>431.09</ele>
        <time>2016-05-05T06:45:28Z</time>
      </trkpt>
      <trkpt lat="46.2486" lon="6.08635">
        <ele>430.86</ele>
        <time>2016-05-05T06:45:29Z</time>
      </trkpt>
      <trkpt lat="46.24857" lon="6.08626">
        <ele>430.68</ele>
        <time>2016-05-05T06:45:30Z</time>
      </trkpt>
      <trkpt lat="46.24854" lon="6.08618">
        <ele>430.5</ele>
        <time>2016-05-05T06:45:31Z</time>
      </trkpt>
      <trkpt lat="46.24851" lon="6.0861">
        <ele>430.35</ele>
        <time>2016-05-05T06:45:32Z</time>
      </trkpt>
      <trkpt lat="46.24848" lon="6.08602">
        <ele>430.22</ele>
        <time>2016-05-05T06:45:33Z</time>
      </trkpt>
      <trkpt lat="46.24846" lon="6.08593">
        <ele>430.1</ele>
        <time>2016-05-05T06:45:34Z</time>
      </trkpt>
      <trkpt lat="46.24795" lon="6.08461">
        <ele>428.97</ele>
        <time>2016-05-05T06:45:50Z</time>
      </trkpt>
      <trkpt lat="46.24745" lon="6.08412">
        <ele>427.6</ele>
        <time>2016-05-05T06:46:00Z</time>
      </trkpt>
      <trkpt lat="46.24739" lon="6.08411">
        <ele>427.43</ele>
        <time>2016-05-05T06:46:01Z</time>
      </trkpt>
      <trkpt lat="46.24727" lon="6.0841">
        <ele>427.07</ele>
        <time>2016-05-05T06:46:03Z</time>
      </trkpt>
      <trkpt lat="46.24722" lon="6.08408">
        <ele>426.91</ele>
        <time>2016-05-05T06:46:04Z</time>
      </trkpt>
      <trkpt lat="46.24717" lon="6.08402">
        <ele>426.76</ele>
        <time>2016-05-05T06:46:05Z</time>
      </trkpt>
      <trkpt lat="46.24713" lon="6.08395">
        <ele>426.63</ele>
        <time>2016-05-05T06:46:06Z</time>
      </trkpt>
      <trkpt lat="46.24711" lon="6.08387">
        <ele>426.52</ele>
        <time>2016-05-05T06:46:07Z</time>
      </trkpt>
      <trkpt lat="46.24708" lon="6.08378">
        <ele>426.44</ele>
        <time>2016-05-05T06:46:08Z</time>
      </trkpt>
      <trkpt lat="46.24661" lon="6.08235">
        <ele>426.56</ele>
        <time>2016-05-05T06:46:24Z</time>
      </trkpt>
      <trkpt lat="46.24638" lon="6.08175">
        <ele>427.01</ele>
        <time>2016-05-05T06:46:31Z</time>
      </trkpt>
      <trkpt lat="46.24637" lon="6.08167">
        <ele>427.07</ele>
        <time>2016-05-05T06:46:32Z</time>
      </trkpt>
      <trkpt lat="46.24637" lon="6.08158">
        <ele>427.11</ele>
        <time>2016-05-05T06:46:33Z</time>
      </trkpt>
      <trkpt lat="46.24638" lon="6.08149">
        <ele>427.14</ele>
        <time>2016-05-05T06:46:34Z</time>
      </trkpt>
      <trkpt lat="46.2464" lon="6.0814">
        <ele>427.19</ele>
        <time>2016-05-05T06:46:35Z</time>
      </trkpt>
      <trkpt lat="46.2464" lon="6.08132">
        <ele>427.26</ele>
        <time>2016-05-05T06:46:36Z</time>
      </trkpt>
      <trkpt lat="46.2464" lon="6.08123">
        <ele>427.32</ele>
        <time>2016-05-05T06:46:37Z</time>
      </trkpt>
      <trkpt lat="46.24637" lon="6.08115">
        <ele>427.46</ele>
        <time>2016-05-05T06:46:38Z</time>
      </trkpt>
      <trkpt lat="46.24633" lon="6.08109">
        <ele>427.46</ele>
        <time>2016-05-05T06:46:39Z</time>
      </trkpt>
      <trkpt lat="46.24628" lon="6.08105">
        <ele>427.56</ele>
        <time>2016-05-05T06:46:40Z</time>
      </trkpt>
      <trkpt lat="46.24622" lon="6.08103">
        <ele>427.57</ele>
        <time>2016-05-05T06:46:41Z</time>
      </trkpt>
      <trkpt lat="46.24616" lon="6.08104">
        <ele>427.54</ele>
        <time>2016-05-05T06:46:42Z</time>
      </trkpt>
      <trkpt lat="46.2461" lon="6.08108">
        <ele>427.45</ele>
        <time>2016-05-05T06:46:43Z</time>
      </trkpt>
      <trkpt lat="46.24606" lon="6.08114">
        <ele>427.33</ele>
        <time>2016-05-05T06:46:44Z</time>
      </trkpt>
      <trkpt lat="46.24603" lon="6.08122">
        <ele>427.18</ele>
        <time>2016-05-05T06:46:45Z</time>
      </trkpt>
      <trkpt lat="46.24602" lon="6.0813">
        <ele>427.04</ele>
        <time>2016-05-05T06:46:46Z</time>
      </trkpt>
      <trkpt lat="46.24602" lon="6.08139">
        <ele>426.92</ele>
        <time>2016-05-05T06:46:47Z</time>
      </trkpt>
      <trkpt lat="46.24603" lon="6.08147">
        <ele>426.82</ele>
        <time>2016-05-05T06:46:48Z</time>
      </trkpt>
      <trkpt lat="46.24603" lon="6.08153">
        <ele>426.73</ele>
        <time>2016-05-05T06:46:49Z</time>
      </trkpt>
      <trkpt lat="46.24602" lon="6.08159">
        <ele>426.69</ele>
        <time>2016-05-05T06:46:50Z</time>
      </trkpt>
      <trkpt lat="46.24601" lon="6.08164">
        <ele>426.69</ele>
        <time>2016-05-05T06:46:51Z</time>
      </trkpt>
      <trkpt lat="46.246" lon="6.08168">
        <ele>426.73</ele>
        <time>2016-05-05T06:46:52Z</time>
      </trkpt>
      <trkpt lat="46.24598" lon="6.08172">
        <ele>426.79</ele>
        <time>2016-05-05T06:46:53Z</time>
      </trkpt>
      <trkpt lat="46.24596" lon="6.08174">
        <ele>426.84</ele>
        <time>2016-05-05T06:46:54Z</time>
      </trkpt>
      <trkpt lat="46.24594" lon="6.08176">
        <ele>426.87</ele>
        <time>2016-05-05T06:46:55Z</time>
      </trkpt>
      <trkpt lat="46.24591" lon="6.08179">
        <ele>426.9</ele>
        <time>2016-05-05T06:46:56Z</time>
      </trkpt>
      <trkpt lat="46.24588" lon="6.08182">
        <ele>426.92</ele>
        <time>2016-05-05T06:46:57Z</time>
      </trkpt>
      <trkpt lat="46.24584" lon="6.08184">
        <ele>426.93</ele>
        <time>2016-05-05T06:46:58Z</time>
      </trkpt>
      <trkpt lat="46.2458" lon="6.08185">
        <ele>426.94</ele>
        <time>2016-05-05T06:46:59Z</time>
      </trkpt>
      <trkpt lat="46.24577" lon="6.08183">
        <ele>426.94</ele>
        <time>2016-05-05T06:47:00Z</time>
      </trkpt>
      <trkpt lat="46.24573" lon="6.08179">
        <ele>426.92</ele>
        <time>2016-05-05T06:47:01Z</time>
      </trkpt>
      <trkpt lat="46.2457" lon="6.08174">
        <ele>426.87</ele>
        <time>2016-05-05T06:47:02Z</time>
      </trkpt>
      <trkpt lat="46.24569" lon="6.08168">
        <ele>426.75</ele>
        <time>2016-05-05T06:47:03Z</time>
      </trkpt>
      <trkpt lat="46.24568" lon="6.08162">
        <ele>426.62</ele>
        <time>2016-05-05T06:47:04Z</time>
      </trkpt>
      <trkpt lat="46.24566" lon="6.08149">
        <ele>426.38</ele>
        <time>2016-05-05T06:47:06Z</time>
      </trkpt>
      <trkpt lat="46.24566" lon="6.08142">
        <ele>426.19</ele>
        <time>2016-05-05T06:47:07Z</time>
      </trkpt>
      <trkpt lat="46.24566" lon="6.08136">
        <ele>426.11</ele>
        <time>2016-05-05T06:47:08Z</time>
      </trkpt>
      <trkpt lat="46.24566" lon="6.08129">
        <ele>426.03</ele>
        <time>2016-05-05T06:47:09Z</time>
      </trkpt>
      <trkpt lat="46.24565" lon="6.08122">
        <ele>425.96</ele>
        <time>2016-05-05T06:47:10Z</time>
      </trkpt>
      <trkpt lat="46.24565" lon="6.08103">
        <ele>425.76</ele>
        <time>2016-05-05T06:47:13Z</time>
      </trkpt>
      <trkpt lat="46.24564" lon="6.08096">
        <ele>425.73</ele>
        <time>2016-05-05T06:47:14Z</time>
      </trkpt>
      <trkpt lat="46.2456" lon="6.08058">
        <ele>425.66</ele>
        <time>2016-05-05T06:47:20Z</time>
      </trkpt>
      <trkpt lat="46.24559" lon="6.08052">
        <ele>425.67</ele>
        <time>2016-05-05T06:47:21Z</time>
      </trkpt>
      <trkpt lat="46.24549" lon="6.07999">
        <ele>425.67</ele>
        <time>2016-05-05T06:47:30Z</time>
      </trkpt>
      <trkpt lat="46.24547" lon="6.07983">
        <ele>425.66</ele>
        <time>2016-05-05T06:47:33Z</time>
      </trkpt>
      <trkpt lat="46.24545" lon="6.07976">
        <ele>425.71</ele>
        <time>2016-05-05T06:47:34Z</time>
      </trkpt>
      <trkpt lat="46.24542" lon="6.0797">
        <ele>425.73</ele>
        <time>2016-05-05T06:47:35Z</time>
      </trkpt>
      <trkpt lat="46.24539" lon="6.07965">
        <ele>425.75</ele>
        <time>2016-05-05T06:47:36Z</time>
      </trkpt>
      <trkpt lat="46.24536" lon="6.0796">
        <ele>425.75</ele>
        <time>2016-05-05T06:47:37Z</time>
      </trkpt>
      <trkpt lat="46.245" lon="6.079">
        <ele>425.54</ele>
        <time>2016-05-05T06:47:50Z</time>
      </trkpt>
      <trkpt lat="46.24496" lon="6.07894">
        <ele>425.51</ele>
        <time>2016-05-05T06:47:51Z</time>
      </trkpt>
      <trkpt lat="46.24461" lon="6.07848">
        <ele>425.54</ele>
        <time>2016-05-05T06:48:02Z</time>
      </trkpt>
      <trkpt lat="46.24437" lon="6.07815">
        <ele>425.94</ele>
        <time>2016-05-05T06:48:10Z</time>
      </trkpt>
      <trkpt lat="46.24379" lon="6.07726">
        <ele>425.99</ele>
        <time>2016-05-05T06:48:25Z</time>
      </trkpt>
      <trkpt lat="46.24375" lon="6.07721">
        <ele>426</ele>
        <time>2016-05-05T06:48:26Z</time>
      </trkpt>
      <trkpt lat="46.24372" lon="6.07716">
        <ele>426.01</ele>
        <time>2016-05-05T06:48:27Z</time>
      </trkpt>
      <trkpt lat="46.24368" lon="6.0771">
        <ele>426.02</ele>
        <time>2016-05-05T06:48:28Z</time>
      </trkpt>
      <trkpt lat="46.24305" lon="6.07613">
        <ele>426.04</ele>
        <time>2016-05-05T06:48:45Z</time>
      </trkpt>
      <trkpt lat="46.24254" lon="6.07538">
        <ele>426.11</ele>
        <time>2016-05-05T06:48:59Z</time>
      </trkpt>
      <trkpt lat="46.24234" lon="6.07504">
        <ele>426.06</ele>
        <time>2016-05-05T06:49:05Z</time>
      </trkpt>
      <trkpt lat="46.24233" lon="6.07497">
        <ele>426.11</ele>
        <time>2016-05-05T06:49:06Z</time>
      </trkpt>
      <trkpt lat="46.24234" lon="6.0749">
        <ele>426.15</ele>
        <time>2016-05-05T06:49:07Z</time>
      </trkpt>
      <trkpt lat="46.24236" lon="6.07484">
        <ele>426.17</ele>
        <time>2016-05-05T06:49:08Z</time>
      </trkpt>
      <trkpt lat="46.2424" lon="6.07478">
        <ele>426.17</ele>
        <time>2016-05-05T06:49:09Z</time>
      </trkpt>
      <trkpt lat="46.24244" lon="6.07473">
        <ele>426.16</ele>
        <time>2016-05-05T06:49:10Z</time>
      </trkpt>
      <trkpt lat="46.24248" lon="6.07469">
        <ele>426.14</ele>
        <time>2016-05-05T06:49:11Z</time>
      </trkpt>
      <trkpt lat="46.24266" lon="6.07445">
        <ele>426.04</ele>
        <time>2016-05-05T06:49:16Z</time>
      </trkpt>
      <trkpt lat="46.24269" lon="6.07439">
        <ele>426.03</ele>
        <time>2016-05-05T06:49:17Z</time>
      </trkpt>
      <trkpt lat="46.2427" lon="6.07432">
        <ele>426.01</ele>
        <time>2016-05-05T06:49:18Z</time>
      </trkpt>
      <trkpt lat="46.24269" lon="6.07426">
        <ele>425.96</ele>
        <time>2016-05-05T06:49:19Z</time>
      </trkpt>
      <trkpt lat="46.24266" lon="6.0742">
        <ele>425.89</ele>
        <time>2016-05-05T06:49:20Z</time>
      </trkpt>
      <trkpt lat="46.24262" lon="6.07416">
        <ele>425.76</ele>
        <time>2016-05-05T06:49:21Z</time>
      </trkpt>
      <trkpt lat="46.24258" lon="6.07411">
        <ele>425.62</ele>
        <time>2016-05-05T06:49:22Z</time>
      </trkpt>
      <trkpt lat="46.24225" lon="6.07374">
        <ele>424.91</ele>
        <time>2016-05-05T06:49:30Z</time>
      </trkpt>
      <trkpt lat="46.24221" lon="6.0737">
        <ele>424.88</ele>
        <time>2016-05-05T06:49:31Z</time>
      </trkpt>
      <trkpt lat="46.24216" lon="6.07367">
        <ele>424.85</ele>
        <time>2016-05-05T06:49:32Z</time>
      </trkpt>
      <trkpt lat="46.24148" lon="6.07315">
        <ele>424.42</ele>
        <time>2016-05-05T06:49:46Z</time>
      </trkpt>
      <trkpt lat="46.24145" lon="6.07312">
        <ele>424.4</ele>
        <time>2016-05-05T06:49:47Z</time>
      </trkpt>
      <trkpt lat="46.24137" lon="6.07306">
        <ele>424.35</ele>
        <time>2016-05-05T06:49:49Z</time>
      </trkpt>
      <trkpt lat="46.24133" lon="6.07303">
        <ele>424.34</ele>
        <time>2016-05-05T06:49:50Z</time>
      </trkpt>
      <trkpt lat="46.24129" lon="6.07301">
        <ele>424.35</ele>
        <time>2016-05-05T06:49:51Z</time>
      </trkpt>
      <trkpt lat="46.24125" lon="6.073">
        <ele>424.36</ele>
        <time>2016-05-05T06:49:52Z</time>
      </trkpt>
      <trkpt lat="46.2412" lon="6.073">
        <ele>424.37</ele>
        <time>2016-05-05T06:49:53Z</time>
      </trkpt>
      <trkpt lat="46.24116" lon="6.07303">
        <ele>424.36</ele>
        <time>2016-05-05T06:49:54Z</time>
      </trkpt>
      <trkpt lat="46.24112" lon="6.07306">
        <ele>424.35</ele>
        <time>2016-05-05T06:49:55Z</time>
      </trkpt>
      <trkpt lat="46.2411" lon="6.0731">
        <ele>424.37</ele>
        <time>2016-05-05T06:49:56Z</time>
      </trkpt>
      <trkpt lat="46.24107" lon="6.07314">
        <ele>424.38</ele>
        <time>2016-05-05T06:49:57Z</time>
      </trkpt>
      <trkpt lat="46.24104" lon="6.07319">
        <ele>424.41</ele>
        <time>2016-05-05T06:49:58Z</time>
      </trkpt>
      <trkpt lat="46.24059" lon="6.07386">
        <ele>426.03</ele>
        <time>2016-05-05T06:50:14Z</time>
      </trkpt>
      <trkpt lat="46.23994" lon="6.07481">
        <ele>425.2</ele>
        <time>2016-05-05T06:50:31Z</time>
      </trkpt>
      <trkpt lat="46.23933" lon="6.07569">
        <ele>424.23</ele>
        <time>2016-05-05T06:50:48Z</time>
      </trkpt>
      <trkpt lat="46.23879" lon="6.07645">
        <ele>423.83</ele>
        <time>2016-05-05T06:51:05Z</time>
      </trkpt>
      <trkpt lat="46.23876" lon="6.07645">
        <ele>423.78</ele>
        <time>2016-05-05T06:51:06Z</time>
      </trkpt>
      <trkpt lat="46.23873" lon="6.07642">
        <ele>423.71</ele>
        <time>2016-05-05T06:51:07Z</time>
      </trkpt>
      <trkpt lat="46.2387" lon="6.07638">
        <ele>423.63</ele>
        <time>2016-05-05T06:51:08Z</time>
      </trkpt>
      <trkpt lat="46.23867" lon="6.07633">
        <ele>423.54</ele>
        <time>2016-05-05T06:51:09Z</time>
      </trkpt>
      <trkpt lat="46.2383" lon="6.0758">
        <ele>422.16</ele>
        <time>2016-05-05T06:51:18Z</time>
      </trkpt>
      <trkpt lat="46.23765" lon="6.07483">
        <ele>419.96</ele>
        <time>2016-05-05T06:51:31Z</time>
      </trkpt>
      <trkpt lat="46.23702" lon="6.07406">
        <ele>420.67</ele>
        <time>2016-05-05T06:51:44Z</time>
      </trkpt>
      <trkpt lat="46.23687" lon="6.07391">
        <ele>421.07</ele>
        <time>2016-05-05T06:51:49Z</time>
      </trkpt>
      <trkpt lat="46.23685" lon="6.07386">
        <ele>421.1</ele>
        <time>2016-05-05T06:51:50Z</time>
      </trkpt>
      <trkpt lat="46.23685" lon="6.0738">
        <ele>421.12</ele>
        <time>2016-05-05T06:51:51Z</time>
      </trkpt>
      <trkpt lat="46.23686" lon="6.07374">
        <ele>421.14</ele>
        <time>2016-05-05T06:51:52Z</time>
      </trkpt>
      <trkpt lat="46.23687" lon="6.07367">
        <ele>421.14</ele>
        <time>2016-05-05T06:51:53Z</time>
      </trkpt>
      <trkpt lat="46.23691" lon="6.07257">
        <ele>419.04</ele>
        <time>2016-05-05T06:52:05Z</time>
      </trkpt>
      <trkpt lat="46.23653" lon="6.07112">
        <ele>417.19</ele>
        <time>2016-05-05T06:52:19Z</time>
      </trkpt>
      <trkpt lat="46.23612" lon="6.07045">
        <ele>416.48</ele>
        <time>2016-05-05T06:52:27Z</time>
      </trkpt>
      <trkpt lat="46.23578" lon="6.07008">
        <ele>416.22</ele>
        <time>2016-05-05T06:52:33Z</time>
      </trkpt>
      <trkpt lat="46.23573" lon="6.07005">
        <ele>416.15</ele>
        <time>2016-05-05T06:52:34Z</time>
      </trkpt>
      <trkpt lat="46.23567" lon="6.07005">
        <ele>416.05</ele>
        <time>2016-05-05T06:52:35Z</time>
      </trkpt>
      <trkpt lat="46.23562" lon="6.07006">
        <ele>415.98</ele>
        <time>2016-05-05T06:52:36Z</time>
      </trkpt>
      <trkpt lat="46.23557" lon="6.07006">
        <ele>415.92</ele>
        <time>2016-05-05T06:52:37Z</time>
      </trkpt>
      <trkpt lat="46.23553" lon="6.07005">
        <ele>415.92</ele>
        <time>2016-05-05T06:52:38Z</time>
      </trkpt>
      <trkpt lat="46.23549" lon="6.07001">
        <ele>415.92</ele>
        <time>2016-05-05T06:52:39Z</time>
      </trkpt>
      <trkpt lat="46.23546" lon="6.06997">
        <ele>415.97</ele>
        <time>2016-05-05T06:52:40Z</time>
      </trkpt>
      <trkpt lat="46.23521" lon="6.06968">
        <ele>416.13</ele>
        <time>2016-05-05T06:52:46Z</time>
      </trkpt>
      <trkpt lat="46.23463" lon="6.06895">
        <ele>416.07</ele>
        <time>2016-05-05T06:52:59Z</time>
      </trkpt>
      <trkpt lat="46.23414" lon="6.06835">
        <ele>415.74</ele>
        <time>2016-05-05T06:53:09Z</time>
      </trkpt>
      <trkpt lat="46.23409" lon="6.06829">
        <ele>415.69</ele>
        <time>2016-05-05T06:53:10Z</time>
      </trkpt>
      <trkpt lat="46.23404" lon="6.06823">
        <ele>415.65</ele>
        <time>2016-05-05T06:53:11Z</time>
      </trkpt>
      <trkpt lat="46.23326" lon="6.06723">
        <ele>415.71</ele>
        <time>2016-05-05T06:53:26Z</time>
      </trkpt>
      <trkpt lat="46.23316" lon="6.0671">
        <ele>415.67</ele>
        <time>2016-05-05T06:53:28Z</time>
      </trkpt>
      <trkpt lat="46.23311" lon="6.06703">
        <ele>415.64</ele>
        <time>2016-05-05T06:53:29Z</time>
      </trkpt>
      <trkpt lat="46.23306" lon="6.06697">
        <ele>415.62</ele>
        <time>2016-05-05T06:53:30Z</time>
      </trkpt>
      <trkpt lat="46.23295" lon="6.06684">
        <ele>415.57</ele>
        <time>2016-05-05T06:53:32Z</time>
      </trkpt>
      <trkpt lat="46.2329" lon="6.06677">
        <ele>415.52</ele>
        <time>2016-05-05T06:53:33Z</time>
      </trkpt>
      <trkpt lat="46.23217" lon="6.06585">
        <ele>415.45</ele>
        <time>2016-05-05T06:53:47Z</time>
      </trkpt>
      <trkpt lat="46.23207" lon="6.06572">
        <ele>415.49</ele>
        <time>2016-05-05T06:53:49Z</time>
      </trkpt>
      <trkpt lat="46.23202" lon="6.06566">
        <ele>415.52</ele>
        <time>2016-05-05T06:53:50Z</time>
      </trkpt>
      <trkpt lat="46.23158" lon="6.06513">
        <ele>416.21</ele>
        <time>2016-05-05T06:54:00Z</time>
      </trkpt>
      <trkpt lat="46.23138" lon="6.06488">
        <ele>416.52</ele>
        <time>2016-05-05T06:54:05Z</time>
      </trkpt>
      <trkpt lat="46.23131" lon="6.06481">
        <ele>416.78</ele>
        <time>2016-05-05T06:54:07Z</time>
      </trkpt>
      <trkpt lat="46.23123" lon="6.06476">
        <ele>417.15</ele>
        <time>2016-05-05T06:54:09Z</time>
      </trkpt>
      <trkpt lat="46.23102" lon="6.06474">
        <ele>418.91</ele>
        <time>2016-05-05T06:54:18Z</time>
      </trkpt>
      <trkpt lat="46.23099" lon="6.06473">
        <ele>419.23</ele>
        <time>2016-05-05T06:54:21Z</time>
      </trkpt>
      <trkpt lat="46.2309" lon="6.06466">
        <ele>419.55</ele>
        <time>2016-05-05T06:54:25Z</time>
      </trkpt>
      <trkpt lat="46.23071" lon="6.06462">
        <ele>419.72</ele>
        <time>2016-05-05T06:54:31Z</time>
      </trkpt>
      <trkpt lat="46.23068" lon="6.06454">
        <ele>419.69</ele>
        <time>2016-05-05T06:54:33Z</time>
      </trkpt>
      <trkpt lat="46.23069" lon="6.06449">
        <ele>419.68</ele>
        <time>2016-05-05T06:54:34Z</time>
      </trkpt>
      <trkpt lat="46.2307" lon="6.06443">
        <ele>419.67</ele>
        <time>2016-05-05T06:54:35Z</time>
      </trkpt>
      <trkpt lat="46.2307" lon="6.06437">
        <ele>419.65</ele>
        <time>2016-05-05T06:54:36Z</time>
      </trkpt>
      <trkpt lat="46.2307" lon="6.0643">
        <ele>419.61</ele>
        <time>2016-05-05T06:54:37Z</time>
      </trkpt>
      <trkpt lat="46.2307" lon="6.06423">
        <ele>419.56</ele>
        <time>2016-05-05T06:54:38Z</time>
      </trkpt>
      <trkpt lat="46.23069" lon="6.06416">
        <ele>419.5</ele>
        <time>2016-05-05T06:54:39Z</time>
      </trkpt>
      <trkpt lat="46.23067" lon="6.06409">
        <ele>419.44</ele>
        <time>2016-05-05T06:54:40Z</time>
      </trkpt>
      <trkpt lat="46.23065" lon="6.06402">
        <ele>419.36</ele>
        <time>2016-05-05T06:54:41Z</time>
      </trkpt>
      <trkpt lat="46.23062" lon="6.06395">
        <ele>419.28</ele>
        <time>2016-05-05T06:54:42Z</time>
      </trkpt>
      <trkpt lat="46.23059" lon="6.06389">
        <ele>419.2</ele>
        <time>2016-05-05T06:54:43Z</time>
      </trkpt>
      <trkpt lat="46.23055" lon="6.06382">
        <ele>419.11</ele>
        <time>2016-05-05T06:54:44Z</time>
      </trkpt>
      <trkpt lat="46.23051" lon="6.06376">
        <ele>419.01</ele>
        <time>2016-05-05T06:54:45Z</time>
      </trkpt>
      <trkpt lat="46.2303" lon="6.06329">
        <ele>417.93</ele>
        <time>2016-05-05T06:54:54Z</time>
      </trkpt>
      <trkpt lat="46.23031" lon="6.06325">
        <ele>417.82</ele>
        <time>2016-05-05T06:54:55Z</time>
      </trkpt>
      <trkpt lat="46.23037" lon="6.06298">
        <ele>417.25</ele>
        <time>2016-05-05T06:55:02Z</time>
      </trkpt>
      <trkpt lat="46.23036" lon="6.06291">
        <ele>417.2</ele>
        <time>2016-05-05T06:55:03Z</time>
      </trkpt>
      <trkpt lat="46.23034" lon="6.06284">
        <ele>417.13</ele>
        <time>2016-05-05T06:55:04Z</time>
      </trkpt>
      <trkpt lat="46.22994" lon="6.06158">
        <ele>415.82</ele>
        <time>2016-05-05T06:55:19Z</time>
      </trkpt>
      <trkpt lat="46.22916" lon="6.05937">
        <ele>414.6</ele>
        <time>2016-05-05T06:55:43Z</time>
      </trkpt>
      <trkpt lat="46.22828" lon="6.05781">
        <ele>413.65</ele>
        <time>2016-05-05T06:56:02Z</time>
      </trkpt>
      <trkpt lat="46.2281" lon="6.05754">
        <ele>413.45</ele>
        <time>2016-05-05T06:56:06Z</time>
      </trkpt>
      <trkpt lat="46.22805" lon="6.05749">
        <ele>413.41</ele>
        <time>2016-05-05T06:56:07Z</time>
      </trkpt>
      <trkpt lat="46.228" lon="6.05746">
        <ele>413.39</ele>
        <time>2016-05-05T06:56:08Z</time>
      </trkpt>
      <trkpt lat="46.22796" lon="6.05743">
        <ele>413.36</ele>
        <time>2016-05-05T06:56:09Z</time>
      </trkpt>
      <trkpt lat="46.22791" lon="6.05742">
        <ele>413.24</ele>
        <time>2016-05-05T06:56:10Z</time>
      </trkpt>
      <trkpt lat="46.22786" lon="6.05741">
        <ele>413.19</ele>
        <time>2016-05-05T06:56:11Z</time>
      </trkpt>
      <trkpt lat="46.22782" lon="6.0574">
        <ele>413.15</ele>
        <time>2016-05-05T06:56:12Z</time>
      </trkpt>
      <trkpt lat="46.2277" lon="6.05736">
        <ele>413.28</ele>
        <time>2016-05-05T06:56:15Z</time>
      </trkpt>
      <trkpt lat="46.22767" lon="6.05732">
        <ele>413.34</ele>
        <time>2016-05-05T06:56:16Z</time>
      </trkpt>
      <trkpt lat="46.22741" lon="6.05683">
        <ele>413.13</ele>
        <time>2016-05-05T06:56:24Z</time>
      </trkpt>
      <trkpt lat="46.22693" lon="6.05597">
        <ele>412.23</ele>
        <time>2016-05-05T06:56:36Z</time>
      </trkpt>
      <trkpt lat="46.22686" lon="6.05582">
        <ele>412.1</ele>
        <time>2016-05-05T06:56:38Z</time>
      </trkpt>
      <trkpt lat="46.22682" lon="6.05577">
        <ele>412.07</ele>
        <time>2016-05-05T06:56:39Z</time>
      </trkpt>
      <trkpt lat="46.22678" lon="6.05571">
        <ele>412.03</ele>
        <time>2016-05-05T06:56:40Z</time>
      </trkpt>
      <trkpt lat="46.22668" lon="6.05548">
        <ele>411.95</ele>
        <time>2016-05-05T06:56:47Z</time>
      </trkpt>
      <trkpt lat="46.22645" lon="6.05514">
        <ele>411.67</ele>
        <time>2016-05-05T06:56:56Z</time>
      </trkpt>
      <trkpt lat="46.22642" lon="6.05509">
        <ele>411.67</ele>
        <time>2016-05-05T06:56:57Z</time>
      </trkpt>
      <trkpt lat="46.2264" lon="6.05504">
        <ele>411.65</ele>
        <time>2016-05-05T06:56:58Z</time>
      </trkpt>
      <trkpt lat="46.22598" lon="6.05425">
        <ele>411.31</ele>
        <time>2016-05-05T06:57:11Z</time>
      </trkpt>
      <trkpt lat="46.22594" lon="6.05418">
        <ele>411.27</ele>
        <time>2016-05-05T06:57:12Z</time>
      </trkpt>
      <trkpt lat="46.22587" lon="6.05404">
        <ele>411.25</ele>
        <time>2016-05-05T06:57:14Z</time>
      </trkpt>
      <trkpt lat="46.22515" lon="6.05287">
        <ele>410.54</ele>
        <time>2016-05-05T06:57:30Z</time>
      </trkpt>
      <trkpt lat="46.22511" lon="6.0528">
        <ele>410.55</ele>
        <time>2016-05-05T06:57:31Z</time>
      </trkpt>
      <trkpt lat="46.22507" lon="6.05272">
        <ele>410.56</ele>
        <time>2016-05-05T06:57:32Z</time>
      </trkpt>
      <trkpt lat="46.22455" lon="6.05183">
        <ele>410.74</ele>
        <time>2016-05-05T06:57:44Z</time>
      </trkpt>
      <trkpt lat="46.22416" lon="6.05115">
        <ele>410.71</ele>
        <time>2016-05-05T06:57:53Z</time>
      </trkpt>
      <trkpt lat="46.22412" lon="6.05106">
        <ele>410.73</ele>
        <time>2016-05-05T06:57:54Z</time>
      </trkpt>
      <trkpt lat="46.22409" lon="6.05098">
        <ele>410.75</ele>
        <time>2016-05-05T06:57:55Z</time>
      </trkpt>
      <trkpt lat="46.22406" lon="6.05089">
        <ele>410.79</ele>
        <time>2016-05-05T06:57:56Z</time>
      </trkpt>
      <trkpt lat="46.22402" lon="6.05081">
        <ele>410.83</ele>
        <time>2016-05-05T06:57:57Z</time>
      </trkpt>
      <trkpt lat="46.22398" lon="6.05074">
        <ele>410.84</ele>
        <time>2016-05-05T06:57:58Z</time>
      </trkpt>
      <trkpt lat="46.22367" lon="6.05027">
        <ele>410.97</ele>
        <time>2016-05-05T06:58:05Z</time>
      </trkpt>
      <trkpt lat="46.22363" lon="6.05022">
        <ele>411.07</ele>
        <time>2016-05-05T06:58:06Z</time>
      </trkpt>
      <trkpt lat="46.22354" lon="6.05012">
        <ele>411.27</ele>
        <time>2016-05-05T06:58:08Z</time>
      </trkpt>
      <trkpt lat="46.2235" lon="6.05007">
        <ele>411.38</ele>
        <time>2016-05-05T06:58:09Z</time>
      </trkpt>
      <trkpt lat="46.22347" lon="6.05002">
        <ele>411.5</ele>
        <time>2016-05-05T06:58:10Z</time>
      </trkpt>
      <trkpt lat="46.22343" lon="6.04997">
        <ele>411.66</ele>
        <time>2016-05-05T06:58:11Z</time>
      </trkpt>
      <trkpt lat="46.2234" lon="6.04992">
        <ele>411.83</ele>
        <time>2016-05-05T06:58:12Z</time>
      </trkpt>
      <trkpt lat="46.22337" lon="6.04987">
        <ele>412.01</ele>
        <time>2016-05-05T06:58:13Z</time>
      </trkpt>
      <trkpt lat="46.22333" lon="6.04981">
        <ele>412.36</ele>
        <time>2016-05-05T06:58:14Z</time>
      </trkpt>
      <trkpt lat="46.22291" lon="6.04893">
        <ele>412.48</ele>
        <time>2016-05-05T06:58:27Z</time>
      </trkpt>
      <trkpt lat="46.2223" lon="6.0478">
        <ele>412.73</ele>
        <time>2016-05-05T06:58:43Z</time>
      </trkpt>
      <trkpt lat="46.22209" lon="6.04741">
        <ele>412.85</ele>
        <time>2016-05-05T06:58:49Z</time>
      </trkpt>
      <trkpt lat="46.22176" lon="6.047">
        <ele>413.65</ele>
        <time>2016-05-05T06:58:59Z</time>
      </trkpt>
      <trkpt lat="46.22169" lon="6.04685">
        <ele>413.94</ele>
        <time>2016-05-05T06:59:03Z</time>
      </trkpt>
      <trkpt lat="46.22163" lon="6.04661">
        <ele>414.22</ele>
        <time>2016-05-05T06:59:08Z</time>
      </trkpt>
      <trkpt lat="46.22161" lon="6.04656">
        <ele>414.29</ele>
        <time>2016-05-05T06:59:09Z</time>
      </trkpt>
      <trkpt lat="46.2216" lon="6.0465">
        <ele>414.35</ele>
        <time>2016-05-05T06:59:10Z</time>
      </trkpt>
      <trkpt lat="46.22159" lon="6.04644">
        <ele>414.4</ele>
        <time>2016-05-05T06:59:11Z</time>
      </trkpt>
      <trkpt lat="46.22158" lon="6.04638">
        <ele>414.44</ele>
        <time>2016-05-05T06:59:12Z</time>
      </trkpt>
      <trkpt lat="46.22156" lon="6.04626">
        <ele>414.53</ele>
        <time>2016-05-05T06:59:14Z</time>
      </trkpt>
      <trkpt lat="46.22154" lon="6.0462">
        <ele>414.57</ele>
        <time>2016-05-05T06:59:15Z</time>
      </trkpt>
      <trkpt lat="46.22108" lon="6.04527">
        <ele>415.98</ele>
        <time>2016-05-05T06:59:32Z</time>
      </trkpt>
      <trkpt lat="46.22056" lon="6.04422">
        <ele>418.2</ele>
        <time>2016-05-05T06:59:52Z</time>
      </trkpt>
      <trkpt lat="46.22051" lon="6.04412">
        <ele>418.51</ele>
        <time>2016-05-05T06:59:54Z</time>
      </trkpt>
      <trkpt lat="46.22049" lon="6.04407">
        <ele>418.61</ele>
        <time>2016-05-05T06:59:55Z</time>
      </trkpt>
      <trkpt lat="46.22002" lon="6.04318">
        <ele>421.16</ele>
        <time>2016-05-05T07:00:14Z</time>
      </trkpt>
      <trkpt lat="46.21993" lon="6.04283">
        <ele>421.96</ele>
        <time>2016-05-05T07:00:22Z</time>
      </trkpt>
      <trkpt lat="46.21963" lon="6.04216">
        <ele>423.37</ele>
        <time>2016-05-05T07:00:36Z</time>
      </trkpt>
      <trkpt lat="46.21924" lon="6.04123">
        <ele>423.55</ele>
        <time>2016-05-05T07:00:52Z</time>
      </trkpt>
      <trkpt lat="46.21875" lon="6.04">
        <ele>424.44</ele>
        <time>2016-05-05T07:01:11Z</time>
      </trkpt>
      <trkpt lat="46.21824" lon="6.03874">
        <ele>423.03</ele>
        <time>2016-05-05T07:01:26Z</time>
      </trkpt>
      <trkpt lat="46.21804" lon="6.03815">
        <ele>422.97</ele>
        <time>2016-05-05T07:01:33Z</time>
      </trkpt>
      <trkpt lat="46.2178" lon="6.03739">
        <ele>425.41</ele>
        <time>2016-05-05T07:01:44Z</time>
      </trkpt>
      <trkpt lat="46.21779" lon="6.03734">
        <ele>425.68</ele>
        <time>2016-05-05T07:01:45Z</time>
      </trkpt>
      <trkpt lat="46.21778" lon="6.03729">
        <ele>425.94</ele>
        <time>2016-05-05T07:01:46Z</time>
      </trkpt>
      <trkpt lat="46.21777" lon="6.03724">
        <ele>426.24</ele>
        <time>2016-05-05T07:01:47Z</time>
      </trkpt>
      <trkpt lat="46.21775" lon="6.0372">
        <ele>426.58</ele>
        <time>2016-05-05T07:01:48Z</time>
      </trkpt>
      <trkpt lat="46.21753" lon="6.03662">
        <ele>429.72</ele>
        <time>2016-05-05T07:02:01Z</time>
      </trkpt>
      <trkpt lat="46.21726" lon="6.0359">
        <ele>431.76</ele>
        <time>2016-05-05T07:02:17Z</time>
      </trkpt>
      <trkpt lat="46.21712" lon="6.03572">
        <ele>432.35</ele>
        <time>2016-05-05T07:02:23Z</time>
      </trkpt>
      <trkpt lat="46.21712" lon="6.03568">
        <ele>432.39</ele>
        <time>2016-05-05T07:02:24Z</time>
      </trkpt>
      <trkpt lat="46.21713" lon="6.03564">
        <ele>432.43</ele>
        <time>2016-05-05T07:02:25Z</time>
      </trkpt>
      <trkpt lat="46.21715" lon="6.03562">
        <ele>432.48</ele>
        <time>2016-05-05T07:02:26Z</time>
      </trkpt>
      <trkpt lat="46.21718" lon="6.03561">
        <ele>432.53</ele>
        <time>2016-05-05T07:02:27Z</time>
      </trkpt>
      <trkpt lat="46.2172" lon="6.03558">
        <ele>432.57</ele>
        <time>2016-05-05T07:02:28Z</time>
      </trkpt>
      <trkpt lat="46.2172" lon="6.03554">
        <ele>432.6</ele>
        <time>2016-05-05T07:02:29Z</time>
      </trkpt>
      <trkpt lat="46.2172" lon="6.03549">
        <ele>432.65</ele>
        <time>2016-05-05T07:02:30Z</time>
      </trkpt>
      <trkpt lat="46.21719" lon="6.03545">
        <ele>432.7</ele>
        <time>2016-05-05T07:02:31Z</time>
      </trkpt>
      <trkpt lat="46.21717" lon="6.03542">
        <ele>432.74</ele>
        <time>2016-05-05T07:02:32Z</time>
      </trkpt>
      <trkpt lat="46.21715" lon="6.03538">
        <ele>432.78</ele>
        <time>2016-05-05T07:02:33Z</time>
      </trkpt>
      <trkpt lat="46.21713" lon="6.03534">
        <ele>432.85</ele>
        <time>2016-05-05T07:02:34Z</time>
      </trkpt>
      <trkpt lat="46.21711" lon="6.0353">
        <ele>432.94</ele>
        <time>2016-05-05T07:02:35Z</time>
      </trkpt>
      <trkpt lat="46.21709" lon="6.03525">
        <ele>433.05</ele>
        <time>2016-05-05T07:02:36Z</time>
      </trkpt>
      <trkpt lat="46.21691" lon="6.03473">
        <ele>434.57</ele>
        <time>2016-05-05T07:02:47Z</time>
      </trkpt>
      <trkpt lat="46.21689" lon="6.03467">
        <ele>434.72</ele>
        <time>2016-05-05T07:02:48Z</time>
      </trkpt>
      <trkpt lat="46.21686" lon="6.03462">
        <ele>434.85</ele>
        <time>2016-05-05T07:02:49Z</time>
      </trkpt>
      <trkpt lat="46.2168" lon="6.03453">
        <ele>435.08</ele>
        <time>2016-05-05T07:02:51Z</time>
      </trkpt>
      <trkpt lat="46.21611" lon="6.03372">
        <ele>435.4</ele>
        <time>2016-05-05T07:03:09Z</time>
      </trkpt>
      <trkpt lat="46.21578" lon="6.03331">
        <ele>434.06</ele>
        <time>2016-05-05T07:03:16Z</time>
      </trkpt>
      <trkpt lat="46.21564" lon="6.03309">
        <ele>433.26</ele>
        <time>2016-05-05T07:03:19Z</time>
      </trkpt>
      <trkpt lat="46.21558" lon="6.03303">
        <ele>432.91</ele>
        <time>2016-05-05T07:03:20Z</time>
      </trkpt>
      <trkpt lat="46.2155" lon="6.03298">
        <ele>432.55</ele>
        <time>2016-05-05T07:03:21Z</time>
      </trkpt>
      <trkpt lat="46.21542" lon="6.03294">
        <ele>432.18</ele>
        <time>2016-05-05T07:03:22Z</time>
      </trkpt>
      <trkpt lat="46.21534" lon="6.03292">
        <ele>431.81</ele>
        <time>2016-05-05T07:03:23Z</time>
      </trkpt>
      <trkpt lat="46.21526" lon="6.03289">
        <ele>431.4</ele>
        <time>2016-05-05T07:03:24Z</time>
      </trkpt>
      <trkpt lat="46.21447" lon="6.03238">
        <ele>428.59</ele>
        <time>2016-05-05T07:03:35Z</time>
      </trkpt>
      <trkpt lat="46.21417" lon="6.03216">
        <ele>428.96</ele>
        <time>2016-05-05T07:03:40Z</time>
      </trkpt>
      <trkpt lat="46.21389" lon="6.03188">
        <ele>430.73</ele>
        <time>2016-05-05T07:03:46Z</time>
      </trkpt>
      <trkpt lat="46.21372" lon="6.03169">
        <ele>431.82</ele>
        <time>2016-05-05T07:03:50Z</time>
      </trkpt>
      <trkpt lat="46.21368" lon="6.03164">
        <ele>432.04</ele>
        <time>2016-05-05T07:03:51Z</time>
      </trkpt>
      <trkpt lat="46.21365" lon="6.0316">
        <ele>432.28</ele>
        <time>2016-05-05T07:03:52Z</time>
      </trkpt>
      <trkpt lat="46.21361" lon="6.03156">
        <ele>432.5</ele>
        <time>2016-05-05T07:03:53Z</time>
      </trkpt>
      <trkpt lat="46.21357" lon="6.03151">
        <ele>432.71</ele>
        <time>2016-05-05T07:03:54Z</time>
      </trkpt>
      <trkpt lat="46.21353" lon="6.03148">
        <ele>432.9</ele>
        <time>2016-05-05T07:03:55Z</time>
      </trkpt>
      <trkpt lat="46.21344" lon="6.0314">
        <ele>433.26</ele>
        <time>2016-05-05T07:03:57Z</time>
      </trkpt>
      <trkpt lat="46.21336" lon="6.03131">
        <ele>433.69</ele>
        <time>2016-05-05T07:03:59Z</time>
      </trkpt>
      <trkpt lat="46.21331" lon="6.03127">
        <ele>433.83</ele>
        <time>2016-05-05T07:04:00Z</time>
      </trkpt>
      <trkpt lat="46.2127" lon="6.03071">
        <ele>434.67</ele>
        <time>2016-05-05T07:04:12Z</time>
      </trkpt>
      <trkpt lat="46.21203" lon="6.03006">
        <ele>435.05</ele>
        <time>2016-05-05T07:04:25Z</time>
      </trkpt>
      <trkpt lat="46.21097" lon="6.02905">
        <ele>435.77</ele>
        <time>2016-05-05T07:04:45Z</time>
      </trkpt>
      <trkpt lat="46.20976" lon="6.02836">
        <ele>436.46</ele>
        <time>2016-05-05T07:05:05Z</time>
      </trkpt>
      <trkpt lat="46.20873" lon="6.02783">
        <ele>436.76</ele>
        <time>2016-05-05T07:05:23Z</time>
      </trkpt>
      <trkpt lat="46.20787" lon="6.02728">
        <ele>434.81</ele>
        <time>2016-05-05T07:05:38Z</time>
      </trkpt>
      <trkpt lat="46.20702" lon="6.02657">
        <ele>431.61</ele>
        <time>2016-05-05T07:05:52Z</time>
      </trkpt>
      <trkpt lat="46.20641" lon="6.0259">
        <ele>428.45</ele>
        <time>2016-05-05T07:06:02Z</time>
      </trkpt>
      <trkpt lat="46.20548" lon="6.02473">
        <ele>425.94</ele>
        <time>2016-05-05T07:06:19Z</time>
      </trkpt>
      <trkpt lat="46.20433" lon="6.02315">
        <ele>425.38</ele>
        <time>2016-05-05T07:06:42Z</time>
      </trkpt>
      <trkpt lat="46.20353" lon="6.02198">
        <ele>425.07</ele>
        <time>2016-05-05T07:06:59Z</time>
      </trkpt>
      <trkpt lat="46.20276" lon="6.0206">
        <ele>425.15</ele>
        <time>2016-05-05T07:07:18Z</time>
      </trkpt>
      <trkpt lat="46.20272" lon="6.02057">
        <ele>425.15</ele>
        <time>2016-05-05T07:07:19Z</time>
      </trkpt>
      <trkpt lat="46.20267" lon="6.02056">
        <ele>425.13</ele>
        <time>2016-05-05T07:07:20Z</time>
      </trkpt>
      <trkpt lat="46.20263" lon="6.02054">
        <ele>425.08</ele>
        <time>2016-05-05T07:07:21Z</time>
      </trkpt>
      <trkpt lat="46.2026" lon="6.02051">
        <ele>425.05</ele>
        <time>2016-05-05T07:07:22Z</time>
      </trkpt>
      <trkpt lat="46.20257" lon="6.02046">
        <ele>425.02</ele>
        <time>2016-05-05T07:07:23Z</time>
      </trkpt>
      <trkpt lat="46.20255" lon="6.0204">
        <ele>424.95</ele>
        <time>2016-05-05T07:07:24Z</time>
      </trkpt>
      <trkpt lat="46.20254" lon="6.02033">
        <ele>424.88</ele>
        <time>2016-05-05T07:07:25Z</time>
      </trkpt>
      <trkpt lat="46.20255" lon="6.02027">
        <ele>424.79</ele>
        <time>2016-05-05T07:07:26Z</time>
      </trkpt>
      <trkpt lat="46.20255" lon="6.0202">
        <ele>424.73</ele>
        <time>2016-05-05T07:07:27Z</time>
      </trkpt>
      <trkpt lat="46.20253" lon="6.02014">
        <ele>424.67</ele>
        <time>2016-05-05T07:07:28Z</time>
      </trkpt>
      <trkpt lat="46.20251" lon="6.02008">
        <ele>424.62</ele>
        <time>2016-05-05T07:07:29Z</time>
      </trkpt>
      <trkpt lat="46.20248" lon="6.02002">
        <ele>424.58</ele>
        <time>2016-05-05T07:07:30Z</time>
      </trkpt>
      <trkpt lat="46.20245" lon="6.01995">
        <ele>424.53</ele>
        <time>2016-05-05T07:07:31Z</time>
      </trkpt>
      <trkpt lat="46.20243" lon="6.01987">
        <ele>424.49</ele>
        <time>2016-05-05T07:07:32Z</time>
      </trkpt>
      <trkpt lat="46.2019" lon="6.01895">
        <ele>422.66</ele>
        <time>2016-05-05T07:07:45Z</time>
      </trkpt>
      <trkpt lat="46.20155" lon="6.0186">
        <ele>421.38</ele>
        <time>2016-05-05T07:07:51Z</time>
      </trkpt>
      <trkpt lat="46.20048" lon="6.01815">
        <ele>418.29</ele>
        <time>2016-05-05T07:08:05Z</time>
      </trkpt>
      <trkpt lat="46.19951" lon="6.01798">
        <ele>417.21</ele>
        <time>2016-05-05T07:08:18Z</time>
      </trkpt>
      <trkpt lat="46.19838" lon="6.01781">
        <ele>419.02</ele>
        <time>2016-05-05T07:08:36Z</time>
      </trkpt>
      <trkpt lat="46.19717" lon="6.01762">
        <ele>420.21</ele>
        <time>2016-05-05T07:08:56Z</time>
      </trkpt>
      <trkpt lat="46.19578" lon="6.0173">
        <ele>421.79</ele>
        <time>2016-05-05T07:09:19Z</time>
      </trkpt>
      <trkpt lat="46.19467" lon="6.01686">
        <ele>422.67</ele>
        <time>2016-05-05T07:09:37Z</time>
      </trkpt>
      <trkpt lat="46.19316" lon="6.01627">
        <ele>422.38</ele>
        <time>2016-05-05T07:10:00Z</time>
      </trkpt>
      <trkpt lat="46.19189" lon="6.01563">
        <ele>423.11</ele>
        <time>2016-05-05T07:10:20Z</time>
      </trkpt>
      <trkpt lat="46.19082" lon="6.01488">
        <ele>422.5</ele>
        <time>2016-05-05T07:10:37Z</time>
      </trkpt>
      <trkpt lat="46.18999" lon="6.01387">
        <ele>422.09</ele>
        <time>2016-05-05T07:10:53Z</time>
      </trkpt>
      <trkpt lat="46.18992" lon="6.01384">
        <ele>422.03</ele>
        <time>2016-05-05T07:10:54Z</time>
      </trkpt>
      <trkpt lat="46.18887" lon="6.01369">
        <ele>421.3</ele>
        <time>2016-05-05T07:11:10Z</time>
      </trkpt>
      <trkpt lat="46.18811" lon="6.01354">
        <ele>421.04</ele>
        <time>2016-05-05T07:11:22Z</time>
      </trkpt>
      <trkpt lat="46.18805" lon="6.01351">
        <ele>421.04</ele>
        <time>2016-05-05T07:11:23Z</time>
      </trkpt>
      <trkpt lat="46.188" lon="6.01346">
        <ele>421.04</ele>
        <time>2016-05-05T07:11:24Z</time>
      </trkpt>
      <trkpt lat="46.18796" lon="6.01341">
        <ele>421.04</ele>
        <time>2016-05-05T07:11:25Z</time>
      </trkpt>
      <trkpt lat="46.18791" lon="6.01335">
        <ele>421.06</ele>
        <time>2016-05-05T07:11:26Z</time>
      </trkpt>
      <trkpt lat="46.18779" lon="6.01315">
        <ele>421.27</ele>
        <time>2016-05-05T07:11:29Z</time>
      </trkpt>
      <trkpt lat="46.18768" lon="6.01294">
        <ele>421.57</ele>
        <time>2016-05-05T07:11:32Z</time>
      </trkpt>
      <trkpt lat="46.18765" lon="6.01287">
        <ele>421.6</ele>
        <time>2016-05-05T07:11:33Z</time>
      </trkpt>
      <trkpt lat="46.18763" lon="6.01279">
        <ele>421.59</ele>
        <time>2016-05-05T07:11:34Z</time>
      </trkpt>
      <trkpt lat="46.18764" lon="6.0124">
        <ele>421.18</ele>
        <time>2016-05-05T07:11:38Z</time>
      </trkpt>
      <trkpt lat="46.18766" lon="6.0123">
        <ele>420.95</ele>
        <time>2016-05-05T07:11:39Z</time>
      </trkpt>
      <trkpt lat="46.1877" lon="6.01221">
        <ele>420.67</ele>
        <time>2016-05-05T07:11:40Z</time>
      </trkpt>
      <trkpt lat="46.18775" lon="6.01211">
        <ele>420.34</ele>
        <time>2016-05-05T07:11:41Z</time>
      </trkpt>
      <trkpt lat="46.18781" lon="6.01202">
        <ele>419.95</ele>
        <time>2016-05-05T07:11:42Z</time>
      </trkpt>
      <trkpt lat="46.1882" lon="6.01144">
        <ele>416.56</ele>
        <time>2016-05-05T07:11:48Z</time>
      </trkpt>
      <trkpt lat="46.18857" lon="6.01099">
        <ele>413.2</ele>
        <time>2016-05-05T07:11:54Z</time>
      </trkpt>
      <trkpt lat="46.18867" lon="6.01086">
        <ele>412.01</ele>
        <time>2016-05-05T07:11:56Z</time>
      </trkpt>
      <trkpt lat="46.1887" lon="6.01078">
        <ele>411.63</ele>
        <time>2016-05-05T07:11:57Z</time>
      </trkpt>
      <trkpt lat="46.1887" lon="6.0107">
        <ele>411.25</ele>
        <time>2016-05-05T07:11:58Z</time>
      </trkpt>
      <trkpt lat="46.18868" lon="6.01062">
        <ele>410.88</ele>
        <time>2016-05-05T07:11:59Z</time>
      </trkpt>
      <trkpt lat="46.18864" lon="6.01057">
        <ele>410.49</ele>
        <time>2016-05-05T07:12:00Z</time>
      </trkpt>
      <trkpt lat="46.18858" lon="6.01054">
        <ele>410.07</ele>
        <time>2016-05-05T07:12:01Z</time>
      </trkpt>
      <trkpt lat="46.18851" lon="6.01055">
        <ele>409.64</ele>
        <time>2016-05-05T07:12:02Z</time>
      </trkpt>
      <trkpt lat="46.18845" lon="6.0106">
        <ele>409.22</ele>
        <time>2016-05-05T07:12:03Z</time>
      </trkpt>
      <trkpt lat="46.18839" lon="6.01066">
        <ele>408.82</ele>
        <time>2016-05-05T07:12:04Z</time>
      </trkpt>
      <trkpt lat="46.18833" lon="6.01073">
        <ele>408.37</ele>
        <time>2016-05-05T07:12:05Z</time>
      </trkpt>
      <trkpt lat="46.18792" lon="6.01121">
        <ele>405.27</ele>
        <time>2016-05-05T07:12:11Z</time>
      </trkpt>
      <trkpt lat="46.18744" lon="6.01158">
        <ele>401.72</ele>
        <time>2016-05-05T07:12:17Z</time>
      </trkpt>
      <trkpt lat="46.18711" lon="6.01172">
        <ele>399.12</ele>
        <time>2016-05-05T07:12:21Z</time>
      </trkpt>
      <trkpt lat="46.18666" lon="6.01174">
        <ele>395.77</ele>
        <time>2016-05-05T07:12:26Z</time>
      </trkpt>
      <trkpt lat="46.18622" lon="6.01169">
        <ele>392.59</ele>
        <time>2016-05-05T07:12:31Z</time>
      </trkpt>
      <trkpt lat="46.18575" lon="6.01164">
        <ele>389.49</ele>
        <time>2016-05-05T07:12:36Z</time>
      </trkpt>
      <trkpt lat="46.18518" lon="6.01158">
        <ele>386.41</ele>
        <time>2016-05-05T07:12:42Z</time>
      </trkpt>
      <trkpt lat="46.1849" lon="6.01155">
        <ele>385.14</ele>
        <time>2016-05-05T07:12:45Z</time>
      </trkpt>
      <trkpt lat="46.1845" lon="6.0115">
        <ele>382.13</ele>
        <time>2016-05-05T07:12:50Z</time>
      </trkpt>
      <trkpt lat="46.18431" lon="6.01146">
        <ele>381.01</ele>
        <time>2016-05-05T07:12:53Z</time>
      </trkpt>
      <trkpt lat="46.18426" lon="6.01144">
        <ele>380.61</ele>
        <time>2016-05-05T07:12:54Z</time>
      </trkpt>
      <trkpt lat="46.18423" lon="6.01139">
        <ele>380.2</ele>
        <time>2016-05-05T07:12:55Z</time>
      </trkpt>
      <trkpt lat="46.18422" lon="6.01132">
        <ele>379.81</ele>
        <time>2016-05-05T07:12:56Z</time>
      </trkpt>
      <trkpt lat="46.18422" lon="6.01125">
        <ele>379.42</ele>
        <time>2016-05-05T07:12:57Z</time>
      </trkpt>
      <trkpt lat="46.18425" lon="6.01119">
        <ele>379</ele>
        <time>2016-05-05T07:12:58Z</time>
      </trkpt>
      <trkpt lat="46.1843" lon="6.01113">
        <ele>378.51</ele>
        <time>2016-05-05T07:12:59Z</time>
      </trkpt>
      <trkpt lat="46.18436" lon="6.01111">
        <ele>377.96</ele>
        <time>2016-05-05T07:13:00Z</time>
      </trkpt>
      <trkpt lat="46.18444" lon="6.0111">
        <ele>377.36</ele>
        <time>2016-05-05T07:13:01Z</time>
      </trkpt>
      <trkpt lat="46.18451" lon="6.0111">
        <ele>376.71</ele>
        <time>2016-05-05T07:13:02Z</time>
      </trkpt>
      <trkpt lat="46.18465" lon="6.0111">
        <ele>375.6</ele>
        <time>2016-05-05T07:13:04Z</time>
      </trkpt>
      <trkpt lat="46.18473" lon="6.01109">
        <ele>375.07</ele>
        <time>2016-05-05T07:13:05Z</time>
      </trkpt>
      <trkpt lat="46.18486" lon="6.01109">
        <ele>374.1</ele>
        <time>2016-05-05T07:13:07Z</time>
      </trkpt>
      <trkpt lat="46.18493" lon="6.01108">
        <ele>373.61</ele>
        <time>2016-05-05T07:13:08Z</time>
      </trkpt>
      <trkpt lat="46.18501" lon="6.01106">
        <ele>373.11</ele>
        <time>2016-05-05T07:13:09Z</time>
      </trkpt>
      <trkpt lat="46.18518" lon="6.011">
        <ele>372.1</ele>
        <time>2016-05-05T07:13:11Z</time>
      </trkpt>
      <trkpt lat="46.18526" lon="6.01094">
        <ele>371.09</ele>
        <time>2016-05-05T07:13:12Z</time>
      </trkpt>
      <trkpt lat="46.18542" lon="6.01079">
        <ele>370.01</ele>
        <time>2016-05-05T07:13:14Z</time>
      </trkpt>
      <trkpt lat="46.18549" lon="6.0107">
        <ele>369.48</ele>
        <time>2016-05-05T07:13:15Z</time>
      </trkpt>
      <trkpt lat="46.18556" lon="6.01059">
        <ele>368.93</ele>
        <time>2016-05-05T07:13:16Z</time>
      </trkpt>
      <trkpt lat="46.18562" lon="6.01048">
        <ele>368.32</ele>
        <time>2016-05-05T07:13:17Z</time>
      </trkpt>
      <trkpt lat="46.18568" lon="6.01035">
        <ele>367.64</ele>
        <time>2016-05-05T07:13:18Z</time>
      </trkpt>
      <trkpt lat="46.18577" lon="6.01009">
        <ele>366.37</ele>
        <time>2016-05-05T07:13:20Z</time>
      </trkpt>
      <trkpt lat="46.1858" lon="6.00996">
        <ele>365.81</ele>
        <time>2016-05-05T07:13:21Z</time>
      </trkpt>
      <trkpt lat="46.18581" lon="6.00982">
        <ele>365.28</ele>
        <time>2016-05-05T07:13:22Z</time>
      </trkpt>
      <trkpt lat="46.1858" lon="6.00968">
        <ele>364.81</ele>
        <time>2016-05-05T07:13:23Z</time>
      </trkpt>
      <trkpt lat="46.18578" lon="6.00955">
        <ele>364.41</ele>
        <time>2016-05-05T07:13:24Z</time>
      </trkpt>
      <trkpt lat="46.18575" lon="6.00943">
        <ele>364.08</ele>
        <time>2016-05-05T07:13:25Z</time>
      </trkpt>
      <trkpt lat="46.18571" lon="6.00932">
        <ele>363.8</ele>
        <time>2016-05-05T07:13:26Z</time>
      </trkpt>
      <trkpt lat="46.18567" lon="6.00922">
        <ele>363.55</ele>
        <time>2016-05-05T07:13:27Z</time>
      </trkpt>
      <trkpt lat="46.18541" lon="6.00861">
        <ele>362.9</ele>
        <time>2016-05-05T07:13:34Z</time>
      </trkpt>
      <trkpt lat="46.18536" lon="6.00855">
        <ele>362.9</ele>
        <time>2016-05-05T07:13:35Z</time>
      </trkpt>
      <trkpt lat="46.18532" lon="6.0085">
        <ele>362.93</ele>
        <time>2016-05-05T07:13:36Z</time>
      </trkpt>
      <trkpt lat="46.18513" lon="6.00833">
        <ele>363.37</ele>
        <time>2016-05-05T07:13:40Z</time>
      </trkpt>
      <trkpt lat="46.18508" lon="6.00832">
        <ele>363.49</ele>
        <time>2016-05-05T07:13:41Z</time>
      </trkpt>
      <trkpt lat="46.18503" lon="6.00832">
        <ele>363.58</ele>
        <time>2016-05-05T07:13:42Z</time>
      </trkpt>
      <trkpt lat="46.18498" lon="6.00833">
        <ele>363.68</ele>
        <time>2016-05-05T07:13:43Z</time>
      </trkpt>
      <trkpt lat="46.18493" lon="6.00835">
        <ele>363.74</ele>
        <time>2016-05-05T07:13:44Z</time>
      </trkpt>
      <trkpt lat="46.18488" lon="6.00837">
        <ele>363.8</ele>
        <time>2016-05-05T07:13:45Z</time>
      </trkpt>
      <trkpt lat="46.18483" lon="6.00838">
        <ele>363.81</ele>
        <time>2016-05-05T07:13:46Z</time>
      </trkpt>
      <trkpt lat="46.18477" lon="6.00837">
        <ele>363.77</ele>
        <time>2016-05-05T07:13:47Z</time>
      </trkpt>
      <trkpt lat="46.18472" lon="6.00834">
        <ele>363.69</ele>
        <time>2016-05-05T07:13:48Z</time>
      </trkpt>
      <trkpt lat="46.18466" lon="6.0083">
        <ele>363.57</ele>
        <time>2016-05-05T07:13:49Z</time>
      </trkpt>
      <trkpt lat="46.1846" lon="6.00827">
        <ele>363.42</ele>
        <time>2016-05-05T07:13:50Z</time>
      </trkpt>
      <trkpt lat="46.18376" lon="6.00787">
        <ele>361.5</ele>
        <time>2016-05-05T07:14:03Z</time>
      </trkpt>
      <trkpt lat="46.18277" lon="6.00769">
        <ele>359.58</ele>
        <time>2016-05-05T07:14:17Z</time>
      </trkpt>
      <trkpt lat="46.18211" lon="6.00769">
        <ele>358.52</ele>
        <time>2016-05-05T07:14:26Z</time>
      </trkpt>
      <trkpt lat="46.18204" lon="6.00766">
        <ele>358.39</ele>
        <time>2016-05-05T07:14:27Z</time>
      </trkpt>
      <trkpt lat="46.1819" lon="6.00759">
        <ele>358.17</ele>
        <time>2016-05-05T07:14:29Z</time>
      </trkpt>
      <trkpt lat="46.18108" lon="6.0071">
        <ele>357.04</ele>
        <time>2016-05-05T07:14:41Z</time>
      </trkpt>
      <trkpt lat="46.17949" lon="6.00653">
        <ele>355.45</ele>
        <time>2016-05-05T07:15:03Z</time>
      </trkpt>
      <trkpt lat="46.17917" lon="6.00642">
        <ele>355.5</ele>
        <time>2016-05-05T07:15:08Z</time>
      </trkpt>
      <trkpt lat="46.17911" lon="6.00642">
        <ele>355.58</ele>
        <time>2016-05-05T07:15:09Z</time>
      </trkpt>
      <trkpt lat="46.17905" lon="6.00643">
        <ele>355.66</ele>
        <time>2016-05-05T07:15:10Z</time>
      </trkpt>
      <trkpt lat="46.17888" lon="6.00648">
        <ele>356.18</ele>
        <time>2016-05-05T07:15:13Z</time>
      </trkpt>
      <trkpt lat="46.17882" lon="6.00647">
        <ele>356.5</ele>
        <time>2016-05-05T07:15:14Z</time>
      </trkpt>
      <trkpt lat="46.17876" lon="6.00645">
        <ele>356.61</ele>
        <time>2016-05-05T07:15:15Z</time>
      </trkpt>
      <trkpt lat="46.17843" lon="6.00625">
        <ele>357.04</ele>
        <time>2016-05-05T07:15:21Z</time>
      </trkpt>
      <trkpt lat="46.17838" lon="6.00621">
        <ele>357.07</ele>
        <time>2016-05-05T07:15:22Z</time>
      </trkpt>
      <trkpt lat="46.17829" lon="6.0061">
        <ele>357.1</ele>
        <time>2016-05-05T07:15:24Z</time>
      </trkpt>
      <trkpt lat="46.17815" lon="6.00591">
        <ele>357.02</ele>
        <time>2016-05-05T07:15:27Z</time>
      </trkpt>
      <trkpt lat="46.17811" lon="6.00584">
        <ele>356.97</ele>
        <time>2016-05-05T07:15:28Z</time>
      </trkpt>
      <trkpt lat="46.17808" lon="6.00576">
        <ele>356.9</ele>
        <time>2016-05-05T07:15:29Z</time>
      </trkpt>
      <trkpt lat="46.17806" lon="6.00567">
        <ele>356.85</ele>
        <time>2016-05-05T07:15:30Z</time>
      </trkpt>
      <trkpt lat="46.17805" lon="6.00558">
        <ele>356.78</ele>
        <time>2016-05-05T07:15:31Z</time>
      </trkpt>
      <trkpt lat="46.17803" lon="6.00549">
        <ele>356.73</ele>
        <time>2016-05-05T07:15:32Z</time>
      </trkpt>
      <trkpt lat="46.17802" lon="6.0054">
        <ele>356.7</ele>
        <time>2016-05-05T07:15:33Z</time>
      </trkpt>
      <trkpt lat="46.17792" lon="6.00424">
        <ele>357.07</ele>
        <time>2016-05-05T07:15:46Z</time>
      </trkpt>
      <trkpt lat="46.17788" lon="6.00291">
        <ele>356.7</ele>
        <time>2016-05-05T07:16:01Z</time>
      </trkpt>
      <trkpt lat="46.17787" lon="6.00132">
        <ele>355.56</ele>
        <time>2016-05-05T07:16:18Z</time>
      </trkpt>
      <trkpt lat="46.17784" lon="6.00102">
        <ele>355.33</ele>
        <time>2016-05-05T07:16:22Z</time>
      </trkpt>
      <trkpt lat="46.17781" lon="6.00095">
        <ele>355.27</ele>
        <time>2016-05-05T07:16:23Z</time>
      </trkpt>
      <trkpt lat="46.17777" lon="6.0009">
        <ele>355.21</ele>
        <time>2016-05-05T07:16:24Z</time>
      </trkpt>
      <trkpt lat="46.17773" lon="6.00087">
        <ele>355.16</ele>
        <time>2016-05-05T07:16:25Z</time>
      </trkpt>
      <trkpt lat="46.17767" lon="6.00086">
        <ele>355.12</ele>
        <time>2016-05-05T07:16:26Z</time>
      </trkpt>
      <trkpt lat="46.17761" lon="6.00086">
        <ele>355.07</ele>
        <time>2016-05-05T07:16:27Z</time>
      </trkpt>
      <trkpt lat="46.17756" lon="6.00088">
        <ele>355.04</ele>
        <time>2016-05-05T07:16:28Z</time>
      </trkpt>
      <trkpt lat="46.1775" lon="6.00089">
        <ele>355.03</ele>
        <time>2016-05-05T07:16:29Z</time>
      </trkpt>
      <trkpt lat="46.17724" lon="6.00098">
        <ele>354.92</ele>
        <time>2016-05-05T07:16:34Z</time>
      </trkpt>
      <trkpt lat="46.17718" lon="6.00098">
        <ele>354.89</ele>
        <time>2016-05-05T07:16:35Z</time>
      </trkpt>
      <trkpt lat="46.17713" lon="6.00098">
        <ele>354.87</ele>
        <time>2016-05-05T07:16:36Z</time>
      </trkpt>
      <trkpt lat="46.17626" lon="6.00068">
        <ele>355.62</ele>
        <time>2016-05-05T07:16:53Z</time>
      </trkpt>
      <trkpt lat="46.17542" lon="6.00033">
        <ele>355.76</ele>
        <time>2016-05-05T07:17:10Z</time>
      </trkpt>
      <trkpt lat="46.17538" lon="6.00029">
        <ele>355.76</ele>
        <time>2016-05-05T07:17:11Z</time>
      </trkpt>
      <trkpt lat="46.17536" lon="6.00023">
        <ele>355.75</ele>
        <time>2016-05-05T07:17:12Z</time>
      </trkpt>
      <trkpt lat="46.17535" lon="6.00016">
        <ele>355.76</ele>
        <time>2016-05-05T07:17:13Z</time>
      </trkpt>
      <trkpt lat="46.17536" lon="6.00009">
        <ele>355.8</ele>
        <time>2016-05-05T07:17:14Z</time>
      </trkpt>
      <trkpt lat="46.17537" lon="6.00002">
        <ele>355.89</ele>
        <time>2016-05-05T07:17:15Z</time>
      </trkpt>
      <trkpt lat="46.17545" lon="5.99951">
        <ele>357.89</ele>
        <time>2016-05-05T07:17:27Z</time>
      </trkpt>
      <trkpt lat="46.1755" lon="5.99952">
        <ele>358.82</ele>
        <time>2016-05-05T07:17:53Z</time>
      </trkpt>
      <trkpt lat="46.17551" lon="5.9995">
        <ele>358.86</ele>
        <time>2016-05-05T07:19:09Z</time>
      </trkpt>
      <trkpt lat="46.17547" lon="5.99951">
        <ele>359.12</ele>
        <time>2016-05-05T07:20:08Z</time>
      </trkpt>
      <trkpt lat="46.17548" lon="5.9995">
        <ele>358.88</ele>
        <time>2016-05-05T07:20:43Z</time>
      </trkpt>
      <trkpt lat="46.17548" lon="5.99954">
        <ele>358.8</ele>
        <time>2016-05-05T07:21:23Z</time>
      </trkpt>
      <trkpt lat="46.17547" lon="5.99954">
        <ele>358.94</ele>
        <time>2016-05-05T07:21:56Z</time>
      </trkpt>
      <trkpt lat="46.17548" lon="5.99953">
        <ele>358.84</ele>
        <time>2016-05-05T07:22:24Z</time>
      </trkpt>
      <trkpt lat="46.17549" lon="5.99945">
        <ele>358.88</ele>
        <time>2016-05-05T07:22:44Z</time>
      </trkpt>
      <trkpt lat="46.17549" lon="5.99942">
        <ele>358.85</ele>
        <time>2016-05-05T07:22:45Z</time>
      </trkpt>
      <trkpt lat="46.17549" lon="5.99939">
        <ele>358.88</ele>
        <time>2016-05-05T07:22:46Z</time>
      </trkpt>
      <trkpt lat="46.17554" lon="5.99895">
        <ele>359.85</ele>
        <time>2016-05-05T07:22:59Z</time>
      </trkpt>
      <trkpt lat="46.1756" lon="5.9985">
        <ele>361.3</ele>
        <time>2016-05-05T07:23:11Z</time>
      </trkpt>
      <trkpt lat="46.17565" lon="5.99798">
        <ele>362.63</ele>
        <time>2016-05-05T07:23:24Z</time>
      </trkpt>
      <trkpt lat="46.1754" lon="5.99764">
        <ele>363.65</ele>
        <time>2016-05-05T07:23:36Z</time>
      </trkpt>
      <trkpt lat="46.1751" lon="5.9979">
        <ele>365.16</ele>
        <time>2016-05-05T07:23:49Z</time>
      </trkpt>
      <trkpt lat="46.17498" lon="5.9986">
        <ele>366.66</ele>
        <time>2016-05-05T07:24:05Z</time>
      </trkpt>
      <trkpt lat="46.17482" lon="5.99949">
        <ele>369.11</ele>
        <time>2016-05-05T07:24:26Z</time>
      </trkpt>
      <trkpt lat="46.17463" lon="6.00049">
        <ele>372.15</ele>
        <time>2016-05-05T07:24:49Z</time>
      </trkpt>
      <trkpt lat="46.17455" lon="6.00103">
        <ele>373.7</ele>
        <time>2016-05-05T07:25:02Z</time>
      </trkpt>
      <trkpt lat="46.17449" lon="6.00152">
        <ele>375.21</ele>
        <time>2016-05-05T07:25:14Z</time>
      </trkpt>
      <trkpt lat="46.17438" lon="6.00202">
        <ele>376.76</ele>
        <time>2016-05-05T07:25:26Z</time>
      </trkpt>
      <trkpt lat="46.17428" lon="6.00248">
        <ele>378.51</ele>
        <time>2016-05-05T07:25:37Z</time>
      </trkpt>
      <trkpt lat="46.17414" lon="6.00312">
        <ele>380.99</ele>
        <time>2016-05-05T07:25:53Z</time>
      </trkpt>
      <trkpt lat="46.17409" lon="6.0035">
        <ele>382.7</ele>
        <time>2016-05-05T07:26:03Z</time>
      </trkpt>
      <trkpt lat="46.174" lon="6.00396">
        <ele>384.93</ele>
        <time>2016-05-05T07:26:15Z</time>
      </trkpt>
      <trkpt lat="46.17392" lon="6.00441">
        <ele>386.81</ele>
        <time>2016-05-05T07:26:26Z</time>
      </trkpt>
      <trkpt lat="46.17383" lon="6.00501">
        <ele>389.69</ele>
        <time>2016-05-05T07:26:41Z</time>
      </trkpt>
      <trkpt lat="46.17362" lon="6.00544">
        <ele>392.04</ele>
        <time>2016-05-05T07:26:55Z</time>
      </trkpt>
      <trkpt lat="46.1732" lon="6.00556">
        <ele>394.84</ele>
        <time>2016-05-05T07:27:11Z</time>
      </trkpt>
      <trkpt lat="46.17286" lon="6.00538">
        <ele>397.87</ele>
        <time>2016-05-05T07:27:26Z</time>
      </trkpt>
      <trkpt lat="46.17264" lon="6.00507">
        <ele>401.06</ele>
        <time>2016-05-05T07:27:41Z</time>
      </trkpt>
      <trkpt lat="46.17243" lon="6.00472">
        <ele>403.93</ele>
        <time>2016-05-05T07:27:55Z</time>
      </trkpt>
      <trkpt lat="46.17226" lon="6.00435">
        <ele>406.36</ele>
        <time>2016-05-05T07:28:09Z</time>
      </trkpt>
      <trkpt lat="46.17199" lon="6.00382">
        <ele>409.24</ele>
        <time>2016-05-05T07:28:28Z</time>
      </trkpt>
      <trkpt lat="46.17175" lon="6.00335">
        <ele>411.52</ele>
        <time>2016-05-05T07:28:44Z</time>
      </trkpt>
      <trkpt lat="46.17146" lon="6.00276">
        <ele>414.47</ele>
        <time>2016-05-05T07:29:03Z</time>
      </trkpt>
      <trkpt lat="46.17123" lon="6.0023">
        <ele>416.55</ele>
        <time>2016-05-05T07:29:18Z</time>
      </trkpt>
      <trkpt lat="46.17091" lon="6.00189">
        <ele>419.61</ele>
        <time>2016-05-05T07:29:35Z</time>
      </trkpt>
      <trkpt lat="46.17045" lon="6.00157">
        <ele>422.14</ele>
        <time>2016-05-05T07:29:54Z</time>
      </trkpt>
      <trkpt lat="46.17017" lon="6.00124">
        <ele>424.79</ele>
        <time>2016-05-05T07:30:09Z</time>
      </trkpt>
      <trkpt lat="46.16988" lon="6.00117">
        <ele>426.44</ele>
        <time>2016-05-05T07:30:21Z</time>
      </trkpt>
      <trkpt lat="46.16968" lon="6.0013">
        <ele>427.32</ele>
        <time>2016-05-05T07:30:30Z</time>
      </trkpt>
      <trkpt lat="46.16966" lon="6.0013">
        <ele>427.43</ele>
        <time>2016-05-05T07:30:31Z</time>
      </trkpt>
      <trkpt lat="46.16964" lon="6.00129">
        <ele>427.53</ele>
        <time>2016-05-05T07:30:32Z</time>
      </trkpt>
      <trkpt lat="46.16962" lon="6.00126">
        <ele>427.6</ele>
        <time>2016-05-05T07:30:33Z</time>
      </trkpt>
      <trkpt lat="46.1696" lon="6.00123">
        <ele>427.66</ele>
        <time>2016-05-05T07:30:34Z</time>
      </trkpt>
      <trkpt lat="46.16959" lon="6.0012">
        <ele>427.71</ele>
        <time>2016-05-05T07:30:35Z</time>
      </trkpt>
      <trkpt lat="46.16957" lon="6.00117">
        <ele>427.75</ele>
        <time>2016-05-05T07:30:36Z</time>
      </trkpt>
      <trkpt lat="46.16956" lon="6.00114">
        <ele>427.79</ele>
        <time>2016-05-05T07:30:37Z</time>
      </trkpt>
      <trkpt lat="46.16954" lon="6.0011">
        <ele>427.81</ele>
        <time>2016-05-05T07:30:38Z</time>
      </trkpt>
      <trkpt lat="46.16936" lon="6.00043">
        <ele>426.7</ele>
        <time>2016-05-05T07:30:51Z</time>
      </trkpt>
      <trkpt lat="46.16933" lon="6.00036">
        <ele>426.54</ele>
        <time>2016-05-05T07:30:52Z</time>
      </trkpt>
      <trkpt lat="46.1692" lon="6.00001">
        <ele>425.85</ele>
        <time>2016-05-05T07:30:57Z</time>
      </trkpt>
      <trkpt lat="46.16893" lon="5.99908">
        <ele>425.33</ele>
        <time>2016-05-05T07:31:10Z</time>
      </trkpt>
      <trkpt lat="46.1689" lon="5.99893">
        <ele>425.33</ele>
        <time>2016-05-05T07:31:12Z</time>
      </trkpt>
      <trkpt lat="46.16888" lon="5.99887">
        <ele>425.33</ele>
        <time>2016-05-05T07:31:13Z</time>
      </trkpt>
      <trkpt lat="46.16887" lon="5.99871">
        <ele>425.31</ele>
        <time>2016-05-05T07:31:15Z</time>
      </trkpt>
      <trkpt lat="46.16887" lon="5.99854">
        <ele>425.16</ele>
        <time>2016-05-05T07:31:17Z</time>
      </trkpt>
      <trkpt lat="46.16886" lon="5.99845">
        <ele>425.04</ele>
        <time>2016-05-05T07:31:18Z</time>
      </trkpt>
      <trkpt lat="46.16854" lon="5.99704">
        <ele>422.36</ele>
        <time>2016-05-05T07:31:34Z</time>
      </trkpt>
      <trkpt lat="46.16845" lon="5.9968">
        <ele>421.43</ele>
        <time>2016-05-05T07:31:37Z</time>
      </trkpt>
      <trkpt lat="46.16843" lon="5.99671">
        <ele>421.11</ele>
        <time>2016-05-05T07:31:38Z</time>
      </trkpt>
      <trkpt lat="46.16841" lon="5.99662">
        <ele>420.79</ele>
        <time>2016-05-05T07:31:39Z</time>
      </trkpt>
      <trkpt lat="46.16841" lon="5.99652">
        <ele>420.45</ele>
        <time>2016-05-05T07:31:40Z</time>
      </trkpt>
      <trkpt lat="46.16842" lon="5.99641">
        <ele>420.06</ele>
        <time>2016-05-05T07:31:41Z</time>
      </trkpt>
      <trkpt lat="46.16842" lon="5.9962">
        <ele>419.26</ele>
        <time>2016-05-05T07:31:43Z</time>
      </trkpt>
      <trkpt lat="46.16842" lon="5.9961">
        <ele>418.93</ele>
        <time>2016-05-05T07:31:44Z</time>
      </trkpt>
      <trkpt lat="46.16843" lon="5.99601">
        <ele>418.64</ele>
        <time>2016-05-05T07:31:45Z</time>
      </trkpt>
      <trkpt lat="46.16848" lon="5.99572">
        <ele>417.9</ele>
        <time>2016-05-05T07:31:48Z</time>
      </trkpt>
      <trkpt lat="46.16849" lon="5.99563">
        <ele>417.72</ele>
        <time>2016-05-05T07:31:49Z</time>
      </trkpt>
      <trkpt lat="46.16849" lon="5.99413">
        <ele>416.69</ele>
        <time>2016-05-05T07:32:04Z</time>
      </trkpt>
      <trkpt lat="46.16823" lon="5.9931">
        <ele>416.65</ele>
        <time>2016-05-05T07:32:16Z</time>
      </trkpt>
      <trkpt lat="46.16776" lon="5.99198">
        <ele>417.29</ele>
        <time>2016-05-05T07:32:31Z</time>
      </trkpt>
      <trkpt lat="46.16767" lon="5.99159">
        <ele>417.38</ele>
        <time>2016-05-05T07:32:36Z</time>
      </trkpt>
      <trkpt lat="46.16748" lon="5.99058">
        <ele>417.83</ele>
        <time>2016-05-05T07:32:49Z</time>
      </trkpt>
      <trkpt lat="46.16741" lon="5.99019">
        <ele>417.91</ele>
        <time>2016-05-05T07:32:54Z</time>
      </trkpt>
      <trkpt lat="46.16739" lon="5.99011">
        <ele>417.94</ele>
        <time>2016-05-05T07:32:55Z</time>
      </trkpt>
      <trkpt lat="46.16737" lon="5.99003">
        <ele>417.96</ele>
        <time>2016-05-05T07:32:56Z</time>
      </trkpt>
      <trkpt lat="46.16736" lon="5.98995">
        <ele>417.98</ele>
        <time>2016-05-05T07:32:57Z</time>
      </trkpt>
      <trkpt lat="46.16735" lon="5.98987">
        <ele>417.98</ele>
        <time>2016-05-05T07:32:58Z</time>
      </trkpt>
      <trkpt lat="46.16734" lon="5.9898">
        <ele>417.97</ele>
        <time>2016-05-05T07:32:59Z</time>
      </trkpt>
      <trkpt lat="46.16732" lon="5.98972">
        <ele>417.96</ele>
        <time>2016-05-05T07:33:00Z</time>
      </trkpt>
      <trkpt lat="46.16731" lon="5.98965">
        <ele>417.96</ele>
        <time>2016-05-05T07:33:01Z</time>
      </trkpt>
      <trkpt lat="46.16729" lon="5.98958">
        <ele>417.96</ele>
        <time>2016-05-05T07:33:02Z</time>
      </trkpt>
      <trkpt lat="46.16725" lon="5.98927">
        <ele>418.06</ele>
        <time>2016-05-05T07:33:06Z</time>
      </trkpt>
      <trkpt lat="46.16724" lon="5.98913">
        <ele>418.18</ele>
        <time>2016-05-05T07:33:08Z</time>
      </trkpt>
      <trkpt lat="46.16725" lon="5.98907">
        <ele>418.19</ele>
        <time>2016-05-05T07:33:09Z</time>
      </trkpt>
      <trkpt lat="46.16725" lon="5.98901">
        <ele>418.2</ele>
        <time>2016-05-05T07:33:10Z</time>
      </trkpt>
      <trkpt lat="46.16725" lon="5.98894">
        <ele>418.17</ele>
        <time>2016-05-05T07:33:11Z</time>
      </trkpt>
      <trkpt lat="46.16725" lon="5.98886">
        <ele>418.12</ele>
        <time>2016-05-05T07:33:12Z</time>
      </trkpt>
      <trkpt lat="46.16718" lon="5.9881">
        <ele>417.55</ele>
        <time>2016-05-05T07:33:21Z</time>
      </trkpt>
      <trkpt lat="46.16718" lon="5.98787">
        <ele>417.35</ele>
        <time>2016-05-05T07:33:24Z</time>
      </trkpt>
      <trkpt lat="46.16718" lon="5.9878">
        <ele>417.29</ele>
        <time>2016-05-05T07:33:25Z</time>
      </trkpt>
      <trkpt lat="46.16719" lon="5.98749">
        <ele>417.09</ele>
        <time>2016-05-05T07:33:29Z</time>
      </trkpt>
      <trkpt lat="46.16729" lon="5.98685">
        <ele>416.57</ele>
        <time>2016-05-05T07:33:37Z</time>
      </trkpt>
      <trkpt lat="46.16731" lon="5.98678">
        <ele>416.38</ele>
        <time>2016-05-05T07:33:38Z</time>
      </trkpt>
      <trkpt lat="46.16734" lon="5.9867">
        <ele>416.25</ele>
        <time>2016-05-05T07:33:39Z</time>
      </trkpt>
      <trkpt lat="46.16784" lon="5.98561">
        <ele>413.55</ele>
        <time>2016-05-05T07:33:54Z</time>
      </trkpt>
      <trkpt lat="46.16785" lon="5.98553">
        <ele>413.21</ele>
        <time>2016-05-05T07:33:55Z</time>
      </trkpt>
      <trkpt lat="46.16787" lon="5.98543">
        <ele>412.86</ele>
        <time>2016-05-05T07:33:56Z</time>
      </trkpt>
      <trkpt lat="46.16788" lon="5.98534">
        <ele>412.5</ele>
        <time>2016-05-05T07:33:57Z</time>
      </trkpt>
      <trkpt lat="46.16788" lon="5.98526">
        <ele>412.1</ele>
        <time>2016-05-05T07:33:58Z</time>
      </trkpt>
      <trkpt lat="46.1679" lon="5.98517">
        <ele>411.68</ele>
        <time>2016-05-05T07:33:59Z</time>
      </trkpt>
      <trkpt lat="46.16791" lon="5.98507">
        <ele>411.26</ele>
        <time>2016-05-05T07:34:00Z</time>
      </trkpt>
      <trkpt lat="46.16802" lon="5.98448">
        <ele>408.77</ele>
        <time>2016-05-05T07:34:06Z</time>
      </trkpt>
      <trkpt lat="46.16802" lon="5.9844">
        <ele>408.39</ele>
        <time>2016-05-05T07:34:07Z</time>
      </trkpt>
      <trkpt lat="46.16802" lon="5.9843">
        <ele>407.99</ele>
        <time>2016-05-05T07:34:08Z</time>
      </trkpt>
      <trkpt lat="46.168" lon="5.98422">
        <ele>407.59</ele>
        <time>2016-05-05T07:34:09Z</time>
      </trkpt>
      <trkpt lat="46.16798" lon="5.98413">
        <ele>407.19</ele>
        <time>2016-05-05T07:34:10Z</time>
      </trkpt>
      <trkpt lat="46.16797" lon="5.98404">
        <ele>406.83</ele>
        <time>2016-05-05T07:34:11Z</time>
      </trkpt>
      <trkpt lat="46.16796" lon="5.98395">
        <ele>406.54</ele>
        <time>2016-05-05T07:34:12Z</time>
      </trkpt>
      <trkpt lat="46.16786" lon="5.98332">
        <ele>404.49</ele>
        <time>2016-05-05T07:34:19Z</time>
      </trkpt>
      <trkpt lat="46.16784" lon="5.98324">
        <ele>404.14</ele>
        <time>2016-05-05T07:34:20Z</time>
      </trkpt>
      <trkpt lat="46.16781" lon="5.98316">
        <ele>403.78</ele>
        <time>2016-05-05T07:34:21Z</time>
      </trkpt>
      <trkpt lat="46.16769" lon="5.98294">
        <ele>402.31</ele>
        <time>2016-05-05T07:34:24Z</time>
      </trkpt>
      <trkpt lat="46.16765" lon="5.98287">
        <ele>401.75</ele>
        <time>2016-05-05T07:34:25Z</time>
      </trkpt>
      <trkpt lat="46.16759" lon="5.98281">
        <ele>400.47</ele>
        <time>2016-05-05T07:34:26Z</time>
      </trkpt>
      <trkpt lat="46.16752" lon="5.98275">
        <ele>399.76</ele>
        <time>2016-05-05T07:34:27Z</time>
      </trkpt>
      <trkpt lat="46.16745" lon="5.98269">
        <ele>399.08</ele>
        <time>2016-05-05T07:34:28Z</time>
      </trkpt>
      <trkpt lat="46.16737" lon="5.98266">
        <ele>398.4</ele>
        <time>2016-05-05T07:34:29Z</time>
      </trkpt>
      <trkpt lat="46.1673" lon="5.98263">
        <ele>397.7</ele>
        <time>2016-05-05T07:34:30Z</time>
      </trkpt>
      <trkpt lat="46.16721" lon="5.9826">
        <ele>397.05</ele>
        <time>2016-05-05T07:34:31Z</time>
      </trkpt>
      <trkpt lat="46.16712" lon="5.98258">
        <ele>396.47</ele>
        <time>2016-05-05T07:34:32Z</time>
      </trkpt>
      <trkpt lat="46.16705" lon="5.98257">
        <ele>395.93</ele>
        <time>2016-05-05T07:34:33Z</time>
      </trkpt>
      <trkpt lat="46.16628" lon="5.98247">
        <ele>393.01</ele>
        <time>2016-05-05T07:34:42Z</time>
      </trkpt>
      <trkpt lat="46.16569" lon="5.98242">
        <ele>389.9</ele>
        <time>2016-05-05T07:34:50Z</time>
      </trkpt>
      <trkpt lat="46.16471" lon="5.9827">
        <ele>388.2</ele>
        <time>2016-05-05T07:35:05Z</time>
      </trkpt>
      <trkpt lat="46.16385" lon="5.98302">
        <ele>388.85</ele>
        <time>2016-05-05T07:35:19Z</time>
      </trkpt>
      <trkpt lat="46.16275" lon="5.98311">
        <ele>387.65</ele>
        <time>2016-05-05T07:35:36Z</time>
      </trkpt>
      <trkpt lat="46.16236" lon="5.98308">
        <ele>386.66</ele>
        <time>2016-05-05T07:35:42Z</time>
      </trkpt>
      <trkpt lat="46.16229" lon="5.98307">
        <ele>386.56</ele>
        <time>2016-05-05T07:35:43Z</time>
      </trkpt>
      <trkpt lat="46.16152" lon="5.98279">
        <ele>384.81</ele>
        <time>2016-05-05T07:35:55Z</time>
      </trkpt>
      <trkpt lat="46.16084" lon="5.98266">
        <ele>383.56</ele>
        <time>2016-05-05T07:36:06Z</time>
      </trkpt>
      <trkpt lat="46.16077" lon="5.98266">
        <ele>383.53</ele>
        <time>2016-05-05T07:36:07Z</time>
      </trkpt>
      <trkpt lat="46.16039" lon="5.98269">
        <ele>383.29</ele>
        <time>2016-05-05T07:36:13Z</time>
      </trkpt>
      <trkpt lat="46.15967" lon="5.98256">
        <ele>382.81</ele>
        <time>2016-05-05T07:36:24Z</time>
      </trkpt>
      <trkpt lat="46.15897" lon="5.98267">
        <ele>382.53</ele>
        <time>2016-05-05T07:36:38Z</time>
      </trkpt>
      <trkpt lat="46.15882" lon="5.98281">
        <ele>382.34</ele>
        <time>2016-05-05T07:36:43Z</time>
      </trkpt>
      <trkpt lat="46.15879" lon="5.9828">
        <ele>382.16</ele>
        <time>2016-05-05T07:36:44Z</time>
      </trkpt>
      <trkpt lat="46.15877" lon="5.98278">
        <ele>381.91</ele>
        <time>2016-05-05T07:36:45Z</time>
      </trkpt>
      <trkpt lat="46.15876" lon="5.98274">
        <ele>381.64</ele>
        <time>2016-05-05T07:36:46Z</time>
      </trkpt>
      <trkpt lat="46.15875" lon="5.98269">
        <ele>381.39</ele>
        <time>2016-05-05T07:36:47Z</time>
      </trkpt>
      <trkpt lat="46.15874" lon="5.98263">
        <ele>381.14</ele>
        <time>2016-05-05T07:36:48Z</time>
      </trkpt>
      <trkpt lat="46.15874" lon="5.98256">
        <ele>380.91</ele>
        <time>2016-05-05T07:36:49Z</time>
      </trkpt>
      <trkpt lat="46.15873" lon="5.9825">
        <ele>380.67</ele>
        <time>2016-05-05T07:36:50Z</time>
      </trkpt>
      <trkpt lat="46.15872" lon="5.98238">
        <ele>380.21</ele>
        <time>2016-05-05T07:36:52Z</time>
      </trkpt>
      <trkpt lat="46.15872" lon="5.98219">
        <ele>379.41</ele>
        <time>2016-05-05T07:36:55Z</time>
      </trkpt>
      <trkpt lat="46.15873" lon="5.98213">
        <ele>379.26</ele>
        <time>2016-05-05T07:36:56Z</time>
      </trkpt>
      <trkpt lat="46.15873" lon="5.98207">
        <ele>379.08</ele>
        <time>2016-05-05T07:36:57Z</time>
      </trkpt>
      <trkpt lat="46.15874" lon="5.98202">
        <ele>378.83</ele>
        <time>2016-05-05T07:36:58Z</time>
      </trkpt>
      <trkpt lat="46.15873" lon="5.98198">
        <ele>378.52</ele>
        <time>2016-05-05T07:36:59Z</time>
      </trkpt>
      <trkpt lat="46.1587" lon="5.98196">
        <ele>378.21</ele>
        <time>2016-05-05T07:37:00Z</time>
      </trkpt>
      <trkpt lat="46.15867" lon="5.98196">
        <ele>377.91</ele>
        <time>2016-05-05T07:37:01Z</time>
      </trkpt>
      <trkpt lat="46.15863" lon="5.98196">
        <ele>377.6</ele>
        <time>2016-05-05T07:37:02Z</time>
      </trkpt>
      <trkpt lat="46.1586" lon="5.98196">
        <ele>377.31</ele>
        <time>2016-05-05T07:37:03Z</time>
      </trkpt>
      <trkpt lat="46.15851" lon="5.98195">
        <ele>376.83</ele>
        <time>2016-05-05T07:37:05Z</time>
      </trkpt>
      <trkpt lat="46.15847" lon="5.98195">
        <ele>376.65</ele>
        <time>2016-05-05T07:37:06Z</time>
      </trkpt>
      <trkpt lat="46.15823" lon="5.98188">
        <ele>376.16</ele>
        <time>2016-05-05T07:37:12Z</time>
      </trkpt>
      <trkpt lat="46.15818" lon="5.98187">
        <ele>376.16</ele>
        <time>2016-05-05T07:37:13Z</time>
      </trkpt>
      <trkpt lat="46.15803" lon="5.98184">
        <ele>376.17</ele>
        <time>2016-05-05T07:37:16Z</time>
      </trkpt>
      <trkpt lat="46.15799" lon="5.98183">
        <ele>376.17</ele>
        <time>2016-05-05T07:37:17Z</time>
      </trkpt>
      <trkpt lat="46.1578" lon="5.98172">
        <ele>376.19</ele>
        <time>2016-05-05T07:37:21Z</time>
      </trkpt>
      <trkpt lat="46.15776" lon="5.98168">
        <ele>376.19</ele>
        <time>2016-05-05T07:37:22Z</time>
      </trkpt>
      <trkpt lat="46.15737" lon="5.9813">
        <ele>376.39</ele>
        <time>2016-05-05T07:37:31Z</time>
      </trkpt>
      <trkpt lat="46.15713" lon="5.98121">
        <ele>376.56</ele>
        <time>2016-05-05T07:37:36Z</time>
      </trkpt>
      <trkpt lat="46.15663" lon="5.98111">
        <ele>376.82</ele>
        <time>2016-05-05T07:37:48Z</time>
      </trkpt>
      <trkpt lat="46.15662" lon="5.98108">
        <ele>376.91</ele>
        <time>2016-05-05T07:37:49Z</time>
      </trkpt>
      <trkpt lat="46.15663" lon="5.98105">
        <ele>376.97</ele>
        <time>2016-05-05T07:37:50Z</time>
      </trkpt>
      <trkpt lat="46.15664" lon="5.98102">
        <ele>377.02</ele>
        <time>2016-05-05T07:37:51Z</time>
      </trkpt>
      <trkpt lat="46.15665" lon="5.981">
        <ele>377.07</ele>
        <time>2016-05-05T07:37:52Z</time>
      </trkpt>
      <trkpt lat="46.15666" lon="5.98097">
        <ele>377.05</ele>
        <time>2016-05-05T07:37:53Z</time>
      </trkpt>
      <trkpt lat="46.15668" lon="5.98095">
        <ele>377</ele>
        <time>2016-05-05T07:37:54Z</time>
      </trkpt>
      <trkpt lat="46.15671" lon="5.98093">
        <ele>376.95</ele>
        <time>2016-05-05T07:37:55Z</time>
      </trkpt>
      <trkpt lat="46.15673" lon="5.98092">
        <ele>376.91</ele>
        <time>2016-05-05T07:37:56Z</time>
      </trkpt>
      <trkpt lat="46.15675" lon="5.98091">
        <ele>376.86</ele>
        <time>2016-05-05T07:37:57Z</time>
      </trkpt>
      <trkpt lat="46.15675" lon="5.98088">
        <ele>376.82</ele>
        <time>2016-05-05T07:37:58Z</time>
      </trkpt>
      <trkpt lat="46.15675" lon="5.98087">
        <ele>376.76</ele>
        <time>2016-05-05T07:37:59Z</time>
      </trkpt>
      <trkpt lat="46.15674" lon="5.98086">
        <ele>376.46</ele>
        <time>2016-05-05T07:38:14Z</time>
      </trkpt>
      <trkpt lat="46.15669" lon="5.98085">
        <ele>376.81</ele>
        <time>2016-05-05T07:39:10Z</time>
      </trkpt>
      <trkpt lat="46.15668" lon="5.98086">
        <ele>377.15</ele>
        <time>2016-05-05T07:40:12Z</time>
      </trkpt>
      <trkpt lat="46.15666" lon="5.98087">
        <ele>377.12</ele>
        <time>2016-05-05T07:40:42Z</time>
      </trkpt>
      <trkpt lat="46.15668" lon="5.98085">
        <ele>377.11</ele>
        <time>2016-05-05T07:41:19Z</time>
      </trkpt>
      <trkpt lat="46.15664" lon="5.98086">
        <ele>376.89</ele>
        <time>2016-05-05T07:41:50Z</time>
      </trkpt>
      <trkpt lat="46.15663" lon="5.98087">
        <ele>376.86</ele>
        <time>2016-05-05T07:41:51Z</time>
      </trkpt>
      <trkpt lat="46.15661" lon="5.98087">
        <ele>376.84</ele>
        <time>2016-05-05T07:41:52Z</time>
      </trkpt>
      <trkpt lat="46.15651" lon="5.98087">
        <ele>376.81</ele>
        <time>2016-05-05T07:41:56Z</time>
      </trkpt>
      <trkpt lat="46.15649" lon="5.98084">
        <ele>376.82</ele>
        <time>2016-05-05T07:41:57Z</time>
      </trkpt>
      <trkpt lat="46.15636" lon="5.98062">
        <ele>376.82</ele>
        <time>2016-05-05T07:42:02Z</time>
      </trkpt>
      <trkpt lat="46.15633" lon="5.98058">
        <ele>376.73</ele>
        <time>2016-05-05T07:42:03Z</time>
      </trkpt>
      <trkpt lat="46.1556" lon="5.97999">
        <ele>374.86</ele>
        <time>2016-05-05T07:42:17Z</time>
      </trkpt>
      <trkpt lat="46.15549" lon="5.97992">
        <ele>374.59</ele>
        <time>2016-05-05T07:42:19Z</time>
      </trkpt>
      <trkpt lat="46.15544" lon="5.97991">
        <ele>374.47</ele>
        <time>2016-05-05T07:42:20Z</time>
      </trkpt>
      <trkpt lat="46.15539" lon="5.97991">
        <ele>374.33</ele>
        <time>2016-05-05T07:42:21Z</time>
      </trkpt>
      <trkpt lat="46.15534" lon="5.97991">
        <ele>374.17</ele>
        <time>2016-05-05T07:42:22Z</time>
      </trkpt>
      <trkpt lat="46.15529" lon="5.97992">
        <ele>374.02</ele>
        <time>2016-05-05T07:42:23Z</time>
      </trkpt>
      <trkpt lat="46.15524" lon="5.97993">
        <ele>373.89</ele>
        <time>2016-05-05T07:42:24Z</time>
      </trkpt>
      <trkpt lat="46.15513" lon="5.9799">
        <ele>373.61</ele>
        <time>2016-05-05T07:42:27Z</time>
      </trkpt>
      <trkpt lat="46.1551" lon="5.97986">
        <ele>373.54</ele>
        <time>2016-05-05T07:42:28Z</time>
      </trkpt>
      <trkpt lat="46.15507" lon="5.97981">
        <ele>373.45</ele>
        <time>2016-05-05T07:42:29Z</time>
      </trkpt>
      <trkpt lat="46.15504" lon="5.97975">
        <ele>373.34</ele>
        <time>2016-05-05T07:42:30Z</time>
      </trkpt>
      <trkpt lat="46.15501" lon="5.97969">
        <ele>373.24</ele>
        <time>2016-05-05T07:42:31Z</time>
      </trkpt>
      <trkpt lat="46.15439" lon="5.97885">
        <ele>370.54</ele>
        <time>2016-05-05T07:42:44Z</time>
      </trkpt>
      <trkpt lat="46.15344" lon="5.97791">
        <ele>367.48</ele>
        <time>2016-05-05T07:43:00Z</time>
      </trkpt>
      <trkpt lat="46.15249" lon="5.9769">
        <ele>366.8</ele>
        <time>2016-05-05T07:43:19Z</time>
      </trkpt>
      <trkpt lat="46.15245" lon="5.97685">
        <ele>366.82</ele>
        <time>2016-05-05T07:43:20Z</time>
      </trkpt>
      <trkpt lat="46.15183" lon="5.97599">
        <ele>366.16</ele>
        <time>2016-05-05T07:43:35Z</time>
      </trkpt>
      <trkpt lat="46.15128" lon="5.97527">
        <ele>366.08</ele>
        <time>2016-05-05T07:43:48Z</time>
      </trkpt>
      <trkpt lat="46.15064" lon="5.97432">
        <ele>365.06</ele>
        <time>2016-05-05T07:44:03Z</time>
      </trkpt>
      <trkpt lat="46.14981" lon="5.97325">
        <ele>364.01</ele>
        <time>2016-05-05T07:44:21Z</time>
      </trkpt>
      <trkpt lat="46.14977" lon="5.97319">
        <ele>363.93</ele>
        <time>2016-05-05T07:44:22Z</time>
      </trkpt>
      <trkpt lat="46.14938" lon="5.97263">
        <ele>363.65</ele>
        <time>2016-05-05T07:44:32Z</time>
      </trkpt>
      <trkpt lat="46.14934" lon="5.97257">
        <ele>363.63</ele>
        <time>2016-05-05T07:44:33Z</time>
      </trkpt>
      <trkpt lat="46.1493" lon="5.97252">
        <ele>363.61</ele>
        <time>2016-05-05T07:44:34Z</time>
      </trkpt>
      <trkpt lat="46.14859" lon="5.97167">
        <ele>362.33</ele>
        <time>2016-05-05T07:44:50Z</time>
      </trkpt>
      <trkpt lat="46.14855" lon="5.97161">
        <ele>362.3</ele>
        <time>2016-05-05T07:44:51Z</time>
      </trkpt>
      <trkpt lat="46.14822" lon="5.9711">
        <ele>361.99</ele>
        <time>2016-05-05T07:44:59Z</time>
      </trkpt>
      <trkpt lat="46.14818" lon="5.97104">
        <ele>361.9</ele>
        <time>2016-05-05T07:45:00Z</time>
      </trkpt>
      <trkpt lat="46.14814" lon="5.97098">
        <ele>361.81</ele>
        <time>2016-05-05T07:45:01Z</time>
      </trkpt>
      <trkpt lat="46.14809" lon="5.97092">
        <ele>361.74</ele>
        <time>2016-05-05T07:45:02Z</time>
      </trkpt>
      <trkpt lat="46.14805" lon="5.97086">
        <ele>361.65</ele>
        <time>2016-05-05T07:45:03Z</time>
      </trkpt>
      <trkpt lat="46.14751" lon="5.96998">
        <ele>361.19</ele>
        <time>2016-05-05T07:45:17Z</time>
      </trkpt>
      <trkpt lat="46.14705" lon="5.96945">
        <ele>360.76</ele>
        <time>2016-05-05T07:45:27Z</time>
      </trkpt>
      <trkpt lat="46.147" lon="5.96943">
        <ele>360.74</ele>
        <time>2016-05-05T07:45:28Z</time>
      </trkpt>
      <trkpt lat="46.14695" lon="5.96942">
        <ele>360.74</ele>
        <time>2016-05-05T07:45:29Z</time>
      </trkpt>
      <trkpt lat="46.14689" lon="5.96943">
        <ele>360.73</ele>
        <time>2016-05-05T07:45:30Z</time>
      </trkpt>
      <trkpt lat="46.14684" lon="5.96946">
        <ele>360.73</ele>
        <time>2016-05-05T07:45:31Z</time>
      </trkpt>
      <trkpt lat="46.14679" lon="5.9695">
        <ele>360.71</ele>
        <time>2016-05-05T07:45:32Z</time>
      </trkpt>
      <trkpt lat="46.14674" lon="5.96955">
        <ele>360.68</ele>
        <time>2016-05-05T07:45:33Z</time>
      </trkpt>
      <trkpt lat="46.14602" lon="5.97018">
        <ele>358.33</ele>
        <time>2016-05-05T07:45:45Z</time>
      </trkpt>
      <trkpt lat="46.14596" lon="5.97022">
        <ele>358.12</ele>
        <time>2016-05-05T07:45:46Z</time>
      </trkpt>
      <trkpt lat="46.14589" lon="5.97023">
        <ele>357.95</ele>
        <time>2016-05-05T07:45:47Z</time>
      </trkpt>
      <trkpt lat="46.14583" lon="5.97024">
        <ele>357.83</ele>
        <time>2016-05-05T07:45:48Z</time>
      </trkpt>
      <trkpt lat="46.14576" lon="5.97025">
        <ele>357.76</ele>
        <time>2016-05-05T07:45:49Z</time>
      </trkpt>
      <trkpt lat="46.14546" lon="5.97029">
        <ele>358.07</ele>
        <time>2016-05-05T07:45:54Z</time>
      </trkpt>
      <trkpt lat="46.14478" lon="5.97059">
        <ele>358.28</ele>
        <time>2016-05-05T07:46:05Z</time>
      </trkpt>
      <trkpt lat="46.14473" lon="5.97063">
        <ele>358.3</ele>
        <time>2016-05-05T07:46:06Z</time>
      </trkpt>
      <trkpt lat="46.14394" lon="5.97145">
        <ele>357.49</ele>
        <time>2016-05-05T07:46:22Z</time>
      </trkpt>
      <trkpt lat="46.143" lon="5.9723">
        <ele>354.2</ele>
        <time>2016-05-05T07:46:36Z</time>
      </trkpt>
      <trkpt lat="46.14247" lon="5.97282">
        <ele>351.05</ele>
        <time>2016-05-05T07:46:43Z</time>
      </trkpt>
      <trkpt lat="46.14214" lon="5.97314">
        <ele>350.53</ele>
        <time>2016-05-05T07:46:48Z</time>
      </trkpt>
      <trkpt lat="46.14208" lon="5.97316">
        <ele>350.55</ele>
        <time>2016-05-05T07:46:49Z</time>
      </trkpt>
      <trkpt lat="46.14201" lon="5.97317">
        <ele>350.58</ele>
        <time>2016-05-05T07:46:50Z</time>
      </trkpt>
      <trkpt lat="46.14194" lon="5.97317">
        <ele>350.64</ele>
        <time>2016-05-05T07:46:51Z</time>
      </trkpt>
      <trkpt lat="46.14188" lon="5.97317">
        <ele>350.76</ele>
        <time>2016-05-05T07:46:52Z</time>
      </trkpt>
      <trkpt lat="46.14182" lon="5.97315">
        <ele>350.93</ele>
        <time>2016-05-05T07:46:53Z</time>
      </trkpt>
      <trkpt lat="46.14176" lon="5.97313">
        <ele>351.11</ele>
        <time>2016-05-05T07:46:54Z</time>
      </trkpt>
      <trkpt lat="46.14162" lon="5.97308">
        <ele>351.57</ele>
        <time>2016-05-05T07:46:57Z</time>
      </trkpt>
      <trkpt lat="46.14139" lon="5.97298">
        <ele>352.26</ele>
        <time>2016-05-05T07:47:01Z</time>
      </trkpt>
      <trkpt lat="46.14134" lon="5.97294">
        <ele>352.41</ele>
        <time>2016-05-05T07:47:02Z</time>
      </trkpt>
      <trkpt lat="46.1413" lon="5.9729">
        <ele>352.56</ele>
        <time>2016-05-05T07:47:03Z</time>
      </trkpt>
      <trkpt lat="46.14079" lon="5.97239">
        <ele>355.15</ele>
        <time>2016-05-05T07:47:16Z</time>
      </trkpt>
      <trkpt lat="46.14044" lon="5.97214">
        <ele>358.04</ele>
        <time>2016-05-05T07:47:30Z</time>
      </trkpt>
      <trkpt lat="46.13997" lon="5.97171">
        <ele>360.25</ele>
        <time>2016-05-05T07:47:49Z</time>
      </trkpt>
      <trkpt lat="46.13952" lon="5.97123">
        <ele>361.92</ele>
        <time>2016-05-05T07:48:07Z</time>
      </trkpt>
      <trkpt lat="46.1394" lon="5.97102">
        <ele>363.53</ele>
        <time>2016-05-05T07:48:16Z</time>
      </trkpt>
      <trkpt lat="46.13938" lon="5.971">
        <ele>363.73</ele>
        <time>2016-05-05T07:48:17Z</time>
      </trkpt>
      <trkpt lat="46.13916" lon="5.97064">
        <ele>366.43</ele>
        <time>2016-05-05T07:48:32Z</time>
      </trkpt>
      <trkpt lat="46.139" lon="5.97029">
        <ele>368.52</ele>
        <time>2016-05-05T07:48:45Z</time>
      </trkpt>
      <trkpt lat="46.1388" lon="5.96996">
        <ele>370.66</ele>
        <time>2016-05-05T07:48:58Z</time>
      </trkpt>
      <trkpt lat="46.1386" lon="5.96977">
        <ele>372.11</ele>
        <time>2016-05-05T07:49:09Z</time>
      </trkpt>
      <trkpt lat="46.13857" lon="5.96974">
        <ele>372.24</ele>
        <time>2016-05-05T07:49:10Z</time>
      </trkpt>
      <trkpt lat="46.13829" lon="5.96947">
        <ele>374.67</ele>
        <time>2016-05-05T07:49:25Z</time>
      </trkpt>
      <trkpt lat="46.13804" lon="5.96927">
        <ele>376.59</ele>
        <time>2016-05-05T07:49:37Z</time>
      </trkpt>
      <trkpt lat="46.13781" lon="5.96933">
        <ele>378.86</ele>
        <time>2016-05-05T07:49:49Z</time>
      </trkpt>
      <trkpt lat="46.13776" lon="5.96941">
        <ele>379.29</ele>
        <time>2016-05-05T07:49:52Z</time>
      </trkpt>
      <trkpt lat="46.13776" lon="5.96944">
        <ele>379.46</ele>
        <time>2016-05-05T07:49:53Z</time>
      </trkpt>
      <trkpt lat="46.13775" lon="5.96946">
        <ele>379.63</ele>
        <time>2016-05-05T07:49:54Z</time>
      </trkpt>
      <trkpt lat="46.13774" lon="5.96949">
        <ele>379.8</ele>
        <time>2016-05-05T07:49:55Z</time>
      </trkpt>
      <trkpt lat="46.13773" lon="5.96951">
        <ele>379.95</ele>
        <time>2016-05-05T07:49:56Z</time>
      </trkpt>
      <trkpt lat="46.13774" lon="5.96954">
        <ele>380.09</ele>
        <time>2016-05-05T07:49:57Z</time>
      </trkpt>
      <trkpt lat="46.13774" lon="5.96956">
        <ele>380.22</ele>
        <time>2016-05-05T07:49:58Z</time>
      </trkpt>
      <trkpt lat="46.13776" lon="5.96961">
        <ele>380.51</ele>
        <time>2016-05-05T07:50:00Z</time>
      </trkpt>
      <trkpt lat="46.13794" lon="5.96985">
        <ele>382.08</ele>
        <time>2016-05-05T07:50:11Z</time>
      </trkpt>
      <trkpt lat="46.13821" lon="5.97017">
        <ele>383.72</ele>
        <time>2016-05-05T07:50:25Z</time>
      </trkpt>
      <trkpt lat="46.13844" lon="5.97034">
        <ele>385.88</ele>
        <time>2016-05-05T07:50:37Z</time>
      </trkpt>
      <trkpt lat="46.13869" lon="5.97083">
        <ele>388.42</ele>
        <time>2016-05-05T07:50:52Z</time>
      </trkpt>
      <trkpt lat="46.13875" lon="5.97126">
        <ele>390.59</ele>
        <time>2016-05-05T07:51:04Z</time>
      </trkpt>
      <trkpt lat="46.13876" lon="5.97164">
        <ele>392.76</ele>
        <time>2016-05-05T07:51:16Z</time>
      </trkpt>
      <trkpt lat="46.13866" lon="5.97198">
        <ele>394.59</ele>
        <time>2016-05-05T07:51:28Z</time>
      </trkpt>
      <trkpt lat="46.1385" lon="5.97241">
        <ele>396.9</ele>
        <time>2016-05-05T07:51:41Z</time>
      </trkpt>
      <trkpt lat="46.13827" lon="5.97282">
        <ele>399.32</ele>
        <time>2016-05-05T07:51:55Z</time>
      </trkpt>
      <trkpt lat="46.13811" lon="5.97305">
        <ele>400.92</ele>
        <time>2016-05-05T07:52:05Z</time>
      </trkpt>
      <trkpt lat="46.13811" lon="5.97307">
        <ele>401.1</ele>
        <time>2016-05-05T07:52:06Z</time>
      </trkpt>
      <trkpt lat="46.13809" lon="5.9731">
        <ele>401.26</ele>
        <time>2016-05-05T07:52:07Z</time>
      </trkpt>
      <trkpt lat="46.13807" lon="5.97313">
        <ele>401.42</ele>
        <time>2016-05-05T07:52:08Z</time>
      </trkpt>
      <trkpt lat="46.13805" lon="5.97316">
        <ele>401.61</ele>
        <time>2016-05-05T07:52:09Z</time>
      </trkpt>
      <trkpt lat="46.13804" lon="5.9732">
        <ele>401.98</ele>
        <time>2016-05-05T07:52:10Z</time>
      </trkpt>
      <trkpt lat="46.13802" lon="5.97323">
        <ele>402.14</ele>
        <time>2016-05-05T07:52:11Z</time>
      </trkpt>
      <trkpt lat="46.13797" lon="5.97332">
        <ele>402.66</ele>
        <time>2016-05-05T07:52:14Z</time>
      </trkpt>
      <trkpt lat="46.13796" lon="5.97335">
        <ele>402.84</ele>
        <time>2016-05-05T07:52:15Z</time>
      </trkpt>
      <trkpt lat="46.13794" lon="5.97337">
        <ele>403.02</ele>
        <time>2016-05-05T07:52:16Z</time>
      </trkpt>
      <trkpt lat="46.13792" lon="5.9734">
        <ele>403.2</ele>
        <time>2016-05-05T07:52:17Z</time>
      </trkpt>
      <trkpt lat="46.1379" lon="5.97343">
        <ele>403.4</ele>
        <time>2016-05-05T07:52:18Z</time>
      </trkpt>
      <trkpt lat="46.13789" lon="5.97347">
        <ele>403.59</ele>
        <time>2016-05-05T07:52:19Z</time>
      </trkpt>
      <trkpt lat="46.13788" lon="5.9735">
        <ele>403.77</ele>
        <time>2016-05-05T07:52:20Z</time>
      </trkpt>
      <trkpt lat="46.13786" lon="5.97353">
        <ele>403.94</ele>
        <time>2016-05-05T07:52:21Z</time>
      </trkpt>
      <trkpt lat="46.13784" lon="5.97356">
        <ele>404.11</ele>
        <time>2016-05-05T07:52:22Z</time>
      </trkpt>
      <trkpt lat="46.13783" lon="5.9736">
        <ele>404.28</ele>
        <time>2016-05-05T07:52:23Z</time>
      </trkpt>
      <trkpt lat="46.13781" lon="5.97364">
        <ele>404.43</ele>
        <time>2016-05-05T07:52:24Z</time>
      </trkpt>
      <trkpt lat="46.1378" lon="5.97368">
        <ele>404.57</ele>
        <time>2016-05-05T07:52:25Z</time>
      </trkpt>
      <trkpt lat="46.1378" lon="5.97372">
        <ele>404.7</ele>
        <time>2016-05-05T07:52:26Z</time>
      </trkpt>
      <trkpt lat="46.13779" lon="5.97375">
        <ele>404.82</ele>
        <time>2016-05-05T07:52:27Z</time>
      </trkpt>
      <trkpt lat="46.13777" lon="5.97379">
        <ele>404.95</ele>
        <time>2016-05-05T07:52:28Z</time>
      </trkpt>
      <trkpt lat="46.13776" lon="5.97382">
        <ele>405.09</ele>
        <time>2016-05-05T07:52:29Z</time>
      </trkpt>
      <trkpt lat="46.13776" lon="5.97385">
        <ele>405.22</ele>
        <time>2016-05-05T07:52:30Z</time>
      </trkpt>
      <trkpt lat="46.13776" lon="5.97389">
        <ele>405.32</ele>
        <time>2016-05-05T07:52:31Z</time>
      </trkpt>
      <trkpt lat="46.13775" lon="5.97393">
        <ele>405.41</ele>
        <time>2016-05-05T07:52:32Z</time>
      </trkpt>
      <trkpt lat="46.13774" lon="5.97397">
        <ele>405.5</ele>
        <time>2016-05-05T07:52:33Z</time>
      </trkpt>
      <trkpt lat="46.13773" lon="5.974">
        <ele>405.59</ele>
        <time>2016-05-05T07:52:34Z</time>
      </trkpt>
      <trkpt lat="46.13768" lon="5.97417">
        <ele>406.58</ele>
        <time>2016-05-05T07:52:39Z</time>
      </trkpt>
      <trkpt lat="46.13767" lon="5.97421">
        <ele>406.72</ele>
        <time>2016-05-05T07:52:40Z</time>
      </trkpt>
      <trkpt lat="46.13765" lon="5.97437">
        <ele>407.43</ele>
        <time>2016-05-05T07:52:44Z</time>
      </trkpt>
      <trkpt lat="46.13764" lon="5.97441">
        <ele>407.6</ele>
        <time>2016-05-05T07:52:45Z</time>
      </trkpt>
      <trkpt lat="46.13761" lon="5.97473">
        <ele>409.03</ele>
        <time>2016-05-05T07:52:53Z</time>
      </trkpt>
      <trkpt lat="46.1376" lon="5.97476">
        <ele>409.21</ele>
        <time>2016-05-05T07:52:54Z</time>
      </trkpt>
      <trkpt lat="46.13744" lon="5.97511">
        <ele>411.53</ele>
        <time>2016-05-05T07:53:06Z</time>
      </trkpt>
      <trkpt lat="46.13712" lon="5.97527">
        <ele>413.87</ele>
        <time>2016-05-05T07:53:19Z</time>
      </trkpt>
      <trkpt lat="46.13667" lon="5.97535">
        <ele>416.92</ele>
        <time>2016-05-05T07:53:36Z</time>
      </trkpt>
      <trkpt lat="46.13635" lon="5.97537">
        <ele>418.07</ele>
        <time>2016-05-05T07:53:48Z</time>
      </trkpt>
      <trkpt lat="46.13601" lon="5.97543">
        <ele>418.87</ele>
        <time>2016-05-05T07:53:59Z</time>
      </trkpt>
      <trkpt lat="46.13565" lon="5.97552">
        <ele>419.87</ele>
        <time>2016-05-05T07:54:09Z</time>
      </trkpt>
      <trkpt lat="46.1352" lon="5.97584">
        <ele>422.41</ele>
        <time>2016-05-05T07:54:22Z</time>
      </trkpt>
      <trkpt lat="46.13472" lon="5.97624">
        <ele>424.93</ele>
        <time>2016-05-05T07:54:38Z</time>
      </trkpt>
      <trkpt lat="46.13432" lon="5.97667">
        <ele>426.94</ele>
        <time>2016-05-05T07:54:53Z</time>
      </trkpt>
      <trkpt lat="46.13391" lon="5.97719">
        <ele>428.33</ele>
        <time>2016-05-05T07:55:07Z</time>
      </trkpt>
      <trkpt lat="46.13345" lon="5.97761">
        <ele>429.76</ele>
        <time>2016-05-05T07:55:22Z</time>
      </trkpt>
      <trkpt lat="46.13302" lon="5.97776">
        <ele>431.42</ele>
        <time>2016-05-05T07:55:35Z</time>
      </trkpt>
      <trkpt lat="46.13262" lon="5.9779">
        <ele>432.67</ele>
        <time>2016-05-05T07:55:47Z</time>
      </trkpt>
      <trkpt lat="46.13231" lon="5.97803">
        <ele>433.49</ele>
        <time>2016-05-05T07:55:56Z</time>
      </trkpt>
      <trkpt lat="46.13187" lon="5.97816">
        <ele>433.9</ele>
        <time>2016-05-05T07:56:08Z</time>
      </trkpt>
      <trkpt lat="46.13138" lon="5.97849">
        <ele>434.47</ele>
        <time>2016-05-05T07:56:19Z</time>
      </trkpt>
      <trkpt lat="46.13079" lon="5.97905">
        <ele>436.14</ele>
        <time>2016-05-05T07:56:38Z</time>
      </trkpt>
      <trkpt lat="46.13038" lon="5.97942">
        <ele>438.57</ele>
        <time>2016-05-05T07:56:54Z</time>
      </trkpt>
      <trkpt lat="46.12997" lon="5.97978">
        <ele>441.12</ele>
        <time>2016-05-05T07:57:10Z</time>
      </trkpt>
      <trkpt lat="46.12956" lon="5.98014">
        <ele>443.58</ele>
        <time>2016-05-05T07:57:26Z</time>
      </trkpt>
      <trkpt lat="46.12902" lon="5.98021">
        <ele>445.71</ele>
        <time>2016-05-05T07:57:43Z</time>
      </trkpt>
      <trkpt lat="46.12865" lon="5.97992">
        <ele>445.64</ele>
        <time>2016-05-05T07:57:54Z</time>
      </trkpt>
      <trkpt lat="46.12862" lon="5.97988">
        <ele>445.64</ele>
        <time>2016-05-05T07:57:55Z</time>
      </trkpt>
      <trkpt lat="46.12859" lon="5.97983">
        <ele>445.63</ele>
        <time>2016-05-05T07:57:56Z</time>
      </trkpt>
      <trkpt lat="46.12833" lon="5.9795">
        <ele>445.5</ele>
        <time>2016-05-05T07:58:04Z</time>
      </trkpt>
      <trkpt lat="46.12829" lon="5.97948">
        <ele>445.44</ele>
        <time>2016-05-05T07:58:05Z</time>
      </trkpt>
      <trkpt lat="46.12825" lon="5.97949">
        <ele>445.4</ele>
        <time>2016-05-05T07:58:06Z</time>
      </trkpt>
      <trkpt lat="46.12821" lon="5.9795">
        <ele>445.35</ele>
        <time>2016-05-05T07:58:07Z</time>
      </trkpt>
      <trkpt lat="46.12817" lon="5.97954">
        <ele>445.31</ele>
        <time>2016-05-05T07:58:08Z</time>
      </trkpt>
      <trkpt lat="46.12814" lon="5.97957">
        <ele>445.27</ele>
        <time>2016-05-05T07:58:09Z</time>
      </trkpt>
      <trkpt lat="46.12777" lon="5.98012">
        <ele>447.05</ele>
        <time>2016-05-05T07:58:23Z</time>
      </trkpt>
      <trkpt lat="46.12737" lon="5.98091">
        <ele>448.28</ele>
        <time>2016-05-05T07:58:41Z</time>
      </trkpt>
      <trkpt lat="46.12694" lon="5.98175">
        <ele>450.44</ele>
        <time>2016-05-05T07:59:00Z</time>
      </trkpt>
      <trkpt lat="46.12651" lon="5.98231">
        <ele>451.88</ele>
        <time>2016-05-05T07:59:16Z</time>
      </trkpt>
      <trkpt lat="46.12605" lon="5.98189">
        <ele>453.9</ele>
        <time>2016-05-05T07:59:30Z</time>
      </trkpt>
      <trkpt lat="46.12543" lon="5.98162">
        <ele>455.68</ele>
        <time>2016-05-05T07:59:47Z</time>
      </trkpt>
      <trkpt lat="46.1249" lon="5.98177">
        <ele>458.2</ele>
        <time>2016-05-05T08:00:03Z</time>
      </trkpt>
      <trkpt lat="46.12454" lon="5.98186">
        <ele>460.16</ele>
        <time>2016-05-05T08:00:16Z</time>
      </trkpt>
      <trkpt lat="46.12411" lon="5.98188">
        <ele>462.24</ele>
        <time>2016-05-05T08:00:32Z</time>
      </trkpt>
      <trkpt lat="46.12345" lon="5.9818">
        <ele>464.32</ele>
        <time>2016-05-05T08:00:53Z</time>
      </trkpt>
      <trkpt lat="46.12301" lon="5.98128">
        <ele>466.15</ele>
        <time>2016-05-05T08:01:10Z</time>
      </trkpt>
      <trkpt lat="46.1226" lon="5.98076">
        <ele>467.9</ele>
        <time>2016-05-05T08:01:26Z</time>
      </trkpt>
      <trkpt lat="46.12208" lon="5.98036">
        <ele>469.28</ele>
        <time>2016-05-05T08:01:43Z</time>
      </trkpt>
      <trkpt lat="46.12151" lon="5.97995">
        <ele>470.67</ele>
        <time>2016-05-05T08:02:00Z</time>
      </trkpt>
      <trkpt lat="46.1208" lon="5.97936">
        <ele>471</ele>
        <time>2016-05-05T08:02:18Z</time>
      </trkpt>
      <trkpt lat="46.11984" lon="5.97853">
        <ele>471.3</ele>
        <time>2016-05-05T08:02:39Z</time>
      </trkpt>
      <trkpt lat="46.11907" lon="5.97773">
        <ele>471.34</ele>
        <time>2016-05-05T08:02:55Z</time>
      </trkpt>
      <trkpt lat="46.11846" lon="5.97693">
        <ele>471.47</ele>
        <time>2016-05-05T08:03:09Z</time>
      </trkpt>
      <trkpt lat="46.11843" lon="5.97685">
        <ele>471.49</ele>
        <time>2016-05-05T08:03:10Z</time>
      </trkpt>
      <trkpt lat="46.11841" lon="5.97678">
        <ele>471.5</ele>
        <time>2016-05-05T08:03:11Z</time>
      </trkpt>
      <trkpt lat="46.11839" lon="5.9767">
        <ele>471.53</ele>
        <time>2016-05-05T08:03:12Z</time>
      </trkpt>
      <trkpt lat="46.11838" lon="5.97661">
        <ele>471.55</ele>
        <time>2016-05-05T08:03:13Z</time>
      </trkpt>
      <trkpt lat="46.11837" lon="5.97653">
        <ele>471.57</ele>
        <time>2016-05-05T08:03:14Z</time>
      </trkpt>
      <trkpt lat="46.11837" lon="5.97644">
        <ele>471.6</ele>
        <time>2016-05-05T08:03:15Z</time>
      </trkpt>
      <trkpt lat="46.11815" lon="5.97559">
        <ele>471.52</ele>
        <time>2016-05-05T08:03:26Z</time>
      </trkpt>
      <trkpt lat="46.1181" lon="5.97552">
        <ele>471.46</ele>
        <time>2016-05-05T08:03:27Z</time>
      </trkpt>
      <trkpt lat="46.11805" lon="5.97547">
        <ele>471.39</ele>
        <time>2016-05-05T08:03:28Z</time>
      </trkpt>
      <trkpt lat="46.11707" lon="5.97465">
        <ele>470.48</ele>
        <time>2016-05-05T08:03:46Z</time>
      </trkpt>
      <trkpt lat="46.11616" lon="5.97428">
        <ele>471</ele>
        <time>2016-05-05T08:04:01Z</time>
      </trkpt>
      <trkpt lat="46.11506" lon="5.97369">
        <ele>470.03</ele>
        <time>2016-05-05T08:04:18Z</time>
      </trkpt>
      <trkpt lat="46.1141" lon="5.97323">
        <ele>469.69</ele>
        <time>2016-05-05T08:04:34Z</time>
      </trkpt>
      <trkpt lat="46.114" lon="5.97316">
        <ele>469.82</ele>
        <time>2016-05-05T08:04:36Z</time>
      </trkpt>
      <trkpt lat="46.11396" lon="5.97312">
        <ele>469.85</ele>
        <time>2016-05-05T08:04:37Z</time>
      </trkpt>
      <trkpt lat="46.11391" lon="5.97306">
        <ele>469.87</ele>
        <time>2016-05-05T08:04:38Z</time>
      </trkpt>
      <trkpt lat="46.11383" lon="5.97294">
        <ele>469.9</ele>
        <time>2016-05-05T08:04:40Z</time>
      </trkpt>
      <trkpt lat="46.11379" lon="5.97287">
        <ele>469.9</ele>
        <time>2016-05-05T08:04:41Z</time>
      </trkpt>
      <trkpt lat="46.11376" lon="5.9728">
        <ele>469.89</ele>
        <time>2016-05-05T08:04:42Z</time>
      </trkpt>
      <trkpt lat="46.11331" lon="5.97153">
        <ele>468.63</ele>
        <time>2016-05-05T08:04:57Z</time>
      </trkpt>
      <trkpt lat="46.11315" lon="5.97122">
        <ele>468.13</ele>
        <time>2016-05-05T08:05:01Z</time>
      </trkpt>
      <trkpt lat="46.11248" lon="5.97014">
        <ele>467.46</ele>
        <time>2016-05-05T08:05:17Z</time>
      </trkpt>
      <trkpt lat="46.11247" lon="5.97006">
        <ele>467.54</ele>
        <time>2016-05-05T08:05:18Z</time>
      </trkpt>
      <trkpt lat="46.11248" lon="5.96999">
        <ele>467.62</ele>
        <time>2016-05-05T08:05:19Z</time>
      </trkpt>
      <trkpt lat="46.11249" lon="5.96993">
        <ele>467.77</ele>
        <time>2016-05-05T08:05:20Z</time>
      </trkpt>
      <trkpt lat="46.1125" lon="5.96987">
        <ele>467.83</ele>
        <time>2016-05-05T08:05:21Z</time>
      </trkpt>
      <trkpt lat="46.11252" lon="5.96982">
        <ele>467.9</ele>
        <time>2016-05-05T08:05:22Z</time>
      </trkpt>
      <trkpt lat="46.11253" lon="5.96977">
        <ele>467.96</ele>
        <time>2016-05-05T08:05:23Z</time>
      </trkpt>
      <trkpt lat="46.11253" lon="5.96935">
        <ele>468.13</ele>
        <time>2016-05-05T08:05:31Z</time>
      </trkpt>
      <trkpt lat="46.11259" lon="5.96897">
        <ele>467.88</ele>
        <time>2016-05-05T08:05:37Z</time>
      </trkpt>
      <trkpt lat="46.11259" lon="5.9689">
        <ele>467.78</ele>
        <time>2016-05-05T08:05:38Z</time>
      </trkpt>
      <trkpt lat="46.1126" lon="5.96846">
        <ele>467.04</ele>
        <time>2016-05-05T08:05:44Z</time>
      </trkpt>
      <trkpt lat="46.11275" lon="5.96751">
        <ele>465.81</ele>
        <time>2016-05-05T08:05:57Z</time>
      </trkpt>
      <trkpt lat="46.11275" lon="5.96743">
        <ele>465.74</ele>
        <time>2016-05-05T08:05:58Z</time>
      </trkpt>
      <trkpt lat="46.11274" lon="5.96736">
        <ele>465.67</ele>
        <time>2016-05-05T08:05:59Z</time>
      </trkpt>
      <trkpt lat="46.11263" lon="5.96674">
        <ele>465.86</ele>
        <time>2016-05-05T08:06:08Z</time>
      </trkpt>
      <trkpt lat="46.11262" lon="5.96659">
        <ele>465.88</ele>
        <time>2016-05-05T08:06:10Z</time>
      </trkpt>
      <trkpt lat="46.11255" lon="5.96621">
        <ele>465.77</ele>
        <time>2016-05-05T08:06:15Z</time>
      </trkpt>
      <trkpt lat="46.11253" lon="5.96613">
        <ele>465.69</ele>
        <time>2016-05-05T08:06:16Z</time>
      </trkpt>
      <trkpt lat="46.11231" lon="5.96565">
        <ele>465.22</ele>
        <time>2016-05-05T08:06:23Z</time>
      </trkpt>
      <trkpt lat="46.11219" lon="5.96547">
        <ele>464.99</ele>
        <time>2016-05-05T08:06:26Z</time>
      </trkpt>
      <trkpt lat="46.11154" lon="5.96458">
        <ele>465.34</ele>
        <time>2016-05-05T08:06:42Z</time>
      </trkpt>
      <trkpt lat="46.1111" lon="5.96387">
        <ele>466.73</ele>
        <time>2016-05-05T08:06:56Z</time>
      </trkpt>
      <trkpt lat="46.11081" lon="5.96322">
        <ele>468.34</ele>
        <time>2016-05-05T08:07:08Z</time>
      </trkpt>
      <trkpt lat="46.11078" lon="5.96318">
        <ele>468.4</ele>
        <time>2016-05-05T08:07:09Z</time>
      </trkpt>
      <trkpt lat="46.11074" lon="5.96314">
        <ele>468.43</ele>
        <time>2016-05-05T08:07:10Z</time>
      </trkpt>
      <trkpt lat="46.11071" lon="5.96311">
        <ele>468.45</ele>
        <time>2016-05-05T08:07:11Z</time>
      </trkpt>
      <trkpt lat="46.11066" lon="5.96309">
        <ele>468.45</ele>
        <time>2016-05-05T08:07:12Z</time>
      </trkpt>
      <trkpt lat="46.11062" lon="5.96306">
        <ele>468.44</ele>
        <time>2016-05-05T08:07:13Z</time>
      </trkpt>
      <trkpt lat="46.11058" lon="5.96305">
        <ele>468.42</ele>
        <time>2016-05-05T08:07:14Z</time>
      </trkpt>
      <trkpt lat="46.11053" lon="5.96304">
        <ele>468.41</ele>
        <time>2016-05-05T08:07:15Z</time>
      </trkpt>
      <trkpt lat="46.11049" lon="5.96304">
        <ele>468.41</ele>
        <time>2016-05-05T08:07:16Z</time>
      </trkpt>
      <trkpt lat="46.11045" lon="5.96304">
        <ele>468.42</ele>
        <time>2016-05-05T08:07:17Z</time>
      </trkpt>
      <trkpt lat="46.1104" lon="5.96306">
        <ele>468.47</ele>
        <time>2016-05-05T08:07:18Z</time>
      </trkpt>
      <trkpt lat="46.11036" lon="5.96308">
        <ele>468.54</ele>
        <time>2016-05-05T08:07:19Z</time>
      </trkpt>
      <trkpt lat="46.11032" lon="5.9631">
        <ele>468.6</ele>
        <time>2016-05-05T08:07:20Z</time>
      </trkpt>
      <trkpt lat="46.11029" lon="5.96313">
        <ele>468.67</ele>
        <time>2016-05-05T08:07:21Z</time>
      </trkpt>
      <trkpt lat="46.11025" lon="5.96314">
        <ele>468.75</ele>
        <time>2016-05-05T08:07:22Z</time>
      </trkpt>
      <trkpt lat="46.11021" lon="5.96316">
        <ele>468.9</ele>
        <time>2016-05-05T08:07:23Z</time>
      </trkpt>
      <trkpt lat="46.10969" lon="5.96342">
        <ele>471</ele>
        <time>2016-05-05T08:07:39Z</time>
      </trkpt>
      <trkpt lat="46.10922" lon="5.96357">
        <ele>472.89</ele>
        <time>2016-05-05T08:07:54Z</time>
      </trkpt>
      <trkpt lat="46.10864" lon="5.96366">
        <ele>474.65</ele>
        <time>2016-05-05T08:08:13Z</time>
      </trkpt>
      <trkpt lat="46.10848" lon="5.96358">
        <ele>475.69</ele>
        <time>2016-05-05T08:08:20Z</time>
      </trkpt>
      <trkpt lat="46.10845" lon="5.96338">
        <ele>475.91</ele>
        <time>2016-05-05T08:08:24Z</time>
      </trkpt>
      <trkpt lat="46.10827" lon="5.96251">
        <ele>475.2</ele>
        <time>2016-05-05T08:08:37Z</time>
      </trkpt>
      <trkpt lat="46.10804" lon="5.96131">
        <ele>476.49</ele>
        <time>2016-05-05T08:08:55Z</time>
      </trkpt>
      <trkpt lat="46.10795" lon="5.96077">
        <ele>476.43</ele>
        <time>2016-05-05T08:09:02Z</time>
      </trkpt>
      <trkpt lat="46.10791" lon="5.96016">
        <ele>475.45</ele>
        <time>2016-05-05T08:09:09Z</time>
      </trkpt>
      <trkpt lat="46.10787" lon="5.95906">
        <ele>473.38</ele>
        <time>2016-05-05T08:09:19Z</time>
      </trkpt>
      <trkpt lat="46.10792" lon="5.95756">
        <ele>475.92</ele>
        <time>2016-05-05T08:09:35Z</time>
      </trkpt>
      <trkpt lat="46.10801" lon="5.95558">
        <ele>475.32</ele>
        <time>2016-05-05T08:09:56Z</time>
      </trkpt>
      <trkpt lat="46.10802" lon="5.95481">
        <ele>474.1</ele>
        <time>2016-05-05T08:10:04Z</time>
      </trkpt>
      <trkpt lat="46.10804" lon="5.95348">
        <ele>473.91</ele>
        <time>2016-05-05T08:10:19Z</time>
      </trkpt>
      <trkpt lat="46.10805" lon="5.95333">
        <ele>474.11</ele>
        <time>2016-05-05T08:10:21Z</time>
      </trkpt>
      <trkpt lat="46.10808" lon="5.95305">
        <ele>474.64</ele>
        <time>2016-05-05T08:10:25Z</time>
      </trkpt>
      <trkpt lat="46.10807" lon="5.95298">
        <ele>474.69</ele>
        <time>2016-05-05T08:10:26Z</time>
      </trkpt>
      <trkpt lat="46.10805" lon="5.95294">
        <ele>474.77</ele>
        <time>2016-05-05T08:10:27Z</time>
      </trkpt>
      <trkpt lat="46.10802" lon="5.95291">
        <ele>474.82</ele>
        <time>2016-05-05T08:10:28Z</time>
      </trkpt>
      <trkpt lat="46.10798" lon="5.95289">
        <ele>474.9</ele>
        <time>2016-05-05T08:10:29Z</time>
      </trkpt>
      <trkpt lat="46.1079" lon="5.95282">
        <ele>475.1</ele>
        <time>2016-05-05T08:10:32Z</time>
      </trkpt>
      <trkpt lat="46.1079" lon="5.95278">
        <ele>475.15</ele>
        <time>2016-05-05T08:10:33Z</time>
      </trkpt>
      <trkpt lat="46.10789" lon="5.95275">
        <ele>475.21</ele>
        <time>2016-05-05T08:10:34Z</time>
      </trkpt>
      <trkpt lat="46.10788" lon="5.95273">
        <ele>475.26</ele>
        <time>2016-05-05T08:10:35Z</time>
      </trkpt>
      <trkpt lat="46.10787" lon="5.95271">
        <ele>475.3</ele>
        <time>2016-05-05T08:10:36Z</time>
      </trkpt>
      <trkpt lat="46.10787" lon="5.95268">
        <ele>475.34</ele>
        <time>2016-05-05T08:10:37Z</time>
      </trkpt>
      <trkpt lat="46.10788" lon="5.95265">
        <ele>475.36</ele>
        <time>2016-05-05T08:10:38Z</time>
      </trkpt>
      <trkpt lat="46.10791" lon="5.95207">
        <ele>475.55</ele>
        <time>2016-05-05T08:10:51Z</time>
      </trkpt>
      <trkpt lat="46.10792" lon="5.95178">
        <ele>475.5</ele>
        <time>2016-05-05T08:10:56Z</time>
      </trkpt>
      <trkpt lat="46.10793" lon="5.95172">
        <ele>475.46</ele>
        <time>2016-05-05T08:10:57Z</time>
      </trkpt>
      <trkpt lat="46.10793" lon="5.95165">
        <ele>475.43</ele>
        <time>2016-05-05T08:10:58Z</time>
      </trkpt>
      <trkpt lat="46.10797" lon="5.95111">
        <ele>475.18</ele>
        <time>2016-05-05T08:11:06Z</time>
      </trkpt>
      <trkpt lat="46.10809" lon="5.95026">
        <ele>474.58</ele>
        <time>2016-05-05T08:11:17Z</time>
      </trkpt>
      <trkpt lat="46.10809" lon="5.95017">
        <ele>474.54</ele>
        <time>2016-05-05T08:11:18Z</time>
      </trkpt>
      <trkpt lat="46.10807" lon="5.9501">
        <ele>474.5</ele>
        <time>2016-05-05T08:11:19Z</time>
      </trkpt>
      <trkpt lat="46.10804" lon="5.95003">
        <ele>474.43</ele>
        <time>2016-05-05T08:11:20Z</time>
      </trkpt>
      <trkpt lat="46.10799" lon="5.94997">
        <ele>474.36</ele>
        <time>2016-05-05T08:11:21Z</time>
      </trkpt>
      <trkpt lat="46.10794" lon="5.94993">
        <ele>474.27</ele>
        <time>2016-05-05T08:11:22Z</time>
      </trkpt>
      <trkpt lat="46.10789" lon="5.94989">
        <ele>474.15</ele>
        <time>2016-05-05T08:11:23Z</time>
      </trkpt>
      <trkpt lat="46.10783" lon="5.94986">
        <ele>473.98</ele>
        <time>2016-05-05T08:11:24Z</time>
      </trkpt>
      <trkpt lat="46.10704" lon="5.94958">
        <ele>471.99</ele>
        <time>2016-05-05T08:11:37Z</time>
      </trkpt>
      <trkpt lat="46.10701" lon="5.94952">
        <ele>471.95</ele>
        <time>2016-05-05T08:11:38Z</time>
      </trkpt>
      <trkpt lat="46.107" lon="5.94946">
        <ele>471.91</ele>
        <time>2016-05-05T08:11:39Z</time>
      </trkpt>
      <trkpt lat="46.10702" lon="5.9494">
        <ele>471.89</ele>
        <time>2016-05-05T08:11:40Z</time>
      </trkpt>
      <trkpt lat="46.10706" lon="5.94936">
        <ele>471.93</ele>
        <time>2016-05-05T08:11:41Z</time>
      </trkpt>
      <trkpt lat="46.1071" lon="5.94934">
        <ele>472.03</ele>
        <time>2016-05-05T08:11:42Z</time>
      </trkpt>
      <trkpt lat="46.10714" lon="5.94931">
        <ele>472.2</ele>
        <time>2016-05-05T08:11:43Z</time>
      </trkpt>
      <trkpt lat="46.10716" lon="5.94927">
        <ele>472.41</ele>
        <time>2016-05-05T08:11:44Z</time>
      </trkpt>
      <trkpt lat="46.10718" lon="5.94922">
        <ele>472.6</ele>
        <time>2016-05-05T08:11:45Z</time>
      </trkpt>
      <trkpt lat="46.10719" lon="5.94916">
        <ele>472.79</ele>
        <time>2016-05-05T08:11:46Z</time>
      </trkpt>
      <trkpt lat="46.1072" lon="5.9491">
        <ele>472.99</ele>
        <time>2016-05-05T08:11:47Z</time>
      </trkpt>
      <trkpt lat="46.10728" lon="5.94849">
        <ele>474.91</ele>
        <time>2016-05-05T08:11:57Z</time>
      </trkpt>
      <trkpt lat="46.10736" lon="5.94819">
        <ele>475.64</ele>
        <time>2016-05-05T08:12:02Z</time>
      </trkpt>
      <trkpt lat="46.10737" lon="5.94807">
        <ele>475.73</ele>
        <time>2016-05-05T08:12:05Z</time>
      </trkpt>
      <trkpt lat="46.10736" lon="5.94804">
        <ele>475.74</ele>
        <time>2016-05-05T08:12:06Z</time>
      </trkpt>
      <trkpt lat="46.10737" lon="5.94801">
        <ele>475.75</ele>
        <time>2016-05-05T08:12:07Z</time>
      </trkpt>
      <trkpt lat="46.10737" lon="5.94797">
        <ele>475.75</ele>
        <time>2016-05-05T08:12:08Z</time>
      </trkpt>
      <trkpt lat="46.10738" lon="5.94792">
        <ele>475.75</ele>
        <time>2016-05-05T08:12:09Z</time>
      </trkpt>
      <trkpt lat="46.10738" lon="5.94787">
        <ele>475.74</ele>
        <time>2016-05-05T08:12:10Z</time>
      </trkpt>
      <trkpt lat="46.10738" lon="5.94782">
        <ele>475.74</ele>
        <time>2016-05-05T08:12:11Z</time>
      </trkpt>
      <trkpt lat="46.10738" lon="5.9477">
        <ele>475.72</ele>
        <time>2016-05-05T08:12:13Z</time>
      </trkpt>
      <trkpt lat="46.10736" lon="5.94764">
        <ele>475.71</ele>
        <time>2016-05-05T08:12:14Z</time>
      </trkpt>
      <trkpt lat="46.10734" lon="5.94758">
        <ele>475.68</ele>
        <time>2016-05-05T08:12:15Z</time>
      </trkpt>
      <trkpt lat="46.10731" lon="5.94754">
        <ele>475.66</ele>
        <time>2016-05-05T08:12:16Z</time>
      </trkpt>
      <trkpt lat="46.10728" lon="5.9475">
        <ele>475.63</ele>
        <time>2016-05-05T08:12:17Z</time>
      </trkpt>
      <trkpt lat="46.10724" lon="5.94746">
        <ele>475.59</ele>
        <time>2016-05-05T08:12:18Z</time>
      </trkpt>
      <trkpt lat="46.10717" lon="5.94738">
        <ele>475.54</ele>
        <time>2016-05-05T08:12:20Z</time>
      </trkpt>
      <trkpt lat="46.10715" lon="5.94733">
        <ele>475.52</ele>
        <time>2016-05-05T08:12:21Z</time>
      </trkpt>
      <trkpt lat="46.10713" lon="5.94727">
        <ele>475.52</ele>
        <time>2016-05-05T08:12:22Z</time>
      </trkpt>
      <trkpt lat="46.10712" lon="5.9472">
        <ele>475.52</ele>
        <time>2016-05-05T08:12:23Z</time>
      </trkpt>
      <trkpt lat="46.10712" lon="5.94713">
        <ele>475.53</ele>
        <time>2016-05-05T08:12:24Z</time>
      </trkpt>
      <trkpt lat="46.10705" lon="5.94641">
        <ele>475.47</ele>
        <time>2016-05-05T08:12:33Z</time>
      </trkpt>
      <trkpt lat="46.10702" lon="5.94634">
        <ele>475.43</ele>
        <time>2016-05-05T08:12:34Z</time>
      </trkpt>
      <trkpt lat="46.10698" lon="5.94629">
        <ele>475.38</ele>
        <time>2016-05-05T08:12:35Z</time>
      </trkpt>
      <trkpt lat="46.10693" lon="5.94625">
        <ele>475.32</ele>
        <time>2016-05-05T08:12:36Z</time>
      </trkpt>
      <trkpt lat="46.10688" lon="5.94622">
        <ele>475.25</ele>
        <time>2016-05-05T08:12:37Z</time>
      </trkpt>
      <trkpt lat="46.1065" lon="5.94595">
        <ele>475.39</ele>
        <time>2016-05-05T08:12:46Z</time>
      </trkpt>
      <trkpt lat="46.10647" lon="5.94593">
        <ele>475.47</ele>
        <time>2016-05-05T08:12:47Z</time>
      </trkpt>
      <trkpt lat="46.10606" lon="5.94542">
        <ele>477.24</ele>
        <time>2016-05-05T08:13:02Z</time>
      </trkpt>
      <trkpt lat="46.10607" lon="5.94516">
        <ele>477.8</ele>
        <time>2016-05-05T08:13:06Z</time>
      </trkpt>
      <trkpt lat="46.10604" lon="5.94439">
        <ele>478.17</ele>
        <time>2016-05-05T08:13:16Z</time>
      </trkpt>
      <trkpt lat="46.10601" lon="5.94399">
        <ele>478.08</ele>
        <time>2016-05-05T08:13:21Z</time>
      </trkpt>
      <trkpt lat="46.106" lon="5.9439">
        <ele>478.05</ele>
        <time>2016-05-05T08:13:22Z</time>
      </trkpt>
      <trkpt lat="46.10597" lon="5.94382">
        <ele>477.97</ele>
        <time>2016-05-05T08:13:23Z</time>
      </trkpt>
      <trkpt lat="46.10593" lon="5.94374">
        <ele>477.8</ele>
        <time>2016-05-05T08:13:24Z</time>
      </trkpt>
      <trkpt lat="46.10588" lon="5.94367">
        <ele>477.58</ele>
        <time>2016-05-05T08:13:25Z</time>
      </trkpt>
      <trkpt lat="46.10583" lon="5.94361">
        <ele>477.33</ele>
        <time>2016-05-05T08:13:26Z</time>
      </trkpt>
      <trkpt lat="46.10574" lon="5.94348">
        <ele>476.91</ele>
        <time>2016-05-05T08:13:28Z</time>
      </trkpt>
      <trkpt lat="46.10512" lon="5.94223">
        <ele>477.47</ele>
        <time>2016-05-05T08:13:46Z</time>
      </trkpt>
      <trkpt lat="46.10466" lon="5.94129">
        <ele>478.19</ele>
        <time>2016-05-05T08:14:01Z</time>
      </trkpt>
      <trkpt lat="46.1044" lon="5.94078">
        <ele>478.91</ele>
        <time>2016-05-05T08:14:10Z</time>
      </trkpt>
      <trkpt lat="46.10436" lon="5.94074">
        <ele>479</ele>
        <time>2016-05-05T08:14:11Z</time>
      </trkpt>
      <trkpt lat="46.10433" lon="5.94071">
        <ele>479.08</ele>
        <time>2016-05-05T08:14:12Z</time>
      </trkpt>
      <trkpt lat="46.10424" lon="5.94065">
        <ele>479.22</ele>
        <time>2016-05-05T08:14:14Z</time>
      </trkpt>
      <trkpt lat="46.1042" lon="5.94063">
        <ele>479.28</ele>
        <time>2016-05-05T08:14:15Z</time>
      </trkpt>
      <trkpt lat="46.10416" lon="5.94062">
        <ele>479.34</ele>
        <time>2016-05-05T08:14:16Z</time>
      </trkpt>
      <trkpt lat="46.10412" lon="5.94062">
        <ele>479.39</ele>
        <time>2016-05-05T08:14:17Z</time>
      </trkpt>
      <trkpt lat="46.10408" lon="5.94061">
        <ele>479.43</ele>
        <time>2016-05-05T08:14:18Z</time>
      </trkpt>
      <trkpt lat="46.104" lon="5.94061">
        <ele>479.59</ele>
        <time>2016-05-05T08:14:20Z</time>
      </trkpt>
      <trkpt lat="46.10396" lon="5.94062">
        <ele>479.73</ele>
        <time>2016-05-05T08:14:21Z</time>
      </trkpt>
      <trkpt lat="46.10337" lon="5.94056">
        <ele>481.82</ele>
        <time>2016-05-05T08:14:37Z</time>
      </trkpt>
      <trkpt lat="46.10328" lon="5.9404">
        <ele>482.1</ele>
        <time>2016-05-05T08:14:41Z</time>
      </trkpt>
      <trkpt lat="46.10326" lon="5.94034">
        <ele>482.14</ele>
        <time>2016-05-05T08:14:42Z</time>
      </trkpt>
      <trkpt lat="46.10324" lon="5.94022">
        <ele>482.14</ele>
        <time>2016-05-05T08:14:44Z</time>
      </trkpt>
      <trkpt lat="46.10323" lon="5.94016">
        <ele>482.1</ele>
        <time>2016-05-05T08:14:45Z</time>
      </trkpt>
      <trkpt lat="46.10322" lon="5.94002">
        <ele>481.98</ele>
        <time>2016-05-05T08:14:47Z</time>
      </trkpt>
      <trkpt lat="46.10321" lon="5.9395">
        <ele>481.44</ele>
        <time>2016-05-05T08:14:54Z</time>
      </trkpt>
      <trkpt lat="46.10306" lon="5.93856">
        <ele>481.45</ele>
        <time>2016-05-05T08:15:09Z</time>
      </trkpt>
      <trkpt lat="46.10306" lon="5.93841">
        <ele>481.37</ele>
        <time>2016-05-05T08:15:11Z</time>
      </trkpt>
      <trkpt lat="46.10307" lon="5.93834">
        <ele>481.3</ele>
        <time>2016-05-05T08:15:12Z</time>
      </trkpt>
      <trkpt lat="46.10309" lon="5.93826">
        <ele>481.23</ele>
        <time>2016-05-05T08:15:13Z</time>
      </trkpt>
      <trkpt lat="46.10334" lon="5.93706">
        <ele>479.6</ele>
        <time>2016-05-05T08:15:26Z</time>
      </trkpt>
      <trkpt lat="46.10374" lon="5.9353">
        <ele>477.11</ele>
        <time>2016-05-05T08:15:43Z</time>
      </trkpt>
      <trkpt lat="46.10375" lon="5.9352">
        <ele>476.8</ele>
        <time>2016-05-05T08:15:44Z</time>
      </trkpt>
      <trkpt lat="46.10373" lon="5.9351">
        <ele>476.65</ele>
        <time>2016-05-05T08:15:45Z</time>
      </trkpt>
      <trkpt lat="46.10369" lon="5.93503">
        <ele>476.52</ele>
        <time>2016-05-05T08:15:46Z</time>
      </trkpt>
      <trkpt lat="46.10363" lon="5.93499">
        <ele>476.42</ele>
        <time>2016-05-05T08:15:47Z</time>
      </trkpt>
      <trkpt lat="46.10358" lon="5.93496">
        <ele>476.34</ele>
        <time>2016-05-05T08:15:48Z</time>
      </trkpt>
      <trkpt lat="46.10352" lon="5.93494">
        <ele>476.26</ele>
        <time>2016-05-05T08:15:49Z</time>
      </trkpt>
      <trkpt lat="46.10284" lon="5.9347">
        <ele>477.61</ele>
        <time>2016-05-05T08:16:03Z</time>
      </trkpt>
      <trkpt lat="46.1028" lon="5.9347">
        <ele>477.67</ele>
        <time>2016-05-05T08:16:04Z</time>
      </trkpt>
      <trkpt lat="46.10269" lon="5.93468">
        <ele>477.84</ele>
        <time>2016-05-05T08:16:07Z</time>
      </trkpt>
      <trkpt lat="46.10268" lon="5.93466">
        <ele>478.03</ele>
        <time>2016-05-05T08:16:08Z</time>
      </trkpt>
      <trkpt lat="46.10269" lon="5.93463">
        <ele>478.03</ele>
        <time>2016-05-05T08:16:09Z</time>
      </trkpt>
      <trkpt lat="46.1027" lon="5.9346">
        <ele>478.17</ele>
        <time>2016-05-05T08:16:10Z</time>
      </trkpt>
      <trkpt lat="46.10273" lon="5.93457">
        <ele>478.21</ele>
        <time>2016-05-05T08:16:11Z</time>
      </trkpt>
      <trkpt lat="46.10276" lon="5.93451">
        <ele>478.23</ele>
        <time>2016-05-05T08:16:13Z</time>
      </trkpt>
      <trkpt lat="46.10275" lon="5.93447">
        <ele>478.19</ele>
        <time>2016-05-05T08:16:14Z</time>
      </trkpt>
      <trkpt lat="46.10273" lon="5.93444">
        <ele>478.12</ele>
        <time>2016-05-05T08:16:15Z</time>
      </trkpt>
      <trkpt lat="46.1027" lon="5.93441">
        <ele>478.05</ele>
        <time>2016-05-05T08:16:16Z</time>
      </trkpt>
      <trkpt lat="46.10269" lon="5.93438">
        <ele>477.99</ele>
        <time>2016-05-05T08:16:17Z</time>
      </trkpt>
      <trkpt lat="46.10268" lon="5.93434">
        <ele>477.94</ele>
        <time>2016-05-05T08:16:18Z</time>
      </trkpt>
      <trkpt lat="46.10269" lon="5.93429">
        <ele>477.92</ele>
        <time>2016-05-05T08:16:19Z</time>
      </trkpt>
      <trkpt lat="46.1027" lon="5.93425">
        <ele>477.93</ele>
        <time>2016-05-05T08:16:20Z</time>
      </trkpt>
      <trkpt lat="46.1028" lon="5.93382">
        <ele>478.14</ele>
        <time>2016-05-05T08:16:28Z</time>
      </trkpt>
      <trkpt lat="46.1031" lon="5.93289">
        <ele>475.7</ele>
        <time>2016-05-05T08:16:41Z</time>
      </trkpt>
      <trkpt lat="46.10319" lon="5.93242">
        <ele>473.55</ele>
        <time>2016-05-05T08:16:50Z</time>
      </trkpt>
      <trkpt lat="46.10309" lon="5.93178">
        <ele>473.22</ele>
        <time>2016-05-05T08:17:02Z</time>
      </trkpt>
      <trkpt lat="46.10306" lon="5.93176">
        <ele>473.34</ele>
        <time>2016-05-05T08:17:03Z</time>
      </trkpt>
      <trkpt lat="46.10302" lon="5.93176">
        <ele>473.43</ele>
        <time>2016-05-05T08:17:04Z</time>
      </trkpt>
      <trkpt lat="46.10299" lon="5.93178">
        <ele>473.53</ele>
        <time>2016-05-05T08:17:05Z</time>
      </trkpt>
      <trkpt lat="46.10295" lon="5.93179">
        <ele>473.58</ele>
        <time>2016-05-05T08:17:06Z</time>
      </trkpt>
      <trkpt lat="46.10291" lon="5.9318">
        <ele>473.65</ele>
        <time>2016-05-05T08:17:07Z</time>
      </trkpt>
      <trkpt lat="46.10287" lon="5.93179">
        <ele>473.71</ele>
        <time>2016-05-05T08:17:08Z</time>
      </trkpt>
      <trkpt lat="46.10283" lon="5.93178">
        <ele>473.8</ele>
        <time>2016-05-05T08:17:09Z</time>
      </trkpt>
      <trkpt lat="46.10243" lon="5.93151">
        <ele>476.7</ele>
        <time>2016-05-05T08:17:24Z</time>
      </trkpt>
      <trkpt lat="46.10235" lon="5.93143">
        <ele>478.11</ele>
        <time>2016-05-05T08:17:29Z</time>
      </trkpt>
      <trkpt lat="46.10235" lon="5.93141">
        <ele>478.34</ele>
        <time>2016-05-05T08:17:30Z</time>
      </trkpt>
      <trkpt lat="46.10217" lon="5.93119">
        <ele>479.2</ele>
        <time>2016-05-05T08:17:38Z</time>
      </trkpt>
      <trkpt lat="46.10185" lon="5.9311">
        <ele>481.01</ele>
        <time>2016-05-05T08:17:50Z</time>
      </trkpt>
      <trkpt lat="46.10155" lon="5.93114">
        <ele>483.42</ele>
        <time>2016-05-05T08:18:03Z</time>
      </trkpt>
      <trkpt lat="46.10152" lon="5.93112">
        <ele>483.89</ele>
        <time>2016-05-05T08:18:06Z</time>
      </trkpt>
      <trkpt lat="46.10151" lon="5.93111">
        <ele>484.01</ele>
        <time>2016-05-05T08:18:07Z</time>
      </trkpt>
      <trkpt lat="46.10145" lon="5.93105">
        <ele>484.26</ele>
        <time>2016-05-05T08:18:10Z</time>
      </trkpt>
      <trkpt lat="46.10144" lon="5.93102">
        <ele>484.33</ele>
        <time>2016-05-05T08:18:11Z</time>
      </trkpt>
      <trkpt lat="46.10142" lon="5.93099">
        <ele>484.46</ele>
        <time>2016-05-05T08:18:12Z</time>
      </trkpt>
      <trkpt lat="46.10141" lon="5.93094">
        <ele>484.51</ele>
        <time>2016-05-05T08:18:13Z</time>
      </trkpt>
      <trkpt lat="46.10141" lon="5.9309">
        <ele>484.55</ele>
        <time>2016-05-05T08:18:14Z</time>
      </trkpt>
      <trkpt lat="46.10144" lon="5.93017">
        <ele>485.17</ele>
        <time>2016-05-05T08:18:28Z</time>
      </trkpt>
      <trkpt lat="46.10151" lon="5.92937">
        <ele>487.5</ele>
        <time>2016-05-05T08:18:45Z</time>
      </trkpt>
      <trkpt lat="46.10159" lon="5.92872">
        <ele>489.64</ele>
        <time>2016-05-05T08:18:59Z</time>
      </trkpt>
      <trkpt lat="46.10167" lon="5.92836">
        <ele>489.65</ele>
        <time>2016-05-05T08:19:05Z</time>
      </trkpt>
      <trkpt lat="46.10178" lon="5.92786">
        <ele>488.92</ele>
        <time>2016-05-05T08:19:12Z</time>
      </trkpt>
      <trkpt lat="46.10201" lon="5.92694">
        <ele>489.46</ele>
        <time>2016-05-05T08:19:27Z</time>
      </trkpt>
      <trkpt lat="46.10228" lon="5.9264">
        <ele>491.79</ele>
        <time>2016-05-05T08:19:41Z</time>
      </trkpt>
      <trkpt lat="46.1023" lon="5.92637">
        <ele>491.86</ele>
        <time>2016-05-05T08:19:42Z</time>
      </trkpt>
      <trkpt lat="46.10232" lon="5.92635">
        <ele>491.92</ele>
        <time>2016-05-05T08:19:43Z</time>
      </trkpt>
      <trkpt lat="46.10234" lon="5.92634">
        <ele>491.97</ele>
        <time>2016-05-05T08:19:44Z</time>
      </trkpt>
      <trkpt lat="46.10235" lon="5.92631">
        <ele>491.99</ele>
        <time>2016-05-05T08:19:45Z</time>
      </trkpt>
      <trkpt lat="46.10235" lon="5.92629">
        <ele>491.98</ele>
        <time>2016-05-05T08:19:46Z</time>
      </trkpt>
      <trkpt lat="46.10233" lon="5.92627">
        <ele>491.95</ele>
        <time>2016-05-05T08:19:47Z</time>
      </trkpt>
      <trkpt lat="46.10232" lon="5.92627">
        <ele>491.91</ele>
        <time>2016-05-05T08:19:48Z</time>
      </trkpt>
      <trkpt lat="46.1023" lon="5.92627">
        <ele>491.88</ele>
        <time>2016-05-05T08:19:49Z</time>
      </trkpt>
      <trkpt lat="46.10228" lon="5.92627">
        <ele>491.87</ele>
        <time>2016-05-05T08:19:50Z</time>
      </trkpt>
      <trkpt lat="46.10226" lon="5.92627">
        <ele>491.92</ele>
        <time>2016-05-05T08:19:51Z</time>
      </trkpt>
      <trkpt lat="46.10225" lon="5.92626">
        <ele>491.99</ele>
        <time>2016-05-05T08:19:52Z</time>
      </trkpt>
      <trkpt lat="46.10224" lon="5.92626">
        <ele>492.88</ele>
        <time>2016-05-05T08:20:04Z</time>
      </trkpt>
      <trkpt lat="46.10221" lon="5.92627">
        <ele>493.02</ele>
        <time>2016-05-05T08:20:36Z</time>
      </trkpt>
      <trkpt lat="46.10221" lon="5.92632">
        <ele>493.2</ele>
        <time>2016-05-05T08:21:09Z</time>
      </trkpt>
      <trkpt lat="46.10226" lon="5.92632">
        <ele>492.95</ele>
        <time>2016-05-05T08:21:44Z</time>
      </trkpt>
      <trkpt lat="46.10227" lon="5.9263">
        <ele>492.89</ele>
        <time>2016-05-05T08:22:37Z</time>
      </trkpt>
      <trkpt lat="46.10221" lon="5.92629">
        <ele>493.15</ele>
        <time>2016-05-05T08:23:17Z</time>
      </trkpt>
      <trkpt lat="46.10217" lon="5.92633">
        <ele>493.06</ele>
        <time>2016-05-05T08:23:48Z</time>
      </trkpt>
      <trkpt lat="46.10216" lon="5.92635">
        <ele>493.09</ele>
        <time>2016-05-05T08:24:41Z</time>
      </trkpt>
      <trkpt lat="46.10218" lon="5.9263">
        <ele>493.1</ele>
        <time>2016-05-05T08:25:59Z</time>
      </trkpt>
      <trkpt lat="46.10219" lon="5.92628">
        <ele>493.04</ele>
        <time>2016-05-05T08:26:30Z</time>
      </trkpt>
      <trkpt lat="46.1022" lon="5.92629">
        <ele>493.47</ele>
        <time>2016-05-05T08:27:01Z</time>
      </trkpt>
      <trkpt lat="46.1022" lon="5.92626">
        <ele>493.19</ele>
        <time>2016-05-05T08:27:47Z</time>
      </trkpt>
      <trkpt lat="46.10222" lon="5.92628">
        <ele>493.26</ele>
        <time>2016-05-05T08:28:38Z</time>
      </trkpt>
      <trkpt lat="46.10224" lon="5.92625">
        <ele>493.18</ele>
        <time>2016-05-05T08:29:24Z</time>
      </trkpt>
      <trkpt lat="46.1022" lon="5.92627">
        <ele>493.11</ele>
        <time>2016-05-05T08:30:08Z</time>
      </trkpt>
      <trkpt lat="46.10224" lon="5.92629">
        <ele>493.22</ele>
        <time>2016-05-05T08:31:10Z</time>
      </trkpt>
      <trkpt lat="46.10223" lon="5.92631">
        <ele>493.02</ele>
        <time>2016-05-05T08:31:41Z</time>
      </trkpt>
      <trkpt lat="46.10224" lon="5.92631">
        <ele>493.26</ele>
        <time>2016-05-05T08:31:56Z</time>
      </trkpt>
      <trkpt lat="46.10227" lon="5.9263">
        <ele>493.39</ele>
        <time>2016-05-05T08:32:09Z</time>
      </trkpt>
      <trkpt lat="46.1023" lon="5.92628">
        <ele>493.27</ele>
        <time>2016-05-05T08:32:29Z</time>
      </trkpt>
      <trkpt lat="46.10227" lon="5.92627">
        <ele>493.17</ele>
        <time>2016-05-05T08:32:47Z</time>
      </trkpt>
      <trkpt lat="46.10226" lon="5.92627">
        <ele>493.14</ele>
        <time>2016-05-05T08:33:03Z</time>
      </trkpt>
      <trkpt lat="46.10224" lon="5.92627">
        <ele>493.12</ele>
        <time>2016-05-05T08:33:17Z</time>
      </trkpt>
      <trkpt lat="46.10223" lon="5.92624">
        <ele>493.45</ele>
        <time>2016-05-05T08:33:32Z</time>
      </trkpt>
      <trkpt lat="46.10222" lon="5.92622">
        <ele>493.48</ele>
        <time>2016-05-05T08:33:47Z</time>
      </trkpt>
      <trkpt lat="46.10223" lon="5.92622">
        <ele>493.53</ele>
        <time>2016-05-05T08:34:00Z</time>
      </trkpt>
      <trkpt lat="46.10226" lon="5.92625">
        <ele>493.53</ele>
        <time>2016-05-05T08:34:17Z</time>
      </trkpt>
      <trkpt lat="46.10225" lon="5.92627">
        <ele>493.35</ele>
        <time>2016-05-05T08:34:34Z</time>
      </trkpt>
      <trkpt lat="46.10229" lon="5.92629">
        <ele>493.69</ele>
        <time>2016-05-05T08:34:53Z</time>
      </trkpt>
      <trkpt lat="46.10224" lon="5.92628">
        <ele>493.64</ele>
        <time>2016-05-05T08:35:13Z</time>
      </trkpt>
      <trkpt lat="46.10225" lon="5.92628">
        <ele>493.44</ele>
        <time>2016-05-05T08:35:29Z</time>
      </trkpt>
      <trkpt lat="46.10227" lon="5.92628">
        <ele>493.45</ele>
        <time>2016-05-05T08:35:47Z</time>
      </trkpt>
      <trkpt lat="46.10227" lon="5.92628">
        <ele>493.66</ele>
        <time>2016-05-05T08:36:02Z</time>
      </trkpt>
      <trkpt lat="46.10227" lon="5.9263">
        <ele>493.63</ele>
        <time>2016-05-05T08:36:18Z</time>
      </trkpt>
      <trkpt lat="46.10226" lon="5.9263">
        <ele>493.81</ele>
        <time>2016-05-05T08:36:37Z</time>
      </trkpt>
      <trkpt lat="46.10222" lon="5.92629">
        <ele>493.96</ele>
        <time>2016-05-05T08:37:03Z</time>
      </trkpt>
      <trkpt lat="46.10219" lon="5.92628">
        <ele>494.19</ele>
        <time>2016-05-05T08:37:31Z</time>
      </trkpt>
      <trkpt lat="46.10216" lon="5.92628">
        <ele>494.32</ele>
        <time>2016-05-05T08:38:00Z</time>
      </trkpt>
      <trkpt lat="46.10219" lon="5.92628">
        <ele>494.5</ele>
        <time>2016-05-05T08:38:23Z</time>
      </trkpt>
      <trkpt lat="46.10217" lon="5.92631">
        <ele>494.35</ele>
        <time>2016-05-05T08:38:50Z</time>
      </trkpt>
      <trkpt lat="46.10221" lon="5.92633">
        <ele>494.37</ele>
        <time>2016-05-05T08:38:52Z</time>
      </trkpt>
      <trkpt lat="46.10224" lon="5.92634">
        <ele>494.37</ele>
        <time>2016-05-05T08:38:53Z</time>
      </trkpt>
      <trkpt lat="46.10227" lon="5.92634">
        <ele>494.34</ele>
        <time>2016-05-05T08:38:54Z</time>
      </trkpt>
      <trkpt lat="46.10228" lon="5.92635">
        <ele>494.31</ele>
        <time>2016-05-05T08:38:55Z</time>
      </trkpt>
      <trkpt lat="46.10233" lon="5.92628">
        <ele>493.78</ele>
        <time>2016-05-05T08:39:09Z</time>
      </trkpt>
      <trkpt lat="46.10236" lon="5.92625">
        <ele>493.79</ele>
        <time>2016-05-05T08:39:21Z</time>
      </trkpt>
      <trkpt lat="46.10237" lon="5.92623">
        <ele>493.78</ele>
        <time>2016-05-05T08:39:22Z</time>
      </trkpt>
      <trkpt lat="46.10239" lon="5.92621">
        <ele>493.77</ele>
        <time>2016-05-05T08:39:23Z</time>
      </trkpt>
      <trkpt lat="46.10241" lon="5.92619">
        <ele>493.75</ele>
        <time>2016-05-05T08:39:24Z</time>
      </trkpt>
      <trkpt lat="46.10244" lon="5.92616">
        <ele>493.72</ele>
        <time>2016-05-05T08:39:25Z</time>
      </trkpt>
      <trkpt lat="46.10247" lon="5.92613">
        <ele>493.65</ele>
        <time>2016-05-05T08:39:26Z</time>
      </trkpt>
      <trkpt lat="46.10256" lon="5.926">
        <ele>493.55</ele>
        <time>2016-05-05T08:39:29Z</time>
      </trkpt>
      <trkpt lat="46.1026" lon="5.92596">
        <ele>493.52</ele>
        <time>2016-05-05T08:39:30Z</time>
      </trkpt>
      <trkpt lat="46.10263" lon="5.92591">
        <ele>493.51</ele>
        <time>2016-05-05T08:39:31Z</time>
      </trkpt>
      <trkpt lat="46.10266" lon="5.92586">
        <ele>493.5</ele>
        <time>2016-05-05T08:39:32Z</time>
      </trkpt>
      <trkpt lat="46.10269" lon="5.9258">
        <ele>493.47</ele>
        <time>2016-05-05T08:39:33Z</time>
      </trkpt>
      <trkpt lat="46.10273" lon="5.92575">
        <ele>493.44</ele>
        <time>2016-05-05T08:39:34Z</time>
      </trkpt>
      <trkpt lat="46.10277" lon="5.9257">
        <ele>493.4</ele>
        <time>2016-05-05T08:39:35Z</time>
      </trkpt>
      <trkpt lat="46.1028" lon="5.92565">
        <ele>493.37</ele>
        <time>2016-05-05T08:39:36Z</time>
      </trkpt>
      <trkpt lat="46.10283" lon="5.92559">
        <ele>493.33</ele>
        <time>2016-05-05T08:39:37Z</time>
      </trkpt>
      <trkpt lat="46.10287" lon="5.92555">
        <ele>493.25</ele>
        <time>2016-05-05T08:39:38Z</time>
      </trkpt>
      <trkpt lat="46.10291" lon="5.9255">
        <ele>493.19</ele>
        <time>2016-05-05T08:39:39Z</time>
      </trkpt>
      <trkpt lat="46.10343" lon="5.92479">
        <ele>493.27</ele>
        <time>2016-05-05T08:39:55Z</time>
      </trkpt>
      <trkpt lat="46.10395" lon="5.92395">
        <ele>492.77</ele>
        <time>2016-05-05T08:40:08Z</time>
      </trkpt>
      <trkpt lat="46.10471" lon="5.92277">
        <ele>489.68</ele>
        <time>2016-05-05T08:40:22Z</time>
      </trkpt>
      <trkpt lat="46.10542" lon="5.92169">
        <ele>487.06</ele>
        <time>2016-05-05T08:40:35Z</time>
      </trkpt>
      <trkpt lat="46.10626" lon="5.92041">
        <ele>486.1</ele>
        <time>2016-05-05T08:40:52Z</time>
      </trkpt>
      <trkpt lat="46.10635" lon="5.92026">
        <ele>486.05</ele>
        <time>2016-05-05T08:40:54Z</time>
      </trkpt>
      <trkpt lat="46.10693" lon="5.91936">
        <ele>485.41</ele>
        <time>2016-05-05T08:41:06Z</time>
      </trkpt>
      <trkpt lat="46.10762" lon="5.9183">
        <ele>484.91</ele>
        <time>2016-05-05T08:41:20Z</time>
      </trkpt>
      <trkpt lat="46.10809" lon="5.91754">
        <ele>487.15</ele>
        <time>2016-05-05T08:41:34Z</time>
      </trkpt>
      <trkpt lat="46.10813" lon="5.91749">
        <ele>487.3</ele>
        <time>2016-05-05T08:41:35Z</time>
      </trkpt>
      <trkpt lat="46.1088" lon="5.91645">
        <ele>488.4</ele>
        <time>2016-05-05T08:41:52Z</time>
      </trkpt>
      <trkpt lat="46.10888" lon="5.91625">
        <ele>488.6</ele>
        <time>2016-05-05T08:41:55Z</time>
      </trkpt>
      <trkpt lat="46.10892" lon="5.91619">
        <ele>488.67</ele>
        <time>2016-05-05T08:41:56Z</time>
      </trkpt>
      <trkpt lat="46.10946" lon="5.91523">
        <ele>489.66</ele>
        <time>2016-05-05T08:42:10Z</time>
      </trkpt>
      <trkpt lat="46.10966" lon="5.91484">
        <ele>489.63</ele>
        <time>2016-05-05T08:42:15Z</time>
      </trkpt>
      <trkpt lat="46.10998" lon="5.91398">
        <ele>488.93</ele>
        <time>2016-05-05T08:42:25Z</time>
      </trkpt>
      <trkpt lat="46.11028" lon="5.91239">
        <ele>487.92</ele>
        <time>2016-05-05T08:42:41Z</time>
      </trkpt>
      <trkpt lat="46.11053" lon="5.91091">
        <ele>486.95</ele>
        <time>2016-05-05T08:42:55Z</time>
      </trkpt>
      <trkpt lat="46.11088" lon="5.90913">
        <ele>486.47</ele>
        <time>2016-05-05T08:43:13Z</time>
      </trkpt>
      <trkpt lat="46.11138" lon="5.90788">
        <ele>486.78</ele>
        <time>2016-05-05T08:43:27Z</time>
      </trkpt>
      <trkpt lat="46.11188" lon="5.90683">
        <ele>486.54</ele>
        <time>2016-05-05T08:43:40Z</time>
      </trkpt>
      <trkpt lat="46.11263" lon="5.90575">
        <ele>486.36</ele>
        <time>2016-05-05T08:43:56Z</time>
      </trkpt>
      <trkpt lat="46.1134" lon="5.90477">
        <ele>486.54</ele>
        <time>2016-05-05T08:44:11Z</time>
      </trkpt>
      <trkpt lat="46.11408" lon="5.90393">
        <ele>486.81</ele>
        <time>2016-05-05T08:44:24Z</time>
      </trkpt>
      <trkpt lat="46.1143" lon="5.9037">
        <ele>486.73</ele>
        <time>2016-05-05T08:44:28Z</time>
      </trkpt>
      <trkpt lat="46.11462" lon="5.90337">
        <ele>486.81</ele>
        <time>2016-05-05T08:44:34Z</time>
      </trkpt>
      <trkpt lat="46.11528" lon="5.90278">
        <ele>486.53</ele>
        <time>2016-05-05T08:44:46Z</time>
      </trkpt>
      <trkpt lat="46.11533" lon="5.90273">
        <ele>486.52</ele>
        <time>2016-05-05T08:44:47Z</time>
      </trkpt>
      <trkpt lat="46.11595" lon="5.90226">
        <ele>486.11</ele>
        <time>2016-05-05T08:44:57Z</time>
      </trkpt>
      <trkpt lat="46.11606" lon="5.90216">
        <ele>486.03</ele>
        <time>2016-05-05T08:44:59Z</time>
      </trkpt>
      <trkpt lat="46.11671" lon="5.90164">
        <ele>486.04</ele>
        <time>2016-05-05T08:45:11Z</time>
      </trkpt>
      <trkpt lat="46.11676" lon="5.9016">
        <ele>486.07</ele>
        <time>2016-05-05T08:45:12Z</time>
      </trkpt>
      <trkpt lat="46.11685" lon="5.90151">
        <ele>486.23</ele>
        <time>2016-05-05T08:45:14Z</time>
      </trkpt>
      <trkpt lat="46.117" lon="5.9014">
        <ele>486.58</ele>
        <time>2016-05-05T08:45:17Z</time>
      </trkpt>
      <trkpt lat="46.11709" lon="5.90132">
        <ele>486.85</ele>
        <time>2016-05-05T08:45:19Z</time>
      </trkpt>
      <trkpt lat="46.11713" lon="5.90129">
        <ele>487.01</ele>
        <time>2016-05-05T08:45:20Z</time>
      </trkpt>
      <trkpt lat="46.11717" lon="5.90126">
        <ele>487.14</ele>
        <time>2016-05-05T08:45:21Z</time>
      </trkpt>
      <trkpt lat="46.11721" lon="5.90122">
        <ele>487.26</ele>
        <time>2016-05-05T08:45:22Z</time>
      </trkpt>
      <trkpt lat="46.11724" lon="5.90117">
        <ele>487.36</ele>
        <time>2016-05-05T08:45:23Z</time>
      </trkpt>
      <trkpt lat="46.11726" lon="5.90113">
        <ele>487.43</ele>
        <time>2016-05-05T08:45:24Z</time>
      </trkpt>
      <trkpt lat="46.11728" lon="5.90108">
        <ele>487.48</ele>
        <time>2016-05-05T08:45:25Z</time>
      </trkpt>
      <trkpt lat="46.11729" lon="5.90105">
        <ele>487.54</ele>
        <time>2016-05-05T08:45:26Z</time>
      </trkpt>
      <trkpt lat="46.1173" lon="5.90102">
        <ele>487.57</ele>
        <time>2016-05-05T08:45:27Z</time>
      </trkpt>
      <trkpt lat="46.1173" lon="5.901">
        <ele>487.59</ele>
        <time>2016-05-05T08:45:28Z</time>
      </trkpt>
      <trkpt lat="46.1173" lon="5.90098">
        <ele>487.61</ele>
        <time>2016-05-05T08:45:29Z</time>
      </trkpt>
      <trkpt lat="46.11732" lon="5.90095">
        <ele>488</ele>
        <time>2016-05-05T08:45:40Z</time>
      </trkpt>
      <trkpt lat="46.11732" lon="5.90097">
        <ele>487.46</ele>
        <time>2016-05-05T08:46:02Z</time>
      </trkpt>
      <trkpt lat="46.11732" lon="5.90097">
        <ele>487.85</ele>
        <time>2016-05-05T08:46:24Z</time>
      </trkpt>
      <trkpt lat="46.11732" lon="5.90098">
        <ele>487.67</ele>
        <time>2016-05-05T08:46:42Z</time>
      </trkpt>
      <trkpt lat="46.11731" lon="5.90097">
        <ele>487.92</ele>
        <time>2016-05-05T08:47:00Z</time>
      </trkpt>
      <trkpt lat="46.11731" lon="5.90096">
        <ele>488.14</ele>
        <time>2016-05-05T08:47:16Z</time>
      </trkpt>
      <trkpt lat="46.11732" lon="5.90095">
        <ele>487.9</ele>
        <time>2016-05-05T08:47:30Z</time>
      </trkpt>
      <trkpt lat="46.11733" lon="5.90094">
        <ele>488.13</ele>
        <time>2016-05-05T08:47:48Z</time>
      </trkpt>
      <trkpt lat="46.11734" lon="5.90094">
        <ele>487.91</ele>
        <time>2016-05-05T08:48:08Z</time>
      </trkpt>
      <trkpt lat="46.11734" lon="5.90097">
        <ele>488.06</ele>
        <time>2016-05-05T08:48:35Z</time>
      </trkpt>
      <trkpt lat="46.11732" lon="5.90098">
        <ele>487.8</ele>
        <time>2016-05-05T08:49:15Z</time>
      </trkpt>
      <trkpt lat="46.11733" lon="5.90097">
        <ele>488.37</ele>
        <time>2016-05-05T08:50:04Z</time>
      </trkpt>
      <trkpt lat="46.11734" lon="5.90096">
        <ele>488.44</ele>
        <time>2016-05-05T08:50:27Z</time>
      </trkpt>
      <trkpt lat="46.11732" lon="5.90095">
        <ele>488.66</ele>
        <time>2016-05-05T08:50:45Z</time>
      </trkpt>
      <trkpt lat="46.11732" lon="5.90093">
        <ele>488.62</ele>
        <time>2016-05-05T08:51:03Z</time>
      </trkpt>
      <trkpt lat="46.1173" lon="5.90092">
        <ele>488.81</ele>
        <time>2016-05-05T08:51:18Z</time>
      </trkpt>
      <trkpt lat="46.11729" lon="5.90091">
        <ele>488.56</ele>
        <time>2016-05-05T08:51:33Z</time>
      </trkpt>
      <trkpt lat="46.1173" lon="5.90092">
        <ele>489.16</ele>
        <time>2016-05-05T08:51:48Z</time>
      </trkpt>
      <trkpt lat="46.11731" lon="5.90093">
        <ele>488.61</ele>
        <time>2016-05-05T08:52:05Z</time>
      </trkpt>
      <trkpt lat="46.11732" lon="5.90092">
        <ele>487.22</ele>
        <time>2016-05-05T08:52:27Z</time>
      </trkpt>
      <trkpt lat="46.11732" lon="5.90093">
        <ele>487.32</ele>
        <time>2016-05-05T08:52:53Z</time>
      </trkpt>
      <trkpt lat="46.11731" lon="5.90091">
        <ele>488.02</ele>
        <time>2016-05-05T08:53:08Z</time>
      </trkpt>
      <trkpt lat="46.1173" lon="5.90089">
        <ele>488.48</ele>
        <time>2016-05-05T08:53:22Z</time>
      </trkpt>
      <trkpt lat="46.1173" lon="5.90087">
        <ele>488.21</ele>
        <time>2016-05-05T08:53:37Z</time>
      </trkpt>
      <trkpt lat="46.11729" lon="5.90086">
        <ele>488.19</ele>
        <time>2016-05-05T08:53:38Z</time>
      </trkpt>
      <trkpt lat="46.11728" lon="5.90084">
        <ele>488.15</ele>
        <time>2016-05-05T08:53:39Z</time>
      </trkpt>
      <trkpt lat="46.11727" lon="5.90081">
        <ele>488.09</ele>
        <time>2016-05-05T08:53:40Z</time>
      </trkpt>
      <trkpt lat="46.11726" lon="5.90079">
        <ele>488.04</ele>
        <time>2016-05-05T08:53:41Z</time>
      </trkpt>
      <trkpt lat="46.11724" lon="5.90075">
        <ele>488.03</ele>
        <time>2016-05-05T08:53:42Z</time>
      </trkpt>
      <trkpt lat="46.11722" lon="5.90072">
        <ele>488.02</ele>
        <time>2016-05-05T08:53:43Z</time>
      </trkpt>
      <trkpt lat="46.11721" lon="5.90069">
        <ele>487.98</ele>
        <time>2016-05-05T08:53:44Z</time>
      </trkpt>
      <trkpt lat="46.11713" lon="5.9003">
        <ele>487.92</ele>
        <time>2016-05-05T08:53:52Z</time>
      </trkpt>
      <trkpt lat="46.11713" lon="5.90023">
        <ele>487.95</ele>
        <time>2016-05-05T08:53:53Z</time>
      </trkpt>
      <trkpt lat="46.11714" lon="5.90015">
        <ele>487.98</ele>
        <time>2016-05-05T08:53:54Z</time>
      </trkpt>
      <trkpt lat="46.11715" lon="5.90008">
        <ele>488.01</ele>
        <time>2016-05-05T08:53:55Z</time>
      </trkpt>
      <trkpt lat="46.11717" lon="5.90002">
        <ele>488.05</ele>
        <time>2016-05-05T08:53:56Z</time>
      </trkpt>
      <trkpt lat="46.11718" lon="5.89994">
        <ele>488.06</ele>
        <time>2016-05-05T08:53:57Z</time>
      </trkpt>
      <trkpt lat="46.11718" lon="5.89985">
        <ele>488.06</ele>
        <time>2016-05-05T08:53:58Z</time>
      </trkpt>
      <trkpt lat="46.11719" lon="5.89976">
        <ele>488.02</ele>
        <time>2016-05-05T08:53:59Z</time>
      </trkpt>
      <trkpt lat="46.11718" lon="5.89967">
        <ele>487.97</ele>
        <time>2016-05-05T08:54:00Z</time>
      </trkpt>
      <trkpt lat="46.11717" lon="5.89938">
        <ele>487.63</ele>
        <time>2016-05-05T08:54:03Z</time>
      </trkpt>
      <trkpt lat="46.11717" lon="5.89928">
        <ele>487.48</ele>
        <time>2016-05-05T08:54:04Z</time>
      </trkpt>
      <trkpt lat="46.11718" lon="5.89918">
        <ele>487.3</ele>
        <time>2016-05-05T08:54:05Z</time>
      </trkpt>
      <trkpt lat="46.11731" lon="5.89845">
        <ele>485.19</ele>
        <time>2016-05-05T08:54:12Z</time>
      </trkpt>
      <trkpt lat="46.11734" lon="5.89834">
        <ele>484.86</ele>
        <time>2016-05-05T08:54:13Z</time>
      </trkpt>
      <trkpt lat="46.11737" lon="5.89824">
        <ele>484.5</ele>
        <time>2016-05-05T08:54:14Z</time>
      </trkpt>
      <trkpt lat="46.1175" lon="5.89781">
        <ele>483.04</ele>
        <time>2016-05-05T08:54:18Z</time>
      </trkpt>
      <trkpt lat="46.11752" lon="5.89771">
        <ele>482.65</ele>
        <time>2016-05-05T08:54:19Z</time>
      </trkpt>
      <trkpt lat="46.11751" lon="5.8976">
        <ele>482.27</ele>
        <time>2016-05-05T08:54:20Z</time>
      </trkpt>
      <trkpt lat="46.1175" lon="5.89749">
        <ele>481.93</ele>
        <time>2016-05-05T08:54:21Z</time>
      </trkpt>
      <trkpt lat="46.11748" lon="5.89738">
        <ele>481.64</ele>
        <time>2016-05-05T08:54:22Z</time>
      </trkpt>
      <trkpt lat="46.11746" lon="5.89727">
        <ele>481.33</ele>
        <time>2016-05-05T08:54:23Z</time>
      </trkpt>
      <trkpt lat="46.11745" lon="5.89715">
        <ele>481</ele>
        <time>2016-05-05T08:54:24Z</time>
      </trkpt>
      <trkpt lat="46.11742" lon="5.89692">
        <ele>480.43</ele>
        <time>2016-05-05T08:54:26Z</time>
      </trkpt>
      <trkpt lat="46.11742" lon="5.89681">
        <ele>480.2</ele>
        <time>2016-05-05T08:54:27Z</time>
      </trkpt>
      <trkpt lat="46.11743" lon="5.89669">
        <ele>479.96</ele>
        <time>2016-05-05T08:54:28Z</time>
      </trkpt>
      <trkpt lat="46.11764" lon="5.8953">
        <ele>476.77</ele>
        <time>2016-05-05T08:54:39Z</time>
      </trkpt>
      <trkpt lat="46.11773" lon="5.89459">
        <ele>475.23</ele>
        <time>2016-05-05T08:54:45Z</time>
      </trkpt>
      <trkpt lat="46.11773" lon="5.89448">
        <ele>474.97</ele>
        <time>2016-05-05T08:54:46Z</time>
      </trkpt>
      <trkpt lat="46.11771" lon="5.89436">
        <ele>474.74</ele>
        <time>2016-05-05T08:54:47Z</time>
      </trkpt>
      <trkpt lat="46.11768" lon="5.89424">
        <ele>474.55</ele>
        <time>2016-05-05T08:54:48Z</time>
      </trkpt>
      <trkpt lat="46.11765" lon="5.89413">
        <ele>474.39</ele>
        <time>2016-05-05T08:54:49Z</time>
      </trkpt>
      <trkpt lat="46.11759" lon="5.89395">
        <ele>474.12</ele>
        <time>2016-05-05T08:54:51Z</time>
      </trkpt>
      <trkpt lat="46.11755" lon="5.89388">
        <ele>473.94</ele>
        <time>2016-05-05T08:54:52Z</time>
      </trkpt>
      <trkpt lat="46.11751" lon="5.89383">
        <ele>473.68</ele>
        <time>2016-05-05T08:54:53Z</time>
      </trkpt>
      <trkpt lat="46.11742" lon="5.89376">
        <ele>472.11</ele>
        <time>2016-05-05T08:54:57Z</time>
      </trkpt>
      <trkpt lat="46.11737" lon="5.89373">
        <ele>470.76</ele>
        <time>2016-05-05T08:55:09Z</time>
      </trkpt>
      <trkpt lat="46.11739" lon="5.89376">
        <ele>470.9</ele>
        <time>2016-05-05T08:56:20Z</time>
      </trkpt>
      <trkpt lat="46.1174" lon="5.89377">
        <ele>471.17</ele>
        <time>2016-05-05T08:56:58Z</time>
      </trkpt>
      <trkpt lat="46.11721" lon="5.89373">
        <ele>471.11</ele>
        <time>2016-05-05T08:57:12Z</time>
      </trkpt>
      <trkpt lat="46.1171" lon="5.89369">
        <ele>471.16</ele>
        <time>2016-05-05T08:57:14Z</time>
      </trkpt>
      <trkpt lat="46.11704" lon="5.89365">
        <ele>471.17</ele>
        <time>2016-05-05T08:57:15Z</time>
      </trkpt>
      <trkpt lat="46.11698" lon="5.89361">
        <ele>471.13</ele>
        <time>2016-05-05T08:57:16Z</time>
      </trkpt>
      <trkpt lat="46.11613" lon="5.89314">
        <ele>468.21</ele>
        <time>2016-05-05T08:57:27Z</time>
      </trkpt>
      <trkpt lat="46.11533" lon="5.89297">
        <ele>465.2</ele>
        <time>2016-05-05T08:57:37Z</time>
      </trkpt>
      <trkpt lat="46.11472" lon="5.89292">
        <ele>462.86</ele>
        <time>2016-05-05T08:57:45Z</time>
      </trkpt>
      <trkpt lat="46.11457" lon="5.89287">
        <ele>462.32</ele>
        <time>2016-05-05T08:57:47Z</time>
      </trkpt>
      <trkpt lat="46.1145" lon="5.89284">
        <ele>462.1</ele>
        <time>2016-05-05T08:57:48Z</time>
      </trkpt>
      <trkpt lat="46.11443" lon="5.89279">
        <ele>461.92</ele>
        <time>2016-05-05T08:57:49Z</time>
      </trkpt>
      <trkpt lat="46.11374" lon="5.89222">
        <ele>459.97</ele>
        <time>2016-05-05T08:57:59Z</time>
      </trkpt>
      <trkpt lat="46.11366" lon="5.89218">
        <ele>459.81</ele>
        <time>2016-05-05T08:58:00Z</time>
      </trkpt>
      <trkpt lat="46.11358" lon="5.89216">
        <ele>459.6</ele>
        <time>2016-05-05T08:58:01Z</time>
      </trkpt>
      <trkpt lat="46.1135" lon="5.89215">
        <ele>459.29</ele>
        <time>2016-05-05T08:58:02Z</time>
      </trkpt>
      <trkpt lat="46.11341" lon="5.89215">
        <ele>458.95</ele>
        <time>2016-05-05T08:58:03Z</time>
      </trkpt>
      <trkpt lat="46.11263" lon="5.89203">
        <ele>455.79</ele>
        <time>2016-05-05T08:58:12Z</time>
      </trkpt>
      <trkpt lat="46.11172" lon="5.89164">
        <ele>452.45</ele>
        <time>2016-05-05T08:58:22Z</time>
      </trkpt>
      <trkpt lat="46.11083" lon="5.89146">
        <ele>449.37</ele>
        <time>2016-05-05T08:58:31Z</time>
      </trkpt>
      <trkpt lat="46.1098" lon="5.89105">
        <ele>446.05</ele>
        <time>2016-05-05T08:58:42Z</time>
      </trkpt>
      <trkpt lat="46.10919" lon="5.89082">
        <ele>442.75</ele>
        <time>2016-05-05T08:58:49Z</time>
      </trkpt>
      <trkpt lat="46.10865" lon="5.89054">
        <ele>439.62</ele>
        <time>2016-05-05T08:58:55Z</time>
      </trkpt>
      <trkpt lat="46.10781" lon="5.89029">
        <ele>436.53</ele>
        <time>2016-05-05T08:59:04Z</time>
      </trkpt>
      <trkpt lat="46.1072" lon="5.89021">
        <ele>434.54</ele>
        <time>2016-05-05T08:59:11Z</time>
      </trkpt>
      <trkpt lat="46.10712" lon="5.89022">
        <ele>434.25</ele>
        <time>2016-05-05T08:59:12Z</time>
      </trkpt>
      <trkpt lat="46.10703" lon="5.89025">
        <ele>433.65</ele>
        <time>2016-05-05T08:59:13Z</time>
      </trkpt>
      <trkpt lat="46.10695" lon="5.89028">
        <ele>433.38</ele>
        <time>2016-05-05T08:59:14Z</time>
      </trkpt>
      <trkpt lat="46.10688" lon="5.89033">
        <ele>433.11</ele>
        <time>2016-05-05T08:59:15Z</time>
      </trkpt>
      <trkpt lat="46.10681" lon="5.89039">
        <ele>432.86</ele>
        <time>2016-05-05T08:59:16Z</time>
      </trkpt>
      <trkpt lat="46.10588" lon="5.89133">
        <ele>431.41</ele>
        <time>2016-05-05T08:59:30Z</time>
      </trkpt>
      <trkpt lat="46.10578" lon="5.89146">
        <ele>431.59</ele>
        <time>2016-05-05T08:59:32Z</time>
      </trkpt>
      <trkpt lat="46.10533" lon="5.89201">
        <ele>434.07</ele>
        <time>2016-05-05T08:59:43Z</time>
      </trkpt>
      <trkpt lat="46.10519" lon="5.89217">
        <ele>434.83</ele>
        <time>2016-05-05T08:59:47Z</time>
      </trkpt>
      <trkpt lat="46.10516" lon="5.89222">
        <ele>434.96</ele>
        <time>2016-05-05T08:59:48Z</time>
      </trkpt>
      <trkpt lat="46.10467" lon="5.89279">
        <ele>437.96</ele>
        <time>2016-05-05T09:00:05Z</time>
      </trkpt>
      <trkpt lat="46.10435" lon="5.89309">
        <ele>439.98</ele>
        <time>2016-05-05T09:00:16Z</time>
      </trkpt>
      <trkpt lat="46.10402" lon="5.8934">
        <ele>442.36</ele>
        <time>2016-05-05T09:00:28Z</time>
      </trkpt>
      <trkpt lat="46.10368" lon="5.8938">
        <ele>444.31</ele>
        <time>2016-05-05T09:00:40Z</time>
      </trkpt>
      <trkpt lat="46.10329" lon="5.8942">
        <ele>446.71</ele>
        <time>2016-05-05T09:00:54Z</time>
      </trkpt>
      <trkpt lat="46.10288" lon="5.89456">
        <ele>449.24</ele>
        <time>2016-05-05T09:01:08Z</time>
      </trkpt>
      <trkpt lat="46.10257" lon="5.89491">
        <ele>451.05</ele>
        <time>2016-05-05T09:01:20Z</time>
      </trkpt>
      <trkpt lat="46.10225" lon="5.89533">
        <ele>452.73</ele>
        <time>2016-05-05T09:01:32Z</time>
      </trkpt>
      <trkpt lat="46.10179" lon="5.89565">
        <ele>455.46</ele>
        <time>2016-05-05T09:01:47Z</time>
      </trkpt>
      <trkpt lat="46.10132" lon="5.89596">
        <ele>458.09</ele>
        <time>2016-05-05T09:02:03Z</time>
      </trkpt>
      <trkpt lat="46.10104" lon="5.89627">
        <ele>459.36</ele>
        <time>2016-05-05T09:02:14Z</time>
      </trkpt>
      <trkpt lat="46.10056" lon="5.89663">
        <ele>461.75</ele>
        <time>2016-05-05T09:02:30Z</time>
      </trkpt>
      <trkpt lat="46.10019" lon="5.89692">
        <ele>463.52</ele>
        <time>2016-05-05T09:02:43Z</time>
      </trkpt>
      <trkpt lat="46.09976" lon="5.89718">
        <ele>465.53</ele>
        <time>2016-05-05T09:02:57Z</time>
      </trkpt>
      <trkpt lat="46.09927" lon="5.89753">
        <ele>467.57</ele>
        <time>2016-05-05T09:03:14Z</time>
      </trkpt>
      <trkpt lat="46.09903" lon="5.89771">
        <ele>468.98</ele>
        <time>2016-05-05T09:03:24Z</time>
      </trkpt>
      <trkpt lat="46.09872" lon="5.8979">
        <ele>470.81</ele>
        <time>2016-05-05T09:03:37Z</time>
      </trkpt>
      <trkpt lat="46.09842" lon="5.89802">
        <ele>473.06</ele>
        <time>2016-05-05T09:03:49Z</time>
      </trkpt>
      <trkpt lat="46.09804" lon="5.89805">
        <ele>475.02</ele>
        <time>2016-05-05T09:04:02Z</time>
      </trkpt>
      <trkpt lat="46.09767" lon="5.89808">
        <ele>477.23</ele>
        <time>2016-05-05T09:04:15Z</time>
      </trkpt>
      <trkpt lat="46.09721" lon="5.89831">
        <ele>480.04</ele>
        <time>2016-05-05T09:04:32Z</time>
      </trkpt>
      <trkpt lat="46.09685" lon="5.8984">
        <ele>482.12</ele>
        <time>2016-05-05T09:04:45Z</time>
      </trkpt>
      <trkpt lat="46.09653" lon="5.89849">
        <ele>484.18</ele>
        <time>2016-05-05T09:04:58Z</time>
      </trkpt>
      <trkpt lat="46.09617" lon="5.89852">
        <ele>485.62</ele>
        <time>2016-05-05T09:05:10Z</time>
      </trkpt>
      <trkpt lat="46.09572" lon="5.89851">
        <ele>487.59</ele>
        <time>2016-05-05T09:05:26Z</time>
      </trkpt>
      <trkpt lat="46.09524" lon="5.89848">
        <ele>490.5</ele>
        <time>2016-05-05T09:05:44Z</time>
      </trkpt>
      <trkpt lat="46.09488" lon="5.89849">
        <ele>492.52</ele>
        <time>2016-05-05T09:05:58Z</time>
      </trkpt>
      <trkpt lat="46.09455" lon="5.8985">
        <ele>494.82</ele>
        <time>2016-05-05T09:06:10Z</time>
      </trkpt>
      <trkpt lat="46.09442" lon="5.89846">
        <ele>495.48</ele>
        <time>2016-05-05T09:06:15Z</time>
      </trkpt>
      <trkpt lat="46.09415" lon="5.89855">
        <ele>497.38</ele>
        <time>2016-05-05T09:06:27Z</time>
      </trkpt>
      <trkpt lat="46.0938" lon="5.89875">
        <ele>499.13</ele>
        <time>2016-05-05T09:06:40Z</time>
      </trkpt>
      <trkpt lat="46.09347" lon="5.89895">
        <ele>499.84</ele>
        <time>2016-05-05T09:06:51Z</time>
      </trkpt>
      <trkpt lat="46.0931" lon="5.89898">
        <ele>500.58</ele>
        <time>2016-05-05T09:07:02Z</time>
      </trkpt>
      <trkpt lat="46.09273" lon="5.89906">
        <ele>501.56</ele>
        <time>2016-05-05T09:07:14Z</time>
      </trkpt>
      <trkpt lat="46.09236" lon="5.89927">
        <ele>502.84</ele>
        <time>2016-05-05T09:07:26Z</time>
      </trkpt>
      <trkpt lat="46.09198" lon="5.89949">
        <ele>503.12</ele>
        <time>2016-05-05T09:07:38Z</time>
      </trkpt>
      <trkpt lat="46.09171" lon="5.89963">
        <ele>504.31</ele>
        <time>2016-05-05T09:07:47Z</time>
      </trkpt>
      <trkpt lat="46.09141" lon="5.89979">
        <ele>505.85</ele>
        <time>2016-05-05T09:07:56Z</time>
      </trkpt>
      <trkpt lat="46.09108" lon="5.89994">
        <ele>506.99</ele>
        <time>2016-05-05T09:08:07Z</time>
      </trkpt>
      <trkpt lat="46.09076" lon="5.9">
        <ele>507.5</ele>
        <time>2016-05-05T09:08:17Z</time>
      </trkpt>
      <trkpt lat="46.09073" lon="5.90001">
        <ele>507.55</ele>
        <time>2016-05-05T09:08:18Z</time>
      </trkpt>
      <trkpt lat="46.0907" lon="5.90001">
        <ele>507.61</ele>
        <time>2016-05-05T09:08:19Z</time>
      </trkpt>
      <trkpt lat="46.09067" lon="5.90002">
        <ele>507.68</ele>
        <time>2016-05-05T09:08:20Z</time>
      </trkpt>
      <trkpt lat="46.09062" lon="5.90003">
        <ele>507.76</ele>
        <time>2016-05-05T09:08:21Z</time>
      </trkpt>
      <trkpt lat="46.09057" lon="5.90003">
        <ele>507.85</ele>
        <time>2016-05-05T09:08:22Z</time>
      </trkpt>
      <trkpt lat="46.09052" lon="5.90003">
        <ele>507.92</ele>
        <time>2016-05-05T09:08:23Z</time>
      </trkpt>
      <trkpt lat="46.08993" lon="5.90006">
        <ele>508.94</ele>
        <time>2016-05-05T09:08:34Z</time>
      </trkpt>
      <trkpt lat="46.0894" lon="5.90004">
        <ele>510.59</ele>
        <time>2016-05-05T09:08:46Z</time>
      </trkpt>
      <trkpt lat="46.08899" lon="5.90011">
        <ele>512.18</ele>
        <time>2016-05-05T09:08:57Z</time>
      </trkpt>
      <trkpt lat="46.08862" lon="5.90015">
        <ele>513.66</ele>
        <time>2016-05-05T09:09:08Z</time>
      </trkpt>
      <trkpt lat="46.08813" lon="5.90013">
        <ele>515.18</ele>
        <time>2016-05-05T09:09:20Z</time>
      </trkpt>
      <trkpt lat="46.08768" lon="5.89999">
        <ele>517.08</ele>
        <time>2016-05-05T09:09:33Z</time>
      </trkpt>
      <trkpt lat="46.08713" lon="5.89993">
        <ele>518.94</ele>
        <time>2016-05-05T09:09:48Z</time>
      </trkpt>
      <trkpt lat="46.08659" lon="5.89985">
        <ele>520.75</ele>
        <time>2016-05-05T09:10:02Z</time>
      </trkpt>
      <trkpt lat="46.0861" lon="5.89988">
        <ele>521.87</ele>
        <time>2016-05-05T09:10:16Z</time>
      </trkpt>
      <trkpt lat="46.08576" lon="5.89996">
        <ele>523.26</ele>
        <time>2016-05-05T09:10:28Z</time>
      </trkpt>
      <trkpt lat="46.08545" lon="5.90003">
        <ele>524.3</ele>
        <time>2016-05-05T09:10:38Z</time>
      </trkpt>
      <trkpt lat="46.08517" lon="5.90036">
        <ele>526.86</ele>
        <time>2016-05-05T09:10:50Z</time>
      </trkpt>
      <trkpt lat="46.08495" lon="5.90072">
        <ele>528.69</ele>
        <time>2016-05-05T09:11:02Z</time>
      </trkpt>
      <trkpt lat="46.08478" lon="5.90102">
        <ele>530.29</ele>
        <time>2016-05-05T09:11:12Z</time>
      </trkpt>
      <trkpt lat="46.08453" lon="5.90144">
        <ele>532.24</ele>
        <time>2016-05-05T09:11:24Z</time>
      </trkpt>
      <trkpt lat="46.08408" lon="5.90166">
        <ele>534.99</ele>
        <time>2016-05-05T09:11:39Z</time>
      </trkpt>
      <trkpt lat="46.08376" lon="5.9015">
        <ele>535.9</ele>
        <time>2016-05-05T09:11:52Z</time>
      </trkpt>
      <trkpt lat="46.08346" lon="5.90135">
        <ele>537.98</ele>
        <time>2016-05-05T09:12:05Z</time>
      </trkpt>
      <trkpt lat="46.08299" lon="5.90099">
        <ele>541</ele>
        <time>2016-05-05T09:12:24Z</time>
      </trkpt>
      <trkpt lat="46.08262" lon="5.90084">
        <ele>542.55</ele>
        <time>2016-05-05T09:12:38Z</time>
      </trkpt>
      <trkpt lat="46.08224" lon="5.9008">
        <ele>543.79</ele>
        <time>2016-05-05T09:12:52Z</time>
      </trkpt>
      <trkpt lat="46.08186" lon="5.90076">
        <ele>546.35</ele>
        <time>2016-05-05T09:13:07Z</time>
      </trkpt>
      <trkpt lat="46.08153" lon="5.90096">
        <ele>548.19</ele>
        <time>2016-05-05T09:13:21Z</time>
      </trkpt>
      <trkpt lat="46.08129" lon="5.90141">
        <ele>550.9</ele>
        <time>2016-05-05T09:13:36Z</time>
      </trkpt>
      <trkpt lat="46.081" lon="5.90183">
        <ele>552.47</ele>
        <time>2016-05-05T09:13:52Z</time>
      </trkpt>
      <trkpt lat="46.08057" lon="5.90172">
        <ele>554.49</ele>
        <time>2016-05-05T09:14:07Z</time>
      </trkpt>
      <trkpt lat="46.08015" lon="5.90158">
        <ele>556.95</ele>
        <time>2016-05-05T09:14:23Z</time>
      </trkpt>
      <trkpt lat="46.07971" lon="5.90146">
        <ele>559.22</ele>
        <time>2016-05-05T09:14:40Z</time>
      </trkpt>
      <trkpt lat="46.07936" lon="5.9015">
        <ele>561.28</ele>
        <time>2016-05-05T09:14:55Z</time>
      </trkpt>
      <trkpt lat="46.07907" lon="5.90154">
        <ele>562.74</ele>
        <time>2016-05-05T09:15:06Z</time>
      </trkpt>
      <trkpt lat="46.07854" lon="5.9016">
        <ele>565.33</ele>
        <time>2016-05-05T09:15:26Z</time>
      </trkpt>
      <trkpt lat="46.0781" lon="5.90167">
        <ele>568.04</ele>
        <time>2016-05-05T09:15:43Z</time>
      </trkpt>
      <trkpt lat="46.07765" lon="5.9017">
        <ele>569.61</ele>
        <time>2016-05-05T09:16:00Z</time>
      </trkpt>
      <trkpt lat="46.07713" lon="5.90153">
        <ele>570.79</ele>
        <time>2016-05-05T09:16:20Z</time>
      </trkpt>
      <trkpt lat="46.0767" lon="5.90128">
        <ele>573.81</ele>
        <time>2016-05-05T09:16:37Z</time>
      </trkpt>
      <trkpt lat="46.07622" lon="5.90098">
        <ele>576.04</ele>
        <time>2016-05-05T09:16:55Z</time>
      </trkpt>
      <trkpt lat="46.07584" lon="5.90086">
        <ele>579.22</ele>
        <time>2016-05-05T09:17:08Z</time>
      </trkpt>
      <trkpt lat="46.07552" lon="5.90082">
        <ele>582.3</ele>
        <time>2016-05-05T09:17:18Z</time>
      </trkpt>
      <trkpt lat="46.07495" lon="5.90082">
        <ele>583.97</ele>
        <time>2016-05-05T09:17:33Z</time>
      </trkpt>
      <trkpt lat="46.07437" lon="5.9008">
        <ele>584.75</ele>
        <time>2016-05-05T09:17:45Z</time>
      </trkpt>
      <trkpt lat="46.07432" lon="5.90078">
        <ele>584.71</ele>
        <time>2016-05-05T09:17:46Z</time>
      </trkpt>
      <trkpt lat="46.07405" lon="5.90062">
        <ele>584.22</ele>
        <time>2016-05-05T09:17:51Z</time>
      </trkpt>
      <trkpt lat="46.07336" lon="5.90002">
        <ele>581.06</ele>
        <time>2016-05-05T09:18:02Z</time>
      </trkpt>
      <trkpt lat="46.07323" lon="5.89988">
        <ele>580.57</ele>
        <time>2016-05-05T09:18:04Z</time>
      </trkpt>
      <trkpt lat="46.07318" lon="5.8998">
        <ele>580.32</ele>
        <time>2016-05-05T09:18:05Z</time>
      </trkpt>
      <trkpt lat="46.07264" lon="5.89872">
        <ele>577.02</ele>
        <time>2016-05-05T09:18:15Z</time>
      </trkpt>
      <trkpt lat="46.07215" lon="5.89803">
        <ele>574.01</ele>
        <time>2016-05-05T09:18:22Z</time>
      </trkpt>
      <trkpt lat="46.07171" lon="5.8976">
        <ele>570.63</ele>
        <time>2016-05-05T09:18:27Z</time>
      </trkpt>
      <trkpt lat="46.07134" lon="5.89725">
        <ele>567.61</ele>
        <time>2016-05-05T09:18:31Z</time>
      </trkpt>
      <trkpt lat="46.07098" lon="5.89693">
        <ele>565.22</ele>
        <time>2016-05-05T09:18:35Z</time>
      </trkpt>
      <trkpt lat="46.07088" lon="5.89688">
        <ele>564.68</ele>
        <time>2016-05-05T09:18:36Z</time>
      </trkpt>
      <trkpt lat="46.07078" lon="5.89685">
        <ele>564.13</ele>
        <time>2016-05-05T09:18:37Z</time>
      </trkpt>
      <trkpt lat="46.07068" lon="5.89685">
        <ele>563.53</ele>
        <time>2016-05-05T09:18:38Z</time>
      </trkpt>
      <trkpt lat="46.07057" lon="5.89688">
        <ele>562.93</ele>
        <time>2016-05-05T09:18:39Z</time>
      </trkpt>
      <trkpt lat="46.07047" lon="5.89692">
        <ele>562.34</ele>
        <time>2016-05-05T09:18:40Z</time>
      </trkpt>
      <trkpt lat="46.07036" lon="5.89697">
        <ele>561.76</ele>
        <time>2016-05-05T09:18:41Z</time>
      </trkpt>
      <trkpt lat="46.06975" lon="5.89723">
        <ele>558.48</ele>
        <time>2016-05-05T09:18:47Z</time>
      </trkpt>
      <trkpt lat="46.06922" lon="5.89731">
        <ele>555.01</ele>
        <time>2016-05-05T09:18:52Z</time>
      </trkpt>
      <trkpt lat="46.06847" lon="5.89738">
        <ele>551.85</ele>
        <time>2016-05-05T09:18:59Z</time>
      </trkpt>
      <trkpt lat="46.06774" lon="5.89749">
        <ele>548.85</ele>
        <time>2016-05-05T09:19:06Z</time>
      </trkpt>
      <trkpt lat="46.06764" lon="5.89754">
        <ele>548.41</ele>
        <time>2016-05-05T09:19:07Z</time>
      </trkpt>
      <trkpt lat="46.06703" lon="5.89785">
        <ele>544.18</ele>
        <time>2016-05-05T09:19:14Z</time>
      </trkpt>
      <trkpt lat="46.06694" lon="5.89787">
        <ele>544.18</ele>
        <time>2016-05-05T09:19:15Z</time>
      </trkpt>
      <trkpt lat="46.06684" lon="5.89787">
        <ele>543.1</ele>
        <time>2016-05-05T09:19:16Z</time>
      </trkpt>
      <trkpt lat="46.06675" lon="5.89786">
        <ele>542.66</ele>
        <time>2016-05-05T09:19:17Z</time>
      </trkpt>
      <trkpt lat="46.06665" lon="5.89784">
        <ele>542.24</ele>
        <time>2016-05-05T09:19:18Z</time>
      </trkpt>
      <trkpt lat="46.06589" lon="5.89767">
        <ele>538.83</ele>
        <time>2016-05-05T09:19:26Z</time>
      </trkpt>
      <trkpt lat="46.06547" lon="5.89757">
        <ele>536.18</ele>
        <time>2016-05-05T09:19:31Z</time>
      </trkpt>
      <trkpt lat="46.0654" lon="5.89753">
        <ele>535.48</ele>
        <time>2016-05-05T09:19:32Z</time>
      </trkpt>
      <trkpt lat="46.06532" lon="5.89746">
        <ele>534.78</ele>
        <time>2016-05-05T09:19:33Z</time>
      </trkpt>
      <trkpt lat="46.06526" lon="5.89738">
        <ele>534.13</ele>
        <time>2016-05-05T09:19:34Z</time>
      </trkpt>
      <trkpt lat="46.06519" lon="5.89729">
        <ele>533.51</ele>
        <time>2016-05-05T09:19:35Z</time>
      </trkpt>
      <trkpt lat="46.06493" lon="5.89689">
        <ele>531.28</ele>
        <time>2016-05-05T09:19:39Z</time>
      </trkpt>
      <trkpt lat="46.06456" lon="5.89629">
        <ele>527.96</ele>
        <time>2016-05-05T09:19:45Z</time>
      </trkpt>
      <trkpt lat="46.06451" lon="5.89618">
        <ele>527.53</ele>
        <time>2016-05-05T09:19:46Z</time>
      </trkpt>
      <trkpt lat="46.06447" lon="5.89607">
        <ele>527.11</ele>
        <time>2016-05-05T09:19:47Z</time>
      </trkpt>
      <trkpt lat="46.06443" lon="5.89595">
        <ele>526.75</ele>
        <time>2016-05-05T09:19:48Z</time>
      </trkpt>
      <trkpt lat="46.06426" lon="5.89522">
        <ele>523.32</ele>
        <time>2016-05-05T09:19:56Z</time>
      </trkpt>
      <trkpt lat="46.06412" lon="5.89456">
        <ele>520.17</ele>
        <time>2016-05-05T09:20:04Z</time>
      </trkpt>
      <trkpt lat="46.06382" lon="5.89342">
        <ele>517.53</ele>
        <time>2016-05-05T09:20:15Z</time>
      </trkpt>
      <trkpt lat="46.0638" lon="5.89333">
        <ele>517.3</ele>
        <time>2016-05-05T09:20:16Z</time>
      </trkpt>
      <trkpt lat="46.06372" lon="5.893">
        <ele>515.95</ele>
        <time>2016-05-05T09:20:20Z</time>
      </trkpt>
      <trkpt lat="46.06352" lon="5.89218">
        <ele>514.37</ele>
        <time>2016-05-05T09:20:29Z</time>
      </trkpt>
      <trkpt lat="46.06341" lon="5.89176">
        <ele>513.38</ele>
        <time>2016-05-05T09:20:34Z</time>
      </trkpt>
      <trkpt lat="46.0634" lon="5.89168">
        <ele>513.3</ele>
        <time>2016-05-05T09:20:35Z</time>
      </trkpt>
      <trkpt lat="46.06339" lon="5.89161">
        <ele>513.22</ele>
        <time>2016-05-05T09:20:36Z</time>
      </trkpt>
      <trkpt lat="46.06338" lon="5.89155">
        <ele>513.16</ele>
        <time>2016-05-05T09:20:37Z</time>
      </trkpt>
      <trkpt lat="46.06337" lon="5.89148">
        <ele>513.13</ele>
        <time>2016-05-05T09:20:38Z</time>
      </trkpt>
      <trkpt lat="46.06335" lon="5.89142">
        <ele>513.11</ele>
        <time>2016-05-05T09:20:39Z</time>
      </trkpt>
      <trkpt lat="46.06332" lon="5.89137">
        <ele>513.11</ele>
        <time>2016-05-05T09:20:40Z</time>
      </trkpt>
      <trkpt lat="46.06329" lon="5.89132">
        <ele>513.14</ele>
        <time>2016-05-05T09:20:41Z</time>
      </trkpt>
      <trkpt lat="46.06326" lon="5.89127">
        <ele>513.19</ele>
        <time>2016-05-05T09:20:42Z</time>
      </trkpt>
      <trkpt lat="46.06325" lon="5.89121">
        <ele>513.3</ele>
        <time>2016-05-05T09:20:43Z</time>
      </trkpt>
      <trkpt lat="46.06323" lon="5.89115">
        <ele>513.43</ele>
        <time>2016-05-05T09:20:44Z</time>
      </trkpt>
      <trkpt lat="46.06311" lon="5.89072">
        <ele>514.17</ele>
        <time>2016-05-05T09:20:52Z</time>
      </trkpt>
      <trkpt lat="46.0629" lon="5.88981">
        <ele>517.22</ele>
        <time>2016-05-05T09:21:10Z</time>
      </trkpt>
      <trkpt lat="46.06271" lon="5.88892">
        <ele>520.31</ele>
        <time>2016-05-05T09:21:27Z</time>
      </trkpt>
      <trkpt lat="46.06263" lon="5.88787">
        <ele>521.96</ele>
        <time>2016-05-05T09:21:44Z</time>
      </trkpt>
      <trkpt lat="46.06256" lon="5.8866">
        <ele>523.01</ele>
        <time>2016-05-05T09:22:01Z</time>
      </trkpt>
      <trkpt lat="46.06253" lon="5.88617">
        <ele>523.2</ele>
        <time>2016-05-05T09:22:06Z</time>
      </trkpt>
      <trkpt lat="46.06253" lon="5.88609">
        <ele>523.25</ele>
        <time>2016-05-05T09:22:07Z</time>
      </trkpt>
      <trkpt lat="46.06247" lon="5.88542">
        <ele>523.87</ele>
        <time>2016-05-05T09:22:15Z</time>
      </trkpt>
      <trkpt lat="46.06247" lon="5.88534">
        <ele>523.93</ele>
        <time>2016-05-05T09:22:16Z</time>
      </trkpt>
      <trkpt lat="46.06241" lon="5.88412">
        <ele>524.59</ele>
        <time>2016-05-05T09:22:30Z</time>
      </trkpt>
      <trkpt lat="46.06234" lon="5.88265">
        <ele>524.31</ele>
        <time>2016-05-05T09:22:46Z</time>
      </trkpt>
      <trkpt lat="46.06233" lon="5.88256">
        <ele>524.3</ele>
        <time>2016-05-05T09:22:47Z</time>
      </trkpt>
      <trkpt lat="46.06232" lon="5.88248">
        <ele>524.29</ele>
        <time>2016-05-05T09:22:48Z</time>
      </trkpt>
      <trkpt lat="46.06226" lon="5.88137">
        <ele>526.26</ele>
        <time>2016-05-05T09:23:04Z</time>
      </trkpt>
      <trkpt lat="46.06222" lon="5.88041">
        <ele>529.47</ele>
        <time>2016-05-05T09:23:22Z</time>
      </trkpt>
      <trkpt lat="46.06216" lon="5.87929">
        <ele>532.41</ele>
        <time>2016-05-05T09:23:44Z</time>
      </trkpt>
      <trkpt lat="46.06211" lon="5.87819">
        <ele>534.48</ele>
        <time>2016-05-05T09:24:02Z</time>
      </trkpt>
      <trkpt lat="46.06204" lon="5.8769">
        <ele>535.61</ele>
        <time>2016-05-05T09:24:22Z</time>
      </trkpt>
      <trkpt lat="46.06199" lon="5.87587">
        <ele>536.86</ele>
        <time>2016-05-05T09:24:38Z</time>
      </trkpt>
      <trkpt lat="46.06198" lon="5.87581">
        <ele>536.94</ele>
        <time>2016-05-05T09:24:39Z</time>
      </trkpt>
      <trkpt lat="46.06193" lon="5.8755">
        <ele>537.41</ele>
        <time>2016-05-05T09:24:44Z</time>
      </trkpt>
      <trkpt lat="46.06192" lon="5.87544">
        <ele>537.48</ele>
        <time>2016-05-05T09:24:45Z</time>
      </trkpt>
      <trkpt lat="46.06191" lon="5.87538">
        <ele>537.54</ele>
        <time>2016-05-05T09:24:46Z</time>
      </trkpt>
      <trkpt lat="46.06189" lon="5.87532">
        <ele>537.58</ele>
        <time>2016-05-05T09:24:47Z</time>
      </trkpt>
      <trkpt lat="46.06188" lon="5.87526">
        <ele>537.62</ele>
        <time>2016-05-05T09:24:48Z</time>
      </trkpt>
      <trkpt lat="46.06187" lon="5.8752">
        <ele>537.66</ele>
        <time>2016-05-05T09:24:49Z</time>
      </trkpt>
      <trkpt lat="46.06186" lon="5.87513">
        <ele>537.68</ele>
        <time>2016-05-05T09:24:50Z</time>
      </trkpt>
      <trkpt lat="46.06189" lon="5.87403">
        <ele>537.14</ele>
        <time>2016-05-05T09:25:03Z</time>
      </trkpt>
      <trkpt lat="46.06189" lon="5.87394">
        <ele>537.08</ele>
        <time>2016-05-05T09:25:04Z</time>
      </trkpt>
      <trkpt lat="46.06181" lon="5.87261">
        <ele>536.51</ele>
        <time>2016-05-05T09:25:18Z</time>
      </trkpt>
      <trkpt lat="46.06171" lon="5.87095">
        <ele>535.02</ele>
        <time>2016-05-05T09:25:34Z</time>
      </trkpt>
      <trkpt lat="46.06161" lon="5.86913">
        <ele>532.68</ele>
        <time>2016-05-05T09:25:51Z</time>
      </trkpt>
      <trkpt lat="46.06158" lon="5.8681">
        <ele>531.59</ele>
        <time>2016-05-05T09:26:01Z</time>
      </trkpt>
      <trkpt lat="46.06157" lon="5.868">
        <ele>531.53</ele>
        <time>2016-05-05T09:26:02Z</time>
      </trkpt>
      <trkpt lat="46.06146" lon="5.86644">
        <ele>530.84</ele>
        <time>2016-05-05T09:26:18Z</time>
      </trkpt>
      <trkpt lat="46.06148" lon="5.86602">
        <ele>531.07</ele>
        <time>2016-05-05T09:26:23Z</time>
      </trkpt>
      <trkpt lat="46.0615" lon="5.86595">
        <ele>531.13</ele>
        <time>2016-05-05T09:26:24Z</time>
      </trkpt>
      <trkpt lat="46.06154" lon="5.8659">
        <ele>531.18</ele>
        <time>2016-05-05T09:26:25Z</time>
      </trkpt>
      <trkpt lat="46.06159" lon="5.86582">
        <ele>531.33</ele>
        <time>2016-05-05T09:26:27Z</time>
      </trkpt>
      <trkpt lat="46.06161" lon="5.86577">
        <ele>531.4</ele>
        <time>2016-05-05T09:26:28Z</time>
      </trkpt>
      <trkpt lat="46.06161" lon="5.86572">
        <ele>531.44</ele>
        <time>2016-05-05T09:26:29Z</time>
      </trkpt>
      <trkpt lat="46.06177" lon="5.86536">
        <ele>531.64</ele>
        <time>2016-05-05T09:26:38Z</time>
      </trkpt>
      <trkpt lat="46.0618" lon="5.86537">
        <ele>531.69</ele>
        <time>2016-05-05T09:26:39Z</time>
      </trkpt>
      <trkpt lat="46.06193" lon="5.86543">
        <ele>531.68</ele>
        <time>2016-05-05T09:26:46Z</time>
      </trkpt>
      <trkpt lat="46.06202" lon="5.86542">
        <ele>531.7</ele>
        <time>2016-05-05T09:26:52Z</time>
      </trkpt>
      <trkpt lat="46.06202" lon="5.86549">
        <ele>531.79</ele>
        <time>2016-05-05T09:27:07Z</time>
      </trkpt>
      <trkpt lat="46.062" lon="5.86551">
        <ele>532.09</ele>
        <time>2016-05-05T09:27:44Z</time>
      </trkpt>
      <trkpt lat="46.062" lon="5.8655">
        <ele>531.12</ele>
        <time>2016-05-05T09:27:55Z</time>
      </trkpt>
      <trkpt lat="46.06175" lon="5.86545">
        <ele>532.08</ele>
        <time>2016-05-05T10:02:55Z</time>
      </trkpt>
      <trkpt lat="46.06175" lon="5.86539">
        <ele>531.65</ele>
        <time>2016-05-05T10:03:04Z</time>
      </trkpt>
      <trkpt lat="46.06163" lon="5.86514">
        <ele>531.3</ele>
        <time>2016-05-05T10:03:24Z</time>
      </trkpt>
      <trkpt lat="46.06162" lon="5.86511">
        <ele>531.34</ele>
        <time>2016-05-05T10:03:27Z</time>
      </trkpt>
      <trkpt lat="46.06148" lon="5.86497">
        <ele>531.41</ele>
        <time>2016-05-05T10:03:43Z</time>
      </trkpt>
      <trkpt lat="46.06138" lon="5.86487">
        <ele>531.49</ele>
        <time>2016-05-05T10:04:02Z</time>
      </trkpt>
      <trkpt lat="46.06137" lon="5.86486">
        <ele>531.5</ele>
        <time>2016-05-05T10:04:06Z</time>
      </trkpt>
      <trkpt lat="46.06134" lon="5.8642">
        <ele>531.17</ele>
        <time>2016-05-05T10:04:19Z</time>
      </trkpt>
      <trkpt lat="46.06133" lon="5.86414">
        <ele>531.14</ele>
        <time>2016-05-05T10:04:20Z</time>
      </trkpt>
      <trkpt lat="46.06133" lon="5.86407">
        <ele>531.11</ele>
        <time>2016-05-05T10:04:21Z</time>
      </trkpt>
      <trkpt lat="46.06131" lon="5.86371">
        <ele>531.06</ele>
        <time>2016-05-05T10:04:26Z</time>
      </trkpt>
      <trkpt lat="46.0613" lon="5.86364">
        <ele>531.11</ele>
        <time>2016-05-05T10:04:27Z</time>
      </trkpt>
      <trkpt lat="46.06125" lon="5.8626">
        <ele>530.62</ele>
        <time>2016-05-05T10:04:40Z</time>
      </trkpt>
      <trkpt lat="46.06122" lon="5.86217">
        <ele>530.33</ele>
        <time>2016-05-05T10:04:45Z</time>
      </trkpt>
      <trkpt lat="46.06121" lon="5.86179">
        <ele>529.92</ele>
        <time>2016-05-05T10:04:49Z</time>
      </trkpt>
      <trkpt lat="46.06121" lon="5.86169">
        <ele>529.83</ele>
        <time>2016-05-05T10:04:50Z</time>
      </trkpt>
      <trkpt lat="46.06119" lon="5.86129">
        <ele>529.46</ele>
        <time>2016-05-05T10:04:54Z</time>
      </trkpt>
      <trkpt lat="46.06118" lon="5.86119">
        <ele>529.33</ele>
        <time>2016-05-05T10:04:55Z</time>
      </trkpt>
      <trkpt lat="46.06118" lon="5.86109">
        <ele>529.19</ele>
        <time>2016-05-05T10:04:56Z</time>
      </trkpt>
      <trkpt lat="46.06117" lon="5.86079">
        <ele>528.79</ele>
        <time>2016-05-05T10:04:59Z</time>
      </trkpt>
      <trkpt lat="46.06116" lon="5.86068">
        <ele>528.67</ele>
        <time>2016-05-05T10:05:00Z</time>
      </trkpt>
      <trkpt lat="46.06109" lon="5.85957">
        <ele>527.24</ele>
        <time>2016-05-05T10:05:11Z</time>
      </trkpt>
      <trkpt lat="46.06109" lon="5.85926">
        <ele>526.48</ele>
        <time>2016-05-05T10:05:14Z</time>
      </trkpt>
      <trkpt lat="46.06105" lon="5.85873">
        <ele>526.08</ele>
        <time>2016-05-05T10:05:19Z</time>
      </trkpt>
      <trkpt lat="46.06105" lon="5.85862">
        <ele>526.07</ele>
        <time>2016-05-05T10:05:20Z</time>
      </trkpt>
      <trkpt lat="46.06094" lon="5.85709">
        <ele>523.94</ele>
        <time>2016-05-05T10:05:34Z</time>
      </trkpt>
      <trkpt lat="46.06091" lon="5.85698">
        <ele>523.88</ele>
        <time>2016-05-05T10:05:35Z</time>
      </trkpt>
      <trkpt lat="46.06088" lon="5.85688">
        <ele>523.81</ele>
        <time>2016-05-05T10:05:36Z</time>
      </trkpt>
      <trkpt lat="46.06084" lon="5.85677">
        <ele>523.75</ele>
        <time>2016-05-05T10:05:37Z</time>
      </trkpt>
      <trkpt lat="46.0608" lon="5.85667">
        <ele>523.7</ele>
        <time>2016-05-05T10:05:38Z</time>
      </trkpt>
      <trkpt lat="46.06075" lon="5.85658">
        <ele>523.61</ele>
        <time>2016-05-05T10:05:39Z</time>
      </trkpt>
      <trkpt lat="46.06069" lon="5.85649">
        <ele>523.5</ele>
        <time>2016-05-05T10:05:40Z</time>
      </trkpt>
      <trkpt lat="46.06063" lon="5.85642">
        <ele>523.39</ele>
        <time>2016-05-05T10:05:41Z</time>
      </trkpt>
      <trkpt lat="46.06056" lon="5.85635">
        <ele>523.27</ele>
        <time>2016-05-05T10:05:42Z</time>
      </trkpt>
      <trkpt lat="46.0605" lon="5.85629">
        <ele>523.16</ele>
        <time>2016-05-05T10:05:43Z</time>
      </trkpt>
      <trkpt lat="46.06043" lon="5.85624">
        <ele>523.05</ele>
        <time>2016-05-05T10:05:44Z</time>
      </trkpt>
      <trkpt lat="46.06036" lon="5.85619">
        <ele>522.98</ele>
        <time>2016-05-05T10:05:45Z</time>
      </trkpt>
      <trkpt lat="46.06029" lon="5.85616">
        <ele>522.94</ele>
        <time>2016-05-05T10:05:46Z</time>
      </trkpt>
      <trkpt lat="46.06022" lon="5.85613">
        <ele>522.92</ele>
        <time>2016-05-05T10:05:47Z</time>
      </trkpt>
      <trkpt lat="46.06015" lon="5.85611">
        <ele>522.95</ele>
        <time>2016-05-05T10:05:48Z</time>
      </trkpt>
      <trkpt lat="46.05914" lon="5.8558">
        <ele>524.61</ele>
        <time>2016-05-05T10:06:04Z</time>
      </trkpt>
      <trkpt lat="46.05811" lon="5.85547">
        <ele>526.64</ele>
        <time>2016-05-05T10:06:24Z</time>
      </trkpt>
      <trkpt lat="46.05774" lon="5.85535">
        <ele>527.12</ele>
        <time>2016-05-05T10:06:32Z</time>
      </trkpt>
      <trkpt lat="46.05747" lon="5.85528">
        <ele>527.77</ele>
        <time>2016-05-05T10:06:38Z</time>
      </trkpt>
      <trkpt lat="46.05743" lon="5.85527">
        <ele>527.88</ele>
        <time>2016-05-05T10:06:39Z</time>
      </trkpt>
      <trkpt lat="46.0572" lon="5.85524">
        <ele>528.88</ele>
        <time>2016-05-05T10:06:44Z</time>
      </trkpt>
      <trkpt lat="46.05715" lon="5.85524">
        <ele>529.05</ele>
        <time>2016-05-05T10:06:45Z</time>
      </trkpt>
      <trkpt lat="46.0571" lon="5.85525">
        <ele>529.19</ele>
        <time>2016-05-05T10:06:46Z</time>
      </trkpt>
      <trkpt lat="46.05692" lon="5.85533">
        <ele>529.87</ele>
        <time>2016-05-05T10:06:50Z</time>
      </trkpt>
      <trkpt lat="46.0566" lon="5.85561">
        <ele>531.11</ele>
        <time>2016-05-05T10:06:58Z</time>
      </trkpt>
      <trkpt lat="46.05598" lon="5.85632">
        <ele>534.23</ele>
        <time>2016-05-05T10:07:16Z</time>
      </trkpt>
      <trkpt lat="46.05545" lon="5.85678">
        <ele>537.15</ele>
        <time>2016-05-05T10:07:32Z</time>
      </trkpt>
      <trkpt lat="46.05486" lon="5.85672">
        <ele>539.4</ele>
        <time>2016-05-05T10:07:49Z</time>
      </trkpt>
      <trkpt lat="46.05403" lon="5.85637">
        <ele>539.86</ele>
        <time>2016-05-05T10:08:09Z</time>
      </trkpt>
      <trkpt lat="46.05308" lon="5.85595">
        <ele>538.17</ele>
        <time>2016-05-05T10:08:25Z</time>
      </trkpt>
      <trkpt lat="46.05228" lon="5.85561">
        <ele>536.51</ele>
        <time>2016-05-05T10:08:36Z</time>
      </trkpt>
      <trkpt lat="46.05219" lon="5.85559">
        <ele>536.3</ele>
        <time>2016-05-05T10:08:37Z</time>
      </trkpt>
      <trkpt lat="46.05146" lon="5.85532">
        <ele>535.89</ele>
        <time>2016-05-05T10:08:47Z</time>
      </trkpt>
      <trkpt lat="46.05076" lon="5.85503">
        <ele>537.92</ele>
        <time>2016-05-05T10:09:00Z</time>
      </trkpt>
      <trkpt lat="46.05052" lon="5.85491">
        <ele>538.52</ele>
        <time>2016-05-05T10:09:05Z</time>
      </trkpt>
      <trkpt lat="46.0496" lon="5.85416">
        <ele>540.82</ele>
        <time>2016-05-05T10:09:26Z</time>
      </trkpt>
      <trkpt lat="46.0487" lon="5.85342">
        <ele>540.51</ele>
        <time>2016-05-05T10:09:43Z</time>
      </trkpt>
      <trkpt lat="46.04772" lon="5.85272">
        <ele>539.54</ele>
        <time>2016-05-05T10:10:00Z</time>
      </trkpt>
      <trkpt lat="46.04701" lon="5.8526">
        <ele>541.52</ele>
        <time>2016-05-05T10:10:15Z</time>
      </trkpt>
      <trkpt lat="46.04622" lon="5.85226">
        <ele>543.66</ele>
        <time>2016-05-05T10:10:32Z</time>
      </trkpt>
      <trkpt lat="46.0455" lon="5.85136">
        <ele>542.94</ele>
        <time>2016-05-05T10:10:47Z</time>
      </trkpt>
      <trkpt lat="46.04477" lon="5.85046">
        <ele>542.49</ele>
        <time>2016-05-05T10:11:02Z</time>
      </trkpt>
      <trkpt lat="46.04464" lon="5.85033">
        <ele>543</ele>
        <time>2016-05-05T10:11:05Z</time>
      </trkpt>
      <trkpt lat="46.04445" lon="5.85018">
        <ele>544.06</ele>
        <time>2016-05-05T10:11:10Z</time>
      </trkpt>
      <trkpt lat="46.04407" lon="5.84998">
        <ele>546.47</ele>
        <time>2016-05-05T10:11:21Z</time>
      </trkpt>
      <trkpt lat="46.04355" lon="5.84976">
        <ele>548.58</ele>
        <time>2016-05-05T10:11:33Z</time>
      </trkpt>
      <trkpt lat="46.04351" lon="5.84974">
        <ele>548.71</ele>
        <time>2016-05-05T10:11:34Z</time>
      </trkpt>
      <trkpt lat="46.04287" lon="5.84911">
        <ele>549.28</ele>
        <time>2016-05-05T10:11:50Z</time>
      </trkpt>
      <trkpt lat="46.04283" lon="5.84904">
        <ele>549.21</ele>
        <time>2016-05-05T10:11:51Z</time>
      </trkpt>
      <trkpt lat="46.04247" lon="5.84836">
        <ele>548.02</ele>
        <time>2016-05-05T10:12:00Z</time>
      </trkpt>
      <trkpt lat="46.04242" lon="5.84828">
        <ele>547.89</ele>
        <time>2016-05-05T10:12:01Z</time>
      </trkpt>
      <trkpt lat="46.04234" lon="5.84811">
        <ele>547.61</ele>
        <time>2016-05-05T10:12:03Z</time>
      </trkpt>
      <trkpt lat="46.04207" lon="5.84762">
        <ele>546.8</ele>
        <time>2016-05-05T10:12:09Z</time>
      </trkpt>
      <trkpt lat="46.04202" lon="5.84757">
        <ele>546.63</ele>
        <time>2016-05-05T10:12:10Z</time>
      </trkpt>
      <trkpt lat="46.04197" lon="5.84755">
        <ele>546.48</ele>
        <time>2016-05-05T10:12:11Z</time>
      </trkpt>
      <trkpt lat="46.04192" lon="5.84756">
        <ele>546.29</ele>
        <time>2016-05-05T10:12:12Z</time>
      </trkpt>
      <trkpt lat="46.04186" lon="5.8476">
        <ele>546.06</ele>
        <time>2016-05-05T10:12:13Z</time>
      </trkpt>
      <trkpt lat="46.04181" lon="5.84765">
        <ele>545.85</ele>
        <time>2016-05-05T10:12:14Z</time>
      </trkpt>
      <trkpt lat="46.04165" lon="5.8478">
        <ele>545.08</ele>
        <time>2016-05-05T10:12:17Z</time>
      </trkpt>
      <trkpt lat="46.04113" lon="5.84817">
        <ele>543.37</ele>
        <time>2016-05-05T10:12:25Z</time>
      </trkpt>
      <trkpt lat="46.04069" lon="5.84845">
        <ele>542.37</ele>
        <time>2016-05-05T10:12:31Z</time>
      </trkpt>
      <trkpt lat="46.04061" lon="5.84851">
        <ele>542.23</ele>
        <time>2016-05-05T10:12:32Z</time>
      </trkpt>
      <trkpt lat="46.03977" lon="5.84917">
        <ele>540.09</ele>
        <time>2016-05-05T10:12:44Z</time>
      </trkpt>
      <trkpt lat="46.03888" lon="5.8498">
        <ele>537.44</ele>
        <time>2016-05-05T10:12:58Z</time>
      </trkpt>
      <trkpt lat="46.03876" lon="5.84985">
        <ele>537.18</ele>
        <time>2016-05-05T10:13:00Z</time>
      </trkpt>
      <trkpt lat="46.03871" lon="5.84987">
        <ele>537.04</ele>
        <time>2016-05-05T10:13:01Z</time>
      </trkpt>
      <trkpt lat="46.03865" lon="5.84989">
        <ele>536.91</ele>
        <time>2016-05-05T10:13:02Z</time>
      </trkpt>
      <trkpt lat="46.03859" lon="5.8499">
        <ele>536.78</ele>
        <time>2016-05-05T10:13:03Z</time>
      </trkpt>
      <trkpt lat="46.03853" lon="5.84992">
        <ele>536.64</ele>
        <time>2016-05-05T10:13:04Z</time>
      </trkpt>
      <trkpt lat="46.03847" lon="5.84994">
        <ele>536.5</ele>
        <time>2016-05-05T10:13:05Z</time>
      </trkpt>
      <trkpt lat="46.03829" lon="5.85001">
        <ele>536.14</ele>
        <time>2016-05-05T10:13:08Z</time>
      </trkpt>
      <trkpt lat="46.03817" lon="5.85007">
        <ele>535.96</ele>
        <time>2016-05-05T10:13:10Z</time>
      </trkpt>
      <trkpt lat="46.0381" lon="5.85009">
        <ele>535.88</ele>
        <time>2016-05-05T10:13:11Z</time>
      </trkpt>
      <trkpt lat="46.03804" lon="5.85012">
        <ele>535.75</ele>
        <time>2016-05-05T10:13:12Z</time>
      </trkpt>
      <trkpt lat="46.03798" lon="5.85014">
        <ele>535.67</ele>
        <time>2016-05-05T10:13:13Z</time>
      </trkpt>
      <trkpt lat="46.03792" lon="5.85017">
        <ele>535.6</ele>
        <time>2016-05-05T10:13:14Z</time>
      </trkpt>
      <trkpt lat="46.03786" lon="5.8502">
        <ele>535.55</ele>
        <time>2016-05-05T10:13:15Z</time>
      </trkpt>
      <trkpt lat="46.03779" lon="5.85022">
        <ele>535.51</ele>
        <time>2016-05-05T10:13:16Z</time>
      </trkpt>
      <trkpt lat="46.03773" lon="5.85023">
        <ele>535.46</ele>
        <time>2016-05-05T10:13:17Z</time>
      </trkpt>
      <trkpt lat="46.03766" lon="5.85026">
        <ele>535.42</ele>
        <time>2016-05-05T10:13:18Z</time>
      </trkpt>
      <trkpt lat="46.0376" lon="5.85028">
        <ele>535.34</ele>
        <time>2016-05-05T10:13:19Z</time>
      </trkpt>
      <trkpt lat="46.03675" lon="5.85054">
        <ele>534.07</ele>
        <time>2016-05-05T10:13:31Z</time>
      </trkpt>
      <trkpt lat="46.03601" lon="5.85066">
        <ele>532.07</ele>
        <time>2016-05-05T10:13:41Z</time>
      </trkpt>
      <trkpt lat="46.03507" lon="5.85067">
        <ele>530.26</ele>
        <time>2016-05-05T10:13:53Z</time>
      </trkpt>
      <trkpt lat="46.03431" lon="5.85068">
        <ele>528.24</ele>
        <time>2016-05-05T10:14:04Z</time>
      </trkpt>
      <trkpt lat="46.03388" lon="5.85068">
        <ele>527.73</ele>
        <time>2016-05-05T10:14:11Z</time>
      </trkpt>
      <trkpt lat="46.03381" lon="5.85068">
        <ele>527.67</ele>
        <time>2016-05-05T10:14:12Z</time>
      </trkpt>
      <trkpt lat="46.03277" lon="5.85087">
        <ele>525.87</ele>
        <time>2016-05-05T10:14:27Z</time>
      </trkpt>
      <trkpt lat="46.03149" lon="5.85074">
        <ele>522.83</ele>
        <time>2016-05-05T10:14:43Z</time>
      </trkpt>
      <trkpt lat="46.03027" lon="5.85049">
        <ele>521.3</ele>
        <time>2016-05-05T10:15:00Z</time>
      </trkpt>
      <trkpt lat="46.0296" lon="5.85022">
        <ele>520.56</ele>
        <time>2016-05-05T10:15:10Z</time>
      </trkpt>
      <trkpt lat="46.02856" lon="5.85026">
        <ele>520.46</ele>
        <time>2016-05-05T10:15:24Z</time>
      </trkpt>
      <trkpt lat="46.02735" lon="5.85011">
        <ele>517.53</ele>
        <time>2016-05-05T10:15:39Z</time>
      </trkpt>
      <trkpt lat="46.0264" lon="5.85">
        <ele>517.7</ele>
        <time>2016-05-05T10:15:54Z</time>
      </trkpt>
      <trkpt lat="46.0256" lon="5.85004">
        <ele>519.25</ele>
        <time>2016-05-05T10:16:08Z</time>
      </trkpt>
      <trkpt lat="46.02554" lon="5.85006">
        <ele>519.3</ele>
        <time>2016-05-05T10:16:09Z</time>
      </trkpt>
      <trkpt lat="46.02462" lon="5.85039">
        <ele>519.04</ele>
        <time>2016-05-05T10:16:25Z</time>
      </trkpt>
      <trkpt lat="46.02435" lon="5.8504">
        <ele>519.26</ele>
        <time>2016-05-05T10:16:30Z</time>
      </trkpt>
      <trkpt lat="46.02418" lon="5.85036">
        <ele>519.43</ele>
        <time>2016-05-05T10:16:33Z</time>
      </trkpt>
      <trkpt lat="46.02413" lon="5.85034">
        <ele>519.45</ele>
        <time>2016-05-05T10:16:34Z</time>
      </trkpt>
      <trkpt lat="46.02351" lon="5.8497">
        <ele>520.05</ele>
        <time>2016-05-05T10:16:48Z</time>
      </trkpt>
      <trkpt lat="46.02262" lon="5.8487">
        <ele>521.24</ele>
        <time>2016-05-05T10:17:09Z</time>
      </trkpt>
      <trkpt lat="46.02176" lon="5.84776">
        <ele>520.2</ele>
        <time>2016-05-05T10:17:27Z</time>
      </trkpt>
      <trkpt lat="46.02086" lon="5.84707">
        <ele>518.62</ele>
        <time>2016-05-05T10:17:44Z</time>
      </trkpt>
      <trkpt lat="46.0204" lon="5.84691">
        <ele>515.53</ele>
        <time>2016-05-05T10:17:55Z</time>
      </trkpt>
      <trkpt lat="46.02003" lon="5.84679">
        <ele>512.35</ele>
        <time>2016-05-05T10:18:07Z</time>
      </trkpt>
      <trkpt lat="46.01966" lon="5.84667">
        <ele>509.39</ele>
        <time>2016-05-05T10:18:20Z</time>
      </trkpt>
      <trkpt lat="46.01965" lon="5.84667">
        <ele>507.87</ele>
        <time>2016-05-05T10:18:37Z</time>
      </trkpt>
      <trkpt lat="46.0195" lon="5.84662">
        <ele>507.79</ele>
        <time>2016-05-05T10:19:09Z</time>
      </trkpt>
      <trkpt lat="46.01945" lon="5.8466">
        <ele>507.75</ele>
        <time>2016-05-05T10:19:10Z</time>
      </trkpt>
      <trkpt lat="46.01908" lon="5.84635">
        <ele>505.55</ele>
        <time>2016-05-05T10:19:19Z</time>
      </trkpt>
      <trkpt lat="46.01904" lon="5.84631">
        <ele>505.18</ele>
        <time>2016-05-05T10:19:20Z</time>
      </trkpt>
      <trkpt lat="46.01894" lon="5.84621">
        <ele>503.83</ele>
        <time>2016-05-05T10:19:23Z</time>
      </trkpt>
      <trkpt lat="46.01872" lon="5.84603">
        <ele>500.86</ele>
        <time>2016-05-05T10:19:29Z</time>
      </trkpt>
      <trkpt lat="46.01845" lon="5.84596">
        <ele>498.52</ele>
        <time>2016-05-05T10:19:34Z</time>
      </trkpt>
      <trkpt lat="46.0184" lon="5.84596">
        <ele>498.04</ele>
        <time>2016-05-05T10:19:35Z</time>
      </trkpt>
      <trkpt lat="46.01829" lon="5.84598">
        <ele>497.18</ele>
        <time>2016-05-05T10:19:37Z</time>
      </trkpt>
      <trkpt lat="46.01824" lon="5.846">
        <ele>496.82</ele>
        <time>2016-05-05T10:19:38Z</time>
      </trkpt>
      <trkpt lat="46.01806" lon="5.8461">
        <ele>495.46</ele>
        <time>2016-05-05T10:19:42Z</time>
      </trkpt>
      <trkpt lat="46.01789" lon="5.84617">
        <ele>494.37</ele>
        <time>2016-05-05T10:19:47Z</time>
      </trkpt>
      <trkpt lat="46.01784" lon="5.84616">
        <ele>493.81</ele>
        <time>2016-05-05T10:19:48Z</time>
      </trkpt>
      <trkpt lat="46.0178" lon="5.84614">
        <ele>493.53</ele>
        <time>2016-05-05T10:19:49Z</time>
      </trkpt>
      <trkpt lat="46.01729" lon="5.84574">
        <ele>490.45</ele>
        <time>2016-05-05T10:19:59Z</time>
      </trkpt>
      <trkpt lat="46.01672" lon="5.84514">
        <ele>487.3</ele>
        <time>2016-05-05T10:20:11Z</time>
      </trkpt>
      <trkpt lat="46.01667" lon="5.8451">
        <ele>487.06</ele>
        <time>2016-05-05T10:20:12Z</time>
      </trkpt>
      <trkpt lat="46.01662" lon="5.84506">
        <ele>486.45</ele>
        <time>2016-05-05T10:20:13Z</time>
      </trkpt>
      <trkpt lat="46.01657" lon="5.84503">
        <ele>486.15</ele>
        <time>2016-05-05T10:20:14Z</time>
      </trkpt>
      <trkpt lat="46.01651" lon="5.845">
        <ele>485.86</ele>
        <time>2016-05-05T10:20:15Z</time>
      </trkpt>
      <trkpt lat="46.01646" lon="5.84499">
        <ele>485.58</ele>
        <time>2016-05-05T10:20:16Z</time>
      </trkpt>
      <trkpt lat="46.01592" lon="5.84483">
        <ele>482.47</ele>
        <time>2016-05-05T10:20:24Z</time>
      </trkpt>
      <trkpt lat="46.01537" lon="5.84467">
        <ele>479.1</ele>
        <time>2016-05-05T10:20:31Z</time>
      </trkpt>
      <trkpt lat="46.01471" lon="5.8446">
        <ele>475.51</ele>
        <time>2016-05-05T10:20:38Z</time>
      </trkpt>
      <trkpt lat="46.01412" lon="5.84453">
        <ele>472.38</ele>
        <time>2016-05-05T10:20:44Z</time>
      </trkpt>
      <trkpt lat="46.01341" lon="5.84443">
        <ele>469.37</ele>
        <time>2016-05-05T10:20:52Z</time>
      </trkpt>
      <trkpt lat="46.0127" lon="5.84439">
        <ele>466.29</ele>
        <time>2016-05-05T10:21:02Z</time>
      </trkpt>
      <trkpt lat="46.01232" lon="5.84437">
        <ele>465.56</ele>
        <time>2016-05-05T10:21:08Z</time>
      </trkpt>
      <trkpt lat="46.01173" lon="5.8441">
        <ele>462.13</ele>
        <time>2016-05-05T10:21:18Z</time>
      </trkpt>
      <trkpt lat="46.01134" lon="5.8439">
        <ele>458.66</ele>
        <time>2016-05-05T10:21:24Z</time>
      </trkpt>
      <trkpt lat="46.01102" lon="5.84367">
        <ele>455.11</ele>
        <time>2016-05-05T10:21:30Z</time>
      </trkpt>
      <trkpt lat="46.01097" lon="5.84362">
        <ele>454.47</ele>
        <time>2016-05-05T10:21:31Z</time>
      </trkpt>
      <trkpt lat="46.01093" lon="5.84356">
        <ele>453.79</ele>
        <time>2016-05-05T10:21:32Z</time>
      </trkpt>
      <trkpt lat="46.01089" lon="5.84348">
        <ele>453.11</ele>
        <time>2016-05-05T10:21:33Z</time>
      </trkpt>
      <trkpt lat="46.01085" lon="5.84341">
        <ele>452.44</ele>
        <time>2016-05-05T10:21:34Z</time>
      </trkpt>
      <trkpt lat="46.0107" lon="5.84311">
        <ele>449.11</ele>
        <time>2016-05-05T10:21:38Z</time>
      </trkpt>
      <trkpt lat="46.01051" lon="5.84275">
        <ele>445.89</ele>
        <time>2016-05-05T10:21:43Z</time>
      </trkpt>
      <trkpt lat="46.01036" lon="5.84235">
        <ele>442.65</ele>
        <time>2016-05-05T10:21:48Z</time>
      </trkpt>
      <trkpt lat="46.01021" lon="5.84194">
        <ele>439.59</ele>
        <time>2016-05-05T10:21:53Z</time>
      </trkpt>
      <trkpt lat="46.01008" lon="5.84157">
        <ele>437.12</ele>
        <time>2016-05-05T10:21:58Z</time>
      </trkpt>
      <trkpt lat="46.01005" lon="5.84151">
        <ele>436.66</ele>
        <time>2016-05-05T10:21:59Z</time>
      </trkpt>
      <trkpt lat="46.01001" lon="5.84147">
        <ele>436.23</ele>
        <time>2016-05-05T10:22:00Z</time>
      </trkpt>
      <trkpt lat="46.00997" lon="5.84144">
        <ele>435.85</ele>
        <time>2016-05-05T10:22:01Z</time>
      </trkpt>
      <trkpt lat="46.00992" lon="5.84142">
        <ele>435.5</ele>
        <time>2016-05-05T10:22:02Z</time>
      </trkpt>
      <trkpt lat="46.00987" lon="5.84141">
        <ele>435.12</ele>
        <time>2016-05-05T10:22:03Z</time>
      </trkpt>
      <trkpt lat="46.00932" lon="5.84136">
        <ele>432.04</ele>
        <time>2016-05-05T10:22:12Z</time>
      </trkpt>
      <trkpt lat="46.00927" lon="5.84136">
        <ele>431.79</ele>
        <time>2016-05-05T10:22:13Z</time>
      </trkpt>
      <trkpt lat="46.00915" lon="5.84136">
        <ele>431</ele>
        <time>2016-05-05T10:22:15Z</time>
      </trkpt>
      <trkpt lat="46.00908" lon="5.84137">
        <ele>430.56</ele>
        <time>2016-05-05T10:22:16Z</time>
      </trkpt>
      <trkpt lat="46.00901" lon="5.84139">
        <ele>430.15</ele>
        <time>2016-05-05T10:22:17Z</time>
      </trkpt>
      <trkpt lat="46.00895" lon="5.84144">
        <ele>429.79</ele>
        <time>2016-05-05T10:22:18Z</time>
      </trkpt>
      <trkpt lat="46.00889" lon="5.84149">
        <ele>429.48</ele>
        <time>2016-05-05T10:22:19Z</time>
      </trkpt>
      <trkpt lat="46.00883" lon="5.84154">
        <ele>429.2</ele>
        <time>2016-05-05T10:22:20Z</time>
      </trkpt>
      <trkpt lat="46.00871" lon="5.84166">
        <ele>428.76</ele>
        <time>2016-05-05T10:22:22Z</time>
      </trkpt>
      <trkpt lat="46.00867" lon="5.84174">
        <ele>428.59</ele>
        <time>2016-05-05T10:22:23Z</time>
      </trkpt>
      <trkpt lat="46.00859" lon="5.84187">
        <ele>428.29</ele>
        <time>2016-05-05T10:22:25Z</time>
      </trkpt>
      <trkpt lat="46.00853" lon="5.84199">
        <ele>427.76</ele>
        <time>2016-05-05T10:22:27Z</time>
      </trkpt>
      <trkpt lat="46.0085" lon="5.84204">
        <ele>427</ele>
        <time>2016-05-05T10:22:28Z</time>
      </trkpt>
      <trkpt lat="46.00842" lon="5.84218">
        <ele>425.79</ele>
        <time>2016-05-05T10:22:31Z</time>
      </trkpt>
      <trkpt lat="46.0084" lon="5.84223">
        <ele>425.43</ele>
        <time>2016-05-05T10:22:32Z</time>
      </trkpt>
      <trkpt lat="46.00839" lon="5.84229">
        <ele>425.03</ele>
        <time>2016-05-05T10:22:33Z</time>
      </trkpt>
      <trkpt lat="46.00839" lon="5.84236">
        <ele>424.65</ele>
        <time>2016-05-05T10:22:34Z</time>
      </trkpt>
      <trkpt lat="46.00839" lon="5.84244">
        <ele>424.35</ele>
        <time>2016-05-05T10:22:35Z</time>
      </trkpt>
      <trkpt lat="46.00842" lon="5.84251">
        <ele>424.06</ele>
        <time>2016-05-05T10:22:36Z</time>
      </trkpt>
      <trkpt lat="46.00845" lon="5.84258">
        <ele>423.74</ele>
        <time>2016-05-05T10:22:37Z</time>
      </trkpt>
      <trkpt lat="46.00849" lon="5.84265">
        <ele>423.37</ele>
        <time>2016-05-05T10:22:38Z</time>
      </trkpt>
      <trkpt lat="46.00877" lon="5.84316">
        <ele>420.31</ele>
        <time>2016-05-05T10:22:45Z</time>
      </trkpt>
      <trkpt lat="46.00888" lon="5.84341">
        <ele>418.58</ele>
        <time>2016-05-05T10:22:48Z</time>
      </trkpt>
      <trkpt lat="46.0089" lon="5.84351">
        <ele>418</ele>
        <time>2016-05-05T10:22:49Z</time>
      </trkpt>
      <trkpt lat="46.00891" lon="5.84361">
        <ele>417.49</ele>
        <time>2016-05-05T10:22:50Z</time>
      </trkpt>
      <trkpt lat="46.00892" lon="5.8437">
        <ele>417.01</ele>
        <time>2016-05-05T10:22:51Z</time>
      </trkpt>
      <trkpt lat="46.00892" lon="5.8438">
        <ele>416.01</ele>
        <time>2016-05-05T10:22:52Z</time>
      </trkpt>
      <trkpt lat="46.00894" lon="5.84457">
        <ele>412.93</ele>
        <time>2016-05-05T10:23:00Z</time>
      </trkpt>
      <trkpt lat="46.00887" lon="5.84543">
        <ele>409.6</ele>
        <time>2016-05-05T10:23:09Z</time>
      </trkpt>
      <trkpt lat="46.00883" lon="5.84612">
        <ele>405.88</ele>
        <time>2016-05-05T10:23:16Z</time>
      </trkpt>
      <trkpt lat="46.00884" lon="5.84621">
        <ele>405.88</ele>
        <time>2016-05-05T10:23:17Z</time>
      </trkpt>
      <trkpt lat="46.00889" lon="5.84661">
        <ele>402.69</ele>
        <time>2016-05-05T10:23:21Z</time>
      </trkpt>
      <trkpt lat="46.00902" lon="5.84732">
        <ele>399.28</ele>
        <time>2016-05-05T10:23:28Z</time>
      </trkpt>
      <trkpt lat="46.00909" lon="5.8478">
        <ele>396.45</ele>
        <time>2016-05-05T10:23:34Z</time>
      </trkpt>
      <trkpt lat="46.00908" lon="5.84786">
        <ele>395.97</ele>
        <time>2016-05-05T10:23:35Z</time>
      </trkpt>
      <trkpt lat="46.00906" lon="5.84792">
        <ele>395.47</ele>
        <time>2016-05-05T10:23:36Z</time>
      </trkpt>
      <trkpt lat="46.00902" lon="5.84796">
        <ele>394.97</ele>
        <time>2016-05-05T10:23:37Z</time>
      </trkpt>
      <trkpt lat="46.00896" lon="5.84799">
        <ele>394.52</ele>
        <time>2016-05-05T10:23:38Z</time>
      </trkpt>
      <trkpt lat="46.00891" lon="5.84799">
        <ele>394.1</ele>
        <time>2016-05-05T10:23:39Z</time>
      </trkpt>
      <trkpt lat="46.00885" lon="5.84795">
        <ele>393.67</ele>
        <time>2016-05-05T10:23:40Z</time>
      </trkpt>
      <trkpt lat="46.0088" lon="5.84789">
        <ele>393.19</ele>
        <time>2016-05-05T10:23:41Z</time>
      </trkpt>
      <trkpt lat="46.00876" lon="5.84781">
        <ele>392.72</ele>
        <time>2016-05-05T10:23:42Z</time>
      </trkpt>
      <trkpt lat="46.00873" lon="5.84772">
        <ele>392.29</ele>
        <time>2016-05-05T10:23:43Z</time>
      </trkpt>
      <trkpt lat="46.00871" lon="5.84762">
        <ele>391.45</ele>
        <time>2016-05-05T10:23:44Z</time>
      </trkpt>
      <trkpt lat="46.00864" lon="5.84742">
        <ele>390.63</ele>
        <time>2016-05-05T10:23:46Z</time>
      </trkpt>
      <trkpt lat="46.00859" lon="5.84733">
        <ele>390.24</ele>
        <time>2016-05-05T10:23:47Z</time>
      </trkpt>
      <trkpt lat="46.00853" lon="5.84725">
        <ele>389.88</ele>
        <time>2016-05-05T10:23:48Z</time>
      </trkpt>
      <trkpt lat="46.00846" lon="5.84718">
        <ele>389.51</ele>
        <time>2016-05-05T10:23:49Z</time>
      </trkpt>
      <trkpt lat="46.00838" lon="5.84712">
        <ele>389.13</ele>
        <time>2016-05-05T10:23:50Z</time>
      </trkpt>
      <trkpt lat="46.0083" lon="5.84707">
        <ele>388.71</ele>
        <time>2016-05-05T10:23:51Z</time>
      </trkpt>
      <trkpt lat="46.00821" lon="5.84703">
        <ele>388.26</ele>
        <time>2016-05-05T10:23:52Z</time>
      </trkpt>
      <trkpt lat="46.00769" lon="5.84674">
        <ele>385.27</ele>
        <time>2016-05-05T10:23:58Z</time>
      </trkpt>
      <trkpt lat="46.00759" lon="5.84671">
        <ele>384.73</ele>
        <time>2016-05-05T10:23:59Z</time>
      </trkpt>
      <trkpt lat="46.0075" lon="5.84669">
        <ele>384.09</ele>
        <time>2016-05-05T10:24:00Z</time>
      </trkpt>
      <trkpt lat="46.0071" lon="5.84665">
        <ele>381.57</ele>
        <time>2016-05-05T10:24:04Z</time>
      </trkpt>
      <trkpt lat="46.00701" lon="5.84661">
        <ele>381.04</ele>
        <time>2016-05-05T10:24:05Z</time>
      </trkpt>
      <trkpt lat="46.00691" lon="5.84656">
        <ele>380.49</ele>
        <time>2016-05-05T10:24:06Z</time>
      </trkpt>
      <trkpt lat="46.00682" lon="5.84651">
        <ele>379.96</ele>
        <time>2016-05-05T10:24:07Z</time>
      </trkpt>
      <trkpt lat="46.00672" lon="5.84644">
        <ele>378.94</ele>
        <time>2016-05-05T10:24:08Z</time>
      </trkpt>
      <trkpt lat="46.00616" lon="5.84603">
        <ele>375.35</ele>
        <time>2016-05-05T10:24:14Z</time>
      </trkpt>
      <trkpt lat="46.00568" lon="5.84571">
        <ele>372.28</ele>
        <time>2016-05-05T10:24:19Z</time>
      </trkpt>
      <trkpt lat="46.00496" lon="5.84515">
        <ele>369.24</ele>
        <time>2016-05-05T10:24:28Z</time>
      </trkpt>
      <trkpt lat="46.00453" lon="5.8449">
        <ele>366.7</ele>
        <time>2016-05-05T10:24:34Z</time>
      </trkpt>
      <trkpt lat="46.00446" lon="5.84487">
        <ele>366.23</ele>
        <time>2016-05-05T10:24:35Z</time>
      </trkpt>
      <trkpt lat="46.00439" lon="5.84486">
        <ele>365.68</ele>
        <time>2016-05-05T10:24:36Z</time>
      </trkpt>
      <trkpt lat="46.00431" lon="5.84485">
        <ele>365.14</ele>
        <time>2016-05-05T10:24:37Z</time>
      </trkpt>
      <trkpt lat="46.00423" lon="5.84485">
        <ele>364.65</ele>
        <time>2016-05-05T10:24:38Z</time>
      </trkpt>
      <trkpt lat="46.00414" lon="5.84486">
        <ele>364.15</ele>
        <time>2016-05-05T10:24:39Z</time>
      </trkpt>
      <trkpt lat="46.00405" lon="5.84488">
        <ele>363.62</ele>
        <time>2016-05-05T10:24:40Z</time>
      </trkpt>
      <trkpt lat="46.00396" lon="5.84491">
        <ele>363.09</ele>
        <time>2016-05-05T10:24:41Z</time>
      </trkpt>
      <trkpt lat="46.00387" lon="5.84497">
        <ele>362.57</ele>
        <time>2016-05-05T10:24:42Z</time>
      </trkpt>
      <trkpt lat="46.00378" lon="5.84503">
        <ele>362.04</ele>
        <time>2016-05-05T10:24:43Z</time>
      </trkpt>
      <trkpt lat="46.00324" lon="5.84545">
        <ele>358.83</ele>
        <time>2016-05-05T10:24:49Z</time>
      </trkpt>
      <trkpt lat="46.00315" lon="5.8455">
        <ele>358.3</ele>
        <time>2016-05-05T10:24:50Z</time>
      </trkpt>
      <trkpt lat="46.00244" lon="5.84564">
        <ele>355.07</ele>
        <time>2016-05-05T10:24:58Z</time>
      </trkpt>
      <trkpt lat="46.00174" lon="5.84577">
        <ele>351.97</ele>
        <time>2016-05-05T10:25:05Z</time>
      </trkpt>
      <trkpt lat="46.00142" lon="5.84579">
        <ele>350.13</ele>
        <time>2016-05-05T10:25:08Z</time>
      </trkpt>
      <trkpt lat="46.00087" lon="5.84568">
        <ele>347.09</ele>
        <time>2016-05-05T10:25:13Z</time>
      </trkpt>
      <trkpt lat="46.00029" lon="5.84557">
        <ele>343.79</ele>
        <time>2016-05-05T10:25:19Z</time>
      </trkpt>
      <trkpt lat="46.0002" lon="5.84554">
        <ele>343.44</ele>
        <time>2016-05-05T10:25:20Z</time>
      </trkpt>
      <trkpt lat="45.99945" lon="5.84514">
        <ele>340.43</ele>
        <time>2016-05-05T10:25:29Z</time>
      </trkpt>
      <trkpt lat="45.99879" lon="5.84468">
        <ele>339.01</ele>
        <time>2016-05-05T10:25:39Z</time>
      </trkpt>
      <trkpt lat="45.99872" lon="5.84466">
        <ele>338.93</ele>
        <time>2016-05-05T10:25:40Z</time>
      </trkpt>
      <trkpt lat="45.99865" lon="5.84465">
        <ele>338.86</ele>
        <time>2016-05-05T10:25:41Z</time>
      </trkpt>
      <trkpt lat="45.99858" lon="5.84466">
        <ele>338.78</ele>
        <time>2016-05-05T10:25:42Z</time>
      </trkpt>
      <trkpt lat="45.99851" lon="5.84467">
        <ele>338.67</ele>
        <time>2016-05-05T10:25:43Z</time>
      </trkpt>
      <trkpt lat="45.99843" lon="5.84469">
        <ele>338.51</ele>
        <time>2016-05-05T10:25:44Z</time>
      </trkpt>
      <trkpt lat="45.99776" lon="5.84492">
        <ele>335.15</ele>
        <time>2016-05-05T10:25:53Z</time>
      </trkpt>
      <trkpt lat="45.9976" lon="5.84499">
        <ele>334.29</ele>
        <time>2016-05-05T10:25:55Z</time>
      </trkpt>
      <trkpt lat="45.99753" lon="5.84503">
        <ele>333.85</ele>
        <time>2016-05-05T10:25:56Z</time>
      </trkpt>
      <trkpt lat="45.99698" lon="5.84543">
        <ele>330.46</ele>
        <time>2016-05-05T10:26:03Z</time>
      </trkpt>
      <trkpt lat="45.99605" lon="5.84583">
        <ele>327.31</ele>
        <time>2016-05-05T10:26:15Z</time>
      </trkpt>
      <trkpt lat="45.99545" lon="5.84605">
        <ele>325.79</ele>
        <time>2016-05-05T10:26:23Z</time>
      </trkpt>
      <trkpt lat="45.99538" lon="5.84611">
        <ele>325.61</ele>
        <time>2016-05-05T10:26:24Z</time>
      </trkpt>
      <trkpt lat="45.99532" lon="5.84616">
        <ele>325.43</ele>
        <time>2016-05-05T10:26:25Z</time>
      </trkpt>
      <trkpt lat="45.99526" lon="5.84623">
        <ele>325.25</ele>
        <time>2016-05-05T10:26:26Z</time>
      </trkpt>
      <trkpt lat="45.9952" lon="5.8463">
        <ele>325.05</ele>
        <time>2016-05-05T10:26:27Z</time>
      </trkpt>
      <trkpt lat="45.99515" lon="5.84638">
        <ele>324.82</ele>
        <time>2016-05-05T10:26:28Z</time>
      </trkpt>
      <trkpt lat="45.9951" lon="5.84647">
        <ele>324.54</ele>
        <time>2016-05-05T10:26:29Z</time>
      </trkpt>
      <trkpt lat="45.99476" lon="5.84712">
        <ele>321.38</ele>
        <time>2016-05-05T10:26:36Z</time>
      </trkpt>
      <trkpt lat="45.99448" lon="5.84757">
        <ele>317.98</ele>
        <time>2016-05-05T10:26:41Z</time>
      </trkpt>
      <trkpt lat="45.99441" lon="5.84764">
        <ele>317.38</ele>
        <time>2016-05-05T10:26:42Z</time>
      </trkpt>
      <trkpt lat="45.99433" lon="5.8477">
        <ele>316.79</ele>
        <time>2016-05-05T10:26:43Z</time>
      </trkpt>
      <trkpt lat="45.99425" lon="5.84775">
        <ele>316.2</ele>
        <time>2016-05-05T10:26:44Z</time>
      </trkpt>
      <trkpt lat="45.99416" lon="5.8478">
        <ele>315.59</ele>
        <time>2016-05-05T10:26:45Z</time>
      </trkpt>
      <trkpt lat="45.99373" lon="5.84809">
        <ele>312.24</ele>
        <time>2016-05-05T10:26:50Z</time>
      </trkpt>
      <trkpt lat="45.99366" lon="5.84817">
        <ele>311.61</ele>
        <time>2016-05-05T10:26:51Z</time>
      </trkpt>
      <trkpt lat="45.99361" lon="5.84825">
        <ele>310.98</ele>
        <time>2016-05-05T10:26:52Z</time>
      </trkpt>
      <trkpt lat="45.99356" lon="5.84834">
        <ele>310.31</ele>
        <time>2016-05-05T10:26:53Z</time>
      </trkpt>
      <trkpt lat="45.99351" lon="5.84843">
        <ele>309.66</ele>
        <time>2016-05-05T10:26:54Z</time>
      </trkpt>
      <trkpt lat="45.9934" lon="5.8486">
        <ele>308.56</ele>
        <time>2016-05-05T10:26:56Z</time>
      </trkpt>
      <trkpt lat="45.99326" lon="5.84874">
        <ele>307.55</ele>
        <time>2016-05-05T10:26:58Z</time>
      </trkpt>
      <trkpt lat="45.99319" lon="5.84879">
        <ele>307.06</ele>
        <time>2016-05-05T10:26:59Z</time>
      </trkpt>
      <trkpt lat="45.99282" lon="5.84902">
        <ele>304.56</ele>
        <time>2016-05-05T10:27:04Z</time>
      </trkpt>
      <trkpt lat="45.99266" lon="5.84911">
        <ele>303.58</ele>
        <time>2016-05-05T10:27:06Z</time>
      </trkpt>
      <trkpt lat="45.99217" lon="5.84945">
        <ele>299.91</ele>
        <time>2016-05-05T10:27:12Z</time>
      </trkpt>
      <trkpt lat="45.99177" lon="5.84966">
        <ele>296.39</ele>
        <time>2016-05-05T10:27:17Z</time>
      </trkpt>
      <trkpt lat="45.99163" lon="5.84975">
        <ele>295.05</ele>
        <time>2016-05-05T10:27:19Z</time>
      </trkpt>
      <trkpt lat="45.99158" lon="5.84981">
        <ele>294.47</ele>
        <time>2016-05-05T10:27:20Z</time>
      </trkpt>
      <trkpt lat="45.99153" lon="5.84988">
        <ele>294</ele>
        <time>2016-05-05T10:27:21Z</time>
      </trkpt>
      <trkpt lat="45.9915" lon="5.84996">
        <ele>293.59</ele>
        <time>2016-05-05T10:27:22Z</time>
      </trkpt>
      <trkpt lat="45.99149" lon="5.85004">
        <ele>293.24</ele>
        <time>2016-05-05T10:27:23Z</time>
      </trkpt>
      <trkpt lat="45.99151" lon="5.85012">
        <ele>292.96</ele>
        <time>2016-05-05T10:27:24Z</time>
      </trkpt>
      <trkpt lat="45.99154" lon="5.85019">
        <ele>292.7</ele>
        <time>2016-05-05T10:27:25Z</time>
      </trkpt>
      <trkpt lat="45.99157" lon="5.85025">
        <ele>292.47</ele>
        <time>2016-05-05T10:27:26Z</time>
      </trkpt>
      <trkpt lat="45.99189" lon="5.85087">
        <ele>291.24</ele>
        <time>2016-05-05T10:27:34Z</time>
      </trkpt>
      <trkpt lat="45.99192" lon="5.85096">
        <ele>291.12</ele>
        <time>2016-05-05T10:27:35Z</time>
      </trkpt>
      <trkpt lat="45.99194" lon="5.85106">
        <ele>290.99</ele>
        <time>2016-05-05T10:27:36Z</time>
      </trkpt>
      <trkpt lat="45.99195" lon="5.85116">
        <ele>290.85</ele>
        <time>2016-05-05T10:27:37Z</time>
      </trkpt>
      <trkpt lat="45.99197" lon="5.85126">
        <ele>290.72</ele>
        <time>2016-05-05T10:27:38Z</time>
      </trkpt>
      <trkpt lat="45.99212" lon="5.85224">
        <ele>289.85</ele>
        <time>2016-05-05T10:27:49Z</time>
      </trkpt>
      <trkpt lat="45.99215" lon="5.85231">
        <ele>289.78</ele>
        <time>2016-05-05T10:27:50Z</time>
      </trkpt>
      <trkpt lat="45.99219" lon="5.85238">
        <ele>289.71</ele>
        <time>2016-05-05T10:27:51Z</time>
      </trkpt>
      <trkpt lat="45.99223" lon="5.85244">
        <ele>289.66</ele>
        <time>2016-05-05T10:27:52Z</time>
      </trkpt>
      <trkpt lat="45.99227" lon="5.8525">
        <ele>289.6</ele>
        <time>2016-05-05T10:27:53Z</time>
      </trkpt>
      <trkpt lat="45.99266" lon="5.85297">
        <ele>288.05</ele>
        <time>2016-05-05T10:28:02Z</time>
      </trkpt>
      <trkpt lat="45.99269" lon="5.85302">
        <ele>287.78</ele>
        <time>2016-05-05T10:28:03Z</time>
      </trkpt>
      <trkpt lat="45.9927" lon="5.85308">
        <ele>287.49</ele>
        <time>2016-05-05T10:28:04Z</time>
      </trkpt>
      <trkpt lat="45.9927" lon="5.85313">
        <ele>287.22</ele>
        <time>2016-05-05T10:28:05Z</time>
      </trkpt>
      <trkpt lat="45.99269" lon="5.85318">
        <ele>286.99</ele>
        <time>2016-05-05T10:28:06Z</time>
      </trkpt>
      <trkpt lat="45.99266" lon="5.85322">
        <ele>286.82</ele>
        <time>2016-05-05T10:28:07Z</time>
      </trkpt>
      <trkpt lat="45.99263" lon="5.85325">
        <ele>286.71</ele>
        <time>2016-05-05T10:28:08Z</time>
      </trkpt>
      <trkpt lat="45.99259" lon="5.85327">
        <ele>286.63</ele>
        <time>2016-05-05T10:28:09Z</time>
      </trkpt>
      <trkpt lat="45.99255" lon="5.85329">
        <ele>286.57</ele>
        <time>2016-05-05T10:28:10Z</time>
      </trkpt>
      <trkpt lat="45.99233" lon="5.8534">
        <ele>286.48</ele>
        <time>2016-05-05T10:28:15Z</time>
      </trkpt>
      <trkpt lat="45.99228" lon="5.85341">
        <ele>286.47</ele>
        <time>2016-05-05T10:28:16Z</time>
      </trkpt>
      <trkpt lat="45.99222" lon="5.85342">
        <ele>286.45</ele>
        <time>2016-05-05T10:28:17Z</time>
      </trkpt>
      <trkpt lat="45.99216" lon="5.85342">
        <ele>286.44</ele>
        <time>2016-05-05T10:28:18Z</time>
      </trkpt>
      <trkpt lat="45.9921" lon="5.85342">
        <ele>286.42</ele>
        <time>2016-05-05T10:28:19Z</time>
      </trkpt>
      <trkpt lat="45.99203" lon="5.8534">
        <ele>286.36</ele>
        <time>2016-05-05T10:28:20Z</time>
      </trkpt>
      <trkpt lat="45.99197" lon="5.85338">
        <ele>286.35</ele>
        <time>2016-05-05T10:28:21Z</time>
      </trkpt>
      <trkpt lat="45.9919" lon="5.85336">
        <ele>286.36</ele>
        <time>2016-05-05T10:28:22Z</time>
      </trkpt>
      <trkpt lat="45.99118" lon="5.85277">
        <ele>286.42</ele>
        <time>2016-05-05T10:28:34Z</time>
      </trkpt>
      <trkpt lat="45.99008" lon="5.85177">
        <ele>284.47</ele>
        <time>2016-05-05T10:28:51Z</time>
      </trkpt>
      <trkpt lat="45.98917" lon="5.85087">
        <ele>284.2</ele>
        <time>2016-05-05T10:29:06Z</time>
      </trkpt>
      <trkpt lat="45.98849" lon="5.84971">
        <ele>283.37</ele>
        <time>2016-05-05T10:29:21Z</time>
      </trkpt>
      <trkpt lat="45.98812" lon="5.84903">
        <ele>283.31</ele>
        <time>2016-05-05T10:29:29Z</time>
      </trkpt>
      <trkpt lat="45.98792" lon="5.84874">
        <ele>283.4</ele>
        <time>2016-05-05T10:29:33Z</time>
      </trkpt>
      <trkpt lat="45.98787" lon="5.84868">
        <ele>283.43</ele>
        <time>2016-05-05T10:29:34Z</time>
      </trkpt>
      <trkpt lat="45.98775" lon="5.84856">
        <ele>283.46</ele>
        <time>2016-05-05T10:29:36Z</time>
      </trkpt>
      <trkpt lat="45.98761" lon="5.84847">
        <ele>283.53</ele>
        <time>2016-05-05T10:29:38Z</time>
      </trkpt>
      <trkpt lat="45.98748" lon="5.8484">
        <ele>283.56</ele>
        <time>2016-05-05T10:29:40Z</time>
      </trkpt>
      <trkpt lat="45.98742" lon="5.84838">
        <ele>283.55</ele>
        <time>2016-05-05T10:29:41Z</time>
      </trkpt>
      <trkpt lat="45.98685" lon="5.84828">
        <ele>283.76</ele>
        <time>2016-05-05T10:29:49Z</time>
      </trkpt>
      <trkpt lat="45.98562" lon="5.8482">
        <ele>282.53</ele>
        <time>2016-05-05T10:30:07Z</time>
      </trkpt>
      <trkpt lat="45.98456" lon="5.84811">
        <ele>281.81</ele>
        <time>2016-05-05T10:30:22Z</time>
      </trkpt>
      <trkpt lat="45.98427" lon="5.84808">
        <ele>281.64</ele>
        <time>2016-05-05T10:30:26Z</time>
      </trkpt>
      <trkpt lat="45.98373" lon="5.84786">
        <ele>281.15</ele>
        <time>2016-05-05T10:30:34Z</time>
      </trkpt>
      <trkpt lat="45.98367" lon="5.84781">
        <ele>281.12</ele>
        <time>2016-05-05T10:30:35Z</time>
      </trkpt>
      <trkpt lat="45.98361" lon="5.84776">
        <ele>281.11</ele>
        <time>2016-05-05T10:30:36Z</time>
      </trkpt>
      <trkpt lat="45.98354" lon="5.84771">
        <ele>281.1</ele>
        <time>2016-05-05T10:30:37Z</time>
      </trkpt>
      <trkpt lat="45.98348" lon="5.84766">
        <ele>281.07</ele>
        <time>2016-05-05T10:30:38Z</time>
      </trkpt>
      <trkpt lat="45.98342" lon="5.8476">
        <ele>281.04</ele>
        <time>2016-05-05T10:30:39Z</time>
      </trkpt>
      <trkpt lat="45.98277" lon="5.8466">
        <ele>280.91</ele>
        <time>2016-05-05T10:30:52Z</time>
      </trkpt>
      <trkpt lat="45.98205" lon="5.84491">
        <ele>281.01</ele>
        <time>2016-05-05T10:31:11Z</time>
      </trkpt>
      <trkpt lat="45.98152" lon="5.84371">
        <ele>280.46</ele>
        <time>2016-05-05T10:31:26Z</time>
      </trkpt>
      <trkpt lat="45.98099" lon="5.84276">
        <ele>279.93</ele>
        <time>2016-05-05T10:31:39Z</time>
      </trkpt>
      <trkpt lat="45.98088" lon="5.84264">
        <ele>279.83</ele>
        <time>2016-05-05T10:31:41Z</time>
      </trkpt>
      <trkpt lat="45.98082" lon="5.84259">
        <ele>279.79</ele>
        <time>2016-05-05T10:31:42Z</time>
      </trkpt>
      <trkpt lat="45.98056" lon="5.84242">
        <ele>279.73</ele>
        <time>2016-05-05T10:31:46Z</time>
      </trkpt>
      <trkpt lat="45.98043" lon="5.84236">
        <ele>279.79</ele>
        <time>2016-05-05T10:31:48Z</time>
      </trkpt>
      <trkpt lat="45.97983" lon="5.84226">
        <ele>279.99</ele>
        <time>2016-05-05T10:31:57Z</time>
      </trkpt>
      <trkpt lat="45.97976" lon="5.84225">
        <ele>279.93</ele>
        <time>2016-05-05T10:31:58Z</time>
      </trkpt>
      <trkpt lat="45.97889" lon="5.84208">
        <ele>279.27</ele>
        <time>2016-05-05T10:32:11Z</time>
      </trkpt>
      <trkpt lat="45.97837" lon="5.84168">
        <ele>279.03</ele>
        <time>2016-05-05T10:32:20Z</time>
      </trkpt>
      <trkpt lat="45.97784" lon="5.84075">
        <ele>278.76</ele>
        <time>2016-05-05T10:32:33Z</time>
      </trkpt>
      <trkpt lat="45.97752" lon="5.83987">
        <ele>278.23</ele>
        <time>2016-05-05T10:32:44Z</time>
      </trkpt>
      <trkpt lat="45.97728" lon="5.83941">
        <ele>278.29</ele>
        <time>2016-05-05T10:32:50Z</time>
      </trkpt>
      <trkpt lat="45.9765" lon="5.83863">
        <ele>277.88</ele>
        <time>2016-05-05T10:33:04Z</time>
      </trkpt>
      <trkpt lat="45.97568" lon="5.83798">
        <ele>278.01</ele>
        <time>2016-05-05T10:33:18Z</time>
      </trkpt>
      <trkpt lat="45.97562" lon="5.83795">
        <ele>278.01</ele>
        <time>2016-05-05T10:33:19Z</time>
      </trkpt>
      <trkpt lat="45.97556" lon="5.83791">
        <ele>278</ele>
        <time>2016-05-05T10:33:20Z</time>
      </trkpt>
      <trkpt lat="45.97551" lon="5.83788">
        <ele>277.99</ele>
        <time>2016-05-05T10:33:21Z</time>
      </trkpt>
      <trkpt lat="45.97545" lon="5.83785">
        <ele>277.99</ele>
        <time>2016-05-05T10:33:22Z</time>
      </trkpt>
      <trkpt lat="45.97538" lon="5.83782">
        <ele>278</ele>
        <time>2016-05-05T10:33:23Z</time>
      </trkpt>
      <trkpt lat="45.97509" lon="5.8377">
        <ele>278</ele>
        <time>2016-05-05T10:33:28Z</time>
      </trkpt>
      <trkpt lat="45.97444" lon="5.83757">
        <ele>277.88</ele>
        <time>2016-05-05T10:33:38Z</time>
      </trkpt>
      <trkpt lat="45.97379" lon="5.83761">
        <ele>278.44</ele>
        <time>2016-05-05T10:33:49Z</time>
      </trkpt>
      <trkpt lat="45.97374" lon="5.83762">
        <ele>278.55</ele>
        <time>2016-05-05T10:33:50Z</time>
      </trkpt>
      <trkpt lat="45.97364" lon="5.83762">
        <ele>278.86</ele>
        <time>2016-05-05T10:33:52Z</time>
      </trkpt>
      <trkpt lat="45.97302" lon="5.8374">
        <ele>281.62</ele>
        <time>2016-05-05T10:34:07Z</time>
      </trkpt>
      <trkpt lat="45.97255" lon="5.83691">
        <ele>283.85</ele>
        <time>2016-05-05T10:34:23Z</time>
      </trkpt>
      <trkpt lat="45.97217" lon="5.83632">
        <ele>285.64</ele>
        <time>2016-05-05T10:34:40Z</time>
      </trkpt>
      <trkpt lat="45.97181" lon="5.83591">
        <ele>287.97</ele>
        <time>2016-05-05T10:34:56Z</time>
      </trkpt>
      <trkpt lat="45.97143" lon="5.83569">
        <ele>290.25</ele>
        <time>2016-05-05T10:35:11Z</time>
      </trkpt>
      <trkpt lat="45.97095" lon="5.83565">
        <ele>292.51</ele>
        <time>2016-05-05T10:35:28Z</time>
      </trkpt>
      <trkpt lat="45.97046" lon="5.83569">
        <ele>293.75</ele>
        <time>2016-05-05T10:35:42Z</time>
      </trkpt>
      <trkpt lat="45.96988" lon="5.83567">
        <ele>294.43</ele>
        <time>2016-05-05T10:35:56Z</time>
      </trkpt>
      <trkpt lat="45.9694" lon="5.83561">
        <ele>295.04</ele>
        <time>2016-05-05T10:36:08Z</time>
      </trkpt>
      <trkpt lat="45.96928" lon="5.83559">
        <ele>295.28</ele>
        <time>2016-05-05T10:36:11Z</time>
      </trkpt>
      <trkpt lat="45.96923" lon="5.83558">
        <ele>295.28</ele>
        <time>2016-05-05T10:36:12Z</time>
      </trkpt>
      <trkpt lat="45.96919" lon="5.83557">
        <ele>295.36</ele>
        <time>2016-05-05T10:36:13Z</time>
      </trkpt>
      <trkpt lat="45.96915" lon="5.83556">
        <ele>295.42</ele>
        <time>2016-05-05T10:36:14Z</time>
      </trkpt>
      <trkpt lat="45.9691" lon="5.83556">
        <ele>295.5</ele>
        <time>2016-05-05T10:36:15Z</time>
      </trkpt>
      <trkpt lat="45.96864" lon="5.83554">
        <ele>296.41</ele>
        <time>2016-05-05T10:36:25Z</time>
      </trkpt>
      <trkpt lat="45.96838" lon="5.83552">
        <ele>296.88</ele>
        <time>2016-05-05T10:36:30Z</time>
      </trkpt>
      <trkpt lat="45.9675" lon="5.83549">
        <ele>296.96</ele>
        <time>2016-05-05T10:36:45Z</time>
      </trkpt>
      <trkpt lat="45.96669" lon="5.83546">
        <ele>295.81</ele>
        <time>2016-05-05T10:36:59Z</time>
      </trkpt>
      <trkpt lat="45.96653" lon="5.83548">
        <ele>295.49</ele>
        <time>2016-05-05T10:37:02Z</time>
      </trkpt>
      <trkpt lat="45.96648" lon="5.83547">
        <ele>295.38</ele>
        <time>2016-05-05T10:37:03Z</time>
      </trkpt>
      <trkpt lat="45.96638" lon="5.83544">
        <ele>295.05</ele>
        <time>2016-05-05T10:37:05Z</time>
      </trkpt>
      <trkpt lat="45.96628" lon="5.8354">
        <ele>294.58</ele>
        <time>2016-05-05T10:37:07Z</time>
      </trkpt>
      <trkpt lat="45.96622" lon="5.83539">
        <ele>294.38</ele>
        <time>2016-05-05T10:37:08Z</time>
      </trkpt>
      <trkpt lat="45.96615" lon="5.83539">
        <ele>294.05</ele>
        <time>2016-05-05T10:37:09Z</time>
      </trkpt>
      <trkpt lat="45.96546" lon="5.83533">
        <ele>290.8</ele>
        <time>2016-05-05T10:37:18Z</time>
      </trkpt>
      <trkpt lat="45.96451" lon="5.83525">
        <ele>287.61</ele>
        <time>2016-05-05T10:37:29Z</time>
      </trkpt>
      <trkpt lat="45.96436" lon="5.83528">
        <ele>287.05</ele>
        <time>2016-05-05T10:37:31Z</time>
      </trkpt>
      <trkpt lat="45.96429" lon="5.8353">
        <ele>286.39</ele>
        <time>2016-05-05T10:37:32Z</time>
      </trkpt>
      <trkpt lat="45.96423" lon="5.83531">
        <ele>286.01</ele>
        <time>2016-05-05T10:37:33Z</time>
      </trkpt>
      <trkpt lat="45.96417" lon="5.8353">
        <ele>285.6</ele>
        <time>2016-05-05T10:37:34Z</time>
      </trkpt>
      <trkpt lat="45.96411" lon="5.83529">
        <ele>285.19</ele>
        <time>2016-05-05T10:37:35Z</time>
      </trkpt>
      <trkpt lat="45.9637" lon="5.83517">
        <ele>282.15</ele>
        <time>2016-05-05T10:37:41Z</time>
      </trkpt>
      <trkpt lat="45.96352" lon="5.83512">
        <ele>280.08</ele>
        <time>2016-05-05T10:37:44Z</time>
      </trkpt>
      <trkpt lat="45.96346" lon="5.83514">
        <ele>279.31</ele>
        <time>2016-05-05T10:37:45Z</time>
      </trkpt>
      <trkpt lat="45.96339" lon="5.83516">
        <ele>278.56</ele>
        <time>2016-05-05T10:37:46Z</time>
      </trkpt>
      <trkpt lat="45.96332" lon="5.8352">
        <ele>277.86</ele>
        <time>2016-05-05T10:37:47Z</time>
      </trkpt>
      <trkpt lat="45.96325" lon="5.83525">
        <ele>277.21</ele>
        <time>2016-05-05T10:37:48Z</time>
      </trkpt>
      <trkpt lat="45.9629" lon="5.83547">
        <ele>273.83</ele>
        <time>2016-05-05T10:37:54Z</time>
      </trkpt>
      <trkpt lat="45.96247" lon="5.83574">
        <ele>271.23</ele>
        <time>2016-05-05T10:38:03Z</time>
      </trkpt>
      <trkpt lat="45.96242" lon="5.83575">
        <ele>271.16</ele>
        <time>2016-05-05T10:38:04Z</time>
      </trkpt>
      <trkpt lat="45.96238" lon="5.83573">
        <ele>271.1</ele>
        <time>2016-05-05T10:38:05Z</time>
      </trkpt>
      <trkpt lat="45.96234" lon="5.83572">
        <ele>271.02</ele>
        <time>2016-05-05T10:38:06Z</time>
      </trkpt>
      <trkpt lat="45.9623" lon="5.83572">
        <ele>270.96</ele>
        <time>2016-05-05T10:38:07Z</time>
      </trkpt>
      <trkpt lat="45.96226" lon="5.83572">
        <ele>270.9</ele>
        <time>2016-05-05T10:38:08Z</time>
      </trkpt>
      <trkpt lat="45.96222" lon="5.83573">
        <ele>270.86</ele>
        <time>2016-05-05T10:38:09Z</time>
      </trkpt>
      <trkpt lat="45.96218" lon="5.83574">
        <ele>270.84</ele>
        <time>2016-05-05T10:38:10Z</time>
      </trkpt>
      <trkpt lat="45.9621" lon="5.83578">
        <ele>270.81</ele>
        <time>2016-05-05T10:38:12Z</time>
      </trkpt>
      <trkpt lat="45.96206" lon="5.8358">
        <ele>270.81</ele>
        <time>2016-05-05T10:38:13Z</time>
      </trkpt>
      <trkpt lat="45.96187" lon="5.83588">
        <ele>270.8</ele>
        <time>2016-05-05T10:38:18Z</time>
      </trkpt>
      <trkpt lat="45.96153" lon="5.83592">
        <ele>270.58</ele>
        <time>2016-05-05T10:38:25Z</time>
      </trkpt>
      <trkpt lat="45.96135" lon="5.83598">
        <ele>270.51</ele>
        <time>2016-05-05T10:38:29Z</time>
      </trkpt>
      <trkpt lat="45.96117" lon="5.83599">
        <ele>270.46</ele>
        <time>2016-05-05T10:38:33Z</time>
      </trkpt>
      <trkpt lat="45.96112" lon="5.836">
        <ele>270.43</ele>
        <time>2016-05-05T10:38:34Z</time>
      </trkpt>
      <trkpt lat="45.96108" lon="5.83602">
        <ele>270.37</ele>
        <time>2016-05-05T10:38:35Z</time>
      </trkpt>
      <trkpt lat="45.96104" lon="5.83605">
        <ele>270.28</ele>
        <time>2016-05-05T10:38:36Z</time>
      </trkpt>
      <trkpt lat="45.961" lon="5.83609">
        <ele>270.18</ele>
        <time>2016-05-05T10:38:37Z</time>
      </trkpt>
      <trkpt lat="45.96096" lon="5.83613">
        <ele>270.11</ele>
        <time>2016-05-05T10:38:38Z</time>
      </trkpt>
      <trkpt lat="45.96094" lon="5.83617">
        <ele>270.04</ele>
        <time>2016-05-05T10:38:39Z</time>
      </trkpt>
      <trkpt lat="45.96091" lon="5.83619">
        <ele>270.01</ele>
        <time>2016-05-05T10:38:40Z</time>
      </trkpt>
      <trkpt lat="45.96087" lon="5.8362">
        <ele>270</ele>
        <time>2016-05-05T10:38:41Z</time>
      </trkpt>
      <trkpt lat="45.96057" lon="5.83617">
        <ele>270.19</ele>
        <time>2016-05-05T10:38:48Z</time>
      </trkpt>
      <trkpt lat="45.96018" lon="5.83613">
        <ele>270.71</ele>
        <time>2016-05-05T10:38:59Z</time>
      </trkpt>
      <trkpt lat="45.9599" lon="5.836">
        <ele>272.81</ele>
        <time>2016-05-05T10:39:13Z</time>
      </trkpt>
      <trkpt lat="45.95963" lon="5.83571">
        <ele>275.15</ele>
        <time>2016-05-05T10:39:28Z</time>
      </trkpt>
      <trkpt lat="45.95947" lon="5.83557">
        <ele>276.98</ele>
        <time>2016-05-05T10:39:37Z</time>
      </trkpt>
      <trkpt lat="45.95945" lon="5.83557">
        <ele>277.52</ele>
        <time>2016-05-05T10:39:38Z</time>
      </trkpt>
      <trkpt lat="45.95944" lon="5.83557">
        <ele>277.77</ele>
        <time>2016-05-05T10:39:39Z</time>
      </trkpt>
      <trkpt lat="45.95943" lon="5.83557">
        <ele>278.01</ele>
        <time>2016-05-05T10:39:40Z</time>
      </trkpt>
      <trkpt lat="45.95941" lon="5.83557">
        <ele>278.25</ele>
        <time>2016-05-05T10:39:41Z</time>
      </trkpt>
      <trkpt lat="45.95935" lon="5.83557">
        <ele>279.07</ele>
        <time>2016-05-05T10:39:46Z</time>
      </trkpt>
      <trkpt lat="45.95934" lon="5.83556">
        <ele>279.19</ele>
        <time>2016-05-05T10:39:47Z</time>
      </trkpt>
      <trkpt lat="45.95933" lon="5.83554">
        <ele>279.28</ele>
        <time>2016-05-05T10:39:48Z</time>
      </trkpt>
      <trkpt lat="45.95932" lon="5.83552">
        <ele>279.37</ele>
        <time>2016-05-05T10:39:49Z</time>
      </trkpt>
      <trkpt lat="45.95931" lon="5.8355">
        <ele>279.48</ele>
        <time>2016-05-05T10:39:50Z</time>
      </trkpt>
      <trkpt lat="45.9593" lon="5.83547">
        <ele>279.7</ele>
        <time>2016-05-05T10:39:52Z</time>
      </trkpt>
      <trkpt lat="45.95929" lon="5.83545">
        <ele>279.79</ele>
        <time>2016-05-05T10:39:53Z</time>
      </trkpt>
      <trkpt lat="45.95929" lon="5.83541">
        <ele>279.96</ele>
        <time>2016-05-05T10:39:56Z</time>
      </trkpt>
      <trkpt lat="45.95932" lon="5.83538">
        <ele>280.06</ele>
        <time>2016-05-05T10:40:08Z</time>
      </trkpt>
      <trkpt lat="45.9593" lon="5.83539">
        <ele>280.12</ele>
        <time>2016-05-05T10:40:16Z</time>
      </trkpt>
      <trkpt lat="45.95927" lon="5.83543">
        <ele>279.94</ele>
        <time>2016-05-05T10:40:34Z</time>
      </trkpt>
      <trkpt lat="45.95937" lon="5.83531">
        <ele>280.48</ele>
        <time>2016-05-05T10:56:41Z</time>
      </trkpt>
      <trkpt lat="45.95932" lon="5.83542">
        <ele>280.3</ele>
        <time>2016-05-05T10:56:53Z</time>
      </trkpt>
      <trkpt lat="45.95924" lon="5.83549">
        <ele>280.4</ele>
        <time>2016-05-05T10:57:15Z</time>
      </trkpt>
      <trkpt lat="45.95924" lon="5.83543">
        <ele>280.25</ele>
        <time>2016-05-05T10:57:38Z</time>
      </trkpt>
      <trkpt lat="45.95922" lon="5.83538">
        <ele>280.1</ele>
        <time>2016-05-05T10:57:50Z</time>
      </trkpt>
      <trkpt lat="45.95918" lon="5.83532">
        <ele>280</ele>
        <time>2016-05-05T10:57:53Z</time>
      </trkpt>
      <trkpt lat="45.95917" lon="5.83527">
        <ele>279.93</ele>
        <time>2016-05-05T10:57:55Z</time>
      </trkpt>
      <trkpt lat="45.95912" lon="5.83522">
        <ele>279.9</ele>
        <time>2016-05-05T10:57:58Z</time>
      </trkpt>
      <trkpt lat="45.9591" lon="5.83523">
        <ele>279.88</ele>
        <time>2016-05-05T10:57:59Z</time>
      </trkpt>
      <trkpt lat="45.95908" lon="5.83525">
        <ele>279.9</ele>
        <time>2016-05-05T10:58:00Z</time>
      </trkpt>
      <trkpt lat="45.95905" lon="5.83527">
        <ele>279.91</ele>
        <time>2016-05-05T10:58:01Z</time>
      </trkpt>
      <trkpt lat="45.95903" lon="5.83529">
        <ele>279.94</ele>
        <time>2016-05-05T10:58:02Z</time>
      </trkpt>
      <trkpt lat="45.95901" lon="5.83532">
        <ele>280</ele>
        <time>2016-05-05T10:58:03Z</time>
      </trkpt>
      <trkpt lat="45.95881" lon="5.8357">
        <ele>281.55</ele>
        <time>2016-05-05T10:58:17Z</time>
      </trkpt>
      <trkpt lat="45.95869" lon="5.83616">
        <ele>279.11</ele>
        <time>2016-05-05T10:58:29Z</time>
      </trkpt>
      <trkpt lat="45.95879" lon="5.83642">
        <ele>275.92</ele>
        <time>2016-05-05T10:58:38Z</time>
      </trkpt>
      <trkpt lat="45.95877" lon="5.83644">
        <ele>275.67</ele>
        <time>2016-05-05T10:58:39Z</time>
      </trkpt>
      <trkpt lat="45.95873" lon="5.83646">
        <ele>275.45</ele>
        <time>2016-05-05T10:58:40Z</time>
      </trkpt>
      <trkpt lat="45.9587" lon="5.83646">
        <ele>275.23</ele>
        <time>2016-05-05T10:58:41Z</time>
      </trkpt>
      <trkpt lat="45.95865" lon="5.83645">
        <ele>275.02</ele>
        <time>2016-05-05T10:58:42Z</time>
      </trkpt>
      <trkpt lat="45.95861" lon="5.83645">
        <ele>274.78</ele>
        <time>2016-05-05T10:58:43Z</time>
      </trkpt>
      <trkpt lat="45.95828" lon="5.83636">
        <ele>273.47</ele>
        <time>2016-05-05T10:58:49Z</time>
      </trkpt>
      <trkpt lat="45.95746" lon="5.83648">
        <ele>271.13</ele>
        <time>2016-05-05T10:59:03Z</time>
      </trkpt>
      <trkpt lat="45.95741" lon="5.83649">
        <ele>271.08</ele>
        <time>2016-05-05T10:59:04Z</time>
      </trkpt>
      <trkpt lat="45.95736" lon="5.83648">
        <ele>271.04</ele>
        <time>2016-05-05T10:59:05Z</time>
      </trkpt>
      <trkpt lat="45.95733" lon="5.83645">
        <ele>270.99</ele>
        <time>2016-05-05T10:59:06Z</time>
      </trkpt>
      <trkpt lat="45.9573" lon="5.83641">
        <ele>270.93</ele>
        <time>2016-05-05T10:59:07Z</time>
      </trkpt>
      <trkpt lat="45.95729" lon="5.83636">
        <ele>270.87</ele>
        <time>2016-05-05T10:59:08Z</time>
      </trkpt>
      <trkpt lat="45.95701" lon="5.83543">
        <ele>270.17</ele>
        <time>2016-05-05T10:59:24Z</time>
      </trkpt>
      <trkpt lat="45.95689" lon="5.83495">
        <ele>269.68</ele>
        <time>2016-05-05T10:59:32Z</time>
      </trkpt>
      <trkpt lat="45.95689" lon="5.83489">
        <ele>269.64</ele>
        <time>2016-05-05T10:59:33Z</time>
      </trkpt>
      <trkpt lat="45.95683" lon="5.83442">
        <ele>269.13</ele>
        <time>2016-05-05T10:59:44Z</time>
      </trkpt>
      <trkpt lat="45.95679" lon="5.834">
        <ele>269.11</ele>
        <time>2016-05-05T10:59:57Z</time>
      </trkpt>
      <trkpt lat="45.95654" lon="5.83411">
        <ele>268.64</ele>
        <time>2016-05-05T11:00:07Z</time>
      </trkpt>
      <trkpt lat="45.95595" lon="5.83443">
        <ele>268.32</ele>
        <time>2016-05-05T11:00:23Z</time>
      </trkpt>
      <trkpt lat="45.95564" lon="5.8346">
        <ele>268.5</ele>
        <time>2016-05-05T11:00:31Z</time>
      </trkpt>
      <trkpt lat="45.95552" lon="5.83466">
        <ele>268.44</ele>
        <time>2016-05-05T11:00:34Z</time>
      </trkpt>
      <trkpt lat="45.95548" lon="5.83469">
        <ele>268.43</ele>
        <time>2016-05-05T11:00:35Z</time>
      </trkpt>
      <trkpt lat="45.95544" lon="5.83472">
        <ele>268.41</ele>
        <time>2016-05-05T11:00:36Z</time>
      </trkpt>
      <trkpt lat="45.95503" lon="5.83494">
        <ele>268.36</ele>
        <time>2016-05-05T11:00:45Z</time>
      </trkpt>
      <trkpt lat="45.95422" lon="5.83528">
        <ele>267.81</ele>
        <time>2016-05-05T11:01:01Z</time>
      </trkpt>
      <trkpt lat="45.95401" lon="5.83538">
        <ele>267.81</ele>
        <time>2016-05-05T11:01:05Z</time>
      </trkpt>
      <trkpt lat="45.95395" lon="5.83539">
        <ele>267.85</ele>
        <time>2016-05-05T11:01:06Z</time>
      </trkpt>
      <trkpt lat="45.95373" lon="5.83544">
        <ele>268.01</ele>
        <time>2016-05-05T11:01:10Z</time>
      </trkpt>
      <trkpt lat="45.95368" lon="5.83546">
        <ele>268.03</ele>
        <time>2016-05-05T11:01:11Z</time>
      </trkpt>
      <trkpt lat="45.95273" lon="5.83587">
        <ele>268.19</ele>
        <time>2016-05-05T11:01:28Z</time>
      </trkpt>
      <trkpt lat="45.9518" lon="5.83629">
        <ele>268.17</ele>
        <time>2016-05-05T11:01:45Z</time>
      </trkpt>
      <trkpt lat="45.9509" lon="5.83669">
        <ele>268.18</ele>
        <time>2016-05-05T11:02:02Z</time>
      </trkpt>
      <trkpt lat="45.95075" lon="5.83676">
        <ele>268.19</ele>
        <time>2016-05-05T11:02:05Z</time>
      </trkpt>
      <trkpt lat="45.95044" lon="5.83689">
        <ele>268.13</ele>
        <time>2016-05-05T11:02:11Z</time>
      </trkpt>
      <trkpt lat="45.95007" lon="5.83699">
        <ele>268.07</ele>
        <time>2016-05-05T11:02:18Z</time>
      </trkpt>
      <trkpt lat="45.95002" lon="5.83701">
        <ele>268.08</ele>
        <time>2016-05-05T11:02:19Z</time>
      </trkpt>
      <trkpt lat="45.94997" lon="5.83702">
        <ele>268.09</ele>
        <time>2016-05-05T11:02:20Z</time>
      </trkpt>
      <trkpt lat="45.94992" lon="5.83705">
        <ele>268.11</ele>
        <time>2016-05-05T11:02:21Z</time>
      </trkpt>
      <trkpt lat="45.94987" lon="5.83707">
        <ele>268.14</ele>
        <time>2016-05-05T11:02:22Z</time>
      </trkpt>
      <trkpt lat="45.94982" lon="5.83708">
        <ele>268.16</ele>
        <time>2016-05-05T11:02:23Z</time>
      </trkpt>
      <trkpt lat="45.94976" lon="5.83708">
        <ele>268.18</ele>
        <time>2016-05-05T11:02:24Z</time>
      </trkpt>
      <trkpt lat="45.94889" lon="5.83728">
        <ele>267.98</ele>
        <time>2016-05-05T11:02:40Z</time>
      </trkpt>
      <trkpt lat="45.948" lon="5.8374">
        <ele>267.87</ele>
        <time>2016-05-05T11:02:56Z</time>
      </trkpt>
      <trkpt lat="45.94703" lon="5.83752">
        <ele>267.98</ele>
        <time>2016-05-05T11:03:13Z</time>
      </trkpt>
      <trkpt lat="45.94591" lon="5.8375">
        <ele>267.86</ele>
        <time>2016-05-05T11:03:32Z</time>
      </trkpt>
      <trkpt lat="45.94549" lon="5.83744">
        <ele>267.79</ele>
        <time>2016-05-05T11:03:39Z</time>
      </trkpt>
      <trkpt lat="45.94543" lon="5.83743">
        <ele>267.76</ele>
        <time>2016-05-05T11:03:40Z</time>
      </trkpt>
      <trkpt lat="45.94469" lon="5.83728">
        <ele>267.63</ele>
        <time>2016-05-05T11:03:53Z</time>
      </trkpt>
      <trkpt lat="45.94404" lon="5.83696">
        <ele>267.99</ele>
        <time>2016-05-05T11:04:05Z</time>
      </trkpt>
      <trkpt lat="45.94389" lon="5.83688">
        <ele>268.1</ele>
        <time>2016-05-05T11:04:08Z</time>
      </trkpt>
      <trkpt lat="45.94361" lon="5.83672">
        <ele>268.09</ele>
        <time>2016-05-05T11:04:13Z</time>
      </trkpt>
      <trkpt lat="45.9435" lon="5.83662">
        <ele>268.08</ele>
        <time>2016-05-05T11:04:15Z</time>
      </trkpt>
      <trkpt lat="45.94345" lon="5.83657">
        <ele>268.09</ele>
        <time>2016-05-05T11:04:16Z</time>
      </trkpt>
      <trkpt lat="45.94335" lon="5.83647">
        <ele>268.18</ele>
        <time>2016-05-05T11:04:18Z</time>
      </trkpt>
      <trkpt lat="45.9433" lon="5.83642">
        <ele>268.21</ele>
        <time>2016-05-05T11:04:19Z</time>
      </trkpt>
      <trkpt lat="45.94286" lon="5.83596">
        <ele>268.11</ele>
        <time>2016-05-05T11:04:28Z</time>
      </trkpt>
      <trkpt lat="45.94281" lon="5.83591">
        <ele>268.1</ele>
        <time>2016-05-05T11:04:29Z</time>
      </trkpt>
      <trkpt lat="45.9425" lon="5.83564">
        <ele>267.9</ele>
        <time>2016-05-05T11:04:35Z</time>
      </trkpt>
      <trkpt lat="45.94244" lon="5.8356">
        <ele>267.86</ele>
        <time>2016-05-05T11:04:36Z</time>
      </trkpt>
      <trkpt lat="45.94165" lon="5.83506">
        <ele>268.17</ele>
        <time>2016-05-05T11:04:51Z</time>
      </trkpt>
      <trkpt lat="45.94077" lon="5.83459">
        <ele>268.44</ele>
        <time>2016-05-05T11:05:07Z</time>
      </trkpt>
      <trkpt lat="45.94051" lon="5.83444">
        <ele>268.47</ele>
        <time>2016-05-05T11:05:12Z</time>
      </trkpt>
      <trkpt lat="45.9395" lon="5.834">
        <ele>268.17</ele>
        <time>2016-05-05T11:05:30Z</time>
      </trkpt>
      <trkpt lat="45.93875" lon="5.83369">
        <ele>268.43</ele>
        <time>2016-05-05T11:05:44Z</time>
      </trkpt>
      <trkpt lat="45.93763" lon="5.83335">
        <ele>268.77</ele>
        <time>2016-05-05T11:06:05Z</time>
      </trkpt>
      <trkpt lat="45.9373" lon="5.83327">
        <ele>268.82</ele>
        <time>2016-05-05T11:06:11Z</time>
      </trkpt>
      <trkpt lat="45.9365" lon="5.83337">
        <ele>268.83</ele>
        <time>2016-05-05T11:06:26Z</time>
      </trkpt>
      <trkpt lat="45.93601" lon="5.83371">
        <ele>268.64</ele>
        <time>2016-05-05T11:06:36Z</time>
      </trkpt>
      <trkpt lat="45.93578" lon="5.83388">
        <ele>268.76</ele>
        <time>2016-05-05T11:06:41Z</time>
      </trkpt>
      <trkpt lat="45.93574" lon="5.83392">
        <ele>268.77</ele>
        <time>2016-05-05T11:06:42Z</time>
      </trkpt>
      <trkpt lat="45.93565" lon="5.83399">
        <ele>268.83</ele>
        <time>2016-05-05T11:06:44Z</time>
      </trkpt>
      <trkpt lat="45.93561" lon="5.83403">
        <ele>268.85</ele>
        <time>2016-05-05T11:06:45Z</time>
      </trkpt>
      <trkpt lat="45.93557" lon="5.83407">
        <ele>268.88</ele>
        <time>2016-05-05T11:06:46Z</time>
      </trkpt>
      <trkpt lat="45.93536" lon="5.8343">
        <ele>268.99</ele>
        <time>2016-05-05T11:06:51Z</time>
      </trkpt>
      <trkpt lat="45.93522" lon="5.83441">
        <ele>269.03</ele>
        <time>2016-05-05T11:06:54Z</time>
      </trkpt>
      <trkpt lat="45.93518" lon="5.83444">
        <ele>269.06</ele>
        <time>2016-05-05T11:06:55Z</time>
      </trkpt>
      <trkpt lat="45.9351" lon="5.83452">
        <ele>269.13</ele>
        <time>2016-05-05T11:06:57Z</time>
      </trkpt>
      <trkpt lat="45.93506" lon="5.83456">
        <ele>269.2</ele>
        <time>2016-05-05T11:06:58Z</time>
      </trkpt>
      <trkpt lat="45.93503" lon="5.83462">
        <ele>269.27</ele>
        <time>2016-05-05T11:06:59Z</time>
      </trkpt>
      <trkpt lat="45.93497" lon="5.83481">
        <ele>269.51</ele>
        <time>2016-05-05T11:07:02Z</time>
      </trkpt>
      <trkpt lat="45.93485" lon="5.83504">
        <ele>269.75</ele>
        <time>2016-05-05T11:07:06Z</time>
      </trkpt>
      <trkpt lat="45.93481" lon="5.83509">
        <ele>269.79</ele>
        <time>2016-05-05T11:07:07Z</time>
      </trkpt>
      <trkpt lat="45.93476" lon="5.83512">
        <ele>269.8</ele>
        <time>2016-05-05T11:07:08Z</time>
      </trkpt>
      <trkpt lat="45.93471" lon="5.83513">
        <ele>269.81</ele>
        <time>2016-05-05T11:07:09Z</time>
      </trkpt>
      <trkpt lat="45.93466" lon="5.83514">
        <ele>269.81</ele>
        <time>2016-05-05T11:07:10Z</time>
      </trkpt>
      <trkpt lat="45.93456" lon="5.83516">
        <ele>269.8</ele>
        <time>2016-05-05T11:07:12Z</time>
      </trkpt>
      <trkpt lat="45.93452" lon="5.8352">
        <ele>269.79</ele>
        <time>2016-05-05T11:07:13Z</time>
      </trkpt>
      <trkpt lat="45.9345" lon="5.83526">
        <ele>269.79</ele>
        <time>2016-05-05T11:07:14Z</time>
      </trkpt>
      <trkpt lat="45.9345" lon="5.83533">
        <ele>269.79</ele>
        <time>2016-05-05T11:07:15Z</time>
      </trkpt>
      <trkpt lat="45.93451" lon="5.8354">
        <ele>269.77</ele>
        <time>2016-05-05T11:07:16Z</time>
      </trkpt>
      <trkpt lat="45.93452" lon="5.83558">
        <ele>269.79</ele>
        <time>2016-05-05T11:07:19Z</time>
      </trkpt>
      <trkpt lat="45.93456" lon="5.83638">
        <ele>270.75</ele>
        <time>2016-05-05T11:07:33Z</time>
      </trkpt>
      <trkpt lat="45.93444" lon="5.83673">
        <ele>271.14</ele>
        <time>2016-05-05T11:07:44Z</time>
      </trkpt>
      <trkpt lat="45.9338" lon="5.83676">
        <ele>271.67</ele>
        <time>2016-05-05T11:08:00Z</time>
      </trkpt>
      <trkpt lat="45.93318" lon="5.83678">
        <ele>273.51</ele>
        <time>2016-05-05T11:08:16Z</time>
      </trkpt>
      <trkpt lat="45.93276" lon="5.8366">
        <ele>275.59</ele>
        <time>2016-05-05T11:08:29Z</time>
      </trkpt>
      <trkpt lat="45.93237" lon="5.83636">
        <ele>276.32</ele>
        <time>2016-05-05T11:08:39Z</time>
      </trkpt>
      <trkpt lat="45.93211" lon="5.83618">
        <ele>276.13</ele>
        <time>2016-05-05T11:08:45Z</time>
      </trkpt>
      <trkpt lat="45.93202" lon="5.83602">
        <ele>275.97</ele>
        <time>2016-05-05T11:08:49Z</time>
      </trkpt>
      <trkpt lat="45.93201" lon="5.83596">
        <ele>275.97</ele>
        <time>2016-05-05T11:08:50Z</time>
      </trkpt>
      <trkpt lat="45.932" lon="5.8359">
        <ele>276</ele>
        <time>2016-05-05T11:08:51Z</time>
      </trkpt>
      <trkpt lat="45.93199" lon="5.83583">
        <ele>276.05</ele>
        <time>2016-05-05T11:08:52Z</time>
      </trkpt>
      <trkpt lat="45.93198" lon="5.83577">
        <ele>276.13</ele>
        <time>2016-05-05T11:08:53Z</time>
      </trkpt>
      <trkpt lat="45.93193" lon="5.83519">
        <ele>278.57</ele>
        <time>2016-05-05T11:09:05Z</time>
      </trkpt>
      <trkpt lat="45.93188" lon="5.83478">
        <ele>280.71</ele>
        <time>2016-05-05T11:09:16Z</time>
      </trkpt>
      <trkpt lat="45.93189" lon="5.83436">
        <ele>282.33</ele>
        <time>2016-05-05T11:09:27Z</time>
      </trkpt>
      <trkpt lat="45.93189" lon="5.83433">
        <ele>282.44</ele>
        <time>2016-05-05T11:09:28Z</time>
      </trkpt>
      <trkpt lat="45.93196" lon="5.83374">
        <ele>284.44</ele>
        <time>2016-05-05T11:09:43Z</time>
      </trkpt>
      <trkpt lat="45.93199" lon="5.83354">
        <ele>284.99</ele>
        <time>2016-05-05T11:09:48Z</time>
      </trkpt>
      <trkpt lat="45.93199" lon="5.83351">
        <ele>285.17</ele>
        <time>2016-05-05T11:09:49Z</time>
      </trkpt>
      <trkpt lat="45.932" lon="5.83347">
        <ele>285.51</ele>
        <time>2016-05-05T11:09:50Z</time>
      </trkpt>
      <trkpt lat="45.93199" lon="5.83344">
        <ele>285.66</ele>
        <time>2016-05-05T11:09:51Z</time>
      </trkpt>
      <trkpt lat="45.93198" lon="5.83341">
        <ele>285.82</ele>
        <time>2016-05-05T11:09:52Z</time>
      </trkpt>
      <trkpt lat="45.93206" lon="5.83298">
        <ele>287.5</ele>
        <time>2016-05-05T11:10:04Z</time>
      </trkpt>
      <trkpt lat="45.93228" lon="5.83245">
        <ele>289.7</ele>
        <time>2016-05-05T11:10:21Z</time>
      </trkpt>
      <trkpt lat="45.9326" lon="5.83191">
        <ele>292.75</ele>
        <time>2016-05-05T11:10:40Z</time>
      </trkpt>
      <trkpt lat="45.93285" lon="5.83146">
        <ele>294.73</ele>
        <time>2016-05-05T11:10:55Z</time>
      </trkpt>
      <trkpt lat="45.93273" lon="5.8311">
        <ele>297.12</ele>
        <time>2016-05-05T11:11:07Z</time>
      </trkpt>
      <trkpt lat="45.93248" lon="5.83103">
        <ele>298.12</ele>
        <time>2016-05-05T11:11:18Z</time>
      </trkpt>
      <trkpt lat="45.93218" lon="5.83085">
        <ele>299.86</ele>
        <time>2016-05-05T11:11:31Z</time>
      </trkpt>
      <trkpt lat="45.93204" lon="5.83058">
        <ele>301.11</ele>
        <time>2016-05-05T11:11:41Z</time>
      </trkpt>
      <trkpt lat="45.93203" lon="5.83045">
        <ele>301.6</ele>
        <time>2016-05-05T11:11:45Z</time>
      </trkpt>
      <trkpt lat="45.93203" lon="5.83041">
        <ele>301.7</ele>
        <time>2016-05-05T11:11:46Z</time>
      </trkpt>
      <trkpt lat="45.93202" lon="5.83038">
        <ele>301.8</ele>
        <time>2016-05-05T11:11:47Z</time>
      </trkpt>
      <trkpt lat="45.93198" lon="5.83028">
        <ele>302.21</ele>
        <time>2016-05-05T11:11:50Z</time>
      </trkpt>
      <trkpt lat="45.93197" lon="5.83025">
        <ele>302.21</ele>
        <time>2016-05-05T11:11:51Z</time>
      </trkpt>
      <trkpt lat="45.93182" lon="5.82988">
        <ele>303.72</ele>
        <time>2016-05-05T11:12:03Z</time>
      </trkpt>
      <trkpt lat="45.93164" lon="5.82945">
        <ele>306.34</ele>
        <time>2016-05-05T11:12:18Z</time>
      </trkpt>
      <trkpt lat="45.93139" lon="5.82933">
        <ele>308.25</ele>
        <time>2016-05-05T11:12:30Z</time>
      </trkpt>
      <trkpt lat="45.93092" lon="5.82961">
        <ele>310.4</ele>
        <time>2016-05-05T11:12:49Z</time>
      </trkpt>
      <trkpt lat="45.93049" lon="5.8299">
        <ele>311.28</ele>
        <time>2016-05-05T11:13:01Z</time>
      </trkpt>
      <trkpt lat="45.92968" lon="5.83045">
        <ele>311.84</ele>
        <time>2016-05-05T11:13:19Z</time>
      </trkpt>
      <trkpt lat="45.92874" lon="5.83109">
        <ele>312.26</ele>
        <time>2016-05-05T11:13:39Z</time>
      </trkpt>
      <trkpt lat="45.92852" lon="5.8313">
        <ele>312.68</ele>
        <time>2016-05-05T11:13:44Z</time>
      </trkpt>
      <trkpt lat="45.92848" lon="5.83135">
        <ele>312.71</ele>
        <time>2016-05-05T11:13:45Z</time>
      </trkpt>
      <trkpt lat="45.92794" lon="5.8325">
        <ele>312.32</ele>
        <time>2016-05-05T11:14:02Z</time>
      </trkpt>
      <trkpt lat="45.92747" lon="5.83362">
        <ele>311.63</ele>
        <time>2016-05-05T11:14:17Z</time>
      </trkpt>
      <trkpt lat="45.92731" lon="5.834">
        <ele>311.3</ele>
        <time>2016-05-05T11:14:22Z</time>
      </trkpt>
      <trkpt lat="45.92726" lon="5.83407">
        <ele>311.22</ele>
        <time>2016-05-05T11:14:23Z</time>
      </trkpt>
      <trkpt lat="45.92722" lon="5.83413">
        <ele>311.12</ele>
        <time>2016-05-05T11:14:24Z</time>
      </trkpt>
      <trkpt lat="45.92717" lon="5.83419">
        <ele>310.99</ele>
        <time>2016-05-05T11:14:25Z</time>
      </trkpt>
      <trkpt lat="45.92711" lon="5.83424">
        <ele>310.72</ele>
        <time>2016-05-05T11:14:26Z</time>
      </trkpt>
      <trkpt lat="45.92705" lon="5.83428">
        <ele>310.55</ele>
        <time>2016-05-05T11:14:27Z</time>
      </trkpt>
      <trkpt lat="45.927" lon="5.83431">
        <ele>310.34</ele>
        <time>2016-05-05T11:14:28Z</time>
      </trkpt>
      <trkpt lat="45.92694" lon="5.83433">
        <ele>310.13</ele>
        <time>2016-05-05T11:14:29Z</time>
      </trkpt>
      <trkpt lat="45.92687" lon="5.83433">
        <ele>309.93</ele>
        <time>2016-05-05T11:14:30Z</time>
      </trkpt>
      <trkpt lat="45.9268" lon="5.83433">
        <ele>309.76</ele>
        <time>2016-05-05T11:14:31Z</time>
      </trkpt>
      <trkpt lat="45.92674" lon="5.83432">
        <ele>309.59</ele>
        <time>2016-05-05T11:14:32Z</time>
      </trkpt>
      <trkpt lat="45.92573" lon="5.83417">
        <ele>307.84</ele>
        <time>2016-05-05T11:14:47Z</time>
      </trkpt>
      <trkpt lat="45.92481" lon="5.83447">
        <ele>306.81</ele>
        <time>2016-05-05T11:15:02Z</time>
      </trkpt>
      <trkpt lat="45.92357" lon="5.83497">
        <ele>305.66</ele>
        <time>2016-05-05T11:15:21Z</time>
      </trkpt>
      <trkpt lat="45.92344" lon="5.83506">
        <ele>305.59</ele>
        <time>2016-05-05T11:15:23Z</time>
      </trkpt>
      <trkpt lat="45.92338" lon="5.83512">
        <ele>305.58</ele>
        <time>2016-05-05T11:15:24Z</time>
      </trkpt>
      <trkpt lat="45.92333" lon="5.8352">
        <ele>305.57</ele>
        <time>2016-05-05T11:15:25Z</time>
      </trkpt>
      <trkpt lat="45.92329" lon="5.83528">
        <ele>305.54</ele>
        <time>2016-05-05T11:15:26Z</time>
      </trkpt>
      <trkpt lat="45.92325" lon="5.83537">
        <ele>305.49</ele>
        <time>2016-05-05T11:15:27Z</time>
      </trkpt>
      <trkpt lat="45.92322" lon="5.83547">
        <ele>305.45</ele>
        <time>2016-05-05T11:15:28Z</time>
      </trkpt>
      <trkpt lat="45.9232" lon="5.83558">
        <ele>305.39</ele>
        <time>2016-05-05T11:15:29Z</time>
      </trkpt>
      <trkpt lat="45.9229" lon="5.83697">
        <ele>302.83</ele>
        <time>2016-05-05T11:15:41Z</time>
      </trkpt>
      <trkpt lat="45.92286" lon="5.83707">
        <ele>302.51</ele>
        <time>2016-05-05T11:15:42Z</time>
      </trkpt>
      <trkpt lat="45.92281" lon="5.83717">
        <ele>302.19</ele>
        <time>2016-05-05T11:15:43Z</time>
      </trkpt>
      <trkpt lat="45.92275" lon="5.83727">
        <ele>301.9</ele>
        <time>2016-05-05T11:15:44Z</time>
      </trkpt>
      <trkpt lat="45.92269" lon="5.83736">
        <ele>301.62</ele>
        <time>2016-05-05T11:15:45Z</time>
      </trkpt>
      <trkpt lat="45.92263" lon="5.83743">
        <ele>301.33</ele>
        <time>2016-05-05T11:15:46Z</time>
      </trkpt>
      <trkpt lat="45.92256" lon="5.8375">
        <ele>301.04</ele>
        <time>2016-05-05T11:15:47Z</time>
      </trkpt>
      <trkpt lat="45.92249" lon="5.83756">
        <ele>300.76</ele>
        <time>2016-05-05T11:15:48Z</time>
      </trkpt>
      <trkpt lat="45.92241" lon="5.83761">
        <ele>300.52</ele>
        <time>2016-05-05T11:15:49Z</time>
      </trkpt>
      <trkpt lat="45.92233" lon="5.83765">
        <ele>300.3</ele>
        <time>2016-05-05T11:15:50Z</time>
      </trkpt>
      <trkpt lat="45.92225" lon="5.83768">
        <ele>300.1</ele>
        <time>2016-05-05T11:15:51Z</time>
      </trkpt>
      <trkpt lat="45.92217" lon="5.8377">
        <ele>299.88</ele>
        <time>2016-05-05T11:15:52Z</time>
      </trkpt>
      <trkpt lat="45.921" lon="5.83795">
        <ele>296.87</ele>
        <time>2016-05-05T11:16:06Z</time>
      </trkpt>
      <trkpt lat="45.9196" lon="5.83826">
        <ele>294.2</ele>
        <time>2016-05-05T11:16:23Z</time>
      </trkpt>
      <trkpt lat="45.91871" lon="5.83862">
        <ele>293.95</ele>
        <time>2016-05-05T11:16:35Z</time>
      </trkpt>
      <trkpt lat="45.91835" lon="5.83879">
        <ele>293.66</ele>
        <time>2016-05-05T11:16:40Z</time>
      </trkpt>
      <trkpt lat="45.91772" lon="5.83888">
        <ele>294.62</ele>
        <time>2016-05-05T11:16:50Z</time>
      </trkpt>
      <trkpt lat="45.91698" lon="5.83907">
        <ele>297.26</ele>
        <time>2016-05-05T11:17:04Z</time>
      </trkpt>
      <trkpt lat="45.91618" lon="5.83917">
        <ele>299.76</ele>
        <time>2016-05-05T11:17:21Z</time>
      </trkpt>
      <trkpt lat="45.9152" lon="5.83936">
        <ele>301.53</ele>
        <time>2016-05-05T11:17:41Z</time>
      </trkpt>
      <trkpt lat="45.91391" lon="5.83952">
        <ele>302.59</ele>
        <time>2016-05-05T11:18:04Z</time>
      </trkpt>
      <trkpt lat="45.91274" lon="5.83935">
        <ele>304.2</ele>
        <time>2016-05-05T11:18:23Z</time>
      </trkpt>
      <trkpt lat="45.91188" lon="5.83936">
        <ele>303.43</ele>
        <time>2016-05-05T11:18:35Z</time>
      </trkpt>
      <trkpt lat="45.9118" lon="5.83941">
        <ele>303.17</ele>
        <time>2016-05-05T11:18:36Z</time>
      </trkpt>
      <trkpt lat="45.91171" lon="5.83946">
        <ele>302.89</ele>
        <time>2016-05-05T11:18:37Z</time>
      </trkpt>
      <trkpt lat="45.91136" lon="5.83971">
        <ele>301.46</ele>
        <time>2016-05-05T11:18:41Z</time>
      </trkpt>
      <trkpt lat="45.91126" lon="5.83974">
        <ele>300.94</ele>
        <time>2016-05-05T11:18:42Z</time>
      </trkpt>
      <trkpt lat="45.91116" lon="5.83977">
        <ele>300.44</ele>
        <time>2016-05-05T11:18:43Z</time>
      </trkpt>
      <trkpt lat="45.91105" lon="5.83977">
        <ele>299.95</ele>
        <time>2016-05-05T11:18:44Z</time>
      </trkpt>
      <trkpt lat="45.91094" lon="5.83975">
        <ele>299.44</ele>
        <time>2016-05-05T11:18:45Z</time>
      </trkpt>
      <trkpt lat="45.91038" lon="5.83969">
        <ele>296.25</ele>
        <time>2016-05-05T11:18:50Z</time>
      </trkpt>
      <trkpt lat="45.9098" lon="5.83962">
        <ele>293.18</ele>
        <time>2016-05-05T11:18:55Z</time>
      </trkpt>
      <trkpt lat="45.90923" lon="5.83951">
        <ele>289.73</ele>
        <time>2016-05-05T11:19:00Z</time>
      </trkpt>
      <trkpt lat="45.90863" lon="5.83949">
        <ele>286.62</ele>
        <time>2016-05-05T11:19:05Z</time>
      </trkpt>
      <trkpt lat="45.90815" lon="5.83953">
        <ele>283.06</ele>
        <time>2016-05-05T11:19:09Z</time>
      </trkpt>
      <trkpt lat="45.90743" lon="5.83959">
        <ele>279.77</ele>
        <time>2016-05-05T11:19:15Z</time>
      </trkpt>
      <trkpt lat="45.9066" lon="5.83968">
        <ele>276.54</ele>
        <time>2016-05-05T11:19:22Z</time>
      </trkpt>
      <trkpt lat="45.90574" lon="5.83975">
        <ele>273.01</ele>
        <time>2016-05-05T11:19:29Z</time>
      </trkpt>
      <trkpt lat="45.90507" lon="5.83979">
        <ele>269.89</ele>
        <time>2016-05-05T11:19:35Z</time>
      </trkpt>
      <trkpt lat="45.90396" lon="5.83991">
        <ele>266.82</ele>
        <time>2016-05-05T11:19:46Z</time>
      </trkpt>
      <trkpt lat="45.90252" lon="5.8403">
        <ele>265.07</ele>
        <time>2016-05-05T11:20:02Z</time>
      </trkpt>
      <trkpt lat="45.90155" lon="5.84057">
        <ele>264.74</ele>
        <time>2016-05-05T11:20:14Z</time>
      </trkpt>
      <trkpt lat="45.90017" lon="5.84095">
        <ele>265.26</ele>
        <time>2016-05-05T11:20:32Z</time>
      </trkpt>
      <trkpt lat="45.89868" lon="5.84138">
        <ele>265.14</ele>
        <time>2016-05-05T11:20:53Z</time>
      </trkpt>
      <trkpt lat="45.89723" lon="5.84179">
        <ele>265.02</ele>
        <time>2016-05-05T11:21:13Z</time>
      </trkpt>
      <trkpt lat="45.8959" lon="5.84217">
        <ele>264.76</ele>
        <time>2016-05-05T11:21:31Z</time>
      </trkpt>
      <trkpt lat="45.89449" lon="5.84258">
        <ele>264.8</ele>
        <time>2016-05-05T11:21:51Z</time>
      </trkpt>
      <trkpt lat="45.89343" lon="5.84284">
        <ele>265.9</ele>
        <time>2016-05-05T11:22:08Z</time>
      </trkpt>
      <trkpt lat="45.89277" lon="5.84308">
        <ele>266.33</ele>
        <time>2016-05-05T11:22:20Z</time>
      </trkpt>
      <trkpt lat="45.89195" lon="5.84329">
        <ele>266.96</ele>
        <time>2016-05-05T11:22:36Z</time>
      </trkpt>
      <trkpt lat="45.89173" lon="5.84333">
        <ele>267.06</ele>
        <time>2016-05-05T11:22:41Z</time>
      </trkpt>
      <trkpt lat="45.89169" lon="5.84335">
        <ele>267.07</ele>
        <time>2016-05-05T11:22:42Z</time>
      </trkpt>
      <trkpt lat="45.89164" lon="5.84336">
        <ele>267.1</ele>
        <time>2016-05-05T11:22:43Z</time>
      </trkpt>
      <trkpt lat="45.8916" lon="5.84338">
        <ele>267.12</ele>
        <time>2016-05-05T11:22:44Z</time>
      </trkpt>
      <trkpt lat="45.89155" lon="5.84338">
        <ele>267.17</ele>
        <time>2016-05-05T11:22:45Z</time>
      </trkpt>
      <trkpt lat="45.8915" lon="5.84337">
        <ele>267.23</ele>
        <time>2016-05-05T11:22:46Z</time>
      </trkpt>
      <trkpt lat="45.89145" lon="5.84336">
        <ele>267.32</ele>
        <time>2016-05-05T11:22:47Z</time>
      </trkpt>
      <trkpt lat="45.89064" lon="5.8431">
        <ele>266.66</ele>
        <time>2016-05-05T11:23:01Z</time>
      </trkpt>
      <trkpt lat="45.89019" lon="5.843">
        <ele>266.25</ele>
        <time>2016-05-05T11:23:10Z</time>
      </trkpt>
      <trkpt lat="45.89006" lon="5.84298">
        <ele>266.19</ele>
        <time>2016-05-05T11:23:13Z</time>
      </trkpt>
      <trkpt lat="45.89003" lon="5.84296">
        <ele>266.17</ele>
        <time>2016-05-05T11:23:14Z</time>
      </trkpt>
      <trkpt lat="45.89" lon="5.84292">
        <ele>266.15</ele>
        <time>2016-05-05T11:23:15Z</time>
      </trkpt>
      <trkpt lat="45.88998" lon="5.84286">
        <ele>266.11</ele>
        <time>2016-05-05T11:23:16Z</time>
      </trkpt>
      <trkpt lat="45.88998" lon="5.84278">
        <ele>266.01</ele>
        <time>2016-05-05T11:23:17Z</time>
      </trkpt>
      <trkpt lat="45.88997" lon="5.8427">
        <ele>265.88</ele>
        <time>2016-05-05T11:23:18Z</time>
      </trkpt>
      <trkpt lat="45.88995" lon="5.84253">
        <ele>265.49</ele>
        <time>2016-05-05T11:23:20Z</time>
      </trkpt>
      <trkpt lat="45.88994" lon="5.84245">
        <ele>265.27</ele>
        <time>2016-05-05T11:23:21Z</time>
      </trkpt>
      <trkpt lat="45.88993" lon="5.84236">
        <ele>265.01</ele>
        <time>2016-05-05T11:23:22Z</time>
      </trkpt>
      <trkpt lat="45.88987" lon="5.84184">
        <ele>263.89</ele>
        <time>2016-05-05T11:23:28Z</time>
      </trkpt>
      <trkpt lat="45.88976" lon="5.84062">
        <ele>262.04</ele>
        <time>2016-05-05T11:23:42Z</time>
      </trkpt>
      <trkpt lat="45.88974" lon="5.8404">
        <ele>261.97</ele>
        <time>2016-05-05T11:23:45Z</time>
      </trkpt>
      <trkpt lat="45.88972" lon="5.84034">
        <ele>262</ele>
        <time>2016-05-05T11:23:46Z</time>
      </trkpt>
      <trkpt lat="45.88968" lon="5.8403">
        <ele>262.04</ele>
        <time>2016-05-05T11:23:47Z</time>
      </trkpt>
      <trkpt lat="45.88963" lon="5.84029">
        <ele>262.09</ele>
        <time>2016-05-05T11:23:48Z</time>
      </trkpt>
      <trkpt lat="45.88958" lon="5.84028">
        <ele>262.15</ele>
        <time>2016-05-05T11:23:49Z</time>
      </trkpt>
      <trkpt lat="45.88872" lon="5.8403">
        <ele>262.13</ele>
        <time>2016-05-05T11:24:04Z</time>
      </trkpt>
      <trkpt lat="45.88763" lon="5.8403">
        <ele>262</ele>
        <time>2016-05-05T11:24:22Z</time>
      </trkpt>
      <trkpt lat="45.88701" lon="5.84027">
        <ele>261.77</ele>
        <time>2016-05-05T11:24:32Z</time>
      </trkpt>
      <trkpt lat="45.88695" lon="5.84029">
        <ele>261.75</ele>
        <time>2016-05-05T11:24:33Z</time>
      </trkpt>
      <trkpt lat="45.88689" lon="5.84033">
        <ele>261.72</ele>
        <time>2016-05-05T11:24:34Z</time>
      </trkpt>
      <trkpt lat="45.88678" lon="5.84041">
        <ele>261.71</ele>
        <time>2016-05-05T11:24:36Z</time>
      </trkpt>
      <trkpt lat="45.88672" lon="5.84041">
        <ele>261.69</ele>
        <time>2016-05-05T11:24:37Z</time>
      </trkpt>
      <trkpt lat="45.88654" lon="5.84041">
        <ele>261.67</ele>
        <time>2016-05-05T11:24:40Z</time>
      </trkpt>
      <trkpt lat="45.88649" lon="5.84039">
        <ele>261.66</ele>
        <time>2016-05-05T11:24:41Z</time>
      </trkpt>
      <trkpt lat="45.88645" lon="5.84036">
        <ele>261.62</ele>
        <time>2016-05-05T11:24:42Z</time>
      </trkpt>
      <trkpt lat="45.88641" lon="5.8403">
        <ele>261.61</ele>
        <time>2016-05-05T11:24:43Z</time>
      </trkpt>
      <trkpt lat="45.88638" lon="5.84024">
        <ele>261.63</ele>
        <time>2016-05-05T11:24:44Z</time>
      </trkpt>
      <trkpt lat="45.88636" lon="5.84017">
        <ele>261.64</ele>
        <time>2016-05-05T11:24:45Z</time>
      </trkpt>
      <trkpt lat="45.88626" lon="5.83998">
        <ele>261.79</ele>
        <time>2016-05-05T11:24:48Z</time>
      </trkpt>
      <trkpt lat="45.88623" lon="5.83992">
        <ele>261.83</ele>
        <time>2016-05-05T11:24:49Z</time>
      </trkpt>
      <trkpt lat="45.88619" lon="5.83987">
        <ele>261.87</ele>
        <time>2016-05-05T11:24:50Z</time>
      </trkpt>
      <trkpt lat="45.88614" lon="5.83982">
        <ele>261.92</ele>
        <time>2016-05-05T11:24:51Z</time>
      </trkpt>
      <trkpt lat="45.88609" lon="5.83979">
        <ele>261.93</ele>
        <time>2016-05-05T11:24:52Z</time>
      </trkpt>
      <trkpt lat="45.88604" lon="5.83976">
        <ele>261.94</ele>
        <time>2016-05-05T11:24:53Z</time>
      </trkpt>
      <trkpt lat="45.88598" lon="5.83974">
        <ele>261.94</ele>
        <time>2016-05-05T11:24:54Z</time>
      </trkpt>
      <trkpt lat="45.88547" lon="5.8395">
        <ele>261.73</ele>
        <time>2016-05-05T11:25:03Z</time>
      </trkpt>
      <trkpt lat="45.88542" lon="5.83945">
        <ele>261.7</ele>
        <time>2016-05-05T11:25:04Z</time>
      </trkpt>
      <trkpt lat="45.88538" lon="5.83939">
        <ele>261.67</ele>
        <time>2016-05-05T11:25:05Z</time>
      </trkpt>
      <trkpt lat="45.88534" lon="5.83931">
        <ele>261.67</ele>
        <time>2016-05-05T11:25:06Z</time>
      </trkpt>
      <trkpt lat="45.88531" lon="5.83923">
        <ele>261.66</ele>
        <time>2016-05-05T11:25:07Z</time>
      </trkpt>
      <trkpt lat="45.88529" lon="5.83915">
        <ele>261.65</ele>
        <time>2016-05-05T11:25:08Z</time>
      </trkpt>
      <trkpt lat="45.88527" lon="5.83906">
        <ele>261.63</ele>
        <time>2016-05-05T11:25:09Z</time>
      </trkpt>
      <trkpt lat="45.88517" lon="5.83814">
        <ele>261.67</ele>
        <time>2016-05-05T11:25:20Z</time>
      </trkpt>
      <trkpt lat="45.885" lon="5.83685">
        <ele>261.93</ele>
        <time>2016-05-05T11:25:37Z</time>
      </trkpt>
      <trkpt lat="45.88496" lon="5.83679">
        <ele>261.95</ele>
        <time>2016-05-05T11:25:38Z</time>
      </trkpt>
      <trkpt lat="45.88491" lon="5.83674">
        <ele>261.98</ele>
        <time>2016-05-05T11:25:39Z</time>
      </trkpt>
      <trkpt lat="45.88486" lon="5.83669">
        <ele>262</ele>
        <time>2016-05-05T11:25:40Z</time>
      </trkpt>
      <trkpt lat="45.8848" lon="5.83667">
        <ele>262</ele>
        <time>2016-05-05T11:25:41Z</time>
      </trkpt>
      <trkpt lat="45.88474" lon="5.83665">
        <ele>261.97</ele>
        <time>2016-05-05T11:25:42Z</time>
      </trkpt>
      <trkpt lat="45.88469" lon="5.83663">
        <ele>261.96</ele>
        <time>2016-05-05T11:25:43Z</time>
      </trkpt>
      <trkpt lat="45.88426" lon="5.83655">
        <ele>261.87</ele>
        <time>2016-05-05T11:25:50Z</time>
      </trkpt>
      <trkpt lat="45.88421" lon="5.83652">
        <ele>261.87</ele>
        <time>2016-05-05T11:25:51Z</time>
      </trkpt>
      <trkpt lat="45.88416" lon="5.83647">
        <ele>261.85</ele>
        <time>2016-05-05T11:25:52Z</time>
      </trkpt>
      <trkpt lat="45.88411" lon="5.8364">
        <ele>261.86</ele>
        <time>2016-05-05T11:25:53Z</time>
      </trkpt>
      <trkpt lat="45.88408" lon="5.83633">
        <ele>261.85</ele>
        <time>2016-05-05T11:25:54Z</time>
      </trkpt>
      <trkpt lat="45.88405" lon="5.83625">
        <ele>261.84</ele>
        <time>2016-05-05T11:25:55Z</time>
      </trkpt>
      <trkpt lat="45.88402" lon="5.83617">
        <ele>261.81</ele>
        <time>2016-05-05T11:25:56Z</time>
      </trkpt>
      <trkpt lat="45.88396" lon="5.83603">
        <ele>261.7</ele>
        <time>2016-05-05T11:25:58Z</time>
      </trkpt>
      <trkpt lat="45.88392" lon="5.83598">
        <ele>261.64</ele>
        <time>2016-05-05T11:25:59Z</time>
      </trkpt>
      <trkpt lat="45.88387" lon="5.83594">
        <ele>261.59</ele>
        <time>2016-05-05T11:26:00Z</time>
      </trkpt>
      <trkpt lat="45.88381" lon="5.83591">
        <ele>261.55</ele>
        <time>2016-05-05T11:26:01Z</time>
      </trkpt>
      <trkpt lat="45.88374" lon="5.8359">
        <ele>261.52</ele>
        <time>2016-05-05T11:26:02Z</time>
      </trkpt>
      <trkpt lat="45.88368" lon="5.8359">
        <ele>261.51</ele>
        <time>2016-05-05T11:26:03Z</time>
      </trkpt>
      <trkpt lat="45.88362" lon="5.83591">
        <ele>261.51</ele>
        <time>2016-05-05T11:26:04Z</time>
      </trkpt>
      <trkpt lat="45.88342" lon="5.8359">
        <ele>261.54</ele>
        <time>2016-05-05T11:26:07Z</time>
      </trkpt>
      <trkpt lat="45.88336" lon="5.83588">
        <ele>261.52</ele>
        <time>2016-05-05T11:26:08Z</time>
      </trkpt>
      <trkpt lat="45.8833" lon="5.83584">
        <ele>261.46</ele>
        <time>2016-05-05T11:26:09Z</time>
      </trkpt>
      <trkpt lat="45.88324" lon="5.8358">
        <ele>261.39</ele>
        <time>2016-05-05T11:26:10Z</time>
      </trkpt>
      <trkpt lat="45.88319" lon="5.83574">
        <ele>261.3</ele>
        <time>2016-05-05T11:26:11Z</time>
      </trkpt>
      <trkpt lat="45.88314" lon="5.83568">
        <ele>261.22</ele>
        <time>2016-05-05T11:26:12Z</time>
      </trkpt>
      <trkpt lat="45.8831" lon="5.83561">
        <ele>261.11</ele>
        <time>2016-05-05T11:26:13Z</time>
      </trkpt>
      <trkpt lat="45.88306" lon="5.83554">
        <ele>260.98</ele>
        <time>2016-05-05T11:26:14Z</time>
      </trkpt>
      <trkpt lat="45.88302" lon="5.83546">
        <ele>260.88</ele>
        <time>2016-05-05T11:26:15Z</time>
      </trkpt>
      <trkpt lat="45.88277" lon="5.83497">
        <ele>261</ele>
        <time>2016-05-05T11:26:22Z</time>
      </trkpt>
      <trkpt lat="45.88272" lon="5.83491">
        <ele>261.1</ele>
        <time>2016-05-05T11:26:23Z</time>
      </trkpt>
      <trkpt lat="45.88267" lon="5.83486">
        <ele>261.2</ele>
        <time>2016-05-05T11:26:24Z</time>
      </trkpt>
      <trkpt lat="45.88261" lon="5.83482">
        <ele>261.28</ele>
        <time>2016-05-05T11:26:25Z</time>
      </trkpt>
      <trkpt lat="45.88256" lon="5.83478">
        <ele>261.36</ele>
        <time>2016-05-05T11:26:26Z</time>
      </trkpt>
      <trkpt lat="45.88174" lon="5.83434">
        <ele>261.79</ele>
        <time>2016-05-05T11:26:40Z</time>
      </trkpt>
      <trkpt lat="45.88169" lon="5.83432">
        <ele>261.79</ele>
        <time>2016-05-05T11:26:41Z</time>
      </trkpt>
      <trkpt lat="45.88085" lon="5.83394">
        <ele>261.29</ele>
        <time>2016-05-05T11:26:56Z</time>
      </trkpt>
      <trkpt lat="45.8808" lon="5.83392">
        <ele>261.28</ele>
        <time>2016-05-05T11:26:57Z</time>
      </trkpt>
      <trkpt lat="45.88074" lon="5.83389">
        <ele>261.27</ele>
        <time>2016-05-05T11:26:58Z</time>
      </trkpt>
      <trkpt lat="45.88069" lon="5.83385">
        <ele>261.25</ele>
        <time>2016-05-05T11:26:59Z</time>
      </trkpt>
      <trkpt lat="45.88048" lon="5.83372">
        <ele>261.18</ele>
        <time>2016-05-05T11:27:03Z</time>
      </trkpt>
      <trkpt lat="45.88042" lon="5.83371">
        <ele>261.15</ele>
        <time>2016-05-05T11:27:04Z</time>
      </trkpt>
      <trkpt lat="45.88036" lon="5.8337">
        <ele>261.17</ele>
        <time>2016-05-05T11:27:05Z</time>
      </trkpt>
      <trkpt lat="45.87944" lon="5.83358">
        <ele>261.04</ele>
        <time>2016-05-05T11:27:20Z</time>
      </trkpt>
      <trkpt lat="45.87882" lon="5.83354">
        <ele>260.78</ele>
        <time>2016-05-05T11:27:30Z</time>
      </trkpt>
      <trkpt lat="45.87876" lon="5.83352">
        <ele>260.76</ele>
        <time>2016-05-05T11:27:31Z</time>
      </trkpt>
      <trkpt lat="45.8787" lon="5.83348">
        <ele>260.74</ele>
        <time>2016-05-05T11:27:32Z</time>
      </trkpt>
      <trkpt lat="45.87865" lon="5.83343">
        <ele>260.69</ele>
        <time>2016-05-05T11:27:33Z</time>
      </trkpt>
      <trkpt lat="45.87862" lon="5.83336">
        <ele>260.61</ele>
        <time>2016-05-05T11:27:34Z</time>
      </trkpt>
      <trkpt lat="45.8786" lon="5.83329">
        <ele>260.53</ele>
        <time>2016-05-05T11:27:35Z</time>
      </trkpt>
      <trkpt lat="45.87857" lon="5.83321">
        <ele>260.42</ele>
        <time>2016-05-05T11:27:36Z</time>
      </trkpt>
      <trkpt lat="45.87855" lon="5.83314">
        <ele>260.34</ele>
        <time>2016-05-05T11:27:37Z</time>
      </trkpt>
      <trkpt lat="45.87848" lon="5.83285">
        <ele>260.09</ele>
        <time>2016-05-05T11:27:41Z</time>
      </trkpt>
      <trkpt lat="45.87846" lon="5.83278">
        <ele>260.05</ele>
        <time>2016-05-05T11:27:42Z</time>
      </trkpt>
      <trkpt lat="45.87844" lon="5.83271">
        <ele>260.04</ele>
        <time>2016-05-05T11:27:43Z</time>
      </trkpt>
      <trkpt lat="45.87842" lon="5.83264">
        <ele>260.04</ele>
        <time>2016-05-05T11:27:44Z</time>
      </trkpt>
      <trkpt lat="45.8784" lon="5.83256">
        <ele>260.05</ele>
        <time>2016-05-05T11:27:45Z</time>
      </trkpt>
      <trkpt lat="45.87838" lon="5.8325">
        <ele>260.06</ele>
        <time>2016-05-05T11:27:46Z</time>
      </trkpt>
      <trkpt lat="45.87836" lon="5.83243">
        <ele>260.08</ele>
        <time>2016-05-05T11:27:47Z</time>
      </trkpt>
      <trkpt lat="45.87818" lon="5.83193">
        <ele>260.35</ele>
        <time>2016-05-05T11:27:54Z</time>
      </trkpt>
      <trkpt lat="45.87816" lon="5.83186">
        <ele>260.39</ele>
        <time>2016-05-05T11:27:55Z</time>
      </trkpt>
      <trkpt lat="45.87815" lon="5.83178">
        <ele>260.39</ele>
        <time>2016-05-05T11:27:56Z</time>
      </trkpt>
      <trkpt lat="45.87814" lon="5.83171">
        <ele>260.39</ele>
        <time>2016-05-05T11:27:57Z</time>
      </trkpt>
      <trkpt lat="45.87813" lon="5.83163">
        <ele>260.38</ele>
        <time>2016-05-05T11:27:58Z</time>
      </trkpt>
      <trkpt lat="45.87812" lon="5.83147">
        <ele>260.34</ele>
        <time>2016-05-05T11:28:00Z</time>
      </trkpt>
      <trkpt lat="45.87812" lon="5.83138">
        <ele>260.31</ele>
        <time>2016-05-05T11:28:01Z</time>
      </trkpt>
      <trkpt lat="45.87813" lon="5.83131">
        <ele>260.26</ele>
        <time>2016-05-05T11:28:02Z</time>
      </trkpt>
      <trkpt lat="45.87814" lon="5.83123">
        <ele>260.21</ele>
        <time>2016-05-05T11:28:03Z</time>
      </trkpt>
      <trkpt lat="45.87816" lon="5.83116">
        <ele>260.19</ele>
        <time>2016-05-05T11:28:04Z</time>
      </trkpt>
      <trkpt lat="45.87818" lon="5.83109">
        <ele>260.17</ele>
        <time>2016-05-05T11:28:05Z</time>
      </trkpt>
      <trkpt lat="45.87821" lon="5.83103">
        <ele>260.13</ele>
        <time>2016-05-05T11:28:06Z</time>
      </trkpt>
      <trkpt lat="45.87825" lon="5.83097">
        <ele>260.1</ele>
        <time>2016-05-05T11:28:07Z</time>
      </trkpt>
      <trkpt lat="45.87831" lon="5.83086">
        <ele>260.02</ele>
        <time>2016-05-05T11:28:09Z</time>
      </trkpt>
      <trkpt lat="45.87862" lon="5.83042">
        <ele>260.55</ele>
        <time>2016-05-05T11:28:18Z</time>
      </trkpt>
      <trkpt lat="45.87869" lon="5.83031">
        <ele>260.86</ele>
        <time>2016-05-05T11:28:20Z</time>
      </trkpt>
      <trkpt lat="45.87871" lon="5.83026">
        <ele>260.95</ele>
        <time>2016-05-05T11:28:21Z</time>
      </trkpt>
      <trkpt lat="45.87874" lon="5.83018">
        <ele>261.01</ele>
        <time>2016-05-05T11:28:22Z</time>
      </trkpt>
      <trkpt lat="45.87876" lon="5.83011">
        <ele>261.09</ele>
        <time>2016-05-05T11:28:23Z</time>
      </trkpt>
      <trkpt lat="45.87877" lon="5.83003">
        <ele>261.12</ele>
        <time>2016-05-05T11:28:24Z</time>
      </trkpt>
      <trkpt lat="45.87878" lon="5.82995">
        <ele>261.15</ele>
        <time>2016-05-05T11:28:25Z</time>
      </trkpt>
      <trkpt lat="45.87878" lon="5.82987">
        <ele>261.19</ele>
        <time>2016-05-05T11:28:26Z</time>
      </trkpt>
      <trkpt lat="45.87878" lon="5.82978">
        <ele>261.22</ele>
        <time>2016-05-05T11:28:27Z</time>
      </trkpt>
      <trkpt lat="45.87878" lon="5.8297">
        <ele>261.24</ele>
        <time>2016-05-05T11:28:28Z</time>
      </trkpt>
      <trkpt lat="45.8787" lon="5.82826">
        <ele>260.88</ele>
        <time>2016-05-05T11:28:45Z</time>
      </trkpt>
      <trkpt lat="45.87866" lon="5.8276">
        <ele>260.69</ele>
        <time>2016-05-05T11:28:53Z</time>
      </trkpt>
      <trkpt lat="45.87865" lon="5.82751">
        <ele>260.69</ele>
        <time>2016-05-05T11:28:54Z</time>
      </trkpt>
      <trkpt lat="45.87864" lon="5.82727">
        <ele>260.76</ele>
        <time>2016-05-05T11:28:57Z</time>
      </trkpt>
      <trkpt lat="45.87863" lon="5.82719">
        <ele>260.8</ele>
        <time>2016-05-05T11:28:58Z</time>
      </trkpt>
      <trkpt lat="45.87858" lon="5.82676">
        <ele>260.97</ele>
        <time>2016-05-05T11:29:03Z</time>
      </trkpt>
      <trkpt lat="45.87855" lon="5.82632">
        <ele>260.86</ele>
        <time>2016-05-05T11:29:08Z</time>
      </trkpt>
      <trkpt lat="45.87854" lon="5.82623">
        <ele>260.81</ele>
        <time>2016-05-05T11:29:09Z</time>
      </trkpt>
      <trkpt lat="45.8785" lon="5.82591">
        <ele>260.62</ele>
        <time>2016-05-05T11:29:13Z</time>
      </trkpt>
      <trkpt lat="45.87848" lon="5.82584">
        <ele>260.58</ele>
        <time>2016-05-05T11:29:14Z</time>
      </trkpt>
      <trkpt lat="45.87846" lon="5.82576">
        <ele>260.53</ele>
        <time>2016-05-05T11:29:15Z</time>
      </trkpt>
      <trkpt lat="45.87843" lon="5.8257">
        <ele>260.45</ele>
        <time>2016-05-05T11:29:16Z</time>
      </trkpt>
      <trkpt lat="45.8784" lon="5.82564">
        <ele>260.38</ele>
        <time>2016-05-05T11:29:17Z</time>
      </trkpt>
      <trkpt lat="45.87836" lon="5.82557">
        <ele>260.33</ele>
        <time>2016-05-05T11:29:18Z</time>
      </trkpt>
      <trkpt lat="45.87831" lon="5.82552">
        <ele>260.3</ele>
        <time>2016-05-05T11:29:19Z</time>
      </trkpt>
      <trkpt lat="45.87826" lon="5.82548">
        <ele>260.31</ele>
        <time>2016-05-05T11:29:20Z</time>
      </trkpt>
      <trkpt lat="45.87821" lon="5.82543">
        <ele>260.32</ele>
        <time>2016-05-05T11:29:21Z</time>
      </trkpt>
      <trkpt lat="45.87795" lon="5.82521">
        <ele>260.48</ele>
        <time>2016-05-05T11:29:26Z</time>
      </trkpt>
      <trkpt lat="45.87792" lon="5.82515">
        <ele>260.5</ele>
        <time>2016-05-05T11:29:27Z</time>
      </trkpt>
      <trkpt lat="45.87788" lon="5.82508">
        <ele>260.54</ele>
        <time>2016-05-05T11:29:28Z</time>
      </trkpt>
      <trkpt lat="45.87785" lon="5.825">
        <ele>260.58</ele>
        <time>2016-05-05T11:29:29Z</time>
      </trkpt>
      <trkpt lat="45.87782" lon="5.82492">
        <ele>260.63</ele>
        <time>2016-05-05T11:29:30Z</time>
      </trkpt>
      <trkpt lat="45.87774" lon="5.82476">
        <ele>260.69</ele>
        <time>2016-05-05T11:29:32Z</time>
      </trkpt>
      <trkpt lat="45.87766" lon="5.82464">
        <ele>260.73</ele>
        <time>2016-05-05T11:29:34Z</time>
      </trkpt>
      <trkpt lat="45.87762" lon="5.82458">
        <ele>260.72</ele>
        <time>2016-05-05T11:29:35Z</time>
      </trkpt>
      <trkpt lat="45.87757" lon="5.82454">
        <ele>260.69</ele>
        <time>2016-05-05T11:29:36Z</time>
      </trkpt>
      <trkpt lat="45.87752" lon="5.82449">
        <ele>260.63</ele>
        <time>2016-05-05T11:29:37Z</time>
      </trkpt>
      <trkpt lat="45.87747" lon="5.82443">
        <ele>260.58</ele>
        <time>2016-05-05T11:29:38Z</time>
      </trkpt>
      <trkpt lat="45.87742" lon="5.82438">
        <ele>260.53</ele>
        <time>2016-05-05T11:29:39Z</time>
      </trkpt>
      <trkpt lat="45.87711" lon="5.82415">
        <ele>260.46</ele>
        <time>2016-05-05T11:29:45Z</time>
      </trkpt>
      <trkpt lat="45.87704" lon="5.82413">
        <ele>260.51</ele>
        <time>2016-05-05T11:29:46Z</time>
      </trkpt>
      <trkpt lat="45.87691" lon="5.82407">
        <ele>260.67</ele>
        <time>2016-05-05T11:29:48Z</time>
      </trkpt>
      <trkpt lat="45.87634" lon="5.82388">
        <ele>261.05</ele>
        <time>2016-05-05T11:29:57Z</time>
      </trkpt>
      <trkpt lat="45.87629" lon="5.82388">
        <ele>261.01</ele>
        <time>2016-05-05T11:29:58Z</time>
      </trkpt>
      <trkpt lat="45.87623" lon="5.82389">
        <ele>260.98</ele>
        <time>2016-05-05T11:29:59Z</time>
      </trkpt>
      <trkpt lat="45.87617" lon="5.82391">
        <ele>260.95</ele>
        <time>2016-05-05T11:30:00Z</time>
      </trkpt>
      <trkpt lat="45.87611" lon="5.82394">
        <ele>260.92</ele>
        <time>2016-05-05T11:30:01Z</time>
      </trkpt>
      <trkpt lat="45.87605" lon="5.82396">
        <ele>260.86</ele>
        <time>2016-05-05T11:30:02Z</time>
      </trkpt>
      <trkpt lat="45.87599" lon="5.82397">
        <ele>260.83</ele>
        <time>2016-05-05T11:30:03Z</time>
      </trkpt>
      <trkpt lat="45.87593" lon="5.82397">
        <ele>260.82</ele>
        <time>2016-05-05T11:30:04Z</time>
      </trkpt>
      <trkpt lat="45.87587" lon="5.82396">
        <ele>260.79</ele>
        <time>2016-05-05T11:30:05Z</time>
      </trkpt>
      <trkpt lat="45.8757" lon="5.82393">
        <ele>260.76</ele>
        <time>2016-05-05T11:30:08Z</time>
      </trkpt>
      <trkpt lat="45.87564" lon="5.8239">
        <ele>260.8</ele>
        <time>2016-05-05T11:30:09Z</time>
      </trkpt>
      <trkpt lat="45.87559" lon="5.82386">
        <ele>260.83</ele>
        <time>2016-05-05T11:30:10Z</time>
      </trkpt>
      <trkpt lat="45.87554" lon="5.82381">
        <ele>260.86</ele>
        <time>2016-05-05T11:30:11Z</time>
      </trkpt>
      <trkpt lat="45.87549" lon="5.82376">
        <ele>260.89</ele>
        <time>2016-05-05T11:30:12Z</time>
      </trkpt>
      <trkpt lat="45.87528" lon="5.82358">
        <ele>260.95</ele>
        <time>2016-05-05T11:30:16Z</time>
      </trkpt>
      <trkpt lat="45.87523" lon="5.82356">
        <ele>260.92</ele>
        <time>2016-05-05T11:30:17Z</time>
      </trkpt>
      <trkpt lat="45.87517" lon="5.82354">
        <ele>260.92</ele>
        <time>2016-05-05T11:30:18Z</time>
      </trkpt>
      <trkpt lat="45.87505" lon="5.82352">
        <ele>260.88</ele>
        <time>2016-05-05T11:30:20Z</time>
      </trkpt>
      <trkpt lat="45.87499" lon="5.82352">
        <ele>260.86</ele>
        <time>2016-05-05T11:30:21Z</time>
      </trkpt>
      <trkpt lat="45.87494" lon="5.82354">
        <ele>260.84</ele>
        <time>2016-05-05T11:30:22Z</time>
      </trkpt>
      <trkpt lat="45.87489" lon="5.82356">
        <ele>260.87</ele>
        <time>2016-05-05T11:30:23Z</time>
      </trkpt>
      <trkpt lat="45.87484" lon="5.8236">
        <ele>260.88</ele>
        <time>2016-05-05T11:30:24Z</time>
      </trkpt>
      <trkpt lat="45.87479" lon="5.82363">
        <ele>260.9</ele>
        <time>2016-05-05T11:30:25Z</time>
      </trkpt>
      <trkpt lat="45.87469" lon="5.82369">
        <ele>260.98</ele>
        <time>2016-05-05T11:30:27Z</time>
      </trkpt>
      <trkpt lat="45.87464" lon="5.82371">
        <ele>261.02</ele>
        <time>2016-05-05T11:30:28Z</time>
      </trkpt>
      <trkpt lat="45.87459" lon="5.82373">
        <ele>261.05</ele>
        <time>2016-05-05T11:30:29Z</time>
      </trkpt>
      <trkpt lat="45.87453" lon="5.82374">
        <ele>261.07</ele>
        <time>2016-05-05T11:30:30Z</time>
      </trkpt>
      <trkpt lat="45.87447" lon="5.82373">
        <ele>261.08</ele>
        <time>2016-05-05T11:30:31Z</time>
      </trkpt>
      <trkpt lat="45.87441" lon="5.82372">
        <ele>261.05</ele>
        <time>2016-05-05T11:30:32Z</time>
      </trkpt>
      <trkpt lat="45.87436" lon="5.82368">
        <ele>261.02</ele>
        <time>2016-05-05T11:30:33Z</time>
      </trkpt>
      <trkpt lat="45.87432" lon="5.82362">
        <ele>260.97</ele>
        <time>2016-05-05T11:30:34Z</time>
      </trkpt>
      <trkpt lat="45.87428" lon="5.82356">
        <ele>260.93</ele>
        <time>2016-05-05T11:30:35Z</time>
      </trkpt>
      <trkpt lat="45.87424" lon="5.82349">
        <ele>260.88</ele>
        <time>2016-05-05T11:30:36Z</time>
      </trkpt>
      <trkpt lat="45.874" lon="5.82299">
        <ele>260.68</ele>
        <time>2016-05-05T11:30:43Z</time>
      </trkpt>
      <trkpt lat="45.87395" lon="5.82293">
        <ele>260.68</ele>
        <time>2016-05-05T11:30:44Z</time>
      </trkpt>
      <trkpt lat="45.87391" lon="5.82287">
        <ele>260.69</ele>
        <time>2016-05-05T11:30:45Z</time>
      </trkpt>
      <trkpt lat="45.87383" lon="5.82274">
        <ele>260.83</ele>
        <time>2016-05-05T11:30:47Z</time>
      </trkpt>
      <trkpt lat="45.87364" lon="5.82251">
        <ele>260.93</ele>
        <time>2016-05-05T11:30:51Z</time>
      </trkpt>
      <trkpt lat="45.87355" lon="5.82239">
        <ele>260.93</ele>
        <time>2016-05-05T11:30:53Z</time>
      </trkpt>
      <trkpt lat="45.8735" lon="5.82234">
        <ele>260.92</ele>
        <time>2016-05-05T11:30:54Z</time>
      </trkpt>
      <trkpt lat="45.87314" lon="5.82181">
        <ele>261.04</ele>
        <time>2016-05-05T11:31:03Z</time>
      </trkpt>
      <trkpt lat="45.87309" lon="5.82175">
        <ele>261.07</ele>
        <time>2016-05-05T11:31:04Z</time>
      </trkpt>
      <trkpt lat="45.87304" lon="5.8217">
        <ele>261.08</ele>
        <time>2016-05-05T11:31:05Z</time>
      </trkpt>
      <trkpt lat="45.87299" lon="5.82166">
        <ele>261.11</ele>
        <time>2016-05-05T11:31:06Z</time>
      </trkpt>
      <trkpt lat="45.87293" lon="5.82163">
        <ele>261.12</ele>
        <time>2016-05-05T11:31:07Z</time>
      </trkpt>
      <trkpt lat="45.87287" lon="5.82161">
        <ele>261.12</ele>
        <time>2016-05-05T11:31:08Z</time>
      </trkpt>
      <trkpt lat="45.8727" lon="5.82156">
        <ele>261.23</ele>
        <time>2016-05-05T11:31:11Z</time>
      </trkpt>
      <trkpt lat="45.87259" lon="5.82155">
        <ele>261.28</ele>
        <time>2016-05-05T11:31:13Z</time>
      </trkpt>
      <trkpt lat="45.87254" lon="5.82156">
        <ele>261.31</ele>
        <time>2016-05-05T11:31:14Z</time>
      </trkpt>
      <trkpt lat="45.87245" lon="5.82159">
        <ele>261.35</ele>
        <time>2016-05-05T11:31:16Z</time>
      </trkpt>
      <trkpt lat="45.87241" lon="5.82163">
        <ele>261.35</ele>
        <time>2016-05-05T11:31:17Z</time>
      </trkpt>
      <trkpt lat="45.87238" lon="5.82168">
        <ele>261.33</ele>
        <time>2016-05-05T11:31:18Z</time>
      </trkpt>
      <trkpt lat="45.87234" lon="5.82171">
        <ele>261.31</ele>
        <time>2016-05-05T11:31:19Z</time>
      </trkpt>
      <trkpt lat="45.8723" lon="5.82172">
        <ele>261.27</ele>
        <time>2016-05-05T11:31:20Z</time>
      </trkpt>
      <trkpt lat="45.87228" lon="5.82173">
        <ele>261.22</ele>
        <time>2016-05-05T11:31:21Z</time>
      </trkpt>
      <trkpt lat="45.87214" lon="5.82168">
        <ele>260.85</ele>
        <time>2016-05-05T11:31:30Z</time>
      </trkpt>
      <trkpt lat="45.87197" lon="5.82163">
        <ele>260.92</ele>
        <time>2016-05-05T11:31:35Z</time>
      </trkpt>
      <trkpt lat="45.87179" lon="5.82156">
        <ele>260.82</ele>
        <time>2016-05-05T11:31:39Z</time>
      </trkpt>
      <trkpt lat="45.87175" lon="5.82154">
        <ele>260.8</ele>
        <time>2016-05-05T11:31:40Z</time>
      </trkpt>
      <trkpt lat="45.87171" lon="5.82152">
        <ele>260.79</ele>
        <time>2016-05-05T11:31:41Z</time>
      </trkpt>
      <trkpt lat="45.87166" lon="5.8215">
        <ele>260.79</ele>
        <time>2016-05-05T11:31:42Z</time>
      </trkpt>
      <trkpt lat="45.87162" lon="5.82148">
        <ele>260.76</ele>
        <time>2016-05-05T11:31:43Z</time>
      </trkpt>
      <trkpt lat="45.87109" lon="5.82129">
        <ele>261.17</ele>
        <time>2016-05-05T11:31:55Z</time>
      </trkpt>
      <trkpt lat="45.87069" lon="5.82119">
        <ele>261.18</ele>
        <time>2016-05-05T11:32:04Z</time>
      </trkpt>
      <trkpt lat="45.87038" lon="5.8212">
        <ele>261.09</ele>
        <time>2016-05-05T11:32:11Z</time>
      </trkpt>
      <trkpt lat="45.87023" lon="5.82118">
        <ele>261.1</ele>
        <time>2016-05-05T11:32:14Z</time>
      </trkpt>
      <trkpt lat="45.87018" lon="5.82117">
        <ele>261.11</ele>
        <time>2016-05-05T11:32:15Z</time>
      </trkpt>
      <trkpt lat="45.87013" lon="5.82117">
        <ele>261.12</ele>
        <time>2016-05-05T11:32:16Z</time>
      </trkpt>
      <trkpt lat="45.86969" lon="5.82113">
        <ele>261.21</ele>
        <time>2016-05-05T11:32:25Z</time>
      </trkpt>
      <trkpt lat="45.86943" lon="5.82106">
        <ele>260.83</ele>
        <time>2016-05-05T11:32:30Z</time>
      </trkpt>
      <trkpt lat="45.86938" lon="5.82104">
        <ele>260.78</ele>
        <time>2016-05-05T11:32:31Z</time>
      </trkpt>
      <trkpt lat="45.86933" lon="5.82103">
        <ele>260.74</ele>
        <time>2016-05-05T11:32:32Z</time>
      </trkpt>
      <trkpt lat="45.86924" lon="5.821">
        <ele>260.71</ele>
        <time>2016-05-05T11:32:34Z</time>
      </trkpt>
      <trkpt lat="45.86919" lon="5.82098">
        <ele>260.72</ele>
        <time>2016-05-05T11:32:35Z</time>
      </trkpt>
      <trkpt lat="45.8687" lon="5.82085">
        <ele>260.68</ele>
        <time>2016-05-05T11:32:44Z</time>
      </trkpt>
      <trkpt lat="45.86831" lon="5.82064">
        <ele>260.68</ele>
        <time>2016-05-05T11:32:51Z</time>
      </trkpt>
      <trkpt lat="45.86826" lon="5.8206">
        <ele>260.64</ele>
        <time>2016-05-05T11:32:52Z</time>
      </trkpt>
      <trkpt lat="45.86804" lon="5.82047">
        <ele>260.43</ele>
        <time>2016-05-05T11:32:57Z</time>
      </trkpt>
      <trkpt lat="45.86799" lon="5.82045">
        <ele>260.39</ele>
        <time>2016-05-05T11:32:58Z</time>
      </trkpt>
      <trkpt lat="45.86795" lon="5.82042">
        <ele>260.37</ele>
        <time>2016-05-05T11:32:59Z</time>
      </trkpt>
      <trkpt lat="45.86791" lon="5.82038">
        <ele>260.35</ele>
        <time>2016-05-05T11:33:00Z</time>
      </trkpt>
      <trkpt lat="45.86786" lon="5.82035">
        <ele>260.35</ele>
        <time>2016-05-05T11:33:01Z</time>
      </trkpt>
      <trkpt lat="45.86782" lon="5.82032">
        <ele>260.35</ele>
        <time>2016-05-05T11:33:02Z</time>
      </trkpt>
      <trkpt lat="45.86777" lon="5.8203">
        <ele>260.36</ele>
        <time>2016-05-05T11:33:03Z</time>
      </trkpt>
      <trkpt lat="45.86773" lon="5.82028">
        <ele>260.38</ele>
        <time>2016-05-05T11:33:04Z</time>
      </trkpt>
      <trkpt lat="45.86769" lon="5.82027">
        <ele>260.41</ele>
        <time>2016-05-05T11:33:05Z</time>
      </trkpt>
      <trkpt lat="45.86765" lon="5.82025">
        <ele>260.42</ele>
        <time>2016-05-05T11:33:06Z</time>
      </trkpt>
      <trkpt lat="45.86736" lon="5.82014">
        <ele>260.53</ele>
        <time>2016-05-05T11:33:15Z</time>
      </trkpt>
      <trkpt lat="45.86717" lon="5.82007">
        <ele>260.56</ele>
        <time>2016-05-05T11:33:19Z</time>
      </trkpt>
      <trkpt lat="45.86633" lon="5.81969">
        <ele>260.23</ele>
        <time>2016-05-05T11:33:34Z</time>
      </trkpt>
      <trkpt lat="45.86618" lon="5.81959">
        <ele>260.22</ele>
        <time>2016-05-05T11:33:37Z</time>
      </trkpt>
      <trkpt lat="45.86612" lon="5.81957">
        <ele>260.24</ele>
        <time>2016-05-05T11:33:38Z</time>
      </trkpt>
      <trkpt lat="45.86607" lon="5.81956">
        <ele>260.27</ele>
        <time>2016-05-05T11:33:39Z</time>
      </trkpt>
      <trkpt lat="45.86601" lon="5.81957">
        <ele>260.29</ele>
        <time>2016-05-05T11:33:40Z</time>
      </trkpt>
      <trkpt lat="45.86596" lon="5.81959">
        <ele>260.31</ele>
        <time>2016-05-05T11:33:41Z</time>
      </trkpt>
      <trkpt lat="45.86591" lon="5.81961">
        <ele>260.32</ele>
        <time>2016-05-05T11:33:42Z</time>
      </trkpt>
      <trkpt lat="45.86585" lon="5.81962">
        <ele>260.35</ele>
        <time>2016-05-05T11:33:43Z</time>
      </trkpt>
      <trkpt lat="45.8658" lon="5.81961">
        <ele>260.34</ele>
        <time>2016-05-05T11:33:44Z</time>
      </trkpt>
      <trkpt lat="45.86574" lon="5.81959">
        <ele>260.31</ele>
        <time>2016-05-05T11:33:45Z</time>
      </trkpt>
      <trkpt lat="45.86568" lon="5.81956">
        <ele>260.27</ele>
        <time>2016-05-05T11:33:46Z</time>
      </trkpt>
      <trkpt lat="45.86476" lon="5.81927">
        <ele>259.88</ele>
        <time>2016-05-05T11:34:02Z</time>
      </trkpt>
      <trkpt lat="45.86472" lon="5.8193">
        <ele>259.87</ele>
        <time>2016-05-05T11:34:03Z</time>
      </trkpt>
      <trkpt lat="45.86468" lon="5.81935">
        <ele>259.85</ele>
        <time>2016-05-05T11:34:04Z</time>
      </trkpt>
      <trkpt lat="45.86467" lon="5.81943">
        <ele>259.83</ele>
        <time>2016-05-05T11:34:05Z</time>
      </trkpt>
      <trkpt lat="45.86466" lon="5.81951">
        <ele>259.7</ele>
        <time>2016-05-05T11:34:06Z</time>
      </trkpt>
      <trkpt lat="45.86465" lon="5.81958">
        <ele>259.63</ele>
        <time>2016-05-05T11:34:07Z</time>
      </trkpt>
      <trkpt lat="45.86465" lon="5.81966">
        <ele>259.57</ele>
        <time>2016-05-05T11:34:08Z</time>
      </trkpt>
      <trkpt lat="45.86464" lon="5.81973">
        <ele>259.55</ele>
        <time>2016-05-05T11:34:09Z</time>
      </trkpt>
      <trkpt lat="45.86459" lon="5.82025">
        <ele>259.47</ele>
        <time>2016-05-05T11:34:16Z</time>
      </trkpt>
      <trkpt lat="45.86457" lon="5.82033">
        <ele>259.45</ele>
        <time>2016-05-05T11:34:17Z</time>
      </trkpt>
      <trkpt lat="45.86454" lon="5.82049">
        <ele>259.42</ele>
        <time>2016-05-05T11:34:19Z</time>
      </trkpt>
      <trkpt lat="45.86446" lon="5.82102">
        <ele>259.12</ele>
        <time>2016-05-05T11:34:26Z</time>
      </trkpt>
      <trkpt lat="45.86446" lon="5.8211">
        <ele>259.06</ele>
        <time>2016-05-05T11:34:27Z</time>
      </trkpt>
      <trkpt lat="45.86446" lon="5.82117">
        <ele>259.01</ele>
        <time>2016-05-05T11:34:28Z</time>
      </trkpt>
      <trkpt lat="45.86446" lon="5.82125">
        <ele>259.02</ele>
        <time>2016-05-05T11:34:29Z</time>
      </trkpt>
      <trkpt lat="45.86444" lon="5.82132">
        <ele>259.02</ele>
        <time>2016-05-05T11:34:30Z</time>
      </trkpt>
      <trkpt lat="45.86444" lon="5.8214">
        <ele>259.03</ele>
        <time>2016-05-05T11:34:31Z</time>
      </trkpt>
      <trkpt lat="45.86443" lon="5.82148">
        <ele>259.03</ele>
        <time>2016-05-05T11:34:32Z</time>
      </trkpt>
      <trkpt lat="45.86441" lon="5.82155">
        <ele>259.04</ele>
        <time>2016-05-05T11:34:33Z</time>
      </trkpt>
      <trkpt lat="45.8644" lon="5.82163">
        <ele>259.03</ele>
        <time>2016-05-05T11:34:34Z</time>
      </trkpt>
      <trkpt lat="45.86439" lon="5.82172">
        <ele>259.03</ele>
        <time>2016-05-05T11:34:35Z</time>
      </trkpt>
      <trkpt lat="45.8643" lon="5.82219">
        <ele>259.02</ele>
        <time>2016-05-05T11:34:41Z</time>
      </trkpt>
      <trkpt lat="45.86429" lon="5.82227">
        <ele>259.01</ele>
        <time>2016-05-05T11:34:42Z</time>
      </trkpt>
      <trkpt lat="45.86427" lon="5.82235">
        <ele>258.98</ele>
        <time>2016-05-05T11:34:43Z</time>
      </trkpt>
      <trkpt lat="45.86425" lon="5.8225">
        <ele>258.93</ele>
        <time>2016-05-05T11:34:45Z</time>
      </trkpt>
      <trkpt lat="45.86422" lon="5.82266">
        <ele>258.89</ele>
        <time>2016-05-05T11:34:47Z</time>
      </trkpt>
      <trkpt lat="45.86412" lon="5.82333">
        <ele>259.12</ele>
        <time>2016-05-05T11:34:55Z</time>
      </trkpt>
      <trkpt lat="45.86406" lon="5.82374">
        <ele>259.05</ele>
        <time>2016-05-05T11:35:00Z</time>
      </trkpt>
      <trkpt lat="45.86406" lon="5.82382">
        <ele>259.03</ele>
        <time>2016-05-05T11:35:01Z</time>
      </trkpt>
      <trkpt lat="45.86406" lon="5.82389">
        <ele>259.02</ele>
        <time>2016-05-05T11:35:02Z</time>
      </trkpt>
      <trkpt lat="45.86405" lon="5.82414">
        <ele>258.96</ele>
        <time>2016-05-05T11:35:06Z</time>
      </trkpt>
      <trkpt lat="45.86403" lon="5.82416">
        <ele>258.96</ele>
        <time>2016-05-05T11:35:07Z</time>
      </trkpt>
      <trkpt lat="45.86399" lon="5.82416">
        <ele>258.97</ele>
        <time>2016-05-05T11:35:08Z</time>
      </trkpt>
      <trkpt lat="45.86395" lon="5.82416">
        <ele>259</ele>
        <time>2016-05-05T11:35:09Z</time>
      </trkpt>
      <trkpt lat="45.86391" lon="5.82415">
        <ele>259.03</ele>
        <time>2016-05-05T11:35:10Z</time>
      </trkpt>
      <trkpt lat="45.86387" lon="5.82413">
        <ele>259.06</ele>
        <time>2016-05-05T11:35:11Z</time>
      </trkpt>
      <trkpt lat="45.86382" lon="5.82412">
        <ele>259.08</ele>
        <time>2016-05-05T11:35:12Z</time>
      </trkpt>
      <trkpt lat="45.86316" lon="5.82405">
        <ele>259.62</ele>
        <time>2016-05-05T11:35:24Z</time>
      </trkpt>
      <trkpt lat="45.86238" lon="5.82393">
        <ele>259.18</ele>
        <time>2016-05-05T11:35:37Z</time>
      </trkpt>
      <trkpt lat="45.86189" lon="5.82386">
        <ele>258.93</ele>
        <time>2016-05-05T11:35:45Z</time>
      </trkpt>
      <trkpt lat="45.86138" lon="5.82357">
        <ele>258.95</ele>
        <time>2016-05-05T11:35:54Z</time>
      </trkpt>
      <trkpt lat="45.86127" lon="5.8235">
        <ele>258.88</ele>
        <time>2016-05-05T11:35:56Z</time>
      </trkpt>
      <trkpt lat="45.86122" lon="5.82346">
        <ele>258.84</ele>
        <time>2016-05-05T11:35:57Z</time>
      </trkpt>
      <trkpt lat="45.86116" lon="5.82342">
        <ele>258.81</ele>
        <time>2016-05-05T11:35:58Z</time>
      </trkpt>
      <trkpt lat="45.86111" lon="5.82339">
        <ele>258.79</ele>
        <time>2016-05-05T11:35:59Z</time>
      </trkpt>
      <trkpt lat="45.86105" lon="5.82334">
        <ele>258.76</ele>
        <time>2016-05-05T11:36:00Z</time>
      </trkpt>
      <trkpt lat="45.861" lon="5.8233">
        <ele>258.74</ele>
        <time>2016-05-05T11:36:01Z</time>
      </trkpt>
      <trkpt lat="45.86094" lon="5.82327">
        <ele>258.74</ele>
        <time>2016-05-05T11:36:02Z</time>
      </trkpt>
      <trkpt lat="45.86089" lon="5.82323">
        <ele>258.76</ele>
        <time>2016-05-05T11:36:03Z</time>
      </trkpt>
      <trkpt lat="45.86084" lon="5.82319">
        <ele>258.8</ele>
        <time>2016-05-05T11:36:04Z</time>
      </trkpt>
      <trkpt lat="45.86078" lon="5.82315">
        <ele>258.85</ele>
        <time>2016-05-05T11:36:05Z</time>
      </trkpt>
      <trkpt lat="45.86073" lon="5.82311">
        <ele>258.89</ele>
        <time>2016-05-05T11:36:06Z</time>
      </trkpt>
      <trkpt lat="45.86067" lon="5.82306">
        <ele>258.93</ele>
        <time>2016-05-05T11:36:07Z</time>
      </trkpt>
      <trkpt lat="45.86036" lon="5.82283">
        <ele>258.6</ele>
        <time>2016-05-05T11:36:13Z</time>
      </trkpt>
      <trkpt lat="45.86031" lon="5.8228">
        <ele>258.51</ele>
        <time>2016-05-05T11:36:14Z</time>
      </trkpt>
      <trkpt lat="45.86025" lon="5.82276">
        <ele>258.45</ele>
        <time>2016-05-05T11:36:15Z</time>
      </trkpt>
      <trkpt lat="45.85943" lon="5.82242">
        <ele>258.01</ele>
        <time>2016-05-05T11:36:29Z</time>
      </trkpt>
      <trkpt lat="45.85891" lon="5.82224">
        <ele>257.98</ele>
        <time>2016-05-05T11:36:38Z</time>
      </trkpt>
      <trkpt lat="45.85885" lon="5.82223">
        <ele>257.96</ele>
        <time>2016-05-05T11:36:39Z</time>
      </trkpt>
      <trkpt lat="45.8582" lon="5.82201">
        <ele>257.81</ele>
        <time>2016-05-05T11:36:50Z</time>
      </trkpt>
      <trkpt lat="45.85728" lon="5.8218">
        <ele>258.35</ele>
        <time>2016-05-05T11:37:05Z</time>
      </trkpt>
      <trkpt lat="45.85686" lon="5.82166">
        <ele>258.39</ele>
        <time>2016-05-05T11:37:12Z</time>
      </trkpt>
      <trkpt lat="45.85595" lon="5.82135">
        <ele>258.82</ele>
        <time>2016-05-05T11:37:28Z</time>
      </trkpt>
      <trkpt lat="45.85516" lon="5.82108">
        <ele>258.45</ele>
        <time>2016-05-05T11:37:41Z</time>
      </trkpt>
      <trkpt lat="45.85408" lon="5.82055">
        <ele>257.88</ele>
        <time>2016-05-05T11:37:59Z</time>
      </trkpt>
      <trkpt lat="45.85307" lon="5.82018">
        <ele>257.36</ele>
        <time>2016-05-05T11:38:15Z</time>
      </trkpt>
      <trkpt lat="45.85215" lon="5.81987">
        <ele>257.16</ele>
        <time>2016-05-05T11:38:29Z</time>
      </trkpt>
      <trkpt lat="45.85163" lon="5.81973">
        <ele>256.9</ele>
        <time>2016-05-05T11:38:38Z</time>
      </trkpt>
      <trkpt lat="45.85158" lon="5.8197">
        <ele>256.92</ele>
        <time>2016-05-05T11:38:39Z</time>
      </trkpt>
      <trkpt lat="45.85156" lon="5.81966">
        <ele>256.92</ele>
        <time>2016-05-05T11:38:40Z</time>
      </trkpt>
      <trkpt lat="45.85156" lon="5.81961">
        <ele>256.92</ele>
        <time>2016-05-05T11:38:41Z</time>
      </trkpt>
      <trkpt lat="45.85156" lon="5.81956">
        <ele>256.92</ele>
        <time>2016-05-05T11:38:42Z</time>
      </trkpt>
      <trkpt lat="45.85157" lon="5.81951">
        <ele>256.98</ele>
        <time>2016-05-05T11:38:43Z</time>
      </trkpt>
      <trkpt lat="45.85168" lon="5.81897">
        <ele>257.79</ele>
        <time>2016-05-05T11:38:53Z</time>
      </trkpt>
      <trkpt lat="45.8517" lon="5.81884">
        <ele>257.79</ele>
        <time>2016-05-05T11:38:55Z</time>
      </trkpt>
      <trkpt lat="45.85174" lon="5.81859">
        <ele>257.76</ele>
        <time>2016-05-05T11:38:59Z</time>
      </trkpt>
      <trkpt lat="45.85196" lon="5.81752">
        <ele>257.94</ele>
        <time>2016-05-05T11:39:15Z</time>
      </trkpt>
      <trkpt lat="45.852" lon="5.81732">
        <ele>257.8</ele>
        <time>2016-05-05T11:39:18Z</time>
      </trkpt>
      <trkpt lat="45.85218" lon="5.81647">
        <ele>257.94</ele>
        <time>2016-05-05T11:39:34Z</time>
      </trkpt>
      <trkpt lat="45.85221" lon="5.81635">
        <ele>258.08</ele>
        <time>2016-05-05T11:39:48Z</time>
      </trkpt>
      <trkpt lat="45.8522" lon="5.81635">
        <ele>258.27</ele>
        <time>2016-05-05T11:40:44Z</time>
      </trkpt>
      <trkpt lat="45.85221" lon="5.81637">
        <ele>258.25</ele>
        <time>2016-05-05T11:41:41Z</time>
      </trkpt>
      <trkpt lat="45.85221" lon="5.81636">
        <ele>257.89</ele>
        <time>2016-05-05T11:42:52Z</time>
      </trkpt>
      <trkpt lat="45.8522" lon="5.81631">
        <ele>257.88</ele>
        <time>2016-05-05T11:43:27Z</time>
      </trkpt>
      <trkpt lat="45.85219" lon="5.81627">
        <ele>257.62</ele>
        <time>2016-05-05T11:44:03Z</time>
      </trkpt>
      <trkpt lat="45.8522" lon="5.81623">
        <ele>257.49</ele>
        <time>2016-05-05T11:44:44Z</time>
      </trkpt>
      <trkpt lat="45.85223" lon="5.81616">
        <ele>257.37</ele>
        <time>2016-05-05T11:45:09Z</time>
      </trkpt>
      <trkpt lat="45.85242" lon="5.81563">
        <ele>257.57</ele>
        <time>2016-05-05T11:45:21Z</time>
      </trkpt>
      <trkpt lat="45.85245" lon="5.81558">
        <ele>257.49</ele>
        <time>2016-05-05T11:45:22Z</time>
      </trkpt>
      <trkpt lat="45.85263" lon="5.81526">
        <ele>257.39</ele>
        <time>2016-05-05T11:45:29Z</time>
      </trkpt>
      <trkpt lat="45.85266" lon="5.81521">
        <ele>257.42</ele>
        <time>2016-05-05T11:45:30Z</time>
      </trkpt>
      <trkpt lat="45.85269" lon="5.81516">
        <ele>257.43</ele>
        <time>2016-05-05T11:45:31Z</time>
      </trkpt>
      <trkpt lat="45.85282" lon="5.81492">
        <ele>257.47</ele>
        <time>2016-05-05T11:45:35Z</time>
      </trkpt>
      <trkpt lat="45.85342" lon="5.81369">
        <ele>257.71</ele>
        <time>2016-05-05T11:45:53Z</time>
      </trkpt>
      <trkpt lat="45.85352" lon="5.8133">
        <ele>257.75</ele>
        <time>2016-05-05T11:45:58Z</time>
      </trkpt>
      <trkpt lat="45.85355" lon="5.81306">
        <ele>257.44</ele>
        <time>2016-05-05T11:46:01Z</time>
      </trkpt>
      <trkpt lat="45.85356" lon="5.81272">
        <ele>257.12</ele>
        <time>2016-05-05T11:46:05Z</time>
      </trkpt>
      <trkpt lat="45.85329" lon="5.81157">
        <ele>257.47</ele>
        <time>2016-05-05T11:46:20Z</time>
      </trkpt>
      <trkpt lat="45.85279" lon="5.81025">
        <ele>257.64</ele>
        <time>2016-05-05T11:46:39Z</time>
      </trkpt>
      <trkpt lat="45.8521" lon="5.80927">
        <ele>257.69</ele>
        <time>2016-05-05T11:46:55Z</time>
      </trkpt>
      <trkpt lat="45.85106" lon="5.80824">
        <ele>257.87</ele>
        <time>2016-05-05T11:47:15Z</time>
      </trkpt>
      <trkpt lat="45.84996" lon="5.80775">
        <ele>257.83</ele>
        <time>2016-05-05T11:47:34Z</time>
      </trkpt>
      <trkpt lat="45.84922" lon="5.80743">
        <ele>257.9</ele>
        <time>2016-05-05T11:47:47Z</time>
      </trkpt>
      <trkpt lat="45.84887" lon="5.8073">
        <ele>258.53</ele>
        <time>2016-05-05T11:47:54Z</time>
      </trkpt>
      <trkpt lat="45.84882" lon="5.8073">
        <ele>258.6</ele>
        <time>2016-05-05T11:47:55Z</time>
      </trkpt>
      <trkpt lat="45.84878" lon="5.80731">
        <ele>258.66</ele>
        <time>2016-05-05T11:47:56Z</time>
      </trkpt>
      <trkpt lat="45.84865" lon="5.80734">
        <ele>258.79</ele>
        <time>2016-05-05T11:47:59Z</time>
      </trkpt>
      <trkpt lat="45.84861" lon="5.80734">
        <ele>258.83</ele>
        <time>2016-05-05T11:48:00Z</time>
      </trkpt>
      <trkpt lat="45.84856" lon="5.80732">
        <ele>258.86</ele>
        <time>2016-05-05T11:48:01Z</time>
      </trkpt>
      <trkpt lat="45.84853" lon="5.80729">
        <ele>258.88</ele>
        <time>2016-05-05T11:48:02Z</time>
      </trkpt>
      <trkpt lat="45.84849" lon="5.80726">
        <ele>258.89</ele>
        <time>2016-05-05T11:48:03Z</time>
      </trkpt>
      <trkpt lat="45.84845" lon="5.80725">
        <ele>258.91</ele>
        <time>2016-05-05T11:48:04Z</time>
      </trkpt>
      <trkpt lat="45.84841" lon="5.80724">
        <ele>258.93</ele>
        <time>2016-05-05T11:48:05Z</time>
      </trkpt>
      <trkpt lat="45.84837" lon="5.80726">
        <ele>258.95</ele>
        <time>2016-05-05T11:48:06Z</time>
      </trkpt>
      <trkpt lat="45.84834" lon="5.8073">
        <ele>258.96</ele>
        <time>2016-05-05T11:48:07Z</time>
      </trkpt>
      <trkpt lat="45.84832" lon="5.80735">
        <ele>258.97</ele>
        <time>2016-05-05T11:48:08Z</time>
      </trkpt>
      <trkpt lat="45.84831" lon="5.80742">
        <ele>258.98</ele>
        <time>2016-05-05T11:48:09Z</time>
      </trkpt>
      <trkpt lat="45.84832" lon="5.80747">
        <ele>258.95</ele>
        <time>2016-05-05T11:48:10Z</time>
      </trkpt>
      <trkpt lat="45.84834" lon="5.80752">
        <ele>258.91</ele>
        <time>2016-05-05T11:48:11Z</time>
      </trkpt>
      <trkpt lat="45.84836" lon="5.80757">
        <ele>258.86</ele>
        <time>2016-05-05T11:48:12Z</time>
      </trkpt>
      <trkpt lat="45.84838" lon="5.80761">
        <ele>258.81</ele>
        <time>2016-05-05T11:48:13Z</time>
      </trkpt>
      <trkpt lat="45.8484" lon="5.80766">
        <ele>258.77</ele>
        <time>2016-05-05T11:48:14Z</time>
      </trkpt>
      <trkpt lat="45.84839" lon="5.80769">
        <ele>258.74</ele>
        <time>2016-05-05T11:48:15Z</time>
      </trkpt>
      <trkpt lat="45.84838" lon="5.80771">
        <ele>258.71</ele>
        <time>2016-05-05T11:48:16Z</time>
      </trkpt>
      <trkpt lat="45.84837" lon="5.8077">
        <ele>258.69</ele>
        <time>2016-05-05T11:48:17Z</time>
      </trkpt>
      <trkpt lat="45.84836" lon="5.80768">
        <ele>258.67</ele>
        <time>2016-05-05T11:48:18Z</time>
      </trkpt>
      <trkpt lat="45.84834" lon="5.80758">
        <ele>258.63</ele>
        <time>2016-05-05T11:48:21Z</time>
      </trkpt>
      <trkpt lat="45.84812" lon="5.80749">
        <ele>258.9</ele>
        <time>2016-05-05T11:48:28Z</time>
      </trkpt>
      <trkpt lat="45.84762" lon="5.80769">
        <ele>258.33</ele>
        <time>2016-05-05T11:48:37Z</time>
      </trkpt>
      <trkpt lat="45.84677" lon="5.80795">
        <ele>258.22</ele>
        <time>2016-05-05T11:48:51Z</time>
      </trkpt>
      <trkpt lat="45.84571" lon="5.80831">
        <ele>258.27</ele>
        <time>2016-05-05T11:49:08Z</time>
      </trkpt>
      <trkpt lat="45.84523" lon="5.80847">
        <ele>258</ele>
        <time>2016-05-05T11:49:19Z</time>
      </trkpt>
      <trkpt lat="45.8452" lon="5.80844">
        <ele>257.87</ele>
        <time>2016-05-05T11:49:21Z</time>
      </trkpt>
      <trkpt lat="45.84519" lon="5.80841">
        <ele>257.81</ele>
        <time>2016-05-05T11:49:22Z</time>
      </trkpt>
      <trkpt lat="45.84516" lon="5.80836">
        <ele>257.76</ele>
        <time>2016-05-05T11:49:24Z</time>
      </trkpt>
      <trkpt lat="45.84514" lon="5.80836">
        <ele>257.76</ele>
        <time>2016-05-05T11:49:25Z</time>
      </trkpt>
      <trkpt lat="45.84511" lon="5.80837">
        <ele>257.75</ele>
        <time>2016-05-05T11:49:26Z</time>
      </trkpt>
      <trkpt lat="45.84508" lon="5.80838">
        <ele>257.75</ele>
        <time>2016-05-05T11:49:27Z</time>
      </trkpt>
      <trkpt lat="45.84505" lon="5.8084">
        <ele>257.76</ele>
        <time>2016-05-05T11:49:28Z</time>
      </trkpt>
      <trkpt lat="45.84502" lon="5.80842">
        <ele>257.76</ele>
        <time>2016-05-05T11:49:29Z</time>
      </trkpt>
      <trkpt lat="45.84446" lon="5.80884">
        <ele>257.67</ele>
        <time>2016-05-05T11:49:43Z</time>
      </trkpt>
      <trkpt lat="45.84404" lon="5.80916">
        <ele>257.54</ele>
        <time>2016-05-05T11:49:52Z</time>
      </trkpt>
      <trkpt lat="45.844" lon="5.80917">
        <ele>257.49</ele>
        <time>2016-05-05T11:49:53Z</time>
      </trkpt>
      <trkpt lat="45.84395" lon="5.80915">
        <ele>257.44</ele>
        <time>2016-05-05T11:49:54Z</time>
      </trkpt>
      <trkpt lat="45.84392" lon="5.80911">
        <ele>257.38</ele>
        <time>2016-05-05T11:49:55Z</time>
      </trkpt>
      <trkpt lat="45.84376" lon="5.80886">
        <ele>257.1</ele>
        <time>2016-05-05T11:50:02Z</time>
      </trkpt>
      <trkpt lat="45.84363" lon="5.80888">
        <ele>257.17</ele>
        <time>2016-05-05T11:50:05Z</time>
      </trkpt>
      <trkpt lat="45.84324" lon="5.80903">
        <ele>257.39</ele>
        <time>2016-05-05T11:50:13Z</time>
      </trkpt>
      <trkpt lat="45.84241" lon="5.80917">
        <ele>257.34</ele>
        <time>2016-05-05T11:50:28Z</time>
      </trkpt>
      <trkpt lat="45.84219" lon="5.80909">
        <ele>257.3</ele>
        <time>2016-05-05T11:50:32Z</time>
      </trkpt>
      <trkpt lat="45.84179" lon="5.80884">
        <ele>257.18</ele>
        <time>2016-05-05T11:50:39Z</time>
      </trkpt>
      <trkpt lat="45.84107" lon="5.80869">
        <ele>257.14</ele>
        <time>2016-05-05T11:50:51Z</time>
      </trkpt>
      <trkpt lat="45.84087" lon="5.80873">
        <ele>257.21</ele>
        <time>2016-05-05T11:50:54Z</time>
      </trkpt>
      <trkpt lat="45.83979" lon="5.80884">
        <ele>257.6</ele>
        <time>2016-05-05T11:51:11Z</time>
      </trkpt>
      <trkpt lat="45.83949" lon="5.80879">
        <ele>257.59</ele>
        <time>2016-05-05T11:51:16Z</time>
      </trkpt>
      <trkpt lat="45.83918" lon="5.80866">
        <ele>257.68</ele>
        <time>2016-05-05T11:51:21Z</time>
      </trkpt>
      <trkpt lat="45.83895" lon="5.80869">
        <ele>257.68</ele>
        <time>2016-05-05T11:51:25Z</time>
      </trkpt>
      <trkpt lat="45.8389" lon="5.80873">
        <ele>257.62</ele>
        <time>2016-05-05T11:51:26Z</time>
      </trkpt>
      <trkpt lat="45.83885" lon="5.80879">
        <ele>257.57</ele>
        <time>2016-05-05T11:51:27Z</time>
      </trkpt>
      <trkpt lat="45.83881" lon="5.80885">
        <ele>257.5</ele>
        <time>2016-05-05T11:51:28Z</time>
      </trkpt>
      <trkpt lat="45.83878" lon="5.80892">
        <ele>257.45</ele>
        <time>2016-05-05T11:51:29Z</time>
      </trkpt>
      <trkpt lat="45.83874" lon="5.80899">
        <ele>257.41</ele>
        <time>2016-05-05T11:51:30Z</time>
      </trkpt>
      <trkpt lat="45.83865" lon="5.80911">
        <ele>257.41</ele>
        <time>2016-05-05T11:51:32Z</time>
      </trkpt>
      <trkpt lat="45.8386" lon="5.80915">
        <ele>257.46</ele>
        <time>2016-05-05T11:51:33Z</time>
      </trkpt>
      <trkpt lat="45.83802" lon="5.80936">
        <ele>257.51</ele>
        <time>2016-05-05T11:51:43Z</time>
      </trkpt>
      <trkpt lat="45.83727" lon="5.80956">
        <ele>257.42</ele>
        <time>2016-05-05T11:51:55Z</time>
      </trkpt>
      <trkpt lat="45.83708" lon="5.8096">
        <ele>257.49</ele>
        <time>2016-05-05T11:51:58Z</time>
      </trkpt>
      <trkpt lat="45.83702" lon="5.8096">
        <ele>257.5</ele>
        <time>2016-05-05T11:51:59Z</time>
      </trkpt>
      <trkpt lat="45.83664" lon="5.80954">
        <ele>257.57</ele>
        <time>2016-05-05T11:52:05Z</time>
      </trkpt>
      <trkpt lat="45.83658" lon="5.80954">
        <ele>257.57</ele>
        <time>2016-05-05T11:52:06Z</time>
      </trkpt>
      <trkpt lat="45.83652" lon="5.80955">
        <ele>257.58</ele>
        <time>2016-05-05T11:52:07Z</time>
      </trkpt>
      <trkpt lat="45.83627" lon="5.80958">
        <ele>257.5</ele>
        <time>2016-05-05T11:52:11Z</time>
      </trkpt>
      <trkpt lat="45.83621" lon="5.80956">
        <ele>257.49</ele>
        <time>2016-05-05T11:52:12Z</time>
      </trkpt>
      <trkpt lat="45.83615" lon="5.80953">
        <ele>257.48</ele>
        <time>2016-05-05T11:52:13Z</time>
      </trkpt>
      <trkpt lat="45.83578" lon="5.8094">
        <ele>257.26</ele>
        <time>2016-05-05T11:52:19Z</time>
      </trkpt>
      <trkpt lat="45.83573" lon="5.80936">
        <ele>257.26</ele>
        <time>2016-05-05T11:52:20Z</time>
      </trkpt>
      <trkpt lat="45.83568" lon="5.80931">
        <ele>257.26</ele>
        <time>2016-05-05T11:52:21Z</time>
      </trkpt>
      <trkpt lat="45.83563" lon="5.80926">
        <ele>257.27</ele>
        <time>2016-05-05T11:52:22Z</time>
      </trkpt>
      <trkpt lat="45.83559" lon="5.80921">
        <ele>257.28</ele>
        <time>2016-05-05T11:52:23Z</time>
      </trkpt>
      <trkpt lat="45.83555" lon="5.80916">
        <ele>257.28</ele>
        <time>2016-05-05T11:52:24Z</time>
      </trkpt>
      <trkpt lat="45.83551" lon="5.80911">
        <ele>257.28</ele>
        <time>2016-05-05T11:52:25Z</time>
      </trkpt>
      <trkpt lat="45.83546" lon="5.80906">
        <ele>257.28</ele>
        <time>2016-05-05T11:52:26Z</time>
      </trkpt>
      <trkpt lat="45.83541" lon="5.80903">
        <ele>257.29</ele>
        <time>2016-05-05T11:52:27Z</time>
      </trkpt>
      <trkpt lat="45.83536" lon="5.80899">
        <ele>257.3</ele>
        <time>2016-05-05T11:52:28Z</time>
      </trkpt>
      <trkpt lat="45.83531" lon="5.80897">
        <ele>257.3</ele>
        <time>2016-05-05T11:52:29Z</time>
      </trkpt>
      <trkpt lat="45.83525" lon="5.80896">
        <ele>257.3</ele>
        <time>2016-05-05T11:52:30Z</time>
      </trkpt>
      <trkpt lat="45.83521" lon="5.80895">
        <ele>257.3</ele>
        <time>2016-05-05T11:52:31Z</time>
      </trkpt>
      <trkpt lat="45.83518" lon="5.80895">
        <ele>257.35</ele>
        <time>2016-05-05T11:52:32Z</time>
      </trkpt>
      <trkpt lat="45.83514" lon="5.80893">
        <ele>257.37</ele>
        <time>2016-05-05T11:52:33Z</time>
      </trkpt>
      <trkpt lat="45.83513" lon="5.80889">
        <ele>257.4</ele>
        <time>2016-05-05T11:52:34Z</time>
      </trkpt>
      <trkpt lat="45.83512" lon="5.80885">
        <ele>257.42</ele>
        <time>2016-05-05T11:52:35Z</time>
      </trkpt>
      <trkpt lat="45.83513" lon="5.80881">
        <ele>257.44</ele>
        <time>2016-05-05T11:52:36Z</time>
      </trkpt>
      <trkpt lat="45.83514" lon="5.80877">
        <ele>257.45</ele>
        <time>2016-05-05T11:52:37Z</time>
      </trkpt>
      <trkpt lat="45.83521" lon="5.80848">
        <ele>257.56</ele>
        <time>2016-05-05T11:52:42Z</time>
      </trkpt>
      <trkpt lat="45.83524" lon="5.80842">
        <ele>257.63</ele>
        <time>2016-05-05T11:52:43Z</time>
      </trkpt>
      <trkpt lat="45.83537" lon="5.8082">
        <ele>257.9</ele>
        <time>2016-05-05T11:52:47Z</time>
      </trkpt>
      <trkpt lat="45.8354" lon="5.80814">
        <ele>257.96</ele>
        <time>2016-05-05T11:52:48Z</time>
      </trkpt>
      <trkpt lat="45.83564" lon="5.8073">
        <ele>258.73</ele>
        <time>2016-05-05T11:53:02Z</time>
      </trkpt>
      <trkpt lat="45.83562" lon="5.80724">
        <ele>258.82</ele>
        <time>2016-05-05T11:53:03Z</time>
      </trkpt>
      <trkpt lat="45.8356" lon="5.80719">
        <ele>258.9</ele>
        <time>2016-05-05T11:53:04Z</time>
      </trkpt>
      <trkpt lat="45.83558" lon="5.80713">
        <ele>258.97</ele>
        <time>2016-05-05T11:53:05Z</time>
      </trkpt>
      <trkpt lat="45.83556" lon="5.80708">
        <ele>259.02</ele>
        <time>2016-05-05T11:53:06Z</time>
      </trkpt>
      <trkpt lat="45.83554" lon="5.80702">
        <ele>259.05</ele>
        <time>2016-05-05T11:53:07Z</time>
      </trkpt>
      <trkpt lat="45.8355" lon="5.80697">
        <ele>259.08</ele>
        <time>2016-05-05T11:53:08Z</time>
      </trkpt>
      <trkpt lat="45.83547" lon="5.8069">
        <ele>259.1</ele>
        <time>2016-05-05T11:53:09Z</time>
      </trkpt>
      <trkpt lat="45.83546" lon="5.80683">
        <ele>259.1</ele>
        <time>2016-05-05T11:53:10Z</time>
      </trkpt>
      <trkpt lat="45.83544" lon="5.80676">
        <ele>259.06</ele>
        <time>2016-05-05T11:53:11Z</time>
      </trkpt>
      <trkpt lat="45.83541" lon="5.8067">
        <ele>259.01</ele>
        <time>2016-05-05T11:53:12Z</time>
      </trkpt>
      <trkpt lat="45.83537" lon="5.80655">
        <ele>258.88</ele>
        <time>2016-05-05T11:53:14Z</time>
      </trkpt>
      <trkpt lat="45.83533" lon="5.80639">
        <ele>258.73</ele>
        <time>2016-05-05T11:53:16Z</time>
      </trkpt>
      <trkpt lat="45.83531" lon="5.80632">
        <ele>258.64</ele>
        <time>2016-05-05T11:53:17Z</time>
      </trkpt>
      <trkpt lat="45.83527" lon="5.80624">
        <ele>258.55</ele>
        <time>2016-05-05T11:53:18Z</time>
      </trkpt>
      <trkpt lat="45.83519" lon="5.8061">
        <ele>258.37</ele>
        <time>2016-05-05T11:53:20Z</time>
      </trkpt>
      <trkpt lat="45.83513" lon="5.80605">
        <ele>258.28</ele>
        <time>2016-05-05T11:53:21Z</time>
      </trkpt>
      <trkpt lat="45.83509" lon="5.80598">
        <ele>258.14</ele>
        <time>2016-05-05T11:53:22Z</time>
      </trkpt>
      <trkpt lat="45.83506" lon="5.80591">
        <ele>258.14</ele>
        <time>2016-05-05T11:53:23Z</time>
      </trkpt>
      <trkpt lat="45.83504" lon="5.80583">
        <ele>258.07</ele>
        <time>2016-05-05T11:53:24Z</time>
      </trkpt>
      <trkpt lat="45.83501" lon="5.80576">
        <ele>258.04</ele>
        <time>2016-05-05T11:53:25Z</time>
      </trkpt>
      <trkpt lat="45.83499" lon="5.80567">
        <ele>258.03</ele>
        <time>2016-05-05T11:53:26Z</time>
      </trkpt>
      <trkpt lat="45.83495" lon="5.80541">
        <ele>258.08</ele>
        <time>2016-05-05T11:53:29Z</time>
      </trkpt>
      <trkpt lat="45.83494" lon="5.80532">
        <ele>258.11</ele>
        <time>2016-05-05T11:53:30Z</time>
      </trkpt>
      <trkpt lat="45.83493" lon="5.80523">
        <ele>258.14</ele>
        <time>2016-05-05T11:53:31Z</time>
      </trkpt>
      <trkpt lat="45.83488" lon="5.8049">
        <ele>258.22</ele>
        <time>2016-05-05T11:53:35Z</time>
      </trkpt>
      <trkpt lat="45.83487" lon="5.80482">
        <ele>258.23</ele>
        <time>2016-05-05T11:53:36Z</time>
      </trkpt>
      <trkpt lat="45.83485" lon="5.80475">
        <ele>258.23</ele>
        <time>2016-05-05T11:53:37Z</time>
      </trkpt>
      <trkpt lat="45.83483" lon="5.80468">
        <ele>258.25</ele>
        <time>2016-05-05T11:53:38Z</time>
      </trkpt>
      <trkpt lat="45.83481" lon="5.80461">
        <ele>258.27</ele>
        <time>2016-05-05T11:53:39Z</time>
      </trkpt>
      <trkpt lat="45.83478" lon="5.80455">
        <ele>258.29</ele>
        <time>2016-05-05T11:53:40Z</time>
      </trkpt>
      <trkpt lat="45.83475" lon="5.80448">
        <ele>258.3</ele>
        <time>2016-05-05T11:53:41Z</time>
      </trkpt>
      <trkpt lat="45.83472" lon="5.80443">
        <ele>258.31</ele>
        <time>2016-05-05T11:53:42Z</time>
      </trkpt>
      <trkpt lat="45.83469" lon="5.80437">
        <ele>258.33</ele>
        <time>2016-05-05T11:53:43Z</time>
      </trkpt>
      <trkpt lat="45.83465" lon="5.80432">
        <ele>258.35</ele>
        <time>2016-05-05T11:53:44Z</time>
      </trkpt>
      <trkpt lat="45.8346" lon="5.80428">
        <ele>258.36</ele>
        <time>2016-05-05T11:53:45Z</time>
      </trkpt>
      <trkpt lat="45.83458" lon="5.80422">
        <ele>258.4</ele>
        <time>2016-05-05T11:53:46Z</time>
      </trkpt>
      <trkpt lat="45.83455" lon="5.80416">
        <ele>258.39</ele>
        <time>2016-05-05T11:53:47Z</time>
      </trkpt>
      <trkpt lat="45.83451" lon="5.80412">
        <ele>258.38</ele>
        <time>2016-05-05T11:53:48Z</time>
      </trkpt>
      <trkpt lat="45.83447" lon="5.80407">
        <ele>258.32</ele>
        <time>2016-05-05T11:53:49Z</time>
      </trkpt>
      <trkpt lat="45.83443" lon="5.80402">
        <ele>258.29</ele>
        <time>2016-05-05T11:53:50Z</time>
      </trkpt>
      <trkpt lat="45.83438" lon="5.80397">
        <ele>258.28</ele>
        <time>2016-05-05T11:53:51Z</time>
      </trkpt>
      <trkpt lat="45.83435" lon="5.80391">
        <ele>258.26</ele>
        <time>2016-05-05T11:53:52Z</time>
      </trkpt>
      <trkpt lat="45.83432" lon="5.80385">
        <ele>258.25</ele>
        <time>2016-05-05T11:53:53Z</time>
      </trkpt>
      <trkpt lat="45.83429" lon="5.80379">
        <ele>258.24</ele>
        <time>2016-05-05T11:53:54Z</time>
      </trkpt>
      <trkpt lat="45.83424" lon="5.80374">
        <ele>258.23</ele>
        <time>2016-05-05T11:53:55Z</time>
      </trkpt>
      <trkpt lat="45.83419" lon="5.80368">
        <ele>258.2</ele>
        <time>2016-05-05T11:53:56Z</time>
      </trkpt>
      <trkpt lat="45.83415" lon="5.80363">
        <ele>258.16</ele>
        <time>2016-05-05T11:53:57Z</time>
      </trkpt>
      <trkpt lat="45.83413" lon="5.80356">
        <ele>258.11</ele>
        <time>2016-05-05T11:53:58Z</time>
      </trkpt>
      <trkpt lat="45.83408" lon="5.80352">
        <ele>258.07</ele>
        <time>2016-05-05T11:53:59Z</time>
      </trkpt>
      <trkpt lat="45.83405" lon="5.80346">
        <ele>258.04</ele>
        <time>2016-05-05T11:54:00Z</time>
      </trkpt>
      <trkpt lat="45.83402" lon="5.80341">
        <ele>258.02</ele>
        <time>2016-05-05T11:54:01Z</time>
      </trkpt>
      <trkpt lat="45.83398" lon="5.80337">
        <ele>258</ele>
        <time>2016-05-05T11:54:02Z</time>
      </trkpt>
      <trkpt lat="45.83392" lon="5.80335">
        <ele>257.98</ele>
        <time>2016-05-05T11:54:03Z</time>
      </trkpt>
      <trkpt lat="45.83388" lon="5.80332">
        <ele>257.98</ele>
        <time>2016-05-05T11:54:04Z</time>
      </trkpt>
      <trkpt lat="45.83383" lon="5.8033">
        <ele>257.99</ele>
        <time>2016-05-05T11:54:05Z</time>
      </trkpt>
      <trkpt lat="45.83377" lon="5.80328">
        <ele>258.01</ele>
        <time>2016-05-05T11:54:06Z</time>
      </trkpt>
      <trkpt lat="45.8337" lon="5.80327">
        <ele>258.04</ele>
        <time>2016-05-05T11:54:07Z</time>
      </trkpt>
      <trkpt lat="45.83364" lon="5.80324">
        <ele>258.09</ele>
        <time>2016-05-05T11:54:08Z</time>
      </trkpt>
      <trkpt lat="45.83359" lon="5.80321">
        <ele>258.15</ele>
        <time>2016-05-05T11:54:09Z</time>
      </trkpt>
      <trkpt lat="45.83354" lon="5.8032">
        <ele>258.19</ele>
        <time>2016-05-05T11:54:10Z</time>
      </trkpt>
      <trkpt lat="45.83348" lon="5.80319">
        <ele>258.24</ele>
        <time>2016-05-05T11:54:11Z</time>
      </trkpt>
      <trkpt lat="45.83344" lon="5.80317">
        <ele>258.29</ele>
        <time>2016-05-05T11:54:12Z</time>
      </trkpt>
      <trkpt lat="45.83339" lon="5.80315">
        <ele>258.38</ele>
        <time>2016-05-05T11:54:13Z</time>
      </trkpt>
      <trkpt lat="45.83334" lon="5.80312">
        <ele>258.45</ele>
        <time>2016-05-05T11:54:14Z</time>
      </trkpt>
      <trkpt lat="45.83328" lon="5.80309">
        <ele>258.47</ele>
        <time>2016-05-05T11:54:15Z</time>
      </trkpt>
      <trkpt lat="45.83322" lon="5.80305">
        <ele>258.49</ele>
        <time>2016-05-05T11:54:16Z</time>
      </trkpt>
      <trkpt lat="45.83317" lon="5.803">
        <ele>258.51</ele>
        <time>2016-05-05T11:54:17Z</time>
      </trkpt>
      <trkpt lat="45.83307" lon="5.80291">
        <ele>258.48</ele>
        <time>2016-05-05T11:54:19Z</time>
      </trkpt>
      <trkpt lat="45.83299" lon="5.80279">
        <ele>258.48</ele>
        <time>2016-05-05T11:54:21Z</time>
      </trkpt>
      <trkpt lat="45.83286" lon="5.80249">
        <ele>258.49</ele>
        <time>2016-05-05T11:54:25Z</time>
      </trkpt>
      <trkpt lat="45.83287" lon="5.80239">
        <ele>258.51</ele>
        <time>2016-05-05T11:54:26Z</time>
      </trkpt>
      <trkpt lat="45.83267" lon="5.80184">
        <ele>259.38</ele>
        <time>2016-05-05T11:54:37Z</time>
      </trkpt>
      <trkpt lat="45.8323" lon="5.80131">
        <ele>259.33</ele>
        <time>2016-05-05T11:54:51Z</time>
      </trkpt>
      <trkpt lat="45.83225" lon="5.80123">
        <ele>259.31</ele>
        <time>2016-05-05T11:54:53Z</time>
      </trkpt>
      <trkpt lat="45.8318" lon="5.80046">
        <ele>259.13</ele>
        <time>2016-05-05T11:55:10Z</time>
      </trkpt>
      <trkpt lat="45.83144" lon="5.79985">
        <ele>259.29</ele>
        <time>2016-05-05T11:55:25Z</time>
      </trkpt>
      <trkpt lat="45.83126" lon="5.79958">
        <ele>259.46</ele>
        <time>2016-05-05T11:55:37Z</time>
      </trkpt>
      <trkpt lat="45.83123" lon="5.79962">
        <ele>259.49</ele>
        <time>2016-05-05T11:55:48Z</time>
      </trkpt>
      <trkpt lat="45.83124" lon="5.79963">
        <ele>259.44</ele>
        <time>2016-05-05T11:55:49Z</time>
      </trkpt>
      <trkpt lat="45.83125" lon="5.79965">
        <ele>259.29</ele>
        <time>2016-05-05T11:55:50Z</time>
      </trkpt>
      <trkpt lat="45.83125" lon="5.79966">
        <ele>259.17</ele>
        <time>2016-05-05T11:55:51Z</time>
      </trkpt>
      <trkpt lat="45.83126" lon="5.79968">
        <ele>259</ele>
        <time>2016-05-05T11:55:52Z</time>
      </trkpt>
      <trkpt lat="45.83128" lon="5.79984">
        <ele>256.59</ele>
        <time>2016-05-05T11:56:06Z</time>
      </trkpt>
      <trkpt lat="45.83128" lon="5.79984">
        <ele>256.44</ele>
        <time>2016-05-05T11:56:07Z</time>
      </trkpt>
      <trkpt lat="45.8315" lon="5.79904">
        <ele>262.2</ele>
        <time>2016-05-05T12:38:30Z</time>
      </trkpt>
      <trkpt lat="45.8315" lon="5.79911">
        <ele>305</ele>
        <time>2016-05-05T12:38:31Z</time>
      </trkpt>
      <trkpt lat="45.83151" lon="5.79912">
        <ele>305</ele>
        <time>2016-05-05T12:38:32Z</time>
      </trkpt>
      <trkpt lat="45.83134" lon="5.79938">
        <ele>305.02</ele>
        <time>2016-05-05T12:38:43Z</time>
      </trkpt>
      <trkpt lat="45.83127" lon="5.79947">
        <ele>304.94</ele>
        <time>2016-05-05T12:39:19Z</time>
      </trkpt>
      <trkpt lat="45.83124" lon="5.79943">
        <ele>304.77</ele>
        <time>2016-05-05T12:39:43Z</time>
      </trkpt>
      <trkpt lat="45.83123" lon="5.79944">
        <ele>304.94</ele>
        <time>2016-05-05T12:40:37Z</time>
      </trkpt>
      <trkpt lat="45.83122" lon="5.79943">
        <ele>304.78</ele>
        <time>2016-05-05T12:40:48Z</time>
      </trkpt>
      <trkpt lat="45.83114" lon="5.79932">
        <ele>304.6</ele>
        <time>2016-05-05T12:40:55Z</time>
      </trkpt>
      <trkpt lat="45.83113" lon="5.7993">
        <ele>304.57</ele>
        <time>2016-05-05T12:40:56Z</time>
      </trkpt>
      <trkpt lat="45.83075" lon="5.79873">
        <ele>304.77</ele>
        <time>2016-05-05T12:41:15Z</time>
      </trkpt>
      <trkpt lat="45.83035" lon="5.79818">
        <ele>304.74</ele>
        <time>2016-05-05T12:41:32Z</time>
      </trkpt>
      <trkpt lat="45.83027" lon="5.79809">
        <ele>304.63</ele>
        <time>2016-05-05T12:41:36Z</time>
      </trkpt>
      <trkpt lat="45.83024" lon="5.79809">
        <ele>304.6</ele>
        <time>2016-05-05T12:41:37Z</time>
      </trkpt>
      <trkpt lat="45.8302" lon="5.79811">
        <ele>304.58</ele>
        <time>2016-05-05T12:41:38Z</time>
      </trkpt>
      <trkpt lat="45.83016" lon="5.79816">
        <ele>304.54</ele>
        <time>2016-05-05T12:41:39Z</time>
      </trkpt>
      <trkpt lat="45.83013" lon="5.7982">
        <ele>304.49</ele>
        <time>2016-05-05T12:41:40Z</time>
      </trkpt>
      <trkpt lat="45.8301" lon="5.79825">
        <ele>304.42</ele>
        <time>2016-05-05T12:41:41Z</time>
      </trkpt>
      <trkpt lat="45.83006" lon="5.79831">
        <ele>304.31</ele>
        <time>2016-05-05T12:41:42Z</time>
      </trkpt>
      <trkpt lat="45.83003" lon="5.79836">
        <ele>304.17</ele>
        <time>2016-05-05T12:41:43Z</time>
      </trkpt>
      <trkpt lat="45.83" lon="5.79842">
        <ele>303.99</ele>
        <time>2016-05-05T12:41:44Z</time>
      </trkpt>
      <trkpt lat="45.82993" lon="5.79851">
        <ele>303.6</ele>
        <time>2016-05-05T12:41:46Z</time>
      </trkpt>
      <trkpt lat="45.82949" lon="5.79919">
        <ele>302.55</ele>
        <time>2016-05-05T12:42:00Z</time>
      </trkpt>
      <trkpt lat="45.8294" lon="5.79935">
        <ele>302.79</ele>
        <time>2016-05-05T12:42:04Z</time>
      </trkpt>
      <trkpt lat="45.82928" lon="5.79952">
        <ele>302.91</ele>
        <time>2016-05-05T12:42:08Z</time>
      </trkpt>
      <trkpt lat="45.82925" lon="5.79955">
        <ele>302.87</ele>
        <time>2016-05-05T12:42:09Z</time>
      </trkpt>
      <trkpt lat="45.82904" lon="5.79977">
        <ele>302.53</ele>
        <time>2016-05-05T12:42:15Z</time>
      </trkpt>
      <trkpt lat="45.82901" lon="5.79982">
        <ele>302.49</ele>
        <time>2016-05-05T12:42:16Z</time>
      </trkpt>
      <trkpt lat="45.82891" lon="5.79994">
        <ele>302.48</ele>
        <time>2016-05-05T12:42:19Z</time>
      </trkpt>
      <trkpt lat="45.82888" lon="5.79998">
        <ele>302.49</ele>
        <time>2016-05-05T12:42:20Z</time>
      </trkpt>
      <trkpt lat="45.82886" lon="5.80003">
        <ele>302.5</ele>
        <time>2016-05-05T12:42:21Z</time>
      </trkpt>
      <trkpt lat="45.82883" lon="5.80008">
        <ele>302.52</ele>
        <time>2016-05-05T12:42:22Z</time>
      </trkpt>
      <trkpt lat="45.82881" lon="5.80012">
        <ele>302.53</ele>
        <time>2016-05-05T12:42:23Z</time>
      </trkpt>
      <trkpt lat="45.82878" lon="5.80017">
        <ele>302.51</ele>
        <time>2016-05-05T12:42:24Z</time>
      </trkpt>
      <trkpt lat="45.82876" lon="5.80022">
        <ele>302.46</ele>
        <time>2016-05-05T12:42:25Z</time>
      </trkpt>
      <trkpt lat="45.82866" lon="5.80042">
        <ele>302.41</ele>
        <time>2016-05-05T12:42:30Z</time>
      </trkpt>
      <trkpt lat="45.82865" lon="5.80047">
        <ele>302.43</ele>
        <time>2016-05-05T12:42:31Z</time>
      </trkpt>
      <trkpt lat="45.82858" lon="5.80061">
        <ele>302.56</ele>
        <time>2016-05-05T12:42:34Z</time>
      </trkpt>
      <trkpt lat="45.82855" lon="5.80065">
        <ele>302.59</ele>
        <time>2016-05-05T12:42:35Z</time>
      </trkpt>
      <trkpt lat="45.8284" lon="5.80082">
        <ele>302.41</ele>
        <time>2016-05-05T12:42:40Z</time>
      </trkpt>
      <trkpt lat="45.82836" lon="5.80081">
        <ele>302.37</ele>
        <time>2016-05-05T12:42:41Z</time>
      </trkpt>
      <trkpt lat="45.82833" lon="5.80079">
        <ele>302.31</ele>
        <time>2016-05-05T12:42:42Z</time>
      </trkpt>
      <trkpt lat="45.8283" lon="5.80076">
        <ele>302.27</ele>
        <time>2016-05-05T12:42:43Z</time>
      </trkpt>
      <trkpt lat="45.82826" lon="5.80072">
        <ele>302.22</ele>
        <time>2016-05-05T12:42:44Z</time>
      </trkpt>
      <trkpt lat="45.82821" lon="5.80069">
        <ele>302.18</ele>
        <time>2016-05-05T12:42:45Z</time>
      </trkpt>
      <trkpt lat="45.82817" lon="5.80067">
        <ele>302.16</ele>
        <time>2016-05-05T12:42:46Z</time>
      </trkpt>
      <trkpt lat="45.82751" lon="5.80046">
        <ele>301.94</ele>
        <time>2016-05-05T12:43:02Z</time>
      </trkpt>
      <trkpt lat="45.82729" lon="5.80032">
        <ele>301.71</ele>
        <time>2016-05-05T12:43:08Z</time>
      </trkpt>
      <trkpt lat="45.82726" lon="5.80029">
        <ele>301.65</ele>
        <time>2016-05-05T12:43:09Z</time>
      </trkpt>
      <trkpt lat="45.82665" lon="5.79989">
        <ele>301.48</ele>
        <time>2016-05-05T12:43:25Z</time>
      </trkpt>
      <trkpt lat="45.82582" lon="5.79956">
        <ele>301.73</ele>
        <time>2016-05-05T12:43:44Z</time>
      </trkpt>
      <trkpt lat="45.82569" lon="5.79948">
        <ele>301.76</ele>
        <time>2016-05-05T12:43:47Z</time>
      </trkpt>
      <trkpt lat="45.82533" lon="5.79937">
        <ele>301.76</ele>
        <time>2016-05-05T12:43:56Z</time>
      </trkpt>
      <trkpt lat="45.82529" lon="5.79935">
        <ele>301.74</ele>
        <time>2016-05-05T12:43:57Z</time>
      </trkpt>
      <trkpt lat="45.82505" lon="5.79923">
        <ele>301.67</ele>
        <time>2016-05-05T12:44:03Z</time>
      </trkpt>
      <trkpt lat="45.82494" lon="5.79913">
        <ele>301.65</ele>
        <time>2016-05-05T12:44:06Z</time>
      </trkpt>
      <trkpt lat="45.8246" lon="5.79875">
        <ele>301.85</ele>
        <time>2016-05-05T12:44:16Z</time>
      </trkpt>
      <trkpt lat="45.82455" lon="5.79872">
        <ele>301.86</ele>
        <time>2016-05-05T12:44:17Z</time>
      </trkpt>
      <trkpt lat="45.82451" lon="5.7987">
        <ele>301.86</ele>
        <time>2016-05-05T12:44:18Z</time>
      </trkpt>
      <trkpt lat="45.82446" lon="5.79868">
        <ele>301.86</ele>
        <time>2016-05-05T12:44:19Z</time>
      </trkpt>
      <trkpt lat="45.82441" lon="5.79867">
        <ele>301.85</ele>
        <time>2016-05-05T12:44:20Z</time>
      </trkpt>
      <trkpt lat="45.82436" lon="5.79867">
        <ele>301.84</ele>
        <time>2016-05-05T12:44:21Z</time>
      </trkpt>
      <trkpt lat="45.82431" lon="5.79868">
        <ele>301.83</ele>
        <time>2016-05-05T12:44:22Z</time>
      </trkpt>
      <trkpt lat="45.82407" lon="5.79862">
        <ele>301.84</ele>
        <time>2016-05-05T12:44:32Z</time>
      </trkpt>
      <trkpt lat="45.82381" lon="5.79821">
        <ele>301.55</ele>
        <time>2016-05-05T12:44:46Z</time>
      </trkpt>
      <trkpt lat="45.82351" lon="5.79756">
        <ele>301.66</ele>
        <time>2016-05-05T12:45:00Z</time>
      </trkpt>
      <trkpt lat="45.82341" lon="5.79745">
        <ele>301.7</ele>
        <time>2016-05-05T12:45:03Z</time>
      </trkpt>
      <trkpt lat="45.82322" lon="5.79727">
        <ele>301.76</ele>
        <time>2016-05-05T12:45:08Z</time>
      </trkpt>
      <trkpt lat="45.82319" lon="5.79722">
        <ele>301.77</ele>
        <time>2016-05-05T12:45:09Z</time>
      </trkpt>
      <trkpt lat="45.82317" lon="5.79716">
        <ele>301.78</ele>
        <time>2016-05-05T12:45:10Z</time>
      </trkpt>
      <trkpt lat="45.82315" lon="5.7971">
        <ele>301.8</ele>
        <time>2016-05-05T12:45:11Z</time>
      </trkpt>
      <trkpt lat="45.82314" lon="5.79704">
        <ele>301.81</ele>
        <time>2016-05-05T12:45:12Z</time>
      </trkpt>
      <trkpt lat="45.82313" lon="5.79698">
        <ele>301.83</ele>
        <time>2016-05-05T12:45:13Z</time>
      </trkpt>
      <trkpt lat="45.82313" lon="5.79691">
        <ele>301.85</ele>
        <time>2016-05-05T12:45:14Z</time>
      </trkpt>
      <trkpt lat="45.82312" lon="5.79684">
        <ele>301.89</ele>
        <time>2016-05-05T12:45:15Z</time>
      </trkpt>
      <trkpt lat="45.82313" lon="5.79677">
        <ele>301.95</ele>
        <time>2016-05-05T12:45:16Z</time>
      </trkpt>
      <trkpt lat="45.82313" lon="5.7967">
        <ele>301.96</ele>
        <time>2016-05-05T12:45:17Z</time>
      </trkpt>
      <trkpt lat="45.82314" lon="5.79662">
        <ele>301.98</ele>
        <time>2016-05-05T12:45:18Z</time>
      </trkpt>
      <trkpt lat="45.82317" lon="5.79641">
        <ele>302.02</ele>
        <time>2016-05-05T12:45:21Z</time>
      </trkpt>
      <trkpt lat="45.82316" lon="5.79635">
        <ele>302.03</ele>
        <time>2016-05-05T12:45:22Z</time>
      </trkpt>
      <trkpt lat="45.82312" lon="5.7963">
        <ele>302.04</ele>
        <time>2016-05-05T12:45:23Z</time>
      </trkpt>
      <trkpt lat="45.82308" lon="5.79626">
        <ele>302.04</ele>
        <time>2016-05-05T12:45:24Z</time>
      </trkpt>
      <trkpt lat="45.82304" lon="5.79623">
        <ele>302.04</ele>
        <time>2016-05-05T12:45:25Z</time>
      </trkpt>
      <trkpt lat="45.82299" lon="5.79621">
        <ele>302.06</ele>
        <time>2016-05-05T12:45:26Z</time>
      </trkpt>
      <trkpt lat="45.82295" lon="5.79619">
        <ele>302.09</ele>
        <time>2016-05-05T12:45:27Z</time>
      </trkpt>
      <trkpt lat="45.8229" lon="5.79618">
        <ele>302.11</ele>
        <time>2016-05-05T12:45:28Z</time>
      </trkpt>
      <trkpt lat="45.82285" lon="5.79616">
        <ele>302.14</ele>
        <time>2016-05-05T12:45:29Z</time>
      </trkpt>
      <trkpt lat="45.82281" lon="5.79613">
        <ele>302.15</ele>
        <time>2016-05-05T12:45:30Z</time>
      </trkpt>
      <trkpt lat="45.82277" lon="5.79609">
        <ele>302.16</ele>
        <time>2016-05-05T12:45:31Z</time>
      </trkpt>
      <trkpt lat="45.82273" lon="5.79604">
        <ele>302.17</ele>
        <time>2016-05-05T12:45:32Z</time>
      </trkpt>
      <trkpt lat="45.8227" lon="5.79598">
        <ele>302.18</ele>
        <time>2016-05-05T12:45:33Z</time>
      </trkpt>
      <trkpt lat="45.82266" lon="5.79592">
        <ele>302.17</ele>
        <time>2016-05-05T12:45:34Z</time>
      </trkpt>
      <trkpt lat="45.82263" lon="5.79587">
        <ele>302.16</ele>
        <time>2016-05-05T12:45:35Z</time>
      </trkpt>
      <trkpt lat="45.82259" lon="5.79583">
        <ele>302.15</ele>
        <time>2016-05-05T12:45:36Z</time>
      </trkpt>
      <trkpt lat="45.82254" lon="5.79579">
        <ele>302.13</ele>
        <time>2016-05-05T12:45:37Z</time>
      </trkpt>
      <trkpt lat="45.8225" lon="5.79576">
        <ele>302.1</ele>
        <time>2016-05-05T12:45:38Z</time>
      </trkpt>
      <trkpt lat="45.82245" lon="5.79573">
        <ele>302.08</ele>
        <time>2016-05-05T12:45:39Z</time>
      </trkpt>
      <trkpt lat="45.82239" lon="5.79571">
        <ele>302.06</ele>
        <time>2016-05-05T12:45:40Z</time>
      </trkpt>
      <trkpt lat="45.82224" lon="5.79564">
        <ele>302.06</ele>
        <time>2016-05-05T12:45:43Z</time>
      </trkpt>
      <trkpt lat="45.82219" lon="5.7956">
        <ele>302.08</ele>
        <time>2016-05-05T12:45:44Z</time>
      </trkpt>
      <trkpt lat="45.82215" lon="5.79555">
        <ele>302.09</ele>
        <time>2016-05-05T12:45:45Z</time>
      </trkpt>
      <trkpt lat="45.82211" lon="5.79548">
        <ele>302.09</ele>
        <time>2016-05-05T12:45:46Z</time>
      </trkpt>
      <trkpt lat="45.82207" lon="5.79541">
        <ele>302.06</ele>
        <time>2016-05-05T12:45:47Z</time>
      </trkpt>
      <trkpt lat="45.82205" lon="5.79534">
        <ele>302.02</ele>
        <time>2016-05-05T12:45:48Z</time>
      </trkpt>
      <trkpt lat="45.82203" lon="5.79526">
        <ele>301.98</ele>
        <time>2016-05-05T12:45:49Z</time>
      </trkpt>
      <trkpt lat="45.82201" lon="5.79518">
        <ele>301.95</ele>
        <time>2016-05-05T12:45:50Z</time>
      </trkpt>
      <trkpt lat="45.82199" lon="5.7951">
        <ele>301.92</ele>
        <time>2016-05-05T12:45:51Z</time>
      </trkpt>
      <trkpt lat="45.82197" lon="5.79503">
        <ele>301.89</ele>
        <time>2016-05-05T12:45:52Z</time>
      </trkpt>
      <trkpt lat="45.82193" lon="5.79497">
        <ele>301.87</ele>
        <time>2016-05-05T12:45:53Z</time>
      </trkpt>
      <trkpt lat="45.82189" lon="5.79491">
        <ele>301.85</ele>
        <time>2016-05-05T12:45:54Z</time>
      </trkpt>
      <trkpt lat="45.82185" lon="5.79487">
        <ele>301.84</ele>
        <time>2016-05-05T12:45:55Z</time>
      </trkpt>
      <trkpt lat="45.82112" lon="5.79434">
        <ele>302.13</ele>
        <time>2016-05-05T12:46:09Z</time>
      </trkpt>
      <trkpt lat="45.82099" lon="5.79418">
        <ele>302.1</ele>
        <time>2016-05-05T12:46:12Z</time>
      </trkpt>
      <trkpt lat="45.82079" lon="5.79378">
        <ele>302.34</ele>
        <time>2016-05-05T12:46:18Z</time>
      </trkpt>
      <trkpt lat="45.82075" lon="5.79372">
        <ele>302.37</ele>
        <time>2016-05-05T12:46:19Z</time>
      </trkpt>
      <trkpt lat="45.8207" lon="5.79366">
        <ele>302.38</ele>
        <time>2016-05-05T12:46:20Z</time>
      </trkpt>
      <trkpt lat="45.82066" lon="5.79362">
        <ele>302.39</ele>
        <time>2016-05-05T12:46:21Z</time>
      </trkpt>
      <trkpt lat="45.82061" lon="5.79359">
        <ele>302.4</ele>
        <time>2016-05-05T12:46:22Z</time>
      </trkpt>
      <trkpt lat="45.82042" lon="5.79345">
        <ele>302.33</ele>
        <time>2016-05-05T12:46:26Z</time>
      </trkpt>
      <trkpt lat="45.81986" lon="5.79291">
        <ele>302.3</ele>
        <time>2016-05-05T12:46:38Z</time>
      </trkpt>
      <trkpt lat="45.81977" lon="5.79282">
        <ele>302.3</ele>
        <time>2016-05-05T12:46:40Z</time>
      </trkpt>
      <trkpt lat="45.81939" lon="5.79255">
        <ele>302.45</ele>
        <time>2016-05-05T12:46:48Z</time>
      </trkpt>
      <trkpt lat="45.81933" lon="5.79257">
        <ele>302.48</ele>
        <time>2016-05-05T12:46:49Z</time>
      </trkpt>
      <trkpt lat="45.81928" lon="5.7926">
        <ele>302.48</ele>
        <time>2016-05-05T12:46:50Z</time>
      </trkpt>
      <trkpt lat="45.81923" lon="5.79263">
        <ele>302.45</ele>
        <time>2016-05-05T12:46:51Z</time>
      </trkpt>
      <trkpt lat="45.81918" lon="5.79267">
        <ele>302.41</ele>
        <time>2016-05-05T12:46:52Z</time>
      </trkpt>
      <trkpt lat="45.81913" lon="5.7927">
        <ele>302.38</ele>
        <time>2016-05-05T12:46:53Z</time>
      </trkpt>
      <trkpt lat="45.81908" lon="5.79273">
        <ele>302.35</ele>
        <time>2016-05-05T12:46:54Z</time>
      </trkpt>
      <trkpt lat="45.81829" lon="5.79304">
        <ele>302.01</ele>
        <time>2016-05-05T12:47:09Z</time>
      </trkpt>
      <trkpt lat="45.81814" lon="5.79311">
        <ele>302.06</ele>
        <time>2016-05-05T12:47:12Z</time>
      </trkpt>
      <trkpt lat="45.81809" lon="5.79314">
        <ele>302.06</ele>
        <time>2016-05-05T12:47:13Z</time>
      </trkpt>
      <trkpt lat="45.81805" lon="5.79319">
        <ele>302.08</ele>
        <time>2016-05-05T12:47:14Z</time>
      </trkpt>
      <trkpt lat="45.81801" lon="5.79324">
        <ele>302.09</ele>
        <time>2016-05-05T12:47:15Z</time>
      </trkpt>
      <trkpt lat="45.81798" lon="5.7933">
        <ele>302.12</ele>
        <time>2016-05-05T12:47:16Z</time>
      </trkpt>
      <trkpt lat="45.81795" lon="5.79336">
        <ele>302.15</ele>
        <time>2016-05-05T12:47:17Z</time>
      </trkpt>
      <trkpt lat="45.81792" lon="5.79341">
        <ele>302.14</ele>
        <time>2016-05-05T12:47:18Z</time>
      </trkpt>
      <trkpt lat="45.81787" lon="5.79345">
        <ele>302.11</ele>
        <time>2016-05-05T12:47:19Z</time>
      </trkpt>
      <trkpt lat="45.81782" lon="5.79348">
        <ele>302.09</ele>
        <time>2016-05-05T12:47:20Z</time>
      </trkpt>
      <trkpt lat="45.81777" lon="5.7935">
        <ele>302</ele>
        <time>2016-05-05T12:47:21Z</time>
      </trkpt>
      <trkpt lat="45.81772" lon="5.79352">
        <ele>301.96</ele>
        <time>2016-05-05T12:47:22Z</time>
      </trkpt>
      <trkpt lat="45.81766" lon="5.79354">
        <ele>301.93</ele>
        <time>2016-05-05T12:47:23Z</time>
      </trkpt>
      <trkpt lat="45.81724" lon="5.79371">
        <ele>302.13</ele>
        <time>2016-05-05T12:47:31Z</time>
      </trkpt>
      <trkpt lat="45.81718" lon="5.79372">
        <ele>302.19</ele>
        <time>2016-05-05T12:47:32Z</time>
      </trkpt>
      <trkpt lat="45.81712" lon="5.79372">
        <ele>302.22</ele>
        <time>2016-05-05T12:47:33Z</time>
      </trkpt>
      <trkpt lat="45.81707" lon="5.79371">
        <ele>302.2</ele>
        <time>2016-05-05T12:47:34Z</time>
      </trkpt>
      <trkpt lat="45.81702" lon="5.7937">
        <ele>302.15</ele>
        <time>2016-05-05T12:47:35Z</time>
      </trkpt>
      <trkpt lat="45.81696" lon="5.79368">
        <ele>302.1</ele>
        <time>2016-05-05T12:47:36Z</time>
      </trkpt>
      <trkpt lat="45.8165" lon="5.79355">
        <ele>301.99</ele>
        <time>2016-05-05T12:47:45Z</time>
      </trkpt>
      <trkpt lat="45.81645" lon="5.79355">
        <ele>301.95</ele>
        <time>2016-05-05T12:47:46Z</time>
      </trkpt>
      <trkpt lat="45.8164" lon="5.79356">
        <ele>301.92</ele>
        <time>2016-05-05T12:47:47Z</time>
      </trkpt>
      <trkpt lat="45.81635" lon="5.79357">
        <ele>301.86</ele>
        <time>2016-05-05T12:47:48Z</time>
      </trkpt>
      <trkpt lat="45.8163" lon="5.79359">
        <ele>301.85</ele>
        <time>2016-05-05T12:47:49Z</time>
      </trkpt>
      <trkpt lat="45.81572" lon="5.79392">
        <ele>301.45</ele>
        <time>2016-05-05T12:48:02Z</time>
      </trkpt>
      <trkpt lat="45.81517" lon="5.79418">
        <ele>301.39</ele>
        <time>2016-05-05T12:48:14Z</time>
      </trkpt>
      <trkpt lat="45.81512" lon="5.79419">
        <ele>301.38</ele>
        <time>2016-05-05T12:48:15Z</time>
      </trkpt>
      <trkpt lat="45.81507" lon="5.7942">
        <ele>301.38</ele>
        <time>2016-05-05T12:48:16Z</time>
      </trkpt>
      <trkpt lat="45.81498" lon="5.79418">
        <ele>301.36</ele>
        <time>2016-05-05T12:48:18Z</time>
      </trkpt>
      <trkpt lat="45.81494" lon="5.79415">
        <ele>301.35</ele>
        <time>2016-05-05T12:48:19Z</time>
      </trkpt>
      <trkpt lat="45.8149" lon="5.7941">
        <ele>301.33</ele>
        <time>2016-05-05T12:48:20Z</time>
      </trkpt>
      <trkpt lat="45.81482" lon="5.794">
        <ele>301.27</ele>
        <time>2016-05-05T12:48:22Z</time>
      </trkpt>
      <trkpt lat="45.81477" lon="5.79397">
        <ele>301.23</ele>
        <time>2016-05-05T12:48:23Z</time>
      </trkpt>
      <trkpt lat="45.81473" lon="5.79394">
        <ele>301.19</ele>
        <time>2016-05-05T12:48:24Z</time>
      </trkpt>
      <trkpt lat="45.81435" lon="5.7937">
        <ele>301.49</ele>
        <time>2016-05-05T12:48:33Z</time>
      </trkpt>
      <trkpt lat="45.81432" lon="5.79365">
        <ele>301.52</ele>
        <time>2016-05-05T12:48:34Z</time>
      </trkpt>
      <trkpt lat="45.81429" lon="5.79361">
        <ele>301.55</ele>
        <time>2016-05-05T12:48:35Z</time>
      </trkpt>
      <trkpt lat="45.81396" lon="5.79335">
        <ele>301.58</ele>
        <time>2016-05-05T12:48:47Z</time>
      </trkpt>
      <trkpt lat="45.8138" lon="5.79366">
        <ele>301.41</ele>
        <time>2016-05-05T12:48:56Z</time>
      </trkpt>
      <trkpt lat="45.81332" lon="5.79463">
        <ele>301.7</ele>
        <time>2016-05-05T12:49:14Z</time>
      </trkpt>
      <trkpt lat="45.81314" lon="5.79501">
        <ele>301.75</ele>
        <time>2016-05-05T12:49:21Z</time>
      </trkpt>
      <trkpt lat="45.81277" lon="5.7953">
        <ele>301.51</ele>
        <time>2016-05-05T12:49:33Z</time>
      </trkpt>
      <trkpt lat="45.81232" lon="5.79536">
        <ele>301.67</ele>
        <time>2016-05-05T12:49:46Z</time>
      </trkpt>
      <trkpt lat="45.81198" lon="5.79526">
        <ele>302.55</ele>
        <time>2016-05-05T12:49:57Z</time>
      </trkpt>
      <trkpt lat="45.81172" lon="5.79513">
        <ele>304.04</ele>
        <time>2016-05-05T12:50:08Z</time>
      </trkpt>
      <trkpt lat="45.81143" lon="5.79504">
        <ele>305.72</ele>
        <time>2016-05-05T12:50:19Z</time>
      </trkpt>
      <trkpt lat="45.81104" lon="5.79499">
        <ele>307.1</ele>
        <time>2016-05-05T12:50:32Z</time>
      </trkpt>
      <trkpt lat="45.8106" lon="5.79507">
        <ele>308.09</ele>
        <time>2016-05-05T12:50:46Z</time>
      </trkpt>
      <trkpt lat="45.81041" lon="5.79504">
        <ele>308.13</ele>
        <time>2016-05-05T12:50:53Z</time>
      </trkpt>
      <trkpt lat="45.81033" lon="5.79492">
        <ele>308.24</ele>
        <time>2016-05-05T12:51:02Z</time>
      </trkpt>
      <trkpt lat="45.81032" lon="5.7949">
        <ele>308.26</ele>
        <time>2016-05-05T12:51:03Z</time>
      </trkpt>
      <trkpt lat="45.8103" lon="5.79487">
        <ele>308.23</ele>
        <time>2016-05-05T12:51:04Z</time>
      </trkpt>
      <trkpt lat="45.81028" lon="5.79485">
        <ele>308.21</ele>
        <time>2016-05-05T12:51:05Z</time>
      </trkpt>
      <trkpt lat="45.81026" lon="5.79482">
        <ele>308.17</ele>
        <time>2016-05-05T12:51:06Z</time>
      </trkpt>
      <trkpt lat="45.81023" lon="5.7948">
        <ele>308.11</ele>
        <time>2016-05-05T12:51:07Z</time>
      </trkpt>
      <trkpt lat="45.81019" lon="5.79478">
        <ele>308.05</ele>
        <time>2016-05-05T12:51:08Z</time>
      </trkpt>
      <trkpt lat="45.80984" lon="5.79469">
        <ele>307.44</ele>
        <time>2016-05-05T12:51:18Z</time>
      </trkpt>
      <trkpt lat="45.80946" lon="5.79453">
        <ele>306.85</ele>
        <time>2016-05-05T12:51:28Z</time>
      </trkpt>
      <trkpt lat="45.80927" lon="5.79436">
        <ele>306.57</ele>
        <time>2016-05-05T12:51:33Z</time>
      </trkpt>
      <trkpt lat="45.80924" lon="5.79433">
        <ele>306.51</ele>
        <time>2016-05-05T12:51:34Z</time>
      </trkpt>
      <trkpt lat="45.80912" lon="5.79417">
        <ele>306.16</ele>
        <time>2016-05-05T12:51:38Z</time>
      </trkpt>
      <trkpt lat="45.80907" lon="5.79405">
        <ele>306</ele>
        <time>2016-05-05T12:51:40Z</time>
      </trkpt>
      <trkpt lat="45.80906" lon="5.79399">
        <ele>305.95</ele>
        <time>2016-05-05T12:51:41Z</time>
      </trkpt>
      <trkpt lat="45.80905" lon="5.79391">
        <ele>305.88</ele>
        <time>2016-05-05T12:51:42Z</time>
      </trkpt>
      <trkpt lat="45.80906" lon="5.79383">
        <ele>305.82</ele>
        <time>2016-05-05T12:51:43Z</time>
      </trkpt>
      <trkpt lat="45.80906" lon="5.79374">
        <ele>305.74</ele>
        <time>2016-05-05T12:51:44Z</time>
      </trkpt>
      <trkpt lat="45.80906" lon="5.79366">
        <ele>305.65</ele>
        <time>2016-05-05T12:51:45Z</time>
      </trkpt>
      <trkpt lat="45.80908" lon="5.79357">
        <ele>305.53</ele>
        <time>2016-05-05T12:51:46Z</time>
      </trkpt>
      <trkpt lat="45.80912" lon="5.79311">
        <ele>304.67</ele>
        <time>2016-05-05T12:51:51Z</time>
      </trkpt>
      <trkpt lat="45.80912" lon="5.79303">
        <ele>304.4</ele>
        <time>2016-05-05T12:51:52Z</time>
      </trkpt>
      <trkpt lat="45.80913" lon="5.79295">
        <ele>304.08</ele>
        <time>2016-05-05T12:51:53Z</time>
      </trkpt>
      <trkpt lat="45.80913" lon="5.79287">
        <ele>303.49</ele>
        <time>2016-05-05T12:51:54Z</time>
      </trkpt>
      <trkpt lat="45.80912" lon="5.79279">
        <ele>303.21</ele>
        <time>2016-05-05T12:51:55Z</time>
      </trkpt>
      <trkpt lat="45.80911" lon="5.79272">
        <ele>302.93</ele>
        <time>2016-05-05T12:51:56Z</time>
      </trkpt>
      <trkpt lat="45.80908" lon="5.79257">
        <ele>302.45</ele>
        <time>2016-05-05T12:51:58Z</time>
      </trkpt>
      <trkpt lat="45.80906" lon="5.7925">
        <ele>302.26</ele>
        <time>2016-05-05T12:51:59Z</time>
      </trkpt>
      <trkpt lat="45.80901" lon="5.79237">
        <ele>301.99</ele>
        <time>2016-05-05T12:52:01Z</time>
      </trkpt>
      <trkpt lat="45.80899" lon="5.79231">
        <ele>301.9</ele>
        <time>2016-05-05T12:52:02Z</time>
      </trkpt>
      <trkpt lat="45.80897" lon="5.79224">
        <ele>301.81</ele>
        <time>2016-05-05T12:52:03Z</time>
      </trkpt>
      <trkpt lat="45.80896" lon="5.79218">
        <ele>301.75</ele>
        <time>2016-05-05T12:52:04Z</time>
      </trkpt>
      <trkpt lat="45.80894" lon="5.79211">
        <ele>301.69</ele>
        <time>2016-05-05T12:52:05Z</time>
      </trkpt>
      <trkpt lat="45.80893" lon="5.79204">
        <ele>301.67</ele>
        <time>2016-05-05T12:52:06Z</time>
      </trkpt>
      <trkpt lat="45.80888" lon="5.79186">
        <ele>301.64</ele>
        <time>2016-05-05T12:52:09Z</time>
      </trkpt>
      <trkpt lat="45.80877" lon="5.79116">
        <ele>301.62</ele>
        <time>2016-05-05T12:52:22Z</time>
      </trkpt>
      <trkpt lat="45.8089" lon="5.79061">
        <ele>301.58</ele>
        <time>2016-05-05T12:52:35Z</time>
      </trkpt>
      <trkpt lat="45.8091" lon="5.78987">
        <ele>301.51</ele>
        <time>2016-05-05T12:52:50Z</time>
      </trkpt>
      <trkpt lat="45.80925" lon="5.78926">
        <ele>301.67</ele>
        <time>2016-05-05T12:53:05Z</time>
      </trkpt>
      <trkpt lat="45.80931" lon="5.78896">
        <ele>303.11</ele>
        <time>2016-05-05T12:53:17Z</time>
      </trkpt>
      <trkpt lat="45.80931" lon="5.78894">
        <ele>303.24</ele>
        <time>2016-05-05T12:53:18Z</time>
      </trkpt>
      <trkpt lat="45.8093" lon="5.78892">
        <ele>303.35</ele>
        <time>2016-05-05T12:53:19Z</time>
      </trkpt>
      <trkpt lat="45.80927" lon="5.78879">
        <ele>303.82</ele>
        <time>2016-05-05T12:53:24Z</time>
      </trkpt>
      <trkpt lat="45.80926" lon="5.78878">
        <ele>303.9</ele>
        <time>2016-05-05T12:53:25Z</time>
      </trkpt>
      <trkpt lat="45.80925" lon="5.78879">
        <ele>303.97</ele>
        <time>2016-05-05T12:53:26Z</time>
      </trkpt>
      <trkpt lat="45.80925" lon="5.78881">
        <ele>304.02</ele>
        <time>2016-05-05T12:53:27Z</time>
      </trkpt>
      <trkpt lat="45.80926" lon="5.78884">
        <ele>304.02</ele>
        <time>2016-05-05T12:53:28Z</time>
      </trkpt>
      <trkpt lat="45.80926" lon="5.78887">
        <ele>304.02</ele>
        <time>2016-05-05T12:53:29Z</time>
      </trkpt>
      <trkpt lat="45.80927" lon="5.78891">
        <ele>303.99</ele>
        <time>2016-05-05T12:53:30Z</time>
      </trkpt>
      <trkpt lat="45.80927" lon="5.78894">
        <ele>303.96</ele>
        <time>2016-05-05T12:53:31Z</time>
      </trkpt>
      <trkpt lat="45.80927" lon="5.78897">
        <ele>303.91</ele>
        <time>2016-05-05T12:53:32Z</time>
      </trkpt>
      <trkpt lat="45.80926" lon="5.789">
        <ele>303.9</ele>
        <time>2016-05-05T12:53:33Z</time>
      </trkpt>
      <trkpt lat="45.80926" lon="5.78903">
        <ele>303.88</ele>
        <time>2016-05-05T12:53:34Z</time>
      </trkpt>
      <trkpt lat="45.80925" lon="5.78906">
        <ele>303.86</ele>
        <time>2016-05-05T12:53:35Z</time>
      </trkpt>
      <trkpt lat="45.80923" lon="5.78909">
        <ele>303.82</ele>
        <time>2016-05-05T12:53:36Z</time>
      </trkpt>
      <trkpt lat="45.80921" lon="5.78913">
        <ele>303.76</ele>
        <time>2016-05-05T12:53:37Z</time>
      </trkpt>
      <trkpt lat="45.80918" lon="5.78915">
        <ele>303.68</ele>
        <time>2016-05-05T12:53:38Z</time>
      </trkpt>
      <trkpt lat="45.80916" lon="5.78916">
        <ele>303.6</ele>
        <time>2016-05-05T12:53:39Z</time>
      </trkpt>
      <trkpt lat="45.80914" lon="5.78916">
        <ele>303.52</ele>
        <time>2016-05-05T12:53:40Z</time>
      </trkpt>
      <trkpt lat="45.80912" lon="5.78917">
        <ele>303.47</ele>
        <time>2016-05-05T12:53:41Z</time>
      </trkpt>
      <trkpt lat="45.80894" lon="5.78939">
        <ele>306.22</ele>
        <time>2016-05-05T12:53:55Z</time>
      </trkpt>
      <trkpt lat="45.80886" lon="5.78952">
        <ele>308.37</ele>
        <time>2016-05-05T12:54:03Z</time>
      </trkpt>
      <trkpt lat="45.80885" lon="5.78956">
        <ele>309.17</ele>
        <time>2016-05-05T12:54:06Z</time>
      </trkpt>
      <trkpt lat="45.80878" lon="5.78956">
        <ele>311.04</ele>
        <time>2016-05-05T12:54:19Z</time>
      </trkpt>
      <trkpt lat="45.80876" lon="5.78953">
        <ele>312.03</ele>
        <time>2016-05-05T12:54:38Z</time>
      </trkpt>
      <trkpt lat="45.80874" lon="5.7895">
        <ele>311.9</ele>
        <time>2016-05-05T12:55:09Z</time>
      </trkpt>
      <trkpt lat="45.8087" lon="5.78951">
        <ele>312.41</ele>
        <time>2016-05-05T12:55:32Z</time>
      </trkpt>
      <trkpt lat="45.80862" lon="5.78951">
        <ele>314.97</ele>
        <time>2016-05-05T12:55:54Z</time>
      </trkpt>
      <trkpt lat="45.80864" lon="5.78946">
        <ele>315.18</ele>
        <time>2016-05-05T12:56:21Z</time>
      </trkpt>
    </trkseg>
  </trk>
</gpx>